<?xml version="1.0" encoding="UTF-8" standalone="no" ?>
<gpx xmlns="http://www.topografix.com/GPX/1/1" xmlns:xsi="http://www.w3.org/2001/XMLSchema-instance" xsi:schemaLocation="http://www.topografix.com/GPX/1/1 http://www.topografix.com/GPX/1/1/gpx.xsd" version="1.1" creator="VisuGPX - https://www.visugpx.com">
  <metadata>
    <name>Pragondran   Mery un  samedi matin</name>
    <desc><![CDATA[Pragondran   Mery un  samedi matin]]></desc>
  </metadata>
  <trk>
    <name><![CDATA[Pragondran   Mery un  samedi matin_1]]></name>
    <trkseg>
      <trkpt lat="45.57707" lon="5.93926">
        <ele>293.4</ele>
        <time>2014-06-28T06:43:13.000Z</time>
      </trkpt>
      <trkpt lat="45.57721" lon="5.93938">
        <ele>293.8</ele>
        <time>2014-06-28T06:43:16.000Z</time>
      </trkpt>
      <trkpt lat="45.5773" lon="5.93949">
        <ele>293.8</ele>
        <time>2014-06-28T06:43:23.000Z</time>
      </trkpt>
      <trkpt lat="45.57748" lon="5.9396">
        <ele>293.8</ele>
        <time>2014-06-28T06:43:28.000Z</time>
      </trkpt>
      <trkpt lat="45.57763" lon="5.93959">
        <ele>293.8</ele>
        <time>2014-06-28T06:43:32.000Z</time>
      </trkpt>
      <trkpt lat="45.57769" lon="5.93963">
        <ele>293.8</ele>
        <time>2014-06-28T06:43:34.000Z</time>
      </trkpt>
      <trkpt lat="45.57771" lon="5.93967">
        <ele>293.8</ele>
        <time>2014-06-28T06:43:35.000Z</time>
      </trkpt>
      <trkpt lat="45.57772" lon="5.93985">
        <ele>293.8</ele>
        <time>2014-06-28T06:43:42.000Z</time>
      </trkpt>
      <trkpt lat="45.57773" lon="5.93988">
        <ele>293.8</ele>
        <time>2014-06-28T06:43:43.000Z</time>
      </trkpt>
      <trkpt lat="45.57776" lon="5.9399">
        <ele>293.8</ele>
        <time>2014-06-28T06:43:44.000Z</time>
      </trkpt>
      <trkpt lat="45.57802" lon="5.93993">
        <ele>294.2</ele>
        <time>2014-06-28T06:43:51.000Z</time>
      </trkpt>
      <trkpt lat="45.5782" lon="5.93992">
        <ele>296</ele>
        <time>2014-06-28T06:43:55.000Z</time>
      </trkpt>
      <trkpt lat="45.57836" lon="5.93992">
        <ele>296</ele>
        <time>2014-06-28T06:43:59.000Z</time>
      </trkpt>
      <trkpt lat="45.57844" lon="5.93993">
        <ele>296</ele>
        <time>2014-06-28T06:44:01.000Z</time>
      </trkpt>
      <trkpt lat="45.57857" lon="5.93996">
        <ele>296</ele>
        <time>2014-06-28T06:44:04.000Z</time>
      </trkpt>
      <trkpt lat="45.57873" lon="5.94009">
        <ele>297.6</ele>
        <time>2014-06-28T06:44:08.000Z</time>
      </trkpt>
      <trkpt lat="45.57919" lon="5.94068">
        <ele>298.4</ele>
        <time>2014-06-28T06:44:23.000Z</time>
      </trkpt>
      <trkpt lat="45.57925" lon="5.94077">
        <ele>299.6</ele>
        <time>2014-06-28T06:44:25.000Z</time>
      </trkpt>
      <trkpt lat="45.5795" lon="5.94119">
        <ele>300</ele>
        <time>2014-06-28T06:44:34.000Z</time>
      </trkpt>
      <trkpt lat="45.57953" lon="5.94124">
        <ele>300</ele>
        <time>2014-06-28T06:44:35.000Z</time>
      </trkpt>
      <trkpt lat="45.57967" lon="5.94147">
        <ele>300.8</ele>
        <time>2014-06-28T06:44:40.000Z</time>
      </trkpt>
      <trkpt lat="45.57975" lon="5.94153">
        <ele>301.8</ele>
        <time>2014-06-28T06:44:42.000Z</time>
      </trkpt>
      <trkpt lat="45.57979" lon="5.94156">
        <ele>302.2</ele>
        <time>2014-06-28T06:44:43.000Z</time>
      </trkpt>
      <trkpt lat="45.5805" lon="5.94217">
        <ele>307.6</ele>
        <time>2014-06-28T06:45:06.000Z</time>
      </trkpt>
      <trkpt lat="45.58055" lon="5.94223">
        <ele>308.4</ele>
        <time>2014-06-28T06:45:08.000Z</time>
      </trkpt>
      <trkpt lat="45.58067" lon="5.94243">
        <ele>308.4</ele>
        <time>2014-06-28T06:45:13.000Z</time>
      </trkpt>
      <trkpt lat="45.58123" lon="5.94414">
        <ele>308.4</ele>
        <time>2014-06-28T06:45:42.000Z</time>
      </trkpt>
      <trkpt lat="45.58133" lon="5.94425">
        <ele>308.4</ele>
        <time>2014-06-28T06:45:45.000Z</time>
      </trkpt>
      <trkpt lat="45.58209" lon="5.94413">
        <ele>310.6</ele>
        <time>2014-06-28T06:46:02.000Z</time>
      </trkpt>
      <trkpt lat="45.5845" lon="5.94423">
        <ele>320.8</ele>
        <time>2014-06-28T06:46:54.000Z</time>
      </trkpt>
      <trkpt lat="45.5847" lon="5.94419">
        <ele>321.2</ele>
        <time>2014-06-28T06:46:58.000Z</time>
      </trkpt>
      <trkpt lat="45.5857" lon="5.94418">
        <ele>326.8</ele>
        <time>2014-06-28T06:47:16.000Z</time>
      </trkpt>
      <trkpt lat="45.58603" lon="5.94428">
        <ele>328.6</ele>
        <time>2014-06-28T06:47:22.000Z</time>
      </trkpt>
      <trkpt lat="45.58708" lon="5.94445">
        <ele>333.8</ele>
        <time>2014-06-28T06:47:43.000Z</time>
      </trkpt>
      <trkpt lat="45.58729" lon="5.94454">
        <ele>335</ele>
        <time>2014-06-28T06:47:48.000Z</time>
      </trkpt>
      <trkpt lat="45.58743" lon="5.94462">
        <ele>336.2</ele>
        <time>2014-06-28T06:47:52.000Z</time>
      </trkpt>
      <trkpt lat="45.58754" lon="5.94465">
        <ele>337.4</ele>
        <time>2014-06-28T06:47:55.000Z</time>
      </trkpt>
      <trkpt lat="45.58758" lon="5.94467">
        <ele>338</ele>
        <time>2014-06-28T06:47:56.000Z</time>
      </trkpt>
      <trkpt lat="45.58763" lon="5.94468">
        <ele>338</ele>
        <time>2014-06-28T06:47:57.000Z</time>
      </trkpt>
      <trkpt lat="45.58775" lon="5.94468">
        <ele>338</ele>
        <time>2014-06-28T06:48:00.000Z</time>
      </trkpt>
      <trkpt lat="45.58797" lon="5.94474">
        <ele>339.6</ele>
        <time>2014-06-28T06:48:05.000Z</time>
      </trkpt>
      <trkpt lat="45.58801" lon="5.94475">
        <ele>340</ele>
        <time>2014-06-28T06:48:06.000Z</time>
      </trkpt>
      <trkpt lat="45.58809" lon="5.94474">
        <ele>340</ele>
        <time>2014-06-28T06:48:08.000Z</time>
      </trkpt>
      <trkpt lat="45.58818" lon="5.94472">
        <ele>340</ele>
        <time>2014-06-28T06:48:10.000Z</time>
      </trkpt>
      <trkpt lat="45.58827" lon="5.94468">
        <ele>340</ele>
        <time>2014-06-28T06:48:12.000Z</time>
      </trkpt>
      <trkpt lat="45.58859" lon="5.94447">
        <ele>341.6</ele>
        <time>2014-06-28T06:48:20.000Z</time>
      </trkpt>
      <trkpt lat="45.58862" lon="5.94446">
        <ele>342</ele>
        <time>2014-06-28T06:48:21.000Z</time>
      </trkpt>
      <trkpt lat="45.5887" lon="5.94446">
        <ele>342.6</ele>
        <time>2014-06-28T06:48:24.000Z</time>
      </trkpt>
      <trkpt lat="45.58873" lon="5.94446">
        <ele>343</ele>
        <time>2014-06-28T06:48:25.000Z</time>
      </trkpt>
      <trkpt lat="45.58875" lon="5.94447">
        <ele>343.4</ele>
        <time>2014-06-28T06:48:26.000Z</time>
      </trkpt>
      <trkpt lat="45.58908" lon="5.94464">
        <ele>347.6</ele>
        <time>2014-06-28T06:48:41.000Z</time>
      </trkpt>
      <trkpt lat="45.5891" lon="5.94465">
        <ele>348</ele>
        <time>2014-06-28T06:48:42.000Z</time>
      </trkpt>
      <trkpt lat="45.58912" lon="5.94466">
        <ele>348.4</ele>
        <time>2014-06-28T06:48:43.000Z</time>
      </trkpt>
      <trkpt lat="45.58914" lon="5.94467">
        <ele>349</ele>
        <time>2014-06-28T06:48:44.000Z</time>
      </trkpt>
      <trkpt lat="45.58921" lon="5.94472">
        <ele>349.4</ele>
        <time>2014-06-28T06:48:47.000Z</time>
      </trkpt>
      <trkpt lat="45.58927" lon="5.94479">
        <ele>350.2</ele>
        <time>2014-06-28T06:48:49.000Z</time>
      </trkpt>
      <trkpt lat="45.5895" lon="5.94509">
        <ele>352.8</ele>
        <time>2014-06-28T06:48:57.000Z</time>
      </trkpt>
      <trkpt lat="45.58967" lon="5.94537">
        <ele>355.4</ele>
        <time>2014-06-28T06:49:05.000Z</time>
      </trkpt>
      <trkpt lat="45.58968" lon="5.94547">
        <ele>355.8</ele>
        <time>2014-06-28T06:49:08.000Z</time>
      </trkpt>
      <trkpt lat="45.58969" lon="5.94549">
        <ele>356.2</ele>
        <time>2014-06-28T06:49:09.000Z</time>
      </trkpt>
      <trkpt lat="45.5897" lon="5.94552">
        <ele>357</ele>
        <time>2014-06-28T06:49:11.000Z</time>
      </trkpt>
      <trkpt lat="45.58972" lon="5.94554">
        <ele>357.4</ele>
        <time>2014-06-28T06:49:12.000Z</time>
      </trkpt>
      <trkpt lat="45.58979" lon="5.94559">
        <ele>357.8</ele>
        <time>2014-06-28T06:49:16.000Z</time>
      </trkpt>
      <trkpt lat="45.5898" lon="5.9456">
        <ele>358.2</ele>
        <time>2014-06-28T06:49:17.000Z</time>
      </trkpt>
      <trkpt lat="45.58984" lon="5.94561">
        <ele>359.6</ele>
        <time>2014-06-28T06:49:19.000Z</time>
      </trkpt>
      <trkpt lat="45.58995" lon="5.94563">
        <ele>360.4</ele>
        <time>2014-06-28T06:49:24.000Z</time>
      </trkpt>
      <trkpt lat="45.59004" lon="5.94562">
        <ele>361.8</ele>
        <time>2014-06-28T06:49:27.000Z</time>
      </trkpt>
      <trkpt lat="45.59008" lon="5.9456">
        <ele>361.8</ele>
        <time>2014-06-28T06:49:29.000Z</time>
      </trkpt>
      <trkpt lat="45.59019" lon="5.94559">
        <ele>363</ele>
        <time>2014-06-28T06:49:33.000Z</time>
      </trkpt>
      <trkpt lat="45.59021" lon="5.94558">
        <ele>363.4</ele>
        <time>2014-06-28T06:49:34.000Z</time>
      </trkpt>
      <trkpt lat="45.59024" lon="5.94556">
        <ele>363.8</ele>
        <time>2014-06-28T06:49:35.000Z</time>
      </trkpt>
      <trkpt lat="45.59036" lon="5.94554">
        <ele>364.2</ele>
        <time>2014-06-28T06:49:39.000Z</time>
      </trkpt>
      <trkpt lat="45.59039" lon="5.94555">
        <ele>364.6</ele>
        <time>2014-06-28T06:49:40.000Z</time>
      </trkpt>
      <trkpt lat="45.59045" lon="5.94555">
        <ele>365.4</ele>
        <time>2014-06-28T06:49:42.000Z</time>
      </trkpt>
      <trkpt lat="45.59048" lon="5.94554">
        <ele>365.8</ele>
        <time>2014-06-28T06:49:43.000Z</time>
      </trkpt>
      <trkpt lat="45.59058" lon="5.94554">
        <ele>366.2</ele>
        <time>2014-06-28T06:49:46.000Z</time>
      </trkpt>
      <trkpt lat="45.59061" lon="5.94554">
        <ele>366.6</ele>
        <time>2014-06-28T06:49:47.000Z</time>
      </trkpt>
      <trkpt lat="45.59065" lon="5.94554">
        <ele>367</ele>
        <time>2014-06-28T06:49:48.000Z</time>
      </trkpt>
      <trkpt lat="45.59068" lon="5.94553">
        <ele>367.4</ele>
        <time>2014-06-28T06:49:49.000Z</time>
      </trkpt>
      <trkpt lat="45.5907" lon="5.94554">
        <ele>367.8</ele>
        <time>2014-06-28T06:49:50.000Z</time>
      </trkpt>
      <trkpt lat="45.59086" lon="5.94551">
        <ele>368.6</ele>
        <time>2014-06-28T06:49:56.000Z</time>
      </trkpt>
      <trkpt lat="45.5909" lon="5.9455">
        <ele>369.4</ele>
        <time>2014-06-28T06:49:58.000Z</time>
      </trkpt>
      <trkpt lat="45.59091" lon="5.9455">
        <ele>369.8</ele>
        <time>2014-06-28T06:49:59.000Z</time>
      </trkpt>
      <trkpt lat="45.591" lon="5.94544">
        <ele>369.8</ele>
        <time>2014-06-28T06:50:03.000Z</time>
      </trkpt>
      <trkpt lat="45.59114" lon="5.94538">
        <ele>371</ele>
        <time>2014-06-28T06:50:09.000Z</time>
      </trkpt>
      <trkpt lat="45.59119" lon="5.94538">
        <ele>371.8</ele>
        <time>2014-06-28T06:50:11.000Z</time>
      </trkpt>
      <trkpt lat="45.59139" lon="5.94543">
        <ele>371.8</ele>
        <time>2014-06-28T06:50:18.000Z</time>
      </trkpt>
      <trkpt lat="45.59147" lon="5.94548">
        <ele>372.4</ele>
        <time>2014-06-28T06:50:21.000Z</time>
      </trkpt>
      <trkpt lat="45.59154" lon="5.94552">
        <ele>373.6</ele>
        <time>2014-06-28T06:50:24.000Z</time>
      </trkpt>
      <trkpt lat="45.59157" lon="5.94553">
        <ele>374</ele>
        <time>2014-06-28T06:50:25.000Z</time>
      </trkpt>
      <trkpt lat="45.59171" lon="5.9456">
        <ele>374</ele>
        <time>2014-06-28T06:50:31.000Z</time>
      </trkpt>
      <trkpt lat="45.59181" lon="5.94567">
        <ele>374.4</ele>
        <time>2014-06-28T06:50:35.000Z</time>
      </trkpt>
      <trkpt lat="45.59184" lon="5.9457">
        <ele>374.8</ele>
        <time>2014-06-28T06:50:36.000Z</time>
      </trkpt>
      <trkpt lat="45.59187" lon="5.94572">
        <ele>375.2</ele>
        <time>2014-06-28T06:50:37.000Z</time>
      </trkpt>
      <trkpt lat="45.59189" lon="5.94574">
        <ele>375.8</ele>
        <time>2014-06-28T06:50:38.000Z</time>
      </trkpt>
      <trkpt lat="45.59192" lon="5.94576">
        <ele>376.2</ele>
        <time>2014-06-28T06:50:39.000Z</time>
      </trkpt>
      <trkpt lat="45.59201" lon="5.94582">
        <ele>376.2</ele>
        <time>2014-06-28T06:50:43.000Z</time>
      </trkpt>
      <trkpt lat="45.59217" lon="5.9459">
        <ele>377.4</ele>
        <time>2014-06-28T06:50:50.000Z</time>
      </trkpt>
      <trkpt lat="45.5922" lon="5.9459">
        <ele>377.8</ele>
        <time>2014-06-28T06:50:51.000Z</time>
      </trkpt>
      <trkpt lat="45.5923" lon="5.94593">
        <ele>378.2</ele>
        <time>2014-06-28T06:50:55.000Z</time>
      </trkpt>
      <trkpt lat="45.59239" lon="5.94595">
        <ele>379</ele>
        <time>2014-06-28T06:50:58.000Z</time>
      </trkpt>
      <trkpt lat="45.59242" lon="5.94596">
        <ele>379.4</ele>
        <time>2014-06-28T06:50:59.000Z</time>
      </trkpt>
      <trkpt lat="45.59244" lon="5.94596">
        <ele>379.8</ele>
        <time>2014-06-28T06:51:00.000Z</time>
      </trkpt>
      <trkpt lat="45.59247" lon="5.94598">
        <ele>380.2</ele>
        <time>2014-06-28T06:51:01.000Z</time>
      </trkpt>
      <trkpt lat="45.5925" lon="5.94598">
        <ele>380.2</ele>
        <time>2014-06-28T06:51:02.000Z</time>
      </trkpt>
      <trkpt lat="45.59262" lon="5.94603">
        <ele>380.6</ele>
        <time>2014-06-28T06:51:07.000Z</time>
      </trkpt>
      <trkpt lat="45.5927" lon="5.94604">
        <ele>381.8</ele>
        <time>2014-06-28T06:51:10.000Z</time>
      </trkpt>
      <trkpt lat="45.59272" lon="5.94605">
        <ele>382.2</ele>
        <time>2014-06-28T06:51:11.000Z</time>
      </trkpt>
      <trkpt lat="45.59283" lon="5.94605">
        <ele>382.2</ele>
        <time>2014-06-28T06:51:15.000Z</time>
      </trkpt>
      <trkpt lat="45.59286" lon="5.94605">
        <ele>382.6</ele>
        <time>2014-06-28T06:51:16.000Z</time>
      </trkpt>
      <trkpt lat="45.59288" lon="5.94604">
        <ele>383</ele>
        <time>2014-06-28T06:51:17.000Z</time>
      </trkpt>
      <trkpt lat="45.59295" lon="5.946">
        <ele>384.2</ele>
        <time>2014-06-28T06:51:20.000Z</time>
      </trkpt>
      <trkpt lat="45.59306" lon="5.946">
        <ele>384.6</ele>
        <time>2014-06-28T06:51:24.000Z</time>
      </trkpt>
      <trkpt lat="45.59309" lon="5.94599">
        <ele>385</ele>
        <time>2014-06-28T06:51:25.000Z</time>
      </trkpt>
      <trkpt lat="45.59311" lon="5.94599">
        <ele>385.4</ele>
        <time>2014-06-28T06:51:26.000Z</time>
      </trkpt>
      <trkpt lat="45.59314" lon="5.94598">
        <ele>386</ele>
        <time>2014-06-28T06:51:27.000Z</time>
      </trkpt>
      <trkpt lat="45.59316" lon="5.94598">
        <ele>386.4</ele>
        <time>2014-06-28T06:51:28.000Z</time>
      </trkpt>
      <trkpt lat="45.59331" lon="5.94592">
        <ele>387.6</ele>
        <time>2014-06-28T06:51:35.000Z</time>
      </trkpt>
      <trkpt lat="45.59333" lon="5.94592">
        <ele>388</ele>
        <time>2014-06-28T06:51:36.000Z</time>
      </trkpt>
      <trkpt lat="45.59335" lon="5.94592">
        <ele>388.6</ele>
        <time>2014-06-28T06:51:37.000Z</time>
      </trkpt>
      <trkpt lat="45.59341" lon="5.94592">
        <ele>388.6</ele>
        <time>2014-06-28T06:51:40.000Z</time>
      </trkpt>
      <trkpt lat="45.59347" lon="5.94591">
        <ele>389</ele>
        <time>2014-06-28T06:51:43.000Z</time>
      </trkpt>
      <trkpt lat="45.5935" lon="5.94591">
        <ele>389.4</ele>
        <time>2014-06-28T06:51:44.000Z</time>
      </trkpt>
      <trkpt lat="45.59357" lon="5.94592">
        <ele>390.6</ele>
        <time>2014-06-28T06:51:47.000Z</time>
      </trkpt>
      <trkpt lat="45.59365" lon="5.94594">
        <ele>391</ele>
        <time>2014-06-28T06:51:51.000Z</time>
      </trkpt>
      <trkpt lat="45.59367" lon="5.94595">
        <ele>391.4</ele>
        <time>2014-06-28T06:51:52.000Z</time>
      </trkpt>
      <trkpt lat="45.59369" lon="5.94595">
        <ele>391.8</ele>
        <time>2014-06-28T06:51:53.000Z</time>
      </trkpt>
      <trkpt lat="45.59374" lon="5.94597">
        <ele>392.8</ele>
        <time>2014-06-28T06:51:55.000Z</time>
      </trkpt>
      <trkpt lat="45.59382" lon="5.94604">
        <ele>393.2</ele>
        <time>2014-06-28T06:51:59.000Z</time>
      </trkpt>
      <trkpt lat="45.59384" lon="5.94606">
        <ele>393.6</ele>
        <time>2014-06-28T06:52:00.000Z</time>
      </trkpt>
      <trkpt lat="45.59386" lon="5.94608">
        <ele>394</ele>
        <time>2014-06-28T06:52:01.000Z</time>
      </trkpt>
      <trkpt lat="45.59388" lon="5.9461">
        <ele>394.4</ele>
        <time>2014-06-28T06:52:02.000Z</time>
      </trkpt>
      <trkpt lat="45.59389" lon="5.94612">
        <ele>394.8</ele>
        <time>2014-06-28T06:52:03.000Z</time>
      </trkpt>
      <trkpt lat="45.59397" lon="5.94616">
        <ele>395.2</ele>
        <time>2014-06-28T06:52:07.000Z</time>
      </trkpt>
      <trkpt lat="45.59401" lon="5.94616">
        <ele>396</ele>
        <time>2014-06-28T06:52:09.000Z</time>
      </trkpt>
      <trkpt lat="45.59403" lon="5.94616">
        <ele>396.4</ele>
        <time>2014-06-28T06:52:10.000Z</time>
      </trkpt>
      <trkpt lat="45.59405" lon="5.94616">
        <ele>396.8</ele>
        <time>2014-06-28T06:52:11.000Z</time>
      </trkpt>
      <trkpt lat="45.59407" lon="5.94615">
        <ele>396.8</ele>
        <time>2014-06-28T06:52:12.000Z</time>
      </trkpt>
      <trkpt lat="45.5941" lon="5.94613">
        <ele>396.8</ele>
        <time>2014-06-28T06:52:14.000Z</time>
      </trkpt>
      <trkpt lat="45.59412" lon="5.94613">
        <ele>396.8</ele>
        <time>2014-06-28T06:52:15.000Z</time>
      </trkpt>
      <trkpt lat="45.59414" lon="5.94613">
        <ele>397.2</ele>
        <time>2014-06-28T06:52:16.000Z</time>
      </trkpt>
      <trkpt lat="45.59416" lon="5.94612">
        <ele>397.6</ele>
        <time>2014-06-28T06:52:17.000Z</time>
      </trkpt>
      <trkpt lat="45.5942" lon="5.94611">
        <ele>398.6</ele>
        <time>2014-06-28T06:52:19.000Z</time>
      </trkpt>
      <trkpt lat="45.59422" lon="5.9461">
        <ele>399</ele>
        <time>2014-06-28T06:52:20.000Z</time>
      </trkpt>
      <trkpt lat="45.59429" lon="5.94606">
        <ele>399.4</ele>
        <time>2014-06-28T06:52:24.000Z</time>
      </trkpt>
      <trkpt lat="45.59433" lon="5.94604">
        <ele>400.2</ele>
        <time>2014-06-28T06:52:26.000Z</time>
      </trkpt>
      <trkpt lat="45.59435" lon="5.94603">
        <ele>400.6</ele>
        <time>2014-06-28T06:52:27.000Z</time>
      </trkpt>
      <trkpt lat="45.59437" lon="5.94601">
        <ele>401</ele>
        <time>2014-06-28T06:52:28.000Z</time>
      </trkpt>
      <trkpt lat="45.59445" lon="5.94597">
        <ele>401.8</ele>
        <time>2014-06-28T06:52:32.000Z</time>
      </trkpt>
      <trkpt lat="45.59448" lon="5.94596">
        <ele>402.2</ele>
        <time>2014-06-28T06:52:33.000Z</time>
      </trkpt>
      <trkpt lat="45.5946" lon="5.94589">
        <ele>404.4</ele>
        <time>2014-06-28T06:52:39.000Z</time>
      </trkpt>
      <trkpt lat="45.59464" lon="5.94586">
        <ele>405.4</ele>
        <time>2014-06-28T06:52:41.000Z</time>
      </trkpt>
      <trkpt lat="45.5947" lon="5.9458">
        <ele>405.8</ele>
        <time>2014-06-28T06:52:44.000Z</time>
      </trkpt>
      <trkpt lat="45.59483" lon="5.94555">
        <ele>408</ele>
        <time>2014-06-28T06:52:53.000Z</time>
      </trkpt>
      <trkpt lat="45.59485" lon="5.94549">
        <ele>408.8</ele>
        <time>2014-06-28T06:52:55.000Z</time>
      </trkpt>
      <trkpt lat="45.59487" lon="5.94547">
        <ele>409.2</ele>
        <time>2014-06-28T06:52:56.000Z</time>
      </trkpt>
      <trkpt lat="45.59488" lon="5.94544">
        <ele>409.6</ele>
        <time>2014-06-28T06:52:57.000Z</time>
      </trkpt>
      <trkpt lat="45.59515" lon="5.94459">
        <ele>413.4</ele>
        <time>2014-06-28T06:53:22.000Z</time>
      </trkpt>
      <trkpt lat="45.59516" lon="5.94455">
        <ele>413.8</ele>
        <time>2014-06-28T06:53:23.000Z</time>
      </trkpt>
      <trkpt lat="45.5952" lon="5.94438">
        <ele>413.8</ele>
        <time>2014-06-28T06:53:27.000Z</time>
      </trkpt>
      <trkpt lat="45.59532" lon="5.94408">
        <ele>413.8</ele>
        <time>2014-06-28T06:53:34.000Z</time>
      </trkpt>
      <trkpt lat="45.59547" lon="5.94394">
        <ele>413.8</ele>
        <time>2014-06-28T06:53:39.000Z</time>
      </trkpt>
      <trkpt lat="45.5959" lon="5.94387">
        <ele>413.8</ele>
        <time>2014-06-28T06:53:51.000Z</time>
      </trkpt>
      <trkpt lat="45.5962" lon="5.94378">
        <ele>413.8</ele>
        <time>2014-06-28T06:53:59.000Z</time>
      </trkpt>
      <trkpt lat="45.59631" lon="5.94377">
        <ele>414.6</ele>
        <time>2014-06-28T06:54:02.000Z</time>
      </trkpt>
      <trkpt lat="45.59635" lon="5.94376">
        <ele>415</ele>
        <time>2014-06-28T06:54:03.000Z</time>
      </trkpt>
      <trkpt lat="45.59638" lon="5.94375">
        <ele>415.4</ele>
        <time>2014-06-28T06:54:04.000Z</time>
      </trkpt>
      <trkpt lat="45.59641" lon="5.94375">
        <ele>415.8</ele>
        <time>2014-06-28T06:54:05.000Z</time>
      </trkpt>
      <trkpt lat="45.59664" lon="5.94366">
        <ele>415.8</ele>
        <time>2014-06-28T06:54:11.000Z</time>
      </trkpt>
      <trkpt lat="45.59675" lon="5.94364">
        <ele>415.8</ele>
        <time>2014-06-28T06:54:14.000Z</time>
      </trkpt>
      <trkpt lat="45.59695" lon="5.94366">
        <ele>416.4</ele>
        <time>2014-06-28T06:54:19.000Z</time>
      </trkpt>
      <trkpt lat="45.59699" lon="5.94367">
        <ele>416.8</ele>
        <time>2014-06-28T06:54:20.000Z</time>
      </trkpt>
      <trkpt lat="45.59707" lon="5.9437">
        <ele>417.6</ele>
        <time>2014-06-28T06:54:22.000Z</time>
      </trkpt>
      <trkpt lat="45.59711" lon="5.94371">
        <ele>418</ele>
        <time>2014-06-28T06:54:23.000Z</time>
      </trkpt>
      <trkpt lat="45.59735" lon="5.94389">
        <ele>418.4</ele>
        <time>2014-06-28T06:54:30.000Z</time>
      </trkpt>
      <trkpt lat="45.59746" lon="5.94394">
        <ele>419.6</ele>
        <time>2014-06-28T06:54:33.000Z</time>
      </trkpt>
      <trkpt lat="45.59749" lon="5.94394">
        <ele>420</ele>
        <time>2014-06-28T06:54:34.000Z</time>
      </trkpt>
      <trkpt lat="45.5976" lon="5.94392">
        <ele>420</ele>
        <time>2014-06-28T06:54:37.000Z</time>
      </trkpt>
      <trkpt lat="45.59785" lon="5.94379">
        <ele>421</ele>
        <time>2014-06-28T06:54:44.000Z</time>
      </trkpt>
      <trkpt lat="45.59852" lon="5.94333">
        <ele>425.8</ele>
        <time>2014-06-28T06:55:07.000Z</time>
      </trkpt>
      <trkpt lat="45.59874" lon="5.94315">
        <ele>428.4</ele>
        <time>2014-06-28T06:55:17.000Z</time>
      </trkpt>
      <trkpt lat="45.59891" lon="5.94306">
        <ele>429.2</ele>
        <time>2014-06-28T06:55:24.000Z</time>
      </trkpt>
      <trkpt lat="45.59893" lon="5.94305">
        <ele>429.6</ele>
        <time>2014-06-28T06:55:25.000Z</time>
      </trkpt>
      <trkpt lat="45.59897" lon="5.94302">
        <ele>430.6</ele>
        <time>2014-06-28T06:55:27.000Z</time>
      </trkpt>
      <trkpt lat="45.59904" lon="5.94299">
        <ele>431</ele>
        <time>2014-06-28T06:55:31.000Z</time>
      </trkpt>
      <trkpt lat="45.5991" lon="5.94298">
        <ele>432.2</ele>
        <time>2014-06-28T06:55:34.000Z</time>
      </trkpt>
      <trkpt lat="45.59923" lon="5.94299">
        <ele>432.6</ele>
        <time>2014-06-28T06:55:40.000Z</time>
      </trkpt>
      <trkpt lat="45.59925" lon="5.943">
        <ele>433.2</ele>
        <time>2014-06-28T06:55:41.000Z</time>
      </trkpt>
      <trkpt lat="45.59927" lon="5.94301">
        <ele>433.6</ele>
        <time>2014-06-28T06:55:42.000Z</time>
      </trkpt>
      <trkpt lat="45.59929" lon="5.94302">
        <ele>434</ele>
        <time>2014-06-28T06:55:43.000Z</time>
      </trkpt>
      <trkpt lat="45.5993" lon="5.94302">
        <ele>434.4</ele>
        <time>2014-06-28T06:55:44.000Z</time>
      </trkpt>
      <trkpt lat="45.59932" lon="5.94303">
        <ele>435</ele>
        <time>2014-06-28T06:55:45.000Z</time>
      </trkpt>
      <trkpt lat="45.59942" lon="5.94308">
        <ele>435.4</ele>
        <time>2014-06-28T06:55:50.000Z</time>
      </trkpt>
      <trkpt lat="45.59957" lon="5.9432">
        <ele>437.4</ele>
        <time>2014-06-28T06:55:58.000Z</time>
      </trkpt>
      <trkpt lat="45.59958" lon="5.94322">
        <ele>438</ele>
        <time>2014-06-28T06:55:59.000Z</time>
      </trkpt>
      <trkpt lat="45.59961" lon="5.94326">
        <ele>438.8</ele>
        <time>2014-06-28T06:56:01.000Z</time>
      </trkpt>
      <trkpt lat="45.59976" lon="5.94344">
        <ele>440.4</ele>
        <time>2014-06-28T06:56:10.000Z</time>
      </trkpt>
      <trkpt lat="45.59977" lon="5.94347">
        <ele>440.8</ele>
        <time>2014-06-28T06:56:11.000Z</time>
      </trkpt>
      <trkpt lat="45.59979" lon="5.94349">
        <ele>441.2</ele>
        <time>2014-06-28T06:56:12.000Z</time>
      </trkpt>
      <trkpt lat="45.59987" lon="5.94359">
        <ele>442.2</ele>
        <time>2014-06-28T06:56:18.000Z</time>
      </trkpt>
      <trkpt lat="45.60001" lon="5.94377">
        <ele>443.8</ele>
        <time>2014-06-28T06:56:26.000Z</time>
      </trkpt>
      <trkpt lat="45.60007" lon="5.94383">
        <ele>445.2</ele>
        <time>2014-06-28T06:56:29.000Z</time>
      </trkpt>
      <trkpt lat="45.60019" lon="5.944">
        <ele>446</ele>
        <time>2014-06-28T06:56:37.000Z</time>
      </trkpt>
      <trkpt lat="45.60026" lon="5.94408">
        <ele>447.8</ele>
        <time>2014-06-28T06:56:41.000Z</time>
      </trkpt>
      <trkpt lat="45.60035" lon="5.94421">
        <ele>448.6</ele>
        <time>2014-06-28T06:56:47.000Z</time>
      </trkpt>
      <trkpt lat="45.60051" lon="5.94442">
        <ele>450.8</ele>
        <time>2014-06-28T06:56:57.000Z</time>
      </trkpt>
      <trkpt lat="45.60052" lon="5.94444">
        <ele>451.2</ele>
        <time>2014-06-28T06:56:58.000Z</time>
      </trkpt>
      <trkpt lat="45.60085" lon="5.94485">
        <ele>455.8</ele>
        <time>2014-06-28T06:57:18.000Z</time>
      </trkpt>
      <trkpt lat="45.60086" lon="5.94486">
        <ele>456.2</ele>
        <time>2014-06-28T06:57:19.000Z</time>
      </trkpt>
      <trkpt lat="45.60125" lon="5.94535">
        <ele>461.4</ele>
        <time>2014-06-28T06:57:43.000Z</time>
      </trkpt>
      <trkpt lat="45.60126" lon="5.94538">
        <ele>461.8</ele>
        <time>2014-06-28T06:57:44.000Z</time>
      </trkpt>
      <trkpt lat="45.60134" lon="5.94548">
        <ele>462.6</ele>
        <time>2014-06-28T06:57:49.000Z</time>
      </trkpt>
      <trkpt lat="45.60137" lon="5.94552">
        <ele>463</ele>
        <time>2014-06-28T06:57:51.000Z</time>
      </trkpt>
      <trkpt lat="45.60139" lon="5.94554">
        <ele>463.4</ele>
        <time>2014-06-28T06:57:52.000Z</time>
      </trkpt>
      <trkpt lat="45.6014" lon="5.94555">
        <ele>463.8</ele>
        <time>2014-06-28T06:57:53.000Z</time>
      </trkpt>
      <trkpt lat="45.60153" lon="5.94575">
        <ele>466.8</ele>
        <time>2014-06-28T06:58:02.000Z</time>
      </trkpt>
      <trkpt lat="45.60154" lon="5.94576">
        <ele>466.8</ele>
        <time>2014-06-28T06:58:03.000Z</time>
      </trkpt>
      <trkpt lat="45.6016" lon="5.94582">
        <ele>467.2</ele>
        <time>2014-06-28T06:58:07.000Z</time>
      </trkpt>
      <trkpt lat="45.60161" lon="5.94583">
        <ele>467.6</ele>
        <time>2014-06-28T06:58:08.000Z</time>
      </trkpt>
      <trkpt lat="45.60162" lon="5.94585">
        <ele>468</ele>
        <time>2014-06-28T06:58:09.000Z</time>
      </trkpt>
      <trkpt lat="45.60163" lon="5.94586">
        <ele>468.4</ele>
        <time>2014-06-28T06:58:10.000Z</time>
      </trkpt>
      <trkpt lat="45.60173" lon="5.94604">
        <ele>469.2</ele>
        <time>2014-06-28T06:58:19.000Z</time>
      </trkpt>
      <trkpt lat="45.60176" lon="5.94608">
        <ele>470.2</ele>
        <time>2014-06-28T06:58:21.000Z</time>
      </trkpt>
      <trkpt lat="45.60188" lon="5.94633">
        <ele>473.2</ele>
        <time>2014-06-28T06:58:32.000Z</time>
      </trkpt>
      <trkpt lat="45.6019" lon="5.94643">
        <ele>473.2</ele>
        <time>2014-06-28T06:58:36.000Z</time>
      </trkpt>
      <trkpt lat="45.60191" lon="5.94658">
        <ele>475.2</ele>
        <time>2014-06-28T06:58:42.000Z</time>
      </trkpt>
      <trkpt lat="45.60192" lon="5.9466">
        <ele>475.2</ele>
        <time>2014-06-28T06:58:44.000Z</time>
      </trkpt>
      <trkpt lat="45.6019" lon="5.94672">
        <ele>476.6</ele>
        <time>2014-06-28T06:58:50.000Z</time>
      </trkpt>
      <trkpt lat="45.60195" lon="5.94707">
        <ele>479.4</ele>
        <time>2014-06-28T06:59:02.000Z</time>
      </trkpt>
      <trkpt lat="45.602" lon="5.94725">
        <ele>480.6</ele>
        <time>2014-06-28T06:59:09.000Z</time>
      </trkpt>
      <trkpt lat="45.60202" lon="5.94728">
        <ele>481.2</ele>
        <time>2014-06-28T06:59:10.000Z</time>
      </trkpt>
      <trkpt lat="45.60203" lon="5.9473">
        <ele>481.6</ele>
        <time>2014-06-28T06:59:11.000Z</time>
      </trkpt>
      <trkpt lat="45.60209" lon="5.94743">
        <ele>482</ele>
        <time>2014-06-28T06:59:16.000Z</time>
      </trkpt>
      <trkpt lat="45.6021" lon="5.94745">
        <ele>482.4</ele>
        <time>2014-06-28T06:59:17.000Z</time>
      </trkpt>
      <trkpt lat="45.60211" lon="5.94746">
        <ele>482.8</ele>
        <time>2014-06-28T06:59:18.000Z</time>
      </trkpt>
      <trkpt lat="45.60212" lon="5.94749">
        <ele>483.2</ele>
        <time>2014-06-28T06:59:19.000Z</time>
      </trkpt>
      <trkpt lat="45.60217" lon="5.9476">
        <ele>483.6</ele>
        <time>2014-06-28T06:59:24.000Z</time>
      </trkpt>
      <trkpt lat="45.60222" lon="5.94769">
        <ele>484.2</ele>
        <time>2014-06-28T06:59:28.000Z</time>
      </trkpt>
      <trkpt lat="45.60224" lon="5.94771">
        <ele>484.8</ele>
        <time>2014-06-28T06:59:29.000Z</time>
      </trkpt>
      <trkpt lat="45.60226" lon="5.94773">
        <ele>485.4</ele>
        <time>2014-06-28T06:59:30.000Z</time>
      </trkpt>
      <trkpt lat="45.60227" lon="5.94775">
        <ele>486</ele>
        <time>2014-06-28T06:59:31.000Z</time>
      </trkpt>
      <trkpt lat="45.60235" lon="5.94794">
        <ele>487.8</ele>
        <time>2014-06-28T06:59:39.000Z</time>
      </trkpt>
      <trkpt lat="45.60237" lon="5.94797">
        <ele>488.2</ele>
        <time>2014-06-28T06:59:40.000Z</time>
      </trkpt>
      <trkpt lat="45.60239" lon="5.94799">
        <ele>488.6</ele>
        <time>2014-06-28T06:59:41.000Z</time>
      </trkpt>
      <trkpt lat="45.60247" lon="5.94817">
        <ele>489.8</ele>
        <time>2014-06-28T06:59:50.000Z</time>
      </trkpt>
      <trkpt lat="45.6027" lon="5.94854">
        <ele>493.4</ele>
        <time>2014-06-28T07:00:06.000Z</time>
      </trkpt>
      <trkpt lat="45.60291" lon="5.9488">
        <ele>496.4</ele>
        <time>2014-06-28T07:00:18.000Z</time>
      </trkpt>
      <trkpt lat="45.60293" lon="5.94882">
        <ele>496.8</ele>
        <time>2014-06-28T07:00:19.000Z</time>
      </trkpt>
      <trkpt lat="45.60294" lon="5.94883">
        <ele>497.2</ele>
        <time>2014-06-28T07:00:20.000Z</time>
      </trkpt>
      <trkpt lat="45.60301" lon="5.94893">
        <ele>497.6</ele>
        <time>2014-06-28T07:00:25.000Z</time>
      </trkpt>
      <trkpt lat="45.60303" lon="5.94898">
        <ele>498.8</ele>
        <time>2014-06-28T07:00:27.000Z</time>
      </trkpt>
      <trkpt lat="45.60304" lon="5.949">
        <ele>499.2</ele>
        <time>2014-06-28T07:00:28.000Z</time>
      </trkpt>
      <trkpt lat="45.60308" lon="5.9492">
        <ele>500.8</ele>
        <time>2014-06-28T07:00:36.000Z</time>
      </trkpt>
      <trkpt lat="45.60309" lon="5.94924">
        <ele>501.2</ele>
        <time>2014-06-28T07:00:37.000Z</time>
      </trkpt>
      <trkpt lat="45.60314" lon="5.94939">
        <ele>502.2</ele>
        <time>2014-06-28T07:00:44.000Z</time>
      </trkpt>
      <trkpt lat="45.60316" lon="5.94943">
        <ele>503</ele>
        <time>2014-06-28T07:00:46.000Z</time>
      </trkpt>
      <trkpt lat="45.60318" lon="5.94945">
        <ele>503.4</ele>
        <time>2014-06-28T07:00:47.000Z</time>
      </trkpt>
      <trkpt lat="45.60327" lon="5.94964">
        <ele>505.6</ele>
        <time>2014-06-28T07:00:56.000Z</time>
      </trkpt>
      <trkpt lat="45.6033" lon="5.94967">
        <ele>505.6</ele>
        <time>2014-06-28T07:00:58.000Z</time>
      </trkpt>
      <trkpt lat="45.60333" lon="5.94972">
        <ele>506</ele>
        <time>2014-06-28T07:01:01.000Z</time>
      </trkpt>
      <trkpt lat="45.60336" lon="5.94979">
        <ele>507.4</ele>
        <time>2014-06-28T07:01:04.000Z</time>
      </trkpt>
      <trkpt lat="45.60338" lon="5.9498">
        <ele>507.8</ele>
        <time>2014-06-28T07:01:05.000Z</time>
      </trkpt>
      <trkpt lat="45.60341" lon="5.94983">
        <ele>507.8</ele>
        <time>2014-06-28T07:01:07.000Z</time>
      </trkpt>
      <trkpt lat="45.60346" lon="5.94984">
        <ele>507.8</ele>
        <time>2014-06-28T07:01:09.000Z</time>
      </trkpt>
      <trkpt lat="45.60355" lon="5.94984">
        <ele>508.2</ele>
        <time>2014-06-28T07:01:13.000Z</time>
      </trkpt>
      <trkpt lat="45.6036" lon="5.94983">
        <ele>509.2</ele>
        <time>2014-06-28T07:01:15.000Z</time>
      </trkpt>
      <trkpt lat="45.60362" lon="5.94981">
        <ele>510</ele>
        <time>2014-06-28T07:01:16.000Z</time>
      </trkpt>
      <trkpt lat="45.60371" lon="5.9497">
        <ele>510</ele>
        <time>2014-06-28T07:01:21.000Z</time>
      </trkpt>
      <trkpt lat="45.60374" lon="5.94954">
        <ele>510</ele>
        <time>2014-06-28T07:01:26.000Z</time>
      </trkpt>
      <trkpt lat="45.60373" lon="5.94945">
        <ele>511.2</ele>
        <time>2014-06-28T07:01:29.000Z</time>
      </trkpt>
      <trkpt lat="45.60373" lon="5.94942">
        <ele>511.6</ele>
        <time>2014-06-28T07:01:30.000Z</time>
      </trkpt>
      <trkpt lat="45.60372" lon="5.94939">
        <ele>512</ele>
        <time>2014-06-28T07:01:31.000Z</time>
      </trkpt>
      <trkpt lat="45.6037" lon="5.94933">
        <ele>512</ele>
        <time>2014-06-28T07:01:33.000Z</time>
      </trkpt>
      <trkpt lat="45.60366" lon="5.94897">
        <ele>514.2</ele>
        <time>2014-06-28T07:01:44.000Z</time>
      </trkpt>
      <trkpt lat="45.6037" lon="5.94864">
        <ele>515.8</ele>
        <time>2014-06-28T07:01:54.000Z</time>
      </trkpt>
      <trkpt lat="45.6038" lon="5.94807">
        <ele>520.2</ele>
        <time>2014-06-28T07:02:12.000Z</time>
      </trkpt>
      <trkpt lat="45.60386" lon="5.94796">
        <ele>520.2</ele>
        <time>2014-06-28T07:02:16.000Z</time>
      </trkpt>
      <trkpt lat="45.60387" lon="5.94794">
        <ele>520.6</ele>
        <time>2014-06-28T07:02:17.000Z</time>
      </trkpt>
      <trkpt lat="45.60389" lon="5.94792">
        <ele>521</ele>
        <time>2014-06-28T07:02:18.000Z</time>
      </trkpt>
      <trkpt lat="45.60391" lon="5.94791">
        <ele>521.4</ele>
        <time>2014-06-28T07:02:19.000Z</time>
      </trkpt>
      <trkpt lat="45.60394" lon="5.94791">
        <ele>521.8</ele>
        <time>2014-06-28T07:02:20.000Z</time>
      </trkpt>
      <trkpt lat="45.60396" lon="5.94791">
        <ele>522.4</ele>
        <time>2014-06-28T07:02:21.000Z</time>
      </trkpt>
      <trkpt lat="45.60403" lon="5.94794">
        <ele>522.8</ele>
        <time>2014-06-28T07:02:24.000Z</time>
      </trkpt>
      <trkpt lat="45.60409" lon="5.94799">
        <ele>524</ele>
        <time>2014-06-28T07:02:27.000Z</time>
      </trkpt>
      <trkpt lat="45.60442" lon="5.94828">
        <ele>527.2</ele>
        <time>2014-06-28T07:02:45.000Z</time>
      </trkpt>
      <trkpt lat="45.60446" lon="5.9483">
        <ele>528.2</ele>
        <time>2014-06-28T07:02:47.000Z</time>
      </trkpt>
      <trkpt lat="45.60448" lon="5.94832">
        <ele>528.6</ele>
        <time>2014-06-28T07:02:48.000Z</time>
      </trkpt>
      <trkpt lat="45.60457" lon="5.94838">
        <ele>528.6</ele>
        <time>2014-06-28T07:02:53.000Z</time>
      </trkpt>
      <trkpt lat="45.60463" lon="5.94841">
        <ele>529.4</ele>
        <time>2014-06-28T07:02:56.000Z</time>
      </trkpt>
      <trkpt lat="45.60465" lon="5.94842">
        <ele>529.8</ele>
        <time>2014-06-28T07:02:57.000Z</time>
      </trkpt>
      <trkpt lat="45.60467" lon="5.94843">
        <ele>530.2</ele>
        <time>2014-06-28T07:02:58.000Z</time>
      </trkpt>
      <trkpt lat="45.60469" lon="5.94843">
        <ele>530.6</ele>
        <time>2014-06-28T07:02:59.000Z</time>
      </trkpt>
      <trkpt lat="45.60474" lon="5.94845">
        <ele>530.6</ele>
        <time>2014-06-28T07:03:01.000Z</time>
      </trkpt>
      <trkpt lat="45.60487" lon="5.94844">
        <ele>530.6</ele>
        <time>2014-06-28T07:03:07.000Z</time>
      </trkpt>
      <trkpt lat="45.6049" lon="5.94842">
        <ele>531.2</ele>
        <time>2014-06-28T07:03:09.000Z</time>
      </trkpt>
      <trkpt lat="45.60496" lon="5.94839">
        <ele>532.4</ele>
        <time>2014-06-28T07:03:12.000Z</time>
      </trkpt>
      <trkpt lat="45.60576" lon="5.94734">
        <ele>542</ele>
        <time>2014-06-28T07:04:02.000Z</time>
      </trkpt>
      <trkpt lat="45.6058" lon="5.94726">
        <ele>543.4</ele>
        <time>2014-06-28T07:04:05.000Z</time>
      </trkpt>
      <trkpt lat="45.6059" lon="5.9471">
        <ele>544.6</ele>
        <time>2014-06-28T07:04:12.000Z</time>
      </trkpt>
      <trkpt lat="45.60591" lon="5.94707">
        <ele>545</ele>
        <time>2014-06-28T07:04:13.000Z</time>
      </trkpt>
      <trkpt lat="45.60604" lon="5.94688">
        <ele>546.4</ele>
        <time>2014-06-28T07:04:21.000Z</time>
      </trkpt>
      <trkpt lat="45.60611" lon="5.94673">
        <ele>547.6</ele>
        <time>2014-06-28T07:04:27.000Z</time>
      </trkpt>
      <trkpt lat="45.6062" lon="5.9466">
        <ele>549.2</ele>
        <time>2014-06-28T07:04:33.000Z</time>
      </trkpt>
      <trkpt lat="45.6063" lon="5.94644">
        <ele>550</ele>
        <time>2014-06-28T07:04:40.000Z</time>
      </trkpt>
      <trkpt lat="45.60632" lon="5.94642">
        <ele>550.4</ele>
        <time>2014-06-28T07:04:41.000Z</time>
      </trkpt>
      <trkpt lat="45.60634" lon="5.94641">
        <ele>550.8</ele>
        <time>2014-06-28T07:04:42.000Z</time>
      </trkpt>
      <trkpt lat="45.60636" lon="5.94639">
        <ele>551.2</ele>
        <time>2014-06-28T07:04:43.000Z</time>
      </trkpt>
      <trkpt lat="45.60637" lon="5.94637">
        <ele>551.6</ele>
        <time>2014-06-28T07:04:44.000Z</time>
      </trkpt>
      <trkpt lat="45.6065" lon="5.94623">
        <ele>552.6</ele>
        <time>2014-06-28T07:04:52.000Z</time>
      </trkpt>
      <trkpt lat="45.60654" lon="5.94619">
        <ele>553.4</ele>
        <time>2014-06-28T07:04:54.000Z</time>
      </trkpt>
      <trkpt lat="45.60655" lon="5.94617">
        <ele>553.8</ele>
        <time>2014-06-28T07:04:55.000Z</time>
      </trkpt>
      <trkpt lat="45.60663" lon="5.94604">
        <ele>554.8</ele>
        <time>2014-06-28T07:05:01.000Z</time>
      </trkpt>
      <trkpt lat="45.60665" lon="5.94602">
        <ele>555.2</ele>
        <time>2014-06-28T07:05:02.000Z</time>
      </trkpt>
      <trkpt lat="45.60666" lon="5.946">
        <ele>555.6</ele>
        <time>2014-06-28T07:05:03.000Z</time>
      </trkpt>
      <trkpt lat="45.60667" lon="5.94597">
        <ele>556</ele>
        <time>2014-06-28T07:05:04.000Z</time>
      </trkpt>
      <trkpt lat="45.60675" lon="5.94586">
        <ele>556</ele>
        <time>2014-06-28T07:05:09.000Z</time>
      </trkpt>
      <trkpt lat="45.60676" lon="5.94584">
        <ele>556.4</ele>
        <time>2014-06-28T07:05:10.000Z</time>
      </trkpt>
      <trkpt lat="45.60677" lon="5.94582">
        <ele>556.8</ele>
        <time>2014-06-28T07:05:11.000Z</time>
      </trkpt>
      <trkpt lat="45.60682" lon="5.94574">
        <ele>558</ele>
        <time>2014-06-28T07:05:14.000Z</time>
      </trkpt>
      <trkpt lat="45.60685" lon="5.9457">
        <ele>558</ele>
        <time>2014-06-28T07:05:16.000Z</time>
      </trkpt>
      <trkpt lat="45.60689" lon="5.94562">
        <ele>558.4</ele>
        <time>2014-06-28T07:05:19.000Z</time>
      </trkpt>
      <trkpt lat="45.6069" lon="5.94559">
        <ele>558.8</ele>
        <time>2014-06-28T07:05:20.000Z</time>
      </trkpt>
      <trkpt lat="45.60691" lon="5.94556">
        <ele>559.2</ele>
        <time>2014-06-28T07:05:21.000Z</time>
      </trkpt>
      <trkpt lat="45.60694" lon="5.94552">
        <ele>560</ele>
        <time>2014-06-28T07:05:23.000Z</time>
      </trkpt>
      <trkpt lat="45.60704" lon="5.9452">
        <ele>561.6</ele>
        <time>2014-06-28T07:05:34.000Z</time>
      </trkpt>
      <trkpt lat="45.60708" lon="5.94511">
        <ele>562</ele>
        <time>2014-06-28T07:05:38.000Z</time>
      </trkpt>
      <trkpt lat="45.60719" lon="5.94512">
        <ele>562</ele>
        <time>2014-06-28T07:05:42.000Z</time>
      </trkpt>
      <trkpt lat="45.6072" lon="5.94516">
        <ele>562</ele>
        <time>2014-06-28T07:05:43.000Z</time>
      </trkpt>
      <trkpt lat="45.60722" lon="5.94524">
        <ele>562</ele>
        <time>2014-06-28T07:05:45.000Z</time>
      </trkpt>
      <trkpt lat="45.60721" lon="5.94527">
        <ele>562.6</ele>
        <time>2014-06-28T07:05:46.000Z</time>
      </trkpt>
      <trkpt lat="45.60719" lon="5.94534">
        <ele>563.8</ele>
        <time>2014-06-28T07:05:48.000Z</time>
      </trkpt>
      <trkpt lat="45.60709" lon="5.94554">
        <ele>564.2</ele>
        <time>2014-06-28T07:05:56.000Z</time>
      </trkpt>
      <trkpt lat="45.60707" lon="5.94563">
        <ele>565</ele>
        <time>2014-06-28T07:05:59.000Z</time>
      </trkpt>
      <trkpt lat="45.60706" lon="5.94592">
        <ele>566.8</ele>
        <time>2014-06-28T07:06:09.000Z</time>
      </trkpt>
      <trkpt lat="45.60707" lon="5.94598">
        <ele>567.6</ele>
        <time>2014-06-28T07:06:11.000Z</time>
      </trkpt>
      <trkpt lat="45.60709" lon="5.94668">
        <ele>572.8</ele>
        <time>2014-06-28T07:06:34.000Z</time>
      </trkpt>
      <trkpt lat="45.60709" lon="5.94684">
        <ele>573.2</ele>
        <time>2014-06-28T07:06:39.000Z</time>
      </trkpt>
      <trkpt lat="45.60708" lon="5.94687">
        <ele>573.6</ele>
        <time>2014-06-28T07:06:40.000Z</time>
      </trkpt>
      <trkpt lat="45.60707" lon="5.94689">
        <ele>574</ele>
        <time>2014-06-28T07:06:41.000Z</time>
      </trkpt>
      <trkpt lat="45.60697" lon="5.94709">
        <ele>575.2</ele>
        <time>2014-06-28T07:06:49.000Z</time>
      </trkpt>
      <trkpt lat="45.60695" lon="5.94711">
        <ele>575.6</ele>
        <time>2014-06-28T07:06:50.000Z</time>
      </trkpt>
      <trkpt lat="45.60688" lon="5.94734">
        <ele>577.4</ele>
        <time>2014-06-28T07:06:59.000Z</time>
      </trkpt>
      <trkpt lat="45.60688" lon="5.94739">
        <ele>578.2</ele>
        <time>2014-06-28T07:07:01.000Z</time>
      </trkpt>
      <trkpt lat="45.60685" lon="5.94759">
        <ele>579.4</ele>
        <time>2014-06-28T07:07:08.000Z</time>
      </trkpt>
      <trkpt lat="45.60684" lon="5.94762">
        <ele>579.8</ele>
        <time>2014-06-28T07:07:09.000Z</time>
      </trkpt>
      <trkpt lat="45.60684" lon="5.94768">
        <ele>580.8</ele>
        <time>2014-06-28T07:07:11.000Z</time>
      </trkpt>
      <trkpt lat="45.60683" lon="5.94771">
        <ele>581.2</ele>
        <time>2014-06-28T07:07:12.000Z</time>
      </trkpt>
      <trkpt lat="45.6068" lon="5.94793">
        <ele>581.6</ele>
        <time>2014-06-28T07:07:19.000Z</time>
      </trkpt>
      <trkpt lat="45.60682" lon="5.94876">
        <ele>586.2</ele>
        <time>2014-06-28T07:07:46.000Z</time>
      </trkpt>
      <trkpt lat="45.60683" lon="5.94879">
        <ele>586.6</ele>
        <time>2014-06-28T07:07:47.000Z</time>
      </trkpt>
      <trkpt lat="45.60687" lon="5.94883">
        <ele>587.4</ele>
        <time>2014-06-28T07:07:49.000Z</time>
      </trkpt>
      <trkpt lat="45.60699" lon="5.94889">
        <ele>587.4</ele>
        <time>2014-06-28T07:07:55.000Z</time>
      </trkpt>
      <trkpt lat="45.607" lon="5.94891">
        <ele>587.8</ele>
        <time>2014-06-28T07:07:57.000Z</time>
      </trkpt>
      <trkpt lat="45.60701" lon="5.94891">
        <ele>588.4</ele>
        <time>2014-06-28T07:07:58.000Z</time>
      </trkpt>
      <trkpt lat="45.60701" lon="5.94891">
        <ele>588.8</ele>
        <time>2014-06-28T07:07:59.000Z</time>
      </trkpt>
      <trkpt lat="45.60701" lon="5.94903">
        <ele>591.6</ele>
        <time>2014-06-28T07:13:28.000Z</time>
      </trkpt>
      <trkpt lat="45.60671" lon="5.94945">
        <ele>593.8</ele>
        <time>2014-06-28T07:13:51.000Z</time>
      </trkpt>
      <trkpt lat="45.60669" lon="5.9495">
        <ele>594.2</ele>
        <time>2014-06-28T07:13:53.000Z</time>
      </trkpt>
      <trkpt lat="45.60668" lon="5.94952">
        <ele>594.6</ele>
        <time>2014-06-28T07:13:54.000Z</time>
      </trkpt>
      <trkpt lat="45.60668" lon="5.94954">
        <ele>595</ele>
        <time>2014-06-28T07:13:55.000Z</time>
      </trkpt>
      <trkpt lat="45.60669" lon="5.94957">
        <ele>595.4</ele>
        <time>2014-06-28T07:13:56.000Z</time>
      </trkpt>
      <trkpt lat="45.6067" lon="5.94959">
        <ele>595.8</ele>
        <time>2014-06-28T07:13:57.000Z</time>
      </trkpt>
      <trkpt lat="45.60671" lon="5.9496">
        <ele>595.8</ele>
        <time>2014-06-28T07:13:58.000Z</time>
      </trkpt>
      <trkpt lat="45.60676" lon="5.9496">
        <ele>595.8</ele>
        <time>2014-06-28T07:14:01.000Z</time>
      </trkpt>
      <trkpt lat="45.60681" lon="5.94956">
        <ele>596.2</ele>
        <time>2014-06-28T07:14:04.000Z</time>
      </trkpt>
      <trkpt lat="45.60686" lon="5.94953">
        <ele>597.4</ele>
        <time>2014-06-28T07:14:07.000Z</time>
      </trkpt>
      <trkpt lat="45.60688" lon="5.94952">
        <ele>597.8</ele>
        <time>2014-06-28T07:14:08.000Z</time>
      </trkpt>
      <trkpt lat="45.60693" lon="5.94949">
        <ele>597.8</ele>
        <time>2014-06-28T07:14:11.000Z</time>
      </trkpt>
      <trkpt lat="45.60696" lon="5.94946">
        <ele>597.8</ele>
        <time>2014-06-28T07:14:13.000Z</time>
      </trkpt>
      <trkpt lat="45.60702" lon="5.94942">
        <ele>598.2</ele>
        <time>2014-06-28T07:14:17.000Z</time>
      </trkpt>
      <trkpt lat="45.60705" lon="5.94942">
        <ele>599</ele>
        <time>2014-06-28T07:14:19.000Z</time>
      </trkpt>
      <trkpt lat="45.60723" lon="5.94935">
        <ele>600.8</ele>
        <time>2014-06-28T07:14:29.000Z</time>
      </trkpt>
      <trkpt lat="45.60725" lon="5.94935">
        <ele>601.2</ele>
        <time>2014-06-28T07:14:30.000Z</time>
      </trkpt>
      <trkpt lat="45.60727" lon="5.94934">
        <ele>601.6</ele>
        <time>2014-06-28T07:14:31.000Z</time>
      </trkpt>
      <trkpt lat="45.60744" lon="5.94925">
        <ele>602.6</ele>
        <time>2014-06-28T07:14:39.000Z</time>
      </trkpt>
      <trkpt lat="45.60745" lon="5.94923">
        <ele>603</ele>
        <time>2014-06-28T07:14:40.000Z</time>
      </trkpt>
      <trkpt lat="45.60747" lon="5.94922">
        <ele>603.4</ele>
        <time>2014-06-28T07:14:41.000Z</time>
      </trkpt>
      <trkpt lat="45.60749" lon="5.9492">
        <ele>603.8</ele>
        <time>2014-06-28T07:14:42.000Z</time>
      </trkpt>
      <trkpt lat="45.60751" lon="5.94919">
        <ele>604.2</ele>
        <time>2014-06-28T07:14:43.000Z</time>
      </trkpt>
      <trkpt lat="45.60756" lon="5.94913">
        <ele>604.2</ele>
        <time>2014-06-28T07:14:46.000Z</time>
      </trkpt>
      <trkpt lat="45.60767" lon="5.94894">
        <ele>606.2</ele>
        <time>2014-06-28T07:14:53.000Z</time>
      </trkpt>
      <trkpt lat="45.60771" lon="5.94884">
        <ele>606.2</ele>
        <time>2014-06-28T07:14:56.000Z</time>
      </trkpt>
      <trkpt lat="45.60773" lon="5.94882">
        <ele>606.2</ele>
        <time>2014-06-28T07:14:57.000Z</time>
      </trkpt>
      <trkpt lat="45.60776" lon="5.94877">
        <ele>606.2</ele>
        <time>2014-06-28T07:14:59.000Z</time>
      </trkpt>
      <trkpt lat="45.60777" lon="5.94872">
        <ele>606.8</ele>
        <time>2014-06-28T07:15:01.000Z</time>
      </trkpt>
      <trkpt lat="45.60802" lon="5.9481">
        <ele>611.8</ele>
        <time>2014-06-28T07:15:24.000Z</time>
      </trkpt>
      <trkpt lat="45.6081" lon="5.94782">
        <ele>612.2</ele>
        <time>2014-06-28T07:15:33.000Z</time>
      </trkpt>
      <trkpt lat="45.60811" lon="5.94779">
        <ele>612.6</ele>
        <time>2014-06-28T07:15:34.000Z</time>
      </trkpt>
      <trkpt lat="45.60813" lon="5.94777">
        <ele>613</ele>
        <time>2014-06-28T07:15:35.000Z</time>
      </trkpt>
      <trkpt lat="45.60816" lon="5.94776">
        <ele>613.4</ele>
        <time>2014-06-28T07:15:36.000Z</time>
      </trkpt>
      <trkpt lat="45.60818" lon="5.94776">
        <ele>613.8</ele>
        <time>2014-06-28T07:15:37.000Z</time>
      </trkpt>
      <trkpt lat="45.6082" lon="5.94777">
        <ele>613.8</ele>
        <time>2014-06-28T07:15:38.000Z</time>
      </trkpt>
      <trkpt lat="45.60824" lon="5.94784">
        <ele>614.6</ele>
        <time>2014-06-28T07:15:41.000Z</time>
      </trkpt>
      <trkpt lat="45.60823" lon="5.94791">
        <ele>615.6</ele>
        <time>2014-06-28T07:15:43.000Z</time>
      </trkpt>
      <trkpt lat="45.60821" lon="5.94825">
        <ele>618</ele>
        <time>2014-06-28T07:15:55.000Z</time>
      </trkpt>
      <trkpt lat="45.60822" lon="5.94848">
        <ele>619.6</ele>
        <time>2014-06-28T07:16:03.000Z</time>
      </trkpt>
      <trkpt lat="45.6082" lon="5.94874">
        <ele>622.2</ele>
        <time>2014-06-28T07:16:12.000Z</time>
      </trkpt>
      <trkpt lat="45.60818" lon="5.94888">
        <ele>622.2</ele>
        <time>2014-06-28T07:16:17.000Z</time>
      </trkpt>
      <trkpt lat="45.60813" lon="5.94902">
        <ele>623</ele>
        <time>2014-06-28T07:16:22.000Z</time>
      </trkpt>
      <trkpt lat="45.60809" lon="5.9491">
        <ele>624.4</ele>
        <time>2014-06-28T07:16:25.000Z</time>
      </trkpt>
      <trkpt lat="45.60806" lon="5.94917">
        <ele>624.4</ele>
        <time>2014-06-28T07:16:28.000Z</time>
      </trkpt>
      <trkpt lat="45.60806" lon="5.94923">
        <ele>624.8</ele>
        <time>2014-06-28T07:16:30.000Z</time>
      </trkpt>
      <trkpt lat="45.60806" lon="5.94926">
        <ele>625.2</ele>
        <time>2014-06-28T07:16:31.000Z</time>
      </trkpt>
      <trkpt lat="45.60806" lon="5.94928">
        <ele>625.6</ele>
        <time>2014-06-28T07:16:32.000Z</time>
      </trkpt>
      <trkpt lat="45.60808" lon="5.94929">
        <ele>626</ele>
        <time>2014-06-28T07:16:33.000Z</time>
      </trkpt>
      <trkpt lat="45.6081" lon="5.9493">
        <ele>626.4</ele>
        <time>2014-06-28T07:16:34.000Z</time>
      </trkpt>
      <trkpt lat="45.60812" lon="5.9493">
        <ele>626.4</ele>
        <time>2014-06-28T07:16:35.000Z</time>
      </trkpt>
      <trkpt lat="45.60819" lon="5.94922">
        <ele>626.4</ele>
        <time>2014-06-28T07:16:40.000Z</time>
      </trkpt>
      <trkpt lat="45.60823" lon="5.94915">
        <ele>627.6</ele>
        <time>2014-06-28T07:16:43.000Z</time>
      </trkpt>
      <trkpt lat="45.60825" lon="5.94913">
        <ele>628</ele>
        <time>2014-06-28T07:16:44.000Z</time>
      </trkpt>
      <trkpt lat="45.60835" lon="5.94903">
        <ele>629</ele>
        <time>2014-06-28T07:16:50.000Z</time>
      </trkpt>
      <trkpt lat="45.60836" lon="5.94903">
        <ele>629.4</ele>
        <time>2014-06-28T07:16:51.000Z</time>
      </trkpt>
      <trkpt lat="45.60839" lon="5.94901">
        <ele>630.2</ele>
        <time>2014-06-28T07:16:53.000Z</time>
      </trkpt>
      <trkpt lat="45.60848" lon="5.94892">
        <ele>631.4</ele>
        <time>2014-06-28T07:16:59.000Z</time>
      </trkpt>
      <trkpt lat="45.60861" lon="5.94875">
        <ele>633.2</ele>
        <time>2014-06-28T07:17:07.000Z</time>
      </trkpt>
      <trkpt lat="45.60863" lon="5.94873">
        <ele>633.6</ele>
        <time>2014-06-28T07:17:08.000Z</time>
      </trkpt>
      <trkpt lat="45.60865" lon="5.94868">
        <ele>634.4</ele>
        <time>2014-06-28T07:17:10.000Z</time>
      </trkpt>
      <trkpt lat="45.60874" lon="5.94857">
        <ele>635.4</ele>
        <time>2014-06-28T07:17:16.000Z</time>
      </trkpt>
      <trkpt lat="45.60881" lon="5.94843">
        <ele>637</ele>
        <time>2014-06-28T07:17:20.000Z</time>
      </trkpt>
      <trkpt lat="45.60887" lon="5.94834">
        <ele>637.6</ele>
        <time>2014-06-28T07:17:24.000Z</time>
      </trkpt>
      <trkpt lat="45.60907" lon="5.94815">
        <ele>640.6</ele>
        <time>2014-06-28T07:17:35.000Z</time>
      </trkpt>
      <trkpt lat="45.60924" lon="5.94805">
        <ele>642.8</ele>
        <time>2014-06-28T07:17:44.000Z</time>
      </trkpt>
      <trkpt lat="45.60955" lon="5.94789">
        <ele>646</ele>
        <time>2014-06-28T07:18:01.000Z</time>
      </trkpt>
      <trkpt lat="45.60961" lon="5.94785">
        <ele>647.6</ele>
        <time>2014-06-28T07:18:05.000Z</time>
      </trkpt>
      <trkpt lat="45.60965" lon="5.9478">
        <ele>647.6</ele>
        <time>2014-06-28T07:18:08.000Z</time>
      </trkpt>
      <trkpt lat="45.60972" lon="5.94769">
        <ele>649</ele>
        <time>2014-06-28T07:18:12.000Z</time>
      </trkpt>
      <trkpt lat="45.60975" lon="5.94763">
        <ele>649.8</ele>
        <time>2014-06-28T07:18:14.000Z</time>
      </trkpt>
      <trkpt lat="45.60983" lon="5.94734">
        <ele>651.4</ele>
        <time>2014-06-28T07:18:23.000Z</time>
      </trkpt>
      <trkpt lat="45.60984" lon="5.94731">
        <ele>651.8</ele>
        <time>2014-06-28T07:18:24.000Z</time>
      </trkpt>
      <trkpt lat="45.6099" lon="5.94716">
        <ele>652.4</ele>
        <time>2014-06-28T07:18:30.000Z</time>
      </trkpt>
      <trkpt lat="45.60991" lon="5.94713">
        <ele>652.8</ele>
        <time>2014-06-28T07:18:31.000Z</time>
      </trkpt>
      <trkpt lat="45.60998" lon="5.9469">
        <ele>654</ele>
        <time>2014-06-28T07:18:39.000Z</time>
      </trkpt>
      <trkpt lat="45.61002" lon="5.94682">
        <ele>654.8</ele>
        <time>2014-06-28T07:18:42.000Z</time>
      </trkpt>
      <trkpt lat="45.61004" lon="5.94676">
        <ele>655.8</ele>
        <time>2014-06-28T07:18:44.000Z</time>
      </trkpt>
      <trkpt lat="45.61006" lon="5.94671">
        <ele>656.2</ele>
        <time>2014-06-28T07:18:46.000Z</time>
      </trkpt>
      <trkpt lat="45.61012" lon="5.94661">
        <ele>656.6</ele>
        <time>2014-06-28T07:18:51.000Z</time>
      </trkpt>
      <trkpt lat="45.61016" lon="5.94657">
        <ele>657.4</ele>
        <time>2014-06-28T07:18:53.000Z</time>
      </trkpt>
      <trkpt lat="45.61024" lon="5.94647">
        <ele>658.6</ele>
        <time>2014-06-28T07:18:59.000Z</time>
      </trkpt>
      <trkpt lat="45.61026" lon="5.94645">
        <ele>659</ele>
        <time>2014-06-28T07:19:00.000Z</time>
      </trkpt>
      <trkpt lat="45.61036" lon="5.94633">
        <ele>660.2</ele>
        <time>2014-06-28T07:19:07.000Z</time>
      </trkpt>
      <trkpt lat="45.61041" lon="5.94628">
        <ele>660.6</ele>
        <time>2014-06-28T07:19:10.000Z</time>
      </trkpt>
      <trkpt lat="45.61044" lon="5.94625">
        <ele>661.6</ele>
        <time>2014-06-28T07:19:12.000Z</time>
      </trkpt>
      <trkpt lat="45.61046" lon="5.94623">
        <ele>662</ele>
        <time>2014-06-28T07:19:13.000Z</time>
      </trkpt>
      <trkpt lat="45.61048" lon="5.94622">
        <ele>662.4</ele>
        <time>2014-06-28T07:19:14.000Z</time>
      </trkpt>
      <trkpt lat="45.61059" lon="5.94607">
        <ele>663.4</ele>
        <time>2014-06-28T07:19:21.000Z</time>
      </trkpt>
      <trkpt lat="45.6106" lon="5.94604">
        <ele>663.8</ele>
        <time>2014-06-28T07:19:22.000Z</time>
      </trkpt>
      <trkpt lat="45.61071" lon="5.94589">
        <ele>665</ele>
        <time>2014-06-28T07:19:29.000Z</time>
      </trkpt>
      <trkpt lat="45.61077" lon="5.9458">
        <ele>666.6</ele>
        <time>2014-06-28T07:19:33.000Z</time>
      </trkpt>
      <trkpt lat="45.61097" lon="5.94545">
        <ele>668.8</ele>
        <time>2014-06-28T07:19:47.000Z</time>
      </trkpt>
      <trkpt lat="45.61099" lon="5.94539">
        <ele>669.6</ele>
        <time>2014-06-28T07:19:49.000Z</time>
      </trkpt>
      <trkpt lat="45.61106" lon="5.94527">
        <ele>670.8</ele>
        <time>2014-06-28T07:19:54.000Z</time>
      </trkpt>
      <trkpt lat="45.61114" lon="5.94505">
        <ele>672.8</ele>
        <time>2014-06-28T07:20:02.000Z</time>
      </trkpt>
      <trkpt lat="45.6112" lon="5.94495">
        <ele>672.8</ele>
        <time>2014-06-28T07:20:06.000Z</time>
      </trkpt>
      <trkpt lat="45.61136" lon="5.94457">
        <ele>676.6</ele>
        <time>2014-06-28T07:20:20.000Z</time>
      </trkpt>
      <trkpt lat="45.61138" lon="5.94455">
        <ele>677</ele>
        <time>2014-06-28T07:20:21.000Z</time>
      </trkpt>
      <trkpt lat="45.61139" lon="5.94453">
        <ele>677</ele>
        <time>2014-06-28T07:20:22.000Z</time>
      </trkpt>
      <trkpt lat="45.61146" lon="5.9445">
        <ele>677</ele>
        <time>2014-06-28T07:20:25.000Z</time>
      </trkpt>
      <trkpt lat="45.6115" lon="5.94454">
        <ele>677</ele>
        <time>2014-06-28T07:20:27.000Z</time>
      </trkpt>
      <trkpt lat="45.61154" lon="5.94462">
        <ele>677.4</ele>
        <time>2014-06-28T07:20:30.000Z</time>
      </trkpt>
      <trkpt lat="45.61155" lon="5.94509">
        <ele>681.4</ele>
        <time>2014-06-28T07:20:46.000Z</time>
      </trkpt>
      <trkpt lat="45.61158" lon="5.94527">
        <ele>682.6</ele>
        <time>2014-06-28T07:20:52.000Z</time>
      </trkpt>
      <trkpt lat="45.6117" lon="5.94681">
        <ele>692.6</ele>
        <time>2014-06-28T07:21:42.000Z</time>
      </trkpt>
      <trkpt lat="45.61171" lon="5.94684">
        <ele>693</ele>
        <time>2014-06-28T07:21:43.000Z</time>
      </trkpt>
      <trkpt lat="45.61172" lon="5.94687">
        <ele>693.4</ele>
        <time>2014-06-28T07:21:44.000Z</time>
      </trkpt>
      <trkpt lat="45.61173" lon="5.94714">
        <ele>695.2</ele>
        <time>2014-06-28T07:21:53.000Z</time>
      </trkpt>
      <trkpt lat="45.61172" lon="5.94717">
        <ele>695.6</ele>
        <time>2014-06-28T07:21:54.000Z</time>
      </trkpt>
      <trkpt lat="45.61174" lon="5.94728">
        <ele>696.4</ele>
        <time>2014-06-28T07:21:58.000Z</time>
      </trkpt>
      <trkpt lat="45.61179" lon="5.94741">
        <ele>697</ele>
        <time>2014-06-28T07:22:03.000Z</time>
      </trkpt>
      <trkpt lat="45.61182" lon="5.94742">
        <ele>697.4</ele>
        <time>2014-06-28T07:22:04.000Z</time>
      </trkpt>
      <trkpt lat="45.61184" lon="5.94743">
        <ele>697.8</ele>
        <time>2014-06-28T07:22:05.000Z</time>
      </trkpt>
      <trkpt lat="45.61187" lon="5.94743">
        <ele>698.2</ele>
        <time>2014-06-28T07:22:06.000Z</time>
      </trkpt>
      <trkpt lat="45.61189" lon="5.94742">
        <ele>698.6</ele>
        <time>2014-06-28T07:22:07.000Z</time>
      </trkpt>
      <trkpt lat="45.61194" lon="5.9473">
        <ele>698.6</ele>
        <time>2014-06-28T07:22:12.000Z</time>
      </trkpt>
      <trkpt lat="45.61195" lon="5.94715">
        <ele>699.6</ele>
        <time>2014-06-28T07:22:17.000Z</time>
      </trkpt>
      <trkpt lat="45.61196" lon="5.94709">
        <ele>700.4</ele>
        <time>2014-06-28T07:22:19.000Z</time>
      </trkpt>
      <trkpt lat="45.61197" lon="5.94706">
        <ele>700.8</ele>
        <time>2014-06-28T07:22:20.000Z</time>
      </trkpt>
      <trkpt lat="45.61205" lon="5.94688">
        <ele>702</ele>
        <time>2014-06-28T07:22:27.000Z</time>
      </trkpt>
      <trkpt lat="45.61207" lon="5.94682">
        <ele>702.8</ele>
        <time>2014-06-28T07:22:29.000Z</time>
      </trkpt>
      <trkpt lat="45.61212" lon="5.94673">
        <ele>703.4</ele>
        <time>2014-06-28T07:22:33.000Z</time>
      </trkpt>
      <trkpt lat="45.61218" lon="5.94664">
        <ele>705</ele>
        <time>2014-06-28T07:22:37.000Z</time>
      </trkpt>
      <trkpt lat="45.61228" lon="5.94644">
        <ele>707</ele>
        <time>2014-06-28T07:22:45.000Z</time>
      </trkpt>
      <trkpt lat="45.61243" lon="5.94626">
        <ele>708.8</ele>
        <time>2014-06-28T07:22:54.000Z</time>
      </trkpt>
      <trkpt lat="45.61244" lon="5.94625">
        <ele>709.2</ele>
        <time>2014-06-28T07:22:55.000Z</time>
      </trkpt>
      <trkpt lat="45.61273" lon="5.94616">
        <ele>711.8</ele>
        <time>2014-06-28T07:23:09.000Z</time>
      </trkpt>
      <trkpt lat="45.61275" lon="5.94616">
        <ele>712.2</ele>
        <time>2014-06-28T07:23:10.000Z</time>
      </trkpt>
      <trkpt lat="45.61277" lon="5.94616">
        <ele>712.6</ele>
        <time>2014-06-28T07:23:11.000Z</time>
      </trkpt>
      <trkpt lat="45.61279" lon="5.94616">
        <ele>713</ele>
        <time>2014-06-28T07:23:12.000Z</time>
      </trkpt>
      <trkpt lat="45.61283" lon="5.94614">
        <ele>713.4</ele>
        <time>2014-06-28T07:23:14.000Z</time>
      </trkpt>
      <trkpt lat="45.61292" lon="5.94612">
        <ele>713.8</ele>
        <time>2014-06-28T07:23:18.000Z</time>
      </trkpt>
      <trkpt lat="45.613" lon="5.94611">
        <ele>715.4</ele>
        <time>2014-06-28T07:23:22.000Z</time>
      </trkpt>
      <trkpt lat="45.61311" lon="5.94607">
        <ele>715.8</ele>
        <time>2014-06-28T07:23:27.000Z</time>
      </trkpt>
      <trkpt lat="45.61319" lon="5.94606">
        <ele>717</ele>
        <time>2014-06-28T07:23:30.000Z</time>
      </trkpt>
      <trkpt lat="45.61333" lon="5.94601">
        <ele>718</ele>
        <time>2014-06-28T07:23:37.000Z</time>
      </trkpt>
      <trkpt lat="45.61335" lon="5.94601">
        <ele>718.4</ele>
        <time>2014-06-28T07:23:38.000Z</time>
      </trkpt>
      <trkpt lat="45.61353" lon="5.94603">
        <ele>720</ele>
        <time>2014-06-28T07:23:46.000Z</time>
      </trkpt>
      <trkpt lat="45.6136" lon="5.94604">
        <ele>721.2</ele>
        <time>2014-06-28T07:23:49.000Z</time>
      </trkpt>
      <trkpt lat="45.61375" lon="5.94609">
        <ele>723</ele>
        <time>2014-06-28T07:23:56.000Z</time>
      </trkpt>
      <trkpt lat="45.61379" lon="5.9461">
        <ele>723.8</ele>
        <time>2014-06-28T07:23:58.000Z</time>
      </trkpt>
      <trkpt lat="45.61388" lon="5.94615">
        <ele>723.8</ele>
        <time>2014-06-28T07:24:02.000Z</time>
      </trkpt>
      <trkpt lat="45.61393" lon="5.94617">
        <ele>724.2</ele>
        <time>2014-06-28T07:24:04.000Z</time>
      </trkpt>
      <trkpt lat="45.61395" lon="5.94617">
        <ele>724.6</ele>
        <time>2014-06-28T07:24:05.000Z</time>
      </trkpt>
      <trkpt lat="45.61398" lon="5.94618">
        <ele>725</ele>
        <time>2014-06-28T07:24:06.000Z</time>
      </trkpt>
      <trkpt lat="45.61402" lon="5.9462">
        <ele>725.8</ele>
        <time>2014-06-28T07:24:08.000Z</time>
      </trkpt>
      <trkpt lat="45.61454" lon="5.94642">
        <ele>728.8</ele>
        <time>2014-06-28T07:24:30.000Z</time>
      </trkpt>
      <trkpt lat="45.61491" lon="5.94658">
        <ele>731.2</ele>
        <time>2014-06-28T07:24:45.000Z</time>
      </trkpt>
      <trkpt lat="45.61495" lon="5.94659">
        <ele>732</ele>
        <time>2014-06-28T07:24:46.000Z</time>
      </trkpt>
      <trkpt lat="45.61511" lon="5.94664">
        <ele>732</ele>
        <time>2014-06-28T07:24:51.000Z</time>
      </trkpt>
      <trkpt lat="45.6153" lon="5.94677">
        <ele>732</ele>
        <time>2014-06-28T07:24:56.000Z</time>
      </trkpt>
      <trkpt lat="45.61553" lon="5.94698">
        <ele>733.4</ele>
        <time>2014-06-28T07:25:04.000Z</time>
      </trkpt>
      <trkpt lat="45.61558" lon="5.94705">
        <ele>734.2</ele>
        <time>2014-06-28T07:25:06.000Z</time>
      </trkpt>
      <trkpt lat="45.61593" lon="5.94761">
        <ele>736.4</ele>
        <time>2014-06-28T07:25:23.000Z</time>
      </trkpt>
      <trkpt lat="45.61602" lon="5.94772">
        <ele>737.2</ele>
        <time>2014-06-28T07:25:27.000Z</time>
      </trkpt>
      <trkpt lat="45.61618" lon="5.94798">
        <ele>739.2</ele>
        <time>2014-06-28T07:25:36.000Z</time>
      </trkpt>
      <trkpt lat="45.61619" lon="5.94801">
        <ele>739.8</ele>
        <time>2014-06-28T07:25:37.000Z</time>
      </trkpt>
      <trkpt lat="45.6164" lon="5.94829">
        <ele>742.4</ele>
        <time>2014-06-28T07:25:49.000Z</time>
      </trkpt>
      <trkpt lat="45.61642" lon="5.94832">
        <ele>742.8</ele>
        <time>2014-06-28T07:25:50.000Z</time>
      </trkpt>
      <trkpt lat="45.61652" lon="5.94847">
        <ele>743.2</ele>
        <time>2014-06-28T07:25:56.000Z</time>
      </trkpt>
      <trkpt lat="45.61655" lon="5.94848">
        <ele>743.6</ele>
        <time>2014-06-28T07:25:57.000Z</time>
      </trkpt>
      <trkpt lat="45.61657" lon="5.9485">
        <ele>744</ele>
        <time>2014-06-28T07:25:58.000Z</time>
      </trkpt>
      <trkpt lat="45.6166" lon="5.94851">
        <ele>744.8</ele>
        <time>2014-06-28T07:25:59.000Z</time>
      </trkpt>
      <trkpt lat="45.61692" lon="5.94851">
        <ele>746.6</ele>
        <time>2014-06-28T07:26:11.000Z</time>
      </trkpt>
      <trkpt lat="45.61695" lon="5.94851">
        <ele>747</ele>
        <time>2014-06-28T07:26:12.000Z</time>
      </trkpt>
      <trkpt lat="45.61707" lon="5.94855">
        <ele>747</ele>
        <time>2014-06-28T07:26:17.000Z</time>
      </trkpt>
      <trkpt lat="45.61713" lon="5.9486">
        <ele>747.4</ele>
        <time>2014-06-28T07:26:20.000Z</time>
      </trkpt>
      <trkpt lat="45.61727" lon="5.94881">
        <ele>749.6</ele>
        <time>2014-06-28T07:26:30.000Z</time>
      </trkpt>
      <trkpt lat="45.61729" lon="5.94883">
        <ele>750</ele>
        <time>2014-06-28T07:26:31.000Z</time>
      </trkpt>
      <trkpt lat="45.61739" lon="5.94895">
        <ele>751.4</ele>
        <time>2014-06-28T07:26:37.000Z</time>
      </trkpt>
      <trkpt lat="45.6175" lon="5.94907">
        <ele>753</ele>
        <time>2014-06-28T07:26:43.000Z</time>
      </trkpt>
      <trkpt lat="45.6176" lon="5.9492">
        <ele>754</ele>
        <time>2014-06-28T07:26:49.000Z</time>
      </trkpt>
      <trkpt lat="45.61762" lon="5.94922">
        <ele>754.4</ele>
        <time>2014-06-28T07:26:50.000Z</time>
      </trkpt>
      <trkpt lat="45.61763" lon="5.94923">
        <ele>754.8</ele>
        <time>2014-06-28T07:26:51.000Z</time>
      </trkpt>
      <trkpt lat="45.61767" lon="5.94926">
        <ele>755.6</ele>
        <time>2014-06-28T07:26:53.000Z</time>
      </trkpt>
      <trkpt lat="45.61785" lon="5.94934">
        <ele>756.6</ele>
        <time>2014-06-28T07:27:00.000Z</time>
      </trkpt>
      <trkpt lat="45.61793" lon="5.94935">
        <ele>758</ele>
        <time>2014-06-28T07:27:03.000Z</time>
      </trkpt>
      <trkpt lat="45.61797" lon="5.94928">
        <ele>758</ele>
        <time>2014-06-28T07:27:06.000Z</time>
      </trkpt>
      <trkpt lat="45.61799" lon="5.94917">
        <ele>758.4</ele>
        <time>2014-06-28T07:27:10.000Z</time>
      </trkpt>
      <trkpt lat="45.618" lon="5.94914">
        <ele>758.8</ele>
        <time>2014-06-28T07:27:11.000Z</time>
      </trkpt>
      <trkpt lat="45.61799" lon="5.94912">
        <ele>759.2</ele>
        <time>2014-06-28T07:27:12.000Z</time>
      </trkpt>
      <trkpt lat="45.61798" lon="5.94893">
        <ele>760.2</ele>
        <time>2014-06-28T07:27:18.000Z</time>
      </trkpt>
      <trkpt lat="45.61799" lon="5.94884">
        <ele>761</ele>
        <time>2014-06-28T07:27:21.000Z</time>
      </trkpt>
      <trkpt lat="45.618" lon="5.94881">
        <ele>761.4</ele>
        <time>2014-06-28T07:27:22.000Z</time>
      </trkpt>
      <trkpt lat="45.61801" lon="5.94878">
        <ele>761.8</ele>
        <time>2014-06-28T07:27:23.000Z</time>
      </trkpt>
      <trkpt lat="45.61803" lon="5.94875">
        <ele>762.4</ele>
        <time>2014-06-28T07:27:24.000Z</time>
      </trkpt>
      <trkpt lat="45.61816" lon="5.94865">
        <ele>762.4</ele>
        <time>2014-06-28T07:27:30.000Z</time>
      </trkpt>
      <trkpt lat="45.61854" lon="5.94849">
        <ele>764.4</ele>
        <time>2014-06-28T07:27:45.000Z</time>
      </trkpt>
      <trkpt lat="45.61862" lon="5.94846">
        <ele>764.8</ele>
        <time>2014-06-28T07:27:48.000Z</time>
      </trkpt>
      <trkpt lat="45.61868" lon="5.94844">
        <ele>765.6</ele>
        <time>2014-06-28T07:27:50.000Z</time>
      </trkpt>
      <trkpt lat="45.6187" lon="5.94843">
        <ele>766</ele>
        <time>2014-06-28T07:27:51.000Z</time>
      </trkpt>
      <trkpt lat="45.61872" lon="5.94842">
        <ele>766.4</ele>
        <time>2014-06-28T07:27:52.000Z</time>
      </trkpt>
      <trkpt lat="45.6189" lon="5.94838">
        <ele>767.4</ele>
        <time>2014-06-28T07:27:59.000Z</time>
      </trkpt>
      <trkpt lat="45.61904" lon="5.94836">
        <ele>769</ele>
        <time>2014-06-28T07:28:05.000Z</time>
      </trkpt>
      <trkpt lat="45.61909" lon="5.94836">
        <ele>769.8</ele>
        <time>2014-06-28T07:28:07.000Z</time>
      </trkpt>
      <trkpt lat="45.61911" lon="5.94835">
        <ele>770.2</ele>
        <time>2014-06-28T07:28:08.000Z</time>
      </trkpt>
      <trkpt lat="45.61914" lon="5.94836">
        <ele>770.6</ele>
        <time>2014-06-28T07:28:09.000Z</time>
      </trkpt>
      <trkpt lat="45.61923" lon="5.94839">
        <ele>771</ele>
        <time>2014-06-28T07:28:13.000Z</time>
      </trkpt>
      <trkpt lat="45.61927" lon="5.9484">
        <ele>771.8</ele>
        <time>2014-06-28T07:28:15.000Z</time>
      </trkpt>
      <trkpt lat="45.61929" lon="5.94841">
        <ele>772.2</ele>
        <time>2014-06-28T07:28:16.000Z</time>
      </trkpt>
      <trkpt lat="45.61935" lon="5.94845">
        <ele>772.6</ele>
        <time>2014-06-28T07:28:19.000Z</time>
      </trkpt>
      <trkpt lat="45.61941" lon="5.9485">
        <ele>773</ele>
        <time>2014-06-28T07:28:22.000Z</time>
      </trkpt>
      <trkpt lat="45.61942" lon="5.94852">
        <ele>773.6</ele>
        <time>2014-06-28T07:28:23.000Z</time>
      </trkpt>
      <trkpt lat="45.61956" lon="5.94865">
        <ele>775.2</ele>
        <time>2014-06-28T07:28:30.000Z</time>
      </trkpt>
      <trkpt lat="45.61958" lon="5.94867">
        <ele>775.6</ele>
        <time>2014-06-28T07:28:31.000Z</time>
      </trkpt>
      <trkpt lat="45.61959" lon="5.94869">
        <ele>776</ele>
        <time>2014-06-28T07:28:32.000Z</time>
      </trkpt>
      <trkpt lat="45.61961" lon="5.9487">
        <ele>776.4</ele>
        <time>2014-06-28T07:28:33.000Z</time>
      </trkpt>
      <trkpt lat="45.61966" lon="5.94874">
        <ele>777</ele>
        <time>2014-06-28T07:28:35.000Z</time>
      </trkpt>
      <trkpt lat="45.61973" lon="5.94882">
        <ele>777.4</ele>
        <time>2014-06-28T07:28:39.000Z</time>
      </trkpt>
      <trkpt lat="45.61977" lon="5.94885">
        <ele>778.2</ele>
        <time>2014-06-28T07:28:41.000Z</time>
      </trkpt>
      <trkpt lat="45.6199" lon="5.94892">
        <ele>779.4</ele>
        <time>2014-06-28T07:28:47.000Z</time>
      </trkpt>
      <trkpt lat="45.6201" lon="5.949">
        <ele>781.6</ele>
        <time>2014-06-28T07:28:56.000Z</time>
      </trkpt>
      <trkpt lat="45.62017" lon="5.949">
        <ele>782.8</ele>
        <time>2014-06-28T07:28:59.000Z</time>
      </trkpt>
      <trkpt lat="45.6202" lon="5.94901">
        <ele>783.2</ele>
        <time>2014-06-28T07:29:00.000Z</time>
      </trkpt>
      <trkpt lat="45.62026" lon="5.94904">
        <ele>783.2</ele>
        <time>2014-06-28T07:29:03.000Z</time>
      </trkpt>
      <trkpt lat="45.62033" lon="5.94906">
        <ele>783.6</ele>
        <time>2014-06-28T07:29:06.000Z</time>
      </trkpt>
      <trkpt lat="45.62036" lon="5.94906">
        <ele>784</ele>
        <time>2014-06-28T07:29:07.000Z</time>
      </trkpt>
      <trkpt lat="45.62039" lon="5.94906">
        <ele>784.4</ele>
        <time>2014-06-28T07:29:08.000Z</time>
      </trkpt>
      <trkpt lat="45.62064" lon="5.94906">
        <ele>785.8</ele>
        <time>2014-06-28T07:29:17.000Z</time>
      </trkpt>
      <trkpt lat="45.62074" lon="5.94909">
        <ele>787.4</ele>
        <time>2014-06-28T07:29:21.000Z</time>
      </trkpt>
      <trkpt lat="45.62093" lon="5.94916">
        <ele>787.8</ele>
        <time>2014-06-28T07:29:29.000Z</time>
      </trkpt>
      <trkpt lat="45.62095" lon="5.94917">
        <ele>788.2</ele>
        <time>2014-06-28T07:29:30.000Z</time>
      </trkpt>
      <trkpt lat="45.62098" lon="5.94919">
        <ele>788.6</ele>
        <time>2014-06-28T07:29:31.000Z</time>
      </trkpt>
      <trkpt lat="45.62117" lon="5.94935">
        <ele>790.8</ele>
        <time>2014-06-28T07:29:39.000Z</time>
      </trkpt>
      <trkpt lat="45.62143" lon="5.94948">
        <ele>793.6</ele>
        <time>2014-06-28T07:29:49.000Z</time>
      </trkpt>
      <trkpt lat="45.62153" lon="5.94951">
        <ele>794</ele>
        <time>2014-06-28T07:29:53.000Z</time>
      </trkpt>
      <trkpt lat="45.62155" lon="5.94952">
        <ele>794.6</ele>
        <time>2014-06-28T07:29:54.000Z</time>
      </trkpt>
      <trkpt lat="45.62158" lon="5.94953">
        <ele>795</ele>
        <time>2014-06-28T07:29:55.000Z</time>
      </trkpt>
      <trkpt lat="45.6216" lon="5.94953">
        <ele>795.4</ele>
        <time>2014-06-28T07:29:56.000Z</time>
      </trkpt>
      <trkpt lat="45.62178" lon="5.94958">
        <ele>796.2</ele>
        <time>2014-06-28T07:30:03.000Z</time>
      </trkpt>
      <trkpt lat="45.62185" lon="5.94959">
        <ele>797.8</ele>
        <time>2014-06-28T07:30:06.000Z</time>
      </trkpt>
      <trkpt lat="45.62189" lon="5.94961">
        <ele>797.8</ele>
        <time>2014-06-28T07:30:08.000Z</time>
      </trkpt>
      <trkpt lat="45.62202" lon="5.94964">
        <ele>799.2</ele>
        <time>2014-06-28T07:30:13.000Z</time>
      </trkpt>
      <trkpt lat="45.62219" lon="5.94972">
        <ele>800.4</ele>
        <time>2014-06-28T07:30:21.000Z</time>
      </trkpt>
      <trkpt lat="45.62225" lon="5.94971">
        <ele>801.8</ele>
        <time>2014-06-28T07:30:24.000Z</time>
      </trkpt>
      <trkpt lat="45.62228" lon="5.94971">
        <ele>802.2</ele>
        <time>2014-06-28T07:30:25.000Z</time>
      </trkpt>
      <trkpt lat="45.62231" lon="5.9497">
        <ele>802.2</ele>
        <time>2014-06-28T07:30:27.000Z</time>
      </trkpt>
      <trkpt lat="45.62236" lon="5.94968">
        <ele>802.6</ele>
        <time>2014-06-28T07:30:30.000Z</time>
      </trkpt>
      <trkpt lat="45.62237" lon="5.94967">
        <ele>803.4</ele>
        <time>2014-06-28T07:30:32.000Z</time>
      </trkpt>
      <trkpt lat="45.62238" lon="5.94963">
        <ele>804.2</ele>
        <time>2014-06-28T07:30:34.000Z</time>
      </trkpt>
      <trkpt lat="45.62239" lon="5.94961">
        <ele>804.2</ele>
        <time>2014-06-28T07:30:36.000Z</time>
      </trkpt>
      <trkpt lat="45.62239" lon="5.94966">
        <ele>806.6</ele>
        <time>2014-06-28T07:37:11.000Z</time>
      </trkpt>
      <trkpt lat="45.62239" lon="5.94967">
        <ele>806.6</ele>
        <time>2014-06-28T07:37:12.000Z</time>
      </trkpt>
      <trkpt lat="45.62241" lon="5.94972">
        <ele>806.6</ele>
        <time>2014-06-28T07:37:15.000Z</time>
      </trkpt>
      <trkpt lat="45.62246" lon="5.94976">
        <ele>806.6</ele>
        <time>2014-06-28T07:37:17.000Z</time>
      </trkpt>
      <trkpt lat="45.62257" lon="5.94979">
        <ele>806.6</ele>
        <time>2014-06-28T07:37:22.000Z</time>
      </trkpt>
      <trkpt lat="45.62283" lon="5.94998">
        <ele>809.8</ele>
        <time>2014-06-28T07:37:35.000Z</time>
      </trkpt>
      <trkpt lat="45.62285" lon="5.95">
        <ele>810.2</ele>
        <time>2014-06-28T07:37:36.000Z</time>
      </trkpt>
      <trkpt lat="45.62286" lon="5.95003">
        <ele>810.8</ele>
        <time>2014-06-28T07:37:37.000Z</time>
      </trkpt>
      <trkpt lat="45.62291" lon="5.95007">
        <ele>810.8</ele>
        <time>2014-06-28T07:37:40.000Z</time>
      </trkpt>
      <trkpt lat="45.62296" lon="5.95009">
        <ele>811.2</ele>
        <time>2014-06-28T07:37:43.000Z</time>
      </trkpt>
      <trkpt lat="45.62299" lon="5.95009">
        <ele>812</ele>
        <time>2014-06-28T07:37:45.000Z</time>
      </trkpt>
      <trkpt lat="45.62303" lon="5.95012">
        <ele>812.8</ele>
        <time>2014-06-28T07:37:47.000Z</time>
      </trkpt>
      <trkpt lat="45.62311" lon="5.95012">
        <ele>813.4</ele>
        <time>2014-06-28T07:37:52.000Z</time>
      </trkpt>
      <trkpt lat="45.62312" lon="5.95012">
        <ele>813.8</ele>
        <time>2014-06-28T07:37:53.000Z</time>
      </trkpt>
      <trkpt lat="45.62315" lon="5.95015">
        <ele>815</ele>
        <time>2014-06-28T07:37:55.000Z</time>
      </trkpt>
      <trkpt lat="45.62318" lon="5.95019">
        <ele>815</ele>
        <time>2014-06-28T07:37:57.000Z</time>
      </trkpt>
      <trkpt lat="45.62323" lon="5.95026">
        <ele>816.4</ele>
        <time>2014-06-28T07:38:01.000Z</time>
      </trkpt>
      <trkpt lat="45.62325" lon="5.95028">
        <ele>817</ele>
        <time>2014-06-28T07:38:02.000Z</time>
      </trkpt>
      <trkpt lat="45.62327" lon="5.95029">
        <ele>817.4</ele>
        <time>2014-06-28T07:38:03.000Z</time>
      </trkpt>
      <trkpt lat="45.62341" lon="5.95037">
        <ele>818.6</ele>
        <time>2014-06-28T07:38:11.000Z</time>
      </trkpt>
      <trkpt lat="45.62343" lon="5.95037">
        <ele>819</ele>
        <time>2014-06-28T07:38:12.000Z</time>
      </trkpt>
      <trkpt lat="45.62344" lon="5.95038">
        <ele>819.6</ele>
        <time>2014-06-28T07:38:13.000Z</time>
      </trkpt>
      <trkpt lat="45.62347" lon="5.9504">
        <ele>819.6</ele>
        <time>2014-06-28T07:38:15.000Z</time>
      </trkpt>
      <trkpt lat="45.62351" lon="5.95044">
        <ele>820</ele>
        <time>2014-06-28T07:38:18.000Z</time>
      </trkpt>
      <trkpt lat="45.62353" lon="5.95049">
        <ele>820.8</ele>
        <time>2014-06-28T07:38:20.000Z</time>
      </trkpt>
      <trkpt lat="45.62366" lon="5.95065">
        <ele>823.6</ele>
        <time>2014-06-28T07:38:31.000Z</time>
      </trkpt>
      <trkpt lat="45.6237" lon="5.95076">
        <ele>823.6</ele>
        <time>2014-06-28T07:38:37.000Z</time>
      </trkpt>
      <trkpt lat="45.62373" lon="5.9508">
        <ele>824.4</ele>
        <time>2014-06-28T07:38:40.000Z</time>
      </trkpt>
      <trkpt lat="45.62377" lon="5.95084">
        <ele>825.8</ele>
        <time>2014-06-28T07:38:43.000Z</time>
      </trkpt>
      <trkpt lat="45.62383" lon="5.95088">
        <ele>826.6</ele>
        <time>2014-06-28T07:38:48.000Z</time>
      </trkpt>
      <trkpt lat="45.62384" lon="5.95089">
        <ele>827</ele>
        <time>2014-06-28T07:38:49.000Z</time>
      </trkpt>
      <trkpt lat="45.62385" lon="5.9509">
        <ele>827.4</ele>
        <time>2014-06-28T07:38:50.000Z</time>
      </trkpt>
      <trkpt lat="45.62388" lon="5.95099">
        <ele>827.8</ele>
        <time>2014-06-28T07:39:00.000Z</time>
      </trkpt>
      <trkpt lat="45.62389" lon="5.95096">
        <ele>827.8</ele>
        <time>2014-06-28T07:39:02.000Z</time>
      </trkpt>
      <trkpt lat="45.62389" lon="5.95094">
        <ele>827.8</ele>
        <time>2014-06-28T07:39:03.000Z</time>
      </trkpt>
      <trkpt lat="45.62387" lon="5.95091">
        <ele>827.8</ele>
        <time>2014-06-28T07:39:05.000Z</time>
      </trkpt>
      <trkpt lat="45.62387" lon="5.95087">
        <ele>827.8</ele>
        <time>2014-06-28T07:39:06.000Z</time>
      </trkpt>
      <trkpt lat="45.62382" lon="5.95086">
        <ele>827.8</ele>
        <time>2014-06-28T07:39:09.000Z</time>
      </trkpt>
      <trkpt lat="45.62382" lon="5.95089">
        <ele>827.8</ele>
        <time>2014-06-28T07:39:10.000Z</time>
      </trkpt>
      <trkpt lat="45.62386" lon="5.95096">
        <ele>827.8</ele>
        <time>2014-06-28T07:39:14.000Z</time>
      </trkpt>
      <trkpt lat="45.62393" lon="5.95104">
        <ele>828.8</ele>
        <time>2014-06-28T07:39:20.000Z</time>
      </trkpt>
      <trkpt lat="45.62394" lon="5.95107">
        <ele>829.2</ele>
        <time>2014-06-28T07:39:21.000Z</time>
      </trkpt>
      <trkpt lat="45.62396" lon="5.95108">
        <ele>829.6</ele>
        <time>2014-06-28T07:39:22.000Z</time>
      </trkpt>
      <trkpt lat="45.62397" lon="5.9511">
        <ele>830</ele>
        <time>2014-06-28T07:39:23.000Z</time>
      </trkpt>
      <trkpt lat="45.62399" lon="5.95113">
        <ele>830</ele>
        <time>2014-06-28T07:39:26.000Z</time>
      </trkpt>
      <trkpt lat="45.624" lon="5.95114">
        <ele>830.4</ele>
        <time>2014-06-28T07:39:27.000Z</time>
      </trkpt>
      <trkpt lat="45.62404" lon="5.95115">
        <ele>831.4</ele>
        <time>2014-06-28T07:39:29.000Z</time>
      </trkpt>
      <trkpt lat="45.62406" lon="5.95116">
        <ele>831.8</ele>
        <time>2014-06-28T07:39:30.000Z</time>
      </trkpt>
      <trkpt lat="45.62412" lon="5.95118">
        <ele>832.2</ele>
        <time>2014-06-28T07:39:33.000Z</time>
      </trkpt>
      <trkpt lat="45.62414" lon="5.9512">
        <ele>832.6</ele>
        <time>2014-06-28T07:39:35.000Z</time>
      </trkpt>
      <trkpt lat="45.62416" lon="5.9512">
        <ele>833.2</ele>
        <time>2014-06-28T07:39:36.000Z</time>
      </trkpt>
      <trkpt lat="45.62417" lon="5.95121">
        <ele>833.6</ele>
        <time>2014-06-28T07:39:37.000Z</time>
      </trkpt>
      <trkpt lat="45.62419" lon="5.95122">
        <ele>834</ele>
        <time>2014-06-28T07:39:38.000Z</time>
      </trkpt>
      <trkpt lat="45.62432" lon="5.95125">
        <ele>834.4</ele>
        <time>2014-06-28T07:39:46.000Z</time>
      </trkpt>
      <trkpt lat="45.62433" lon="5.95126">
        <ele>834.8</ele>
        <time>2014-06-28T07:39:47.000Z</time>
      </trkpt>
      <trkpt lat="45.62434" lon="5.95127">
        <ele>835.2</ele>
        <time>2014-06-28T07:39:48.000Z</time>
      </trkpt>
      <trkpt lat="45.62435" lon="5.95127">
        <ele>835.6</ele>
        <time>2014-06-28T07:39:49.000Z</time>
      </trkpt>
      <trkpt lat="45.62438" lon="5.95129">
        <ele>836.4</ele>
        <time>2014-06-28T07:39:51.000Z</time>
      </trkpt>
      <trkpt lat="45.6244" lon="5.9513">
        <ele>836.4</ele>
        <time>2014-06-28T07:39:52.000Z</time>
      </trkpt>
      <trkpt lat="45.62451" lon="5.95136">
        <ele>836.4</ele>
        <time>2014-06-28T07:39:58.000Z</time>
      </trkpt>
      <trkpt lat="45.62453" lon="5.95137">
        <ele>836.8</ele>
        <time>2014-06-28T07:39:59.000Z</time>
      </trkpt>
      <trkpt lat="45.62457" lon="5.95138">
        <ele>837.6</ele>
        <time>2014-06-28T07:40:01.000Z</time>
      </trkpt>
      <trkpt lat="45.62462" lon="5.95138">
        <ele>838.4</ele>
        <time>2014-06-28T07:40:04.000Z</time>
      </trkpt>
      <trkpt lat="45.6247" lon="5.95136">
        <ele>839</ele>
        <time>2014-06-28T07:40:09.000Z</time>
      </trkpt>
      <trkpt lat="45.62472" lon="5.95136">
        <ele>839.4</ele>
        <time>2014-06-28T07:40:10.000Z</time>
      </trkpt>
      <trkpt lat="45.62474" lon="5.95136">
        <ele>839.8</ele>
        <time>2014-06-28T07:40:11.000Z</time>
      </trkpt>
      <trkpt lat="45.62476" lon="5.95136">
        <ele>840.2</ele>
        <time>2014-06-28T07:40:12.000Z</time>
      </trkpt>
      <trkpt lat="45.62484" lon="5.95137">
        <ele>840.6</ele>
        <time>2014-06-28T07:40:16.000Z</time>
      </trkpt>
      <trkpt lat="45.6249" lon="5.95139">
        <ele>841</ele>
        <time>2014-06-28T07:40:20.000Z</time>
      </trkpt>
      <trkpt lat="45.62509" lon="5.95141">
        <ele>842.6</ele>
        <time>2014-06-28T07:40:29.000Z</time>
      </trkpt>
      <trkpt lat="45.62519" lon="5.95136">
        <ele>843</ele>
        <time>2014-06-28T07:40:33.000Z</time>
      </trkpt>
      <trkpt lat="45.62521" lon="5.95135">
        <ele>843.4</ele>
        <time>2014-06-28T07:40:34.000Z</time>
      </trkpt>
      <trkpt lat="45.62526" lon="5.95131">
        <ele>844.4</ele>
        <time>2014-06-28T07:40:36.000Z</time>
      </trkpt>
      <trkpt lat="45.62529" lon="5.9513">
        <ele>844.8</ele>
        <time>2014-06-28T07:40:37.000Z</time>
      </trkpt>
      <trkpt lat="45.62537" lon="5.95127">
        <ele>844.8</ele>
        <time>2014-06-28T07:40:41.000Z</time>
      </trkpt>
      <trkpt lat="45.62548" lon="5.95125">
        <ele>845.2</ele>
        <time>2014-06-28T07:40:46.000Z</time>
      </trkpt>
      <trkpt lat="45.6255" lon="5.95126">
        <ele>846</ele>
        <time>2014-06-28T07:40:47.000Z</time>
      </trkpt>
      <trkpt lat="45.62574" lon="5.95127">
        <ele>847.4</ele>
        <time>2014-06-28T07:40:59.000Z</time>
      </trkpt>
      <trkpt lat="45.62577" lon="5.95127">
        <ele>847.8</ele>
        <time>2014-06-28T07:41:00.000Z</time>
      </trkpt>
      <trkpt lat="45.6258" lon="5.95126">
        <ele>848.2</ele>
        <time>2014-06-28T07:41:01.000Z</time>
      </trkpt>
      <trkpt lat="45.62582" lon="5.95126">
        <ele>848.6</ele>
        <time>2014-06-28T07:41:02.000Z</time>
      </trkpt>
      <trkpt lat="45.62585" lon="5.95127">
        <ele>849</ele>
        <time>2014-06-28T07:41:03.000Z</time>
      </trkpt>
      <trkpt lat="45.62596" lon="5.95127">
        <ele>849</ele>
        <time>2014-06-28T07:41:09.000Z</time>
      </trkpt>
      <trkpt lat="45.62601" lon="5.95127">
        <ele>849.4</ele>
        <time>2014-06-28T07:41:12.000Z</time>
      </trkpt>
      <trkpt lat="45.62604" lon="5.95128">
        <ele>849.8</ele>
        <time>2014-06-28T07:41:13.000Z</time>
      </trkpt>
      <trkpt lat="45.62605" lon="5.95128">
        <ele>850.2</ele>
        <time>2014-06-28T07:41:14.000Z</time>
      </trkpt>
      <trkpt lat="45.62607" lon="5.95129">
        <ele>851.2</ele>
        <time>2014-06-28T07:41:16.000Z</time>
      </trkpt>
      <trkpt lat="45.62611" lon="5.9513">
        <ele>851.2</ele>
        <time>2014-06-28T07:41:18.000Z</time>
      </trkpt>
      <trkpt lat="45.62613" lon="5.95131">
        <ele>851.2</ele>
        <time>2014-06-28T07:41:20.000Z</time>
      </trkpt>
      <trkpt lat="45.62617" lon="5.95134">
        <ele>851.6</ele>
        <time>2014-06-28T07:41:23.000Z</time>
      </trkpt>
      <trkpt lat="45.6262" lon="5.95135">
        <ele>852.4</ele>
        <time>2014-06-28T07:41:25.000Z</time>
      </trkpt>
      <trkpt lat="45.62622" lon="5.95135">
        <ele>852.8</ele>
        <time>2014-06-28T07:41:26.000Z</time>
      </trkpt>
      <trkpt lat="45.62623" lon="5.95136">
        <ele>853.2</ele>
        <time>2014-06-28T07:41:27.000Z</time>
      </trkpt>
      <trkpt lat="45.62633" lon="5.95151">
        <ele>854</ele>
        <time>2014-06-28T07:41:35.000Z</time>
      </trkpt>
      <trkpt lat="45.6264" lon="5.95166">
        <ele>855.6</ele>
        <time>2014-06-28T07:41:42.000Z</time>
      </trkpt>
      <trkpt lat="45.62641" lon="5.95169">
        <ele>856.2</ele>
        <time>2014-06-28T07:41:43.000Z</time>
      </trkpt>
      <trkpt lat="45.62642" lon="5.9517">
        <ele>856.6</ele>
        <time>2014-06-28T07:41:44.000Z</time>
      </trkpt>
      <trkpt lat="45.62644" lon="5.95173">
        <ele>857.6</ele>
        <time>2014-06-28T07:41:46.000Z</time>
      </trkpt>
      <trkpt lat="45.62648" lon="5.95177">
        <ele>858</ele>
        <time>2014-06-28T07:41:49.000Z</time>
      </trkpt>
      <trkpt lat="45.62652" lon="5.95188">
        <ele>859.6</ele>
        <time>2014-06-28T07:41:54.000Z</time>
      </trkpt>
      <trkpt lat="45.62655" lon="5.95193">
        <ele>860</ele>
        <time>2014-06-28T07:41:57.000Z</time>
      </trkpt>
      <trkpt lat="45.62656" lon="5.95194">
        <ele>860.4</ele>
        <time>2014-06-28T07:41:58.000Z</time>
      </trkpt>
      <trkpt lat="45.62656" lon="5.95195">
        <ele>860.8</ele>
        <time>2014-06-28T07:41:59.000Z</time>
      </trkpt>
      <trkpt lat="45.62657" lon="5.95196">
        <ele>861.2</ele>
        <time>2014-06-28T07:42:00.000Z</time>
      </trkpt>
      <trkpt lat="45.62658" lon="5.95197">
        <ele>861.6</ele>
        <time>2014-06-28T07:42:01.000Z</time>
      </trkpt>
      <trkpt lat="45.62663" lon="5.95204">
        <ele>862</ele>
        <time>2014-06-28T07:42:06.000Z</time>
      </trkpt>
      <trkpt lat="45.62665" lon="5.95207">
        <ele>862.8</ele>
        <time>2014-06-28T07:42:08.000Z</time>
      </trkpt>
      <trkpt lat="45.62666" lon="5.95209">
        <ele>863.2</ele>
        <time>2014-06-28T07:42:09.000Z</time>
      </trkpt>
      <trkpt lat="45.62666" lon="5.9521">
        <ele>863.6</ele>
        <time>2014-06-28T07:42:10.000Z</time>
      </trkpt>
      <trkpt lat="45.6267" lon="5.95218">
        <ele>864.2</ele>
        <time>2014-06-28T07:42:15.000Z</time>
      </trkpt>
      <trkpt lat="45.62671" lon="5.95223">
        <ele>865</ele>
        <time>2014-06-28T07:42:17.000Z</time>
      </trkpt>
      <trkpt lat="45.62673" lon="5.95224">
        <ele>865.4</ele>
        <time>2014-06-28T07:42:18.000Z</time>
      </trkpt>
      <trkpt lat="45.62674" lon="5.95225">
        <ele>865.8</ele>
        <time>2014-06-28T07:42:19.000Z</time>
      </trkpt>
      <trkpt lat="45.62676" lon="5.95234">
        <ele>866.4</ele>
        <time>2014-06-28T07:42:24.000Z</time>
      </trkpt>
      <trkpt lat="45.62677" lon="5.95237">
        <ele>867.2</ele>
        <time>2014-06-28T07:42:25.000Z</time>
      </trkpt>
      <trkpt lat="45.62678" lon="5.9524">
        <ele>868</ele>
        <time>2014-06-28T07:42:27.000Z</time>
      </trkpt>
      <trkpt lat="45.6268" lon="5.95246">
        <ele>868.4</ele>
        <time>2014-06-28T07:42:30.000Z</time>
      </trkpt>
      <trkpt lat="45.6268" lon="5.95248">
        <ele>869</ele>
        <time>2014-06-28T07:42:31.000Z</time>
      </trkpt>
      <trkpt lat="45.62681" lon="5.95249">
        <ele>869.4</ele>
        <time>2014-06-28T07:42:32.000Z</time>
      </trkpt>
      <trkpt lat="45.62683" lon="5.9525">
        <ele>869.8</ele>
        <time>2014-06-28T07:42:33.000Z</time>
      </trkpt>
      <trkpt lat="45.62685" lon="5.95251">
        <ele>870.2</ele>
        <time>2014-06-28T07:42:34.000Z</time>
      </trkpt>
      <trkpt lat="45.62688" lon="5.95253">
        <ele>870.2</ele>
        <time>2014-06-28T07:42:37.000Z</time>
      </trkpt>
      <trkpt lat="45.62691" lon="5.95255">
        <ele>871</ele>
        <time>2014-06-28T07:42:40.000Z</time>
      </trkpt>
      <trkpt lat="45.62692" lon="5.95256">
        <ele>871.4</ele>
        <time>2014-06-28T07:42:41.000Z</time>
      </trkpt>
      <trkpt lat="45.62693" lon="5.95256">
        <ele>871.8</ele>
        <time>2014-06-28T07:42:42.000Z</time>
      </trkpt>
      <trkpt lat="45.62693" lon="5.95256">
        <ele>872.2</ele>
        <time>2014-06-28T07:42:43.000Z</time>
      </trkpt>
      <trkpt lat="45.62704" lon="5.95267">
        <ele>874.4</ele>
        <time>2014-06-28T07:42:53.000Z</time>
      </trkpt>
      <trkpt lat="45.6271" lon="5.95272">
        <ele>874.8</ele>
        <time>2014-06-28T07:42:58.000Z</time>
      </trkpt>
      <trkpt lat="45.62713" lon="5.95274">
        <ele>875.8</ele>
        <time>2014-06-28T07:43:00.000Z</time>
      </trkpt>
      <trkpt lat="45.6272" lon="5.95279">
        <ele>876.6</ele>
        <time>2014-06-28T07:43:05.000Z</time>
      </trkpt>
      <trkpt lat="45.62727" lon="5.95283">
        <ele>878.8</ele>
        <time>2014-06-28T07:43:10.000Z</time>
      </trkpt>
      <trkpt lat="45.6273" lon="5.95286">
        <ele>878.8</ele>
        <time>2014-06-28T07:43:13.000Z</time>
      </trkpt>
      <trkpt lat="45.62732" lon="5.95287">
        <ele>879.2</ele>
        <time>2014-06-28T07:43:15.000Z</time>
      </trkpt>
      <trkpt lat="45.62732" lon="5.95288">
        <ele>879.6</ele>
        <time>2014-06-28T07:43:16.000Z</time>
      </trkpt>
      <trkpt lat="45.62733" lon="5.95289">
        <ele>880</ele>
        <time>2014-06-28T07:43:17.000Z</time>
      </trkpt>
      <trkpt lat="45.62734" lon="5.9529">
        <ele>880.6</ele>
        <time>2014-06-28T07:43:18.000Z</time>
      </trkpt>
      <trkpt lat="45.62734" lon="5.95291">
        <ele>881</ele>
        <time>2014-06-28T07:43:19.000Z</time>
      </trkpt>
      <trkpt lat="45.62736" lon="5.95292">
        <ele>881</ele>
        <time>2014-06-28T07:43:20.000Z</time>
      </trkpt>
      <trkpt lat="45.62741" lon="5.953">
        <ele>881.4</ele>
        <time>2014-06-28T07:43:25.000Z</time>
      </trkpt>
      <trkpt lat="45.62742" lon="5.95302">
        <ele>881.8</ele>
        <time>2014-06-28T07:43:26.000Z</time>
      </trkpt>
      <trkpt lat="45.62745" lon="5.95307">
        <ele>883.2</ele>
        <time>2014-06-28T07:43:29.000Z</time>
      </trkpt>
      <trkpt lat="45.62748" lon="5.95313">
        <ele>883.2</ele>
        <time>2014-06-28T07:43:33.000Z</time>
      </trkpt>
      <trkpt lat="45.6275" lon="5.95317">
        <ele>884</ele>
        <time>2014-06-28T07:43:36.000Z</time>
      </trkpt>
      <trkpt lat="45.62751" lon="5.95318">
        <ele>884.4</ele>
        <time>2014-06-28T07:43:37.000Z</time>
      </trkpt>
      <trkpt lat="45.62753" lon="5.95319">
        <ele>885.2</ele>
        <time>2014-06-28T07:43:39.000Z</time>
      </trkpt>
      <trkpt lat="45.62756" lon="5.95325">
        <ele>885.6</ele>
        <time>2014-06-28T07:43:43.000Z</time>
      </trkpt>
      <trkpt lat="45.62757" lon="5.95326">
        <ele>886</ele>
        <time>2014-06-28T07:43:44.000Z</time>
      </trkpt>
      <trkpt lat="45.62759" lon="5.95342">
        <ele>888.2</ele>
        <time>2014-06-28T07:43:53.000Z</time>
      </trkpt>
      <trkpt lat="45.62765" lon="5.95357">
        <ele>890.6</ele>
        <time>2014-06-28T07:44:02.000Z</time>
      </trkpt>
      <trkpt lat="45.62766" lon="5.95359">
        <ele>891.6</ele>
        <time>2014-06-28T07:44:04.000Z</time>
      </trkpt>
      <trkpt lat="45.62771" lon="5.95367">
        <ele>892.4</ele>
        <time>2014-06-28T07:44:10.000Z</time>
      </trkpt>
      <trkpt lat="45.62772" lon="5.95369">
        <ele>893.2</ele>
        <time>2014-06-28T07:44:12.000Z</time>
      </trkpt>
      <trkpt lat="45.62772" lon="5.95371">
        <ele>893.6</ele>
        <time>2014-06-28T07:44:13.000Z</time>
      </trkpt>
      <trkpt lat="45.62777" lon="5.95378">
        <ele>894</ele>
        <time>2014-06-28T07:44:19.000Z</time>
      </trkpt>
      <trkpt lat="45.62778" lon="5.95379">
        <ele>894.6</ele>
        <time>2014-06-28T07:44:20.000Z</time>
      </trkpt>
      <trkpt lat="45.62779" lon="5.9538">
        <ele>895</ele>
        <time>2014-06-28T07:44:21.000Z</time>
      </trkpt>
      <trkpt lat="45.62786" lon="5.9539">
        <ele>896.6</ele>
        <time>2014-06-28T07:44:29.000Z</time>
      </trkpt>
      <trkpt lat="45.62787" lon="5.95391">
        <ele>897</ele>
        <time>2014-06-28T07:44:30.000Z</time>
      </trkpt>
      <trkpt lat="45.62787" lon="5.95393">
        <ele>897.4</ele>
        <time>2014-06-28T07:44:31.000Z</time>
      </trkpt>
      <trkpt lat="45.62788" lon="5.95394">
        <ele>897.8</ele>
        <time>2014-06-28T07:44:32.000Z</time>
      </trkpt>
      <trkpt lat="45.62791" lon="5.95398">
        <ele>897.8</ele>
        <time>2014-06-28T07:44:35.000Z</time>
      </trkpt>
      <trkpt lat="45.62793" lon="5.95399">
        <ele>898.2</ele>
        <time>2014-06-28T07:44:36.000Z</time>
      </trkpt>
      <trkpt lat="45.62794" lon="5.95399">
        <ele>898.6</ele>
        <time>2014-06-28T07:44:37.000Z</time>
      </trkpt>
      <trkpt lat="45.62795" lon="5.95399">
        <ele>899.2</ele>
        <time>2014-06-28T07:44:38.000Z</time>
      </trkpt>
      <trkpt lat="45.62796" lon="5.95401">
        <ele>899.6</ele>
        <time>2014-06-28T07:44:39.000Z</time>
      </trkpt>
      <trkpt lat="45.62803" lon="5.95407">
        <ele>900</ele>
        <time>2014-06-28T07:44:45.000Z</time>
      </trkpt>
      <trkpt lat="45.62804" lon="5.95408">
        <ele>900</ele>
        <time>2014-06-28T07:44:46.000Z</time>
      </trkpt>
      <trkpt lat="45.62805" lon="5.95408">
        <ele>900.4</ele>
        <time>2014-06-28T07:44:47.000Z</time>
      </trkpt>
      <trkpt lat="45.62806" lon="5.95408">
        <ele>900.8</ele>
        <time>2014-06-28T07:44:48.000Z</time>
      </trkpt>
      <trkpt lat="45.62809" lon="5.95409">
        <ele>902</ele>
        <time>2014-06-28T07:44:51.000Z</time>
      </trkpt>
      <trkpt lat="45.62816" lon="5.95414">
        <ele>902.6</ele>
        <time>2014-06-28T07:44:57.000Z</time>
      </trkpt>
      <trkpt lat="45.62818" lon="5.95415">
        <ele>903.8</ele>
        <time>2014-06-28T07:45:00.000Z</time>
      </trkpt>
      <trkpt lat="45.6282" lon="5.95415">
        <ele>904.2</ele>
        <time>2014-06-28T07:45:01.000Z</time>
      </trkpt>
      <trkpt lat="45.62823" lon="5.95416">
        <ele>904.2</ele>
        <time>2014-06-28T07:45:04.000Z</time>
      </trkpt>
      <trkpt lat="45.62829" lon="5.9542">
        <ele>905.2</ele>
        <time>2014-06-28T07:45:09.000Z</time>
      </trkpt>
      <trkpt lat="45.6283" lon="5.9542">
        <ele>905.6</ele>
        <time>2014-06-28T07:45:10.000Z</time>
      </trkpt>
      <trkpt lat="45.62831" lon="5.95421">
        <ele>906</ele>
        <time>2014-06-28T07:45:11.000Z</time>
      </trkpt>
      <trkpt lat="45.62832" lon="5.95422">
        <ele>906.4</ele>
        <time>2014-06-28T07:45:12.000Z</time>
      </trkpt>
      <trkpt lat="45.62837" lon="5.95425">
        <ele>906.4</ele>
        <time>2014-06-28T07:45:17.000Z</time>
      </trkpt>
      <trkpt lat="45.62839" lon="5.95425">
        <ele>906.4</ele>
        <time>2014-06-28T07:45:18.000Z</time>
      </trkpt>
      <trkpt lat="45.6284" lon="5.95426">
        <ele>907.2</ele>
        <time>2014-06-28T07:45:19.000Z</time>
      </trkpt>
      <trkpt lat="45.62845" lon="5.95428">
        <ele>908.4</ele>
        <time>2014-06-28T07:45:22.000Z</time>
      </trkpt>
      <trkpt lat="45.62851" lon="5.95432">
        <ele>908.8</ele>
        <time>2014-06-28T07:45:28.000Z</time>
      </trkpt>
      <trkpt lat="45.62853" lon="5.95435">
        <ele>909.8</ele>
        <time>2014-06-28T07:45:30.000Z</time>
      </trkpt>
      <trkpt lat="45.62868" lon="5.95443">
        <ele>912.4</ele>
        <time>2014-06-28T07:45:41.000Z</time>
      </trkpt>
      <trkpt lat="45.62872" lon="5.95445">
        <ele>912.8</ele>
        <time>2014-06-28T07:45:45.000Z</time>
      </trkpt>
      <trkpt lat="45.62873" lon="5.95445">
        <ele>913.2</ele>
        <time>2014-06-28T07:45:46.000Z</time>
      </trkpt>
      <trkpt lat="45.62874" lon="5.95445">
        <ele>913.6</ele>
        <time>2014-06-28T07:45:47.000Z</time>
      </trkpt>
      <trkpt lat="45.62878" lon="5.95445">
        <ele>915</ele>
        <time>2014-06-28T07:45:50.000Z</time>
      </trkpt>
      <trkpt lat="45.62879" lon="5.95445">
        <ele>915</ele>
        <time>2014-06-28T07:45:51.000Z</time>
      </trkpt>
      <trkpt lat="45.62883" lon="5.95442">
        <ele>915</ele>
        <time>2014-06-28T07:45:54.000Z</time>
      </trkpt>
      <trkpt lat="45.62886" lon="5.95439">
        <ele>915.4</ele>
        <time>2014-06-28T07:45:56.000Z</time>
      </trkpt>
      <trkpt lat="45.6289" lon="5.95436">
        <ele>917</ele>
        <time>2014-06-28T07:46:00.000Z</time>
      </trkpt>
      <trkpt lat="45.62893" lon="5.95435">
        <ele>917</ele>
        <time>2014-06-28T07:46:03.000Z</time>
      </trkpt>
      <trkpt lat="45.62898" lon="5.95435">
        <ele>918</ele>
        <time>2014-06-28T07:46:07.000Z</time>
      </trkpt>
      <trkpt lat="45.62899" lon="5.95435">
        <ele>918.8</ele>
        <time>2014-06-28T07:46:08.000Z</time>
      </trkpt>
      <trkpt lat="45.62907" lon="5.95432">
        <ele>919.6</ele>
        <time>2014-06-28T07:46:14.000Z</time>
      </trkpt>
      <trkpt lat="45.62909" lon="5.95432">
        <ele>920</ele>
        <time>2014-06-28T07:46:15.000Z</time>
      </trkpt>
      <trkpt lat="45.62911" lon="5.95432">
        <ele>920.4</ele>
        <time>2014-06-28T07:46:16.000Z</time>
      </trkpt>
      <trkpt lat="45.62912" lon="5.95432">
        <ele>920.8</ele>
        <time>2014-06-28T07:46:17.000Z</time>
      </trkpt>
      <trkpt lat="45.62914" lon="5.95432">
        <ele>921.2</ele>
        <time>2014-06-28T07:46:18.000Z</time>
      </trkpt>
      <trkpt lat="45.62923" lon="5.9543">
        <ele>921.6</ele>
        <time>2014-06-28T07:46:24.000Z</time>
      </trkpt>
      <trkpt lat="45.62924" lon="5.9543">
        <ele>922</ele>
        <time>2014-06-28T07:46:25.000Z</time>
      </trkpt>
      <trkpt lat="45.62925" lon="5.95428">
        <ele>922.4</ele>
        <time>2014-06-28T07:46:26.000Z</time>
      </trkpt>
      <trkpt lat="45.62927" lon="5.95428">
        <ele>922.8</ele>
        <time>2014-06-28T07:46:27.000Z</time>
      </trkpt>
      <trkpt lat="45.62928" lon="5.95427">
        <ele>923.2</ele>
        <time>2014-06-28T07:46:28.000Z</time>
      </trkpt>
      <trkpt lat="45.62931" lon="5.95426">
        <ele>923.2</ele>
        <time>2014-06-28T07:46:31.000Z</time>
      </trkpt>
      <trkpt lat="45.62934" lon="5.95426">
        <ele>923.2</ele>
        <time>2014-06-28T07:46:33.000Z</time>
      </trkpt>
      <trkpt lat="45.62938" lon="5.95427">
        <ele>923.6</ele>
        <time>2014-06-28T07:46:35.000Z</time>
      </trkpt>
      <trkpt lat="45.62941" lon="5.95428">
        <ele>924.4</ele>
        <time>2014-06-28T07:46:37.000Z</time>
      </trkpt>
      <trkpt lat="45.62953" lon="5.95438">
        <ele>925.8</ele>
        <time>2014-06-28T07:46:47.000Z</time>
      </trkpt>
      <trkpt lat="45.62955" lon="5.95438">
        <ele>926.2</ele>
        <time>2014-06-28T07:46:48.000Z</time>
      </trkpt>
      <trkpt lat="45.62958" lon="5.95439">
        <ele>927</ele>
        <time>2014-06-28T07:46:50.000Z</time>
      </trkpt>
      <trkpt lat="45.6296" lon="5.95439">
        <ele>927.4</ele>
        <time>2014-06-28T07:46:51.000Z</time>
      </trkpt>
      <trkpt lat="45.62967" lon="5.95442">
        <ele>927.4</ele>
        <time>2014-06-28T07:46:55.000Z</time>
      </trkpt>
      <trkpt lat="45.62968" lon="5.95442">
        <ele>927.4</ele>
        <time>2014-06-28T07:46:56.000Z</time>
      </trkpt>
      <trkpt lat="45.62971" lon="5.95443">
        <ele>927.8</ele>
        <time>2014-06-28T07:46:58.000Z</time>
      </trkpt>
      <trkpt lat="45.62974" lon="5.95442">
        <ele>928.6</ele>
        <time>2014-06-28T07:47:00.000Z</time>
      </trkpt>
      <trkpt lat="45.62976" lon="5.95441">
        <ele>929</ele>
        <time>2014-06-28T07:47:01.000Z</time>
      </trkpt>
      <trkpt lat="45.62977" lon="5.95441">
        <ele>929.4</ele>
        <time>2014-06-28T07:47:02.000Z</time>
      </trkpt>
      <trkpt lat="45.62986" lon="5.9544">
        <ele>929.4</ele>
        <time>2014-06-28T07:47:08.000Z</time>
      </trkpt>
      <trkpt lat="45.62988" lon="5.95438">
        <ele>929.8</ele>
        <time>2014-06-28T07:47:10.000Z</time>
      </trkpt>
      <trkpt lat="45.62992" lon="5.95435">
        <ele>931.4</ele>
        <time>2014-06-28T07:47:14.000Z</time>
      </trkpt>
      <trkpt lat="45.62994" lon="5.95435">
        <ele>931.4</ele>
        <time>2014-06-28T07:47:15.000Z</time>
      </trkpt>
      <trkpt lat="45.63006" lon="5.95434">
        <ele>931.4</ele>
        <time>2014-06-28T07:47:21.000Z</time>
      </trkpt>
      <trkpt lat="45.6301" lon="5.95432">
        <ele>932.2</ele>
        <time>2014-06-28T07:47:24.000Z</time>
      </trkpt>
      <trkpt lat="45.63012" lon="5.95432">
        <ele>932.8</ele>
        <time>2014-06-28T07:47:25.000Z</time>
      </trkpt>
      <trkpt lat="45.63016" lon="5.9543">
        <ele>933.6</ele>
        <time>2014-06-28T07:47:28.000Z</time>
      </trkpt>
      <trkpt lat="45.63024" lon="5.95423">
        <ele>934.8</ele>
        <time>2014-06-28T07:47:36.000Z</time>
      </trkpt>
      <trkpt lat="45.63025" lon="5.95423">
        <ele>935.2</ele>
        <time>2014-06-28T07:47:37.000Z</time>
      </trkpt>
      <trkpt lat="45.63026" lon="5.95421">
        <ele>935.6</ele>
        <time>2014-06-28T07:47:38.000Z</time>
      </trkpt>
      <trkpt lat="45.63032" lon="5.9542">
        <ele>936</ele>
        <time>2014-06-28T07:47:42.000Z</time>
      </trkpt>
      <trkpt lat="45.63037" lon="5.95421">
        <ele>937.2</ele>
        <time>2014-06-28T07:47:45.000Z</time>
      </trkpt>
      <trkpt lat="45.63045" lon="5.95424">
        <ele>937.6</ele>
        <time>2014-06-28T07:47:49.000Z</time>
      </trkpt>
      <trkpt lat="45.63053" lon="5.95425">
        <ele>939</ele>
        <time>2014-06-28T07:47:53.000Z</time>
      </trkpt>
      <trkpt lat="45.63055" lon="5.95424">
        <ele>939.6</ele>
        <time>2014-06-28T07:47:54.000Z</time>
      </trkpt>
      <trkpt lat="45.63057" lon="5.95422">
        <ele>940</ele>
        <time>2014-06-28T07:47:55.000Z</time>
      </trkpt>
      <trkpt lat="45.63062" lon="5.95418">
        <ele>940.4</ele>
        <time>2014-06-28T07:47:58.000Z</time>
      </trkpt>
      <trkpt lat="45.63062" lon="5.95416">
        <ele>941</ele>
        <time>2014-06-28T07:47:59.000Z</time>
      </trkpt>
      <trkpt lat="45.63063" lon="5.95416">
        <ele>941.4</ele>
        <time>2014-06-28T07:48:00.000Z</time>
      </trkpt>
      <trkpt lat="45.63065" lon="5.95414">
        <ele>941.8</ele>
        <time>2014-06-28T07:48:01.000Z</time>
      </trkpt>
      <trkpt lat="45.63073" lon="5.95405">
        <ele>943.6</ele>
        <time>2014-06-28T07:48:06.000Z</time>
      </trkpt>
      <trkpt lat="45.63083" lon="5.95394">
        <ele>945.2</ele>
        <time>2014-06-28T07:48:14.000Z</time>
      </trkpt>
      <trkpt lat="45.63086" lon="5.95392">
        <ele>946.2</ele>
        <time>2014-06-28T07:48:16.000Z</time>
      </trkpt>
      <trkpt lat="45.63091" lon="5.95387">
        <ele>946.6</ele>
        <time>2014-06-28T07:48:20.000Z</time>
      </trkpt>
      <trkpt lat="45.631" lon="5.95374">
        <ele>947</ele>
        <time>2014-06-28T07:48:28.000Z</time>
      </trkpt>
      <trkpt lat="45.63102" lon="5.95372">
        <ele>948.2</ele>
        <time>2014-06-28T07:48:30.000Z</time>
      </trkpt>
      <trkpt lat="45.63117" lon="5.95356">
        <ele>949.4</ele>
        <time>2014-06-28T07:48:41.000Z</time>
      </trkpt>
      <trkpt lat="45.63118" lon="5.95354">
        <ele>949.8</ele>
        <time>2014-06-28T07:48:42.000Z</time>
      </trkpt>
      <trkpt lat="45.63119" lon="5.95352">
        <ele>950.2</ele>
        <time>2014-06-28T07:48:43.000Z</time>
      </trkpt>
      <trkpt lat="45.6312" lon="5.95351">
        <ele>950.6</ele>
        <time>2014-06-28T07:48:44.000Z</time>
      </trkpt>
      <trkpt lat="45.63123" lon="5.9535">
        <ele>950.6</ele>
        <time>2014-06-28T07:48:46.000Z</time>
      </trkpt>
      <trkpt lat="45.63127" lon="5.95347">
        <ele>951</ele>
        <time>2014-06-28T07:48:49.000Z</time>
      </trkpt>
      <trkpt lat="45.6313" lon="5.95346">
        <ele>951.8</ele>
        <time>2014-06-28T07:48:51.000Z</time>
      </trkpt>
      <trkpt lat="45.63132" lon="5.95344">
        <ele>952.2</ele>
        <time>2014-06-28T07:48:52.000Z</time>
      </trkpt>
      <trkpt lat="45.63132" lon="5.95344">
        <ele>952.6</ele>
        <time>2014-06-28T07:48:53.000Z</time>
      </trkpt>
      <trkpt lat="45.63139" lon="5.95342">
        <ele>952.6</ele>
        <time>2014-06-28T07:48:57.000Z</time>
      </trkpt>
      <trkpt lat="45.63142" lon="5.9534">
        <ele>952.6</ele>
        <time>2014-06-28T07:48:59.000Z</time>
      </trkpt>
      <trkpt lat="45.63143" lon="5.95339">
        <ele>953</ele>
        <time>2014-06-28T07:49:00.000Z</time>
      </trkpt>
      <trkpt lat="45.63144" lon="5.95338">
        <ele>953.4</ele>
        <time>2014-06-28T07:49:01.000Z</time>
      </trkpt>
      <trkpt lat="45.63145" lon="5.95336">
        <ele>953.8</ele>
        <time>2014-06-28T07:49:02.000Z</time>
      </trkpt>
      <trkpt lat="45.63149" lon="5.95334">
        <ele>954.6</ele>
        <time>2014-06-28T07:49:04.000Z</time>
      </trkpt>
      <trkpt lat="45.63152" lon="5.95334">
        <ele>954.6</ele>
        <time>2014-06-28T07:49:06.000Z</time>
      </trkpt>
      <trkpt lat="45.63166" lon="5.95327">
        <ele>955.6</ele>
        <time>2014-06-28T07:49:14.000Z</time>
      </trkpt>
      <trkpt lat="45.63167" lon="5.95327">
        <ele>956</ele>
        <time>2014-06-28T07:49:15.000Z</time>
      </trkpt>
      <trkpt lat="45.63169" lon="5.95326">
        <ele>956.4</ele>
        <time>2014-06-28T07:49:16.000Z</time>
      </trkpt>
      <trkpt lat="45.63187" lon="5.95326">
        <ele>956.8</ele>
        <time>2014-06-28T07:49:25.000Z</time>
      </trkpt>
      <trkpt lat="45.63189" lon="5.95327">
        <ele>956.8</ele>
        <time>2014-06-28T07:49:26.000Z</time>
      </trkpt>
      <trkpt lat="45.63193" lon="5.95328">
        <ele>957.4</ele>
        <time>2014-06-28T07:49:28.000Z</time>
      </trkpt>
      <trkpt lat="45.63194" lon="5.95328">
        <ele>957.8</ele>
        <time>2014-06-28T07:49:29.000Z</time>
      </trkpt>
      <trkpt lat="45.63197" lon="5.95329">
        <ele>958.2</ele>
        <time>2014-06-28T07:49:30.000Z</time>
      </trkpt>
      <trkpt lat="45.63198" lon="5.95329">
        <ele>958.6</ele>
        <time>2014-06-28T07:49:31.000Z</time>
      </trkpt>
      <trkpt lat="45.632" lon="5.95329">
        <ele>959</ele>
        <time>2014-06-28T07:49:32.000Z</time>
      </trkpt>
      <trkpt lat="45.63203" lon="5.95329">
        <ele>959</ele>
        <time>2014-06-28T07:49:33.000Z</time>
      </trkpt>
      <trkpt lat="45.63209" lon="5.9533">
        <ele>959</ele>
        <time>2014-06-28T07:49:36.000Z</time>
      </trkpt>
      <trkpt lat="45.63237" lon="5.95322">
        <ele>959.4</ele>
        <time>2014-06-28T07:49:48.000Z</time>
      </trkpt>
      <trkpt lat="45.63248" lon="5.9532">
        <ele>961</ele>
        <time>2014-06-28T07:49:52.000Z</time>
      </trkpt>
      <trkpt lat="45.63255" lon="5.95316">
        <ele>961</ele>
        <time>2014-06-28T07:49:55.000Z</time>
      </trkpt>
      <trkpt lat="45.63263" lon="5.95313">
        <ele>961</ele>
        <time>2014-06-28T07:50:00.000Z</time>
      </trkpt>
      <trkpt lat="45.63278" lon="5.95306">
        <ele>961</ele>
        <time>2014-06-28T07:50:07.000Z</time>
      </trkpt>
      <trkpt lat="45.63286" lon="5.95304">
        <ele>961.8</ele>
        <time>2014-06-28T07:50:10.000Z</time>
      </trkpt>
      <trkpt lat="45.63289" lon="5.95302">
        <ele>962.2</ele>
        <time>2014-06-28T07:50:11.000Z</time>
      </trkpt>
      <trkpt lat="45.63292" lon="5.95301">
        <ele>962.6</ele>
        <time>2014-06-28T07:50:12.000Z</time>
      </trkpt>
      <trkpt lat="45.63295" lon="5.95299">
        <ele>963</ele>
        <time>2014-06-28T07:50:13.000Z</time>
      </trkpt>
      <trkpt lat="45.63316" lon="5.9529">
        <ele>963</ele>
        <time>2014-06-28T07:50:20.000Z</time>
      </trkpt>
      <trkpt lat="45.63339" lon="5.95287">
        <ele>963.4</ele>
        <time>2014-06-28T07:50:29.000Z</time>
      </trkpt>
      <trkpt lat="45.63341" lon="5.95287">
        <ele>963.8</ele>
        <time>2014-06-28T07:50:30.000Z</time>
      </trkpt>
      <trkpt lat="45.63345" lon="5.95288">
        <ele>964.6</ele>
        <time>2014-06-28T07:50:32.000Z</time>
      </trkpt>
      <trkpt lat="45.63347" lon="5.95288">
        <ele>965</ele>
        <time>2014-06-28T07:50:33.000Z</time>
      </trkpt>
      <trkpt lat="45.63352" lon="5.95288">
        <ele>965</ele>
        <time>2014-06-28T07:50:36.000Z</time>
      </trkpt>
      <trkpt lat="45.63352" lon="5.95288">
        <ele>965</ele>
        <time>2014-06-28T07:50:38.000Z</time>
      </trkpt>
      <trkpt lat="45.63348" lon="5.9527">
        <ele>965</ele>
        <time>2014-06-28T07:54:09.000Z</time>
      </trkpt>
      <trkpt lat="45.63354" lon="5.95204">
        <ele>965</ele>
        <time>2014-06-28T07:54:24.000Z</time>
      </trkpt>
      <trkpt lat="45.63353" lon="5.95202">
        <ele>965.6</ele>
        <time>2014-06-28T07:54:25.000Z</time>
      </trkpt>
      <trkpt lat="45.63352" lon="5.95185">
        <ele>968.4</ele>
        <time>2014-06-28T07:54:31.000Z</time>
      </trkpt>
      <trkpt lat="45.63351" lon="5.9518">
        <ele>969.4</ele>
        <time>2014-06-28T07:54:33.000Z</time>
      </trkpt>
      <trkpt lat="45.63351" lon="5.95177">
        <ele>969.8</ele>
        <time>2014-06-28T07:54:34.000Z</time>
      </trkpt>
      <trkpt lat="45.63351" lon="5.95173">
        <ele>969.8</ele>
        <time>2014-06-28T07:54:36.000Z</time>
      </trkpt>
      <trkpt lat="45.63354" lon="5.95168">
        <ele>970.2</ele>
        <time>2014-06-28T07:54:39.000Z</time>
      </trkpt>
      <trkpt lat="45.63355" lon="5.95166">
        <ele>970.6</ele>
        <time>2014-06-28T07:54:40.000Z</time>
      </trkpt>
      <trkpt lat="45.63355" lon="5.95166">
        <ele>971.6</ele>
        <time>2014-06-28T07:54:41.000Z</time>
      </trkpt>
      <trkpt lat="45.63355" lon="5.95166">
        <ele>972</ele>
        <time>2014-06-28T07:54:42.000Z</time>
      </trkpt>
      <trkpt lat="45.63361" lon="5.95128">
        <ele>972</ele>
        <time>2014-06-28T07:55:29.000Z</time>
      </trkpt>
      <trkpt lat="45.63362" lon="5.95125">
        <ele>972</ele>
        <time>2014-06-28T07:55:32.000Z</time>
      </trkpt>
      <trkpt lat="45.63354" lon="5.95125">
        <ele>974</ele>
        <time>2014-06-28T08:02:59.000Z</time>
      </trkpt>
      <trkpt lat="45.63353" lon="5.95125">
        <ele>974</ele>
        <time>2014-06-28T08:03:00.000Z</time>
      </trkpt>
      <trkpt lat="45.63345" lon="5.95122">
        <ele>974</ele>
        <time>2014-06-28T08:03:04.000Z</time>
      </trkpt>
      <trkpt lat="45.63336" lon="5.95121">
        <ele>974</ele>
        <time>2014-06-28T08:03:08.000Z</time>
      </trkpt>
      <trkpt lat="45.63321" lon="5.95121">
        <ele>974</ele>
        <time>2014-06-28T08:03:13.000Z</time>
      </trkpt>
      <trkpt lat="45.6331" lon="5.95106">
        <ele>974.4</ele>
        <time>2014-06-28T08:03:22.000Z</time>
      </trkpt>
      <trkpt lat="45.63309" lon="5.95103">
        <ele>974.8</ele>
        <time>2014-06-28T08:03:23.000Z</time>
      </trkpt>
      <trkpt lat="45.63309" lon="5.95101">
        <ele>975.2</ele>
        <time>2014-06-28T08:03:24.000Z</time>
      </trkpt>
      <trkpt lat="45.63309" lon="5.95101">
        <ele>975.6</ele>
        <time>2014-06-28T08:03:25.000Z</time>
      </trkpt>
      <trkpt lat="45.63309" lon="5.951">
        <ele>976</ele>
        <time>2014-06-28T08:03:26.000Z</time>
      </trkpt>
      <trkpt lat="45.63301" lon="5.95084">
        <ele>978.2</ele>
        <time>2014-06-28T08:03:39.000Z</time>
      </trkpt>
      <trkpt lat="45.63285" lon="5.95069">
        <ele>978.2</ele>
        <time>2014-06-28T08:03:44.000Z</time>
      </trkpt>
      <trkpt lat="45.6323" lon="5.94991">
        <ele>976</ele>
        <time>2014-06-28T08:03:59.000Z</time>
      </trkpt>
      <trkpt lat="45.63221" lon="5.94981">
        <ele>975.2</ele>
        <time>2014-06-28T08:04:01.000Z</time>
      </trkpt>
      <trkpt lat="45.63214" lon="5.94971">
        <ele>974.2</ele>
        <time>2014-06-28T08:04:03.000Z</time>
      </trkpt>
      <trkpt lat="45.63211" lon="5.94968">
        <ele>973.8</ele>
        <time>2014-06-28T08:04:04.000Z</time>
      </trkpt>
      <trkpt lat="45.63208" lon="5.94965">
        <ele>973.8</ele>
        <time>2014-06-28T08:04:05.000Z</time>
      </trkpt>
      <trkpt lat="45.63196" lon="5.94952">
        <ele>973.8</ele>
        <time>2014-06-28T08:04:10.000Z</time>
      </trkpt>
      <trkpt lat="45.63188" lon="5.94941">
        <ele>973.8</ele>
        <time>2014-06-28T08:04:15.000Z</time>
      </trkpt>
      <trkpt lat="45.63184" lon="5.94938">
        <ele>974.6</ele>
        <time>2014-06-28T08:04:17.000Z</time>
      </trkpt>
      <trkpt lat="45.63182" lon="5.94936">
        <ele>975.2</ele>
        <time>2014-06-28T08:04:18.000Z</time>
      </trkpt>
      <trkpt lat="45.6318" lon="5.94933">
        <ele>975.6</ele>
        <time>2014-06-28T08:04:19.000Z</time>
      </trkpt>
      <trkpt lat="45.63178" lon="5.94931">
        <ele>976</ele>
        <time>2014-06-28T08:04:20.000Z</time>
      </trkpt>
      <trkpt lat="45.63176" lon="5.94928">
        <ele>976</ele>
        <time>2014-06-28T08:04:21.000Z</time>
      </trkpt>
      <trkpt lat="45.63173" lon="5.94924">
        <ele>976.4</ele>
        <time>2014-06-28T08:04:23.000Z</time>
      </trkpt>
      <trkpt lat="45.63172" lon="5.94923">
        <ele>976.8</ele>
        <time>2014-06-28T08:04:24.000Z</time>
      </trkpt>
      <trkpt lat="45.6317" lon="5.94921">
        <ele>977.4</ele>
        <time>2014-06-28T08:04:25.000Z</time>
      </trkpt>
      <trkpt lat="45.63168" lon="5.94918">
        <ele>977.8</ele>
        <time>2014-06-28T08:04:26.000Z</time>
      </trkpt>
      <trkpt lat="45.63167" lon="5.94915">
        <ele>978.2</ele>
        <time>2014-06-28T08:04:27.000Z</time>
      </trkpt>
      <trkpt lat="45.63161" lon="5.94909">
        <ele>978.2</ele>
        <time>2014-06-28T08:04:31.000Z</time>
      </trkpt>
      <trkpt lat="45.63157" lon="5.94907">
        <ele>978.6</ele>
        <time>2014-06-28T08:04:33.000Z</time>
      </trkpt>
      <trkpt lat="45.63152" lon="5.94903">
        <ele>980</ele>
        <time>2014-06-28T08:04:35.000Z</time>
      </trkpt>
      <trkpt lat="45.63149" lon="5.949">
        <ele>980.4</ele>
        <time>2014-06-28T08:04:36.000Z</time>
      </trkpt>
      <trkpt lat="45.63135" lon="5.9488">
        <ele>980.4</ele>
        <time>2014-06-28T08:04:41.000Z</time>
      </trkpt>
      <trkpt lat="45.63129" lon="5.94876">
        <ele>979.8</ele>
        <time>2014-06-28T08:04:42.000Z</time>
      </trkpt>
      <trkpt lat="45.6312" lon="5.94866">
        <ele>978.8</ele>
        <time>2014-06-28T08:04:44.000Z</time>
      </trkpt>
      <trkpt lat="45.63089" lon="5.94851">
        <ele>975.8</ele>
        <time>2014-06-28T08:04:48.000Z</time>
      </trkpt>
      <trkpt lat="45.63075" lon="5.94838">
        <ele>975</ele>
        <time>2014-06-28T08:04:50.000Z</time>
      </trkpt>
      <trkpt lat="45.6307" lon="5.94832">
        <ele>975</ele>
        <time>2014-06-28T08:04:51.000Z</time>
      </trkpt>
      <trkpt lat="45.63064" lon="5.94826">
        <ele>975</ele>
        <time>2014-06-28T08:04:53.000Z</time>
      </trkpt>
      <trkpt lat="45.63056" lon="5.94822">
        <ele>975</ele>
        <time>2014-06-28T08:04:56.000Z</time>
      </trkpt>
      <trkpt lat="45.63047" lon="5.9482">
        <ele>975</ele>
        <time>2014-06-28T08:04:58.000Z</time>
      </trkpt>
      <trkpt lat="45.63026" lon="5.94817">
        <ele>975</ele>
        <time>2014-06-28T08:05:02.000Z</time>
      </trkpt>
      <trkpt lat="45.63016" lon="5.94814">
        <ele>974.2</ele>
        <time>2014-06-28T08:05:04.000Z</time>
      </trkpt>
      <trkpt lat="45.63012" lon="5.94814">
        <ele>973.6</ele>
        <time>2014-06-28T08:05:05.000Z</time>
      </trkpt>
      <trkpt lat="45.63007" lon="5.94812">
        <ele>973.2</ele>
        <time>2014-06-28T08:05:06.000Z</time>
      </trkpt>
      <trkpt lat="45.63005" lon="5.94809">
        <ele>972.4</ele>
        <time>2014-06-28T08:05:07.000Z</time>
      </trkpt>
      <trkpt lat="45.62999" lon="5.94804">
        <ele>970.8</ele>
        <time>2014-06-28T08:05:09.000Z</time>
      </trkpt>
      <trkpt lat="45.62995" lon="5.94806">
        <ele>969.8</ele>
        <time>2014-06-28T08:05:10.000Z</time>
      </trkpt>
      <trkpt lat="45.62992" lon="5.94806">
        <ele>968.8</ele>
        <time>2014-06-28T08:05:11.000Z</time>
      </trkpt>
      <trkpt lat="45.62989" lon="5.94803">
        <ele>967.6</ele>
        <time>2014-06-28T08:05:12.000Z</time>
      </trkpt>
      <trkpt lat="45.62983" lon="5.94799">
        <ele>965.6</ele>
        <time>2014-06-28T08:05:14.000Z</time>
      </trkpt>
      <trkpt lat="45.62979" lon="5.94801">
        <ele>964.6</ele>
        <time>2014-06-28T08:05:15.000Z</time>
      </trkpt>
      <trkpt lat="45.62976" lon="5.948">
        <ele>963.6</ele>
        <time>2014-06-28T08:05:16.000Z</time>
      </trkpt>
      <trkpt lat="45.62972" lon="5.948">
        <ele>962.8</ele>
        <time>2014-06-28T08:05:17.000Z</time>
      </trkpt>
      <trkpt lat="45.62968" lon="5.948">
        <ele>961.8</ele>
        <time>2014-06-28T08:05:18.000Z</time>
      </trkpt>
      <trkpt lat="45.62964" lon="5.94793">
        <ele>960</ele>
        <time>2014-06-28T08:05:20.000Z</time>
      </trkpt>
      <trkpt lat="45.62959" lon="5.94787">
        <ele>958.2</ele>
        <time>2014-06-28T08:05:22.000Z</time>
      </trkpt>
      <trkpt lat="45.62953" lon="5.94778">
        <ele>955.2</ele>
        <time>2014-06-28T08:05:24.000Z</time>
      </trkpt>
      <trkpt lat="45.6295" lon="5.94768">
        <ele>953.2</ele>
        <time>2014-06-28T08:05:26.000Z</time>
      </trkpt>
      <trkpt lat="45.62949" lon="5.94763">
        <ele>952.2</ele>
        <time>2014-06-28T08:05:27.000Z</time>
      </trkpt>
      <trkpt lat="45.62947" lon="5.94759">
        <ele>951.2</ele>
        <time>2014-06-28T08:05:28.000Z</time>
      </trkpt>
      <trkpt lat="45.62945" lon="5.94757">
        <ele>950.4</ele>
        <time>2014-06-28T08:05:29.000Z</time>
      </trkpt>
      <trkpt lat="45.62944" lon="5.94757">
        <ele>949.4</ele>
        <time>2014-06-28T08:05:30.000Z</time>
      </trkpt>
      <trkpt lat="45.62943" lon="5.94757">
        <ele>948.4</ele>
        <time>2014-06-28T08:05:31.000Z</time>
      </trkpt>
      <trkpt lat="45.62941" lon="5.94756">
        <ele>947.8</ele>
        <time>2014-06-28T08:05:32.000Z</time>
      </trkpt>
      <trkpt lat="45.62939" lon="5.94755">
        <ele>947</ele>
        <time>2014-06-28T08:05:33.000Z</time>
      </trkpt>
      <trkpt lat="45.62937" lon="5.94754">
        <ele>946.4</ele>
        <time>2014-06-28T08:05:34.000Z</time>
      </trkpt>
      <trkpt lat="45.62934" lon="5.94752">
        <ele>945.4</ele>
        <time>2014-06-28T08:05:35.000Z</time>
      </trkpt>
      <trkpt lat="45.62932" lon="5.94748">
        <ele>944.6</ele>
        <time>2014-06-28T08:05:36.000Z</time>
      </trkpt>
      <trkpt lat="45.62931" lon="5.94741">
        <ele>943.8</ele>
        <time>2014-06-28T08:05:37.000Z</time>
      </trkpt>
      <trkpt lat="45.6293" lon="5.94735">
        <ele>942.8</ele>
        <time>2014-06-28T08:05:38.000Z</time>
      </trkpt>
      <trkpt lat="45.62927" lon="5.94729">
        <ele>941.8</ele>
        <time>2014-06-28T08:05:39.000Z</time>
      </trkpt>
      <trkpt lat="45.62921" lon="5.94726">
        <ele>940.8</ele>
        <time>2014-06-28T08:05:40.000Z</time>
      </trkpt>
      <trkpt lat="45.62915" lon="5.94722">
        <ele>940.2</ele>
        <time>2014-06-28T08:05:41.000Z</time>
      </trkpt>
      <trkpt lat="45.62909" lon="5.94717">
        <ele>939.4</ele>
        <time>2014-06-28T08:05:42.000Z</time>
      </trkpt>
      <trkpt lat="45.62904" lon="5.94709">
        <ele>938.6</ele>
        <time>2014-06-28T08:05:43.000Z</time>
      </trkpt>
      <trkpt lat="45.62892" lon="5.94701">
        <ele>937.4</ele>
        <time>2014-06-28T08:05:45.000Z</time>
      </trkpt>
      <trkpt lat="45.62883" lon="5.94701">
        <ele>936.2</ele>
        <time>2014-06-28T08:05:47.000Z</time>
      </trkpt>
      <trkpt lat="45.62875" lon="5.94698">
        <ele>934.2</ele>
        <time>2014-06-28T08:05:49.000Z</time>
      </trkpt>
      <trkpt lat="45.6287" lon="5.94695">
        <ele>933.6</ele>
        <time>2014-06-28T08:05:50.000Z</time>
      </trkpt>
      <trkpt lat="45.62866" lon="5.94694">
        <ele>932.8</ele>
        <time>2014-06-28T08:05:51.000Z</time>
      </trkpt>
      <trkpt lat="45.62861" lon="5.94692">
        <ele>932</ele>
        <time>2014-06-28T08:05:52.000Z</time>
      </trkpt>
      <trkpt lat="45.62857" lon="5.94689">
        <ele>931.2</ele>
        <time>2014-06-28T08:05:53.000Z</time>
      </trkpt>
      <trkpt lat="45.62844" lon="5.94676">
        <ele>928.6</ele>
        <time>2014-06-28T08:05:56.000Z</time>
      </trkpt>
      <trkpt lat="45.6284" lon="5.94674">
        <ele>927.6</ele>
        <time>2014-06-28T08:05:57.000Z</time>
      </trkpt>
      <trkpt lat="45.62827" lon="5.94675">
        <ele>926</ele>
        <time>2014-06-28T08:05:59.000Z</time>
      </trkpt>
      <trkpt lat="45.62821" lon="5.94674">
        <ele>925.4</ele>
        <time>2014-06-28T08:06:00.000Z</time>
      </trkpt>
      <trkpt lat="45.62808" lon="5.9467">
        <ele>923.8</ele>
        <time>2014-06-28T08:06:02.000Z</time>
      </trkpt>
      <trkpt lat="45.62803" lon="5.94669">
        <ele>923</ele>
        <time>2014-06-28T08:06:03.000Z</time>
      </trkpt>
      <trkpt lat="45.62752" lon="5.94653">
        <ele>923</ele>
        <time>2014-06-28T08:06:12.000Z</time>
      </trkpt>
      <trkpt lat="45.6274" lon="5.94652">
        <ele>922.6</ele>
        <time>2014-06-28T08:06:14.000Z</time>
      </trkpt>
      <trkpt lat="45.6272" lon="5.94658">
        <ele>920.8</ele>
        <time>2014-06-28T08:06:17.000Z</time>
      </trkpt>
      <trkpt lat="45.62713" lon="5.94657">
        <ele>920.2</ele>
        <time>2014-06-28T08:06:18.000Z</time>
      </trkpt>
      <trkpt lat="45.62706" lon="5.94655">
        <ele>919.8</ele>
        <time>2014-06-28T08:06:19.000Z</time>
      </trkpt>
      <trkpt lat="45.62693" lon="5.94649">
        <ele>919</ele>
        <time>2014-06-28T08:06:21.000Z</time>
      </trkpt>
      <trkpt lat="45.62686" lon="5.94647">
        <ele>918.4</ele>
        <time>2014-06-28T08:06:22.000Z</time>
      </trkpt>
      <trkpt lat="45.62679" lon="5.94645">
        <ele>918.4</ele>
        <time>2014-06-28T08:06:23.000Z</time>
      </trkpt>
      <trkpt lat="45.62673" lon="5.94642">
        <ele>918</ele>
        <time>2014-06-28T08:06:25.000Z</time>
      </trkpt>
      <trkpt lat="45.62673" lon="5.94641">
        <ele>917.6</ele>
        <time>2014-06-28T08:06:26.000Z</time>
      </trkpt>
      <trkpt lat="45.62672" lon="5.94641">
        <ele>917.2</ele>
        <time>2014-06-28T08:06:27.000Z</time>
      </trkpt>
      <trkpt lat="45.6267" lon="5.9464">
        <ele>916.4</ele>
        <time>2014-06-28T08:06:35.000Z</time>
      </trkpt>
      <trkpt lat="45.62651" lon="5.94631">
        <ele>916.4</ele>
        <time>2014-06-28T08:06:40.000Z</time>
      </trkpt>
      <trkpt lat="45.62624" lon="5.94621">
        <ele>914.2</ele>
        <time>2014-06-28T08:06:44.000Z</time>
      </trkpt>
      <trkpt lat="45.62616" lon="5.94618">
        <ele>913.4</ele>
        <time>2014-06-28T08:06:45.000Z</time>
      </trkpt>
      <trkpt lat="45.626" lon="5.94607">
        <ele>911.2</ele>
        <time>2014-06-28T08:06:47.000Z</time>
      </trkpt>
      <trkpt lat="45.62594" lon="5.94602">
        <ele>910</ele>
        <time>2014-06-28T08:06:48.000Z</time>
      </trkpt>
      <trkpt lat="45.62587" lon="5.94597">
        <ele>908.8</ele>
        <time>2014-06-28T08:06:49.000Z</time>
      </trkpt>
      <trkpt lat="45.62573" lon="5.94592">
        <ele>906.4</ele>
        <time>2014-06-28T08:06:51.000Z</time>
      </trkpt>
      <trkpt lat="45.62568" lon="5.94588">
        <ele>905.2</ele>
        <time>2014-06-28T08:06:52.000Z</time>
      </trkpt>
      <trkpt lat="45.62534" lon="5.94558">
        <ele>900.4</ele>
        <time>2014-06-28T08:06:58.000Z</time>
      </trkpt>
      <trkpt lat="45.6252" lon="5.94537">
        <ele>898.8</ele>
        <time>2014-06-28T08:07:01.000Z</time>
      </trkpt>
      <trkpt lat="45.62514" lon="5.94534">
        <ele>898.2</ele>
        <time>2014-06-28T08:07:02.000Z</time>
      </trkpt>
      <trkpt lat="45.62429" lon="5.94524">
        <ele>888.2</ele>
        <time>2014-06-28T08:07:13.000Z</time>
      </trkpt>
      <trkpt lat="45.62411" lon="5.94526">
        <ele>884.8</ele>
        <time>2014-06-28T08:07:16.000Z</time>
      </trkpt>
      <trkpt lat="45.62408" lon="5.94527">
        <ele>883.8</ele>
        <time>2014-06-28T08:07:17.000Z</time>
      </trkpt>
      <trkpt lat="45.62406" lon="5.94529">
        <ele>882.6</ele>
        <time>2014-06-28T08:07:18.000Z</time>
      </trkpt>
      <trkpt lat="45.62405" lon="5.94544">
        <ele>879.2</ele>
        <time>2014-06-28T08:07:21.000Z</time>
      </trkpt>
      <trkpt lat="45.62404" lon="5.94548">
        <ele>878.2</ele>
        <time>2014-06-28T08:07:22.000Z</time>
      </trkpt>
      <trkpt lat="45.62402" lon="5.94551">
        <ele>877</ele>
        <time>2014-06-28T08:07:23.000Z</time>
      </trkpt>
      <trkpt lat="45.624" lon="5.94553">
        <ele>876.2</ele>
        <time>2014-06-28T08:07:24.000Z</time>
      </trkpt>
      <trkpt lat="45.62398" lon="5.94553">
        <ele>875.2</ele>
        <time>2014-06-28T08:07:25.000Z</time>
      </trkpt>
      <trkpt lat="45.62396" lon="5.94552">
        <ele>874.2</ele>
        <time>2014-06-28T08:07:26.000Z</time>
      </trkpt>
      <trkpt lat="45.62394" lon="5.9455">
        <ele>873.4</ele>
        <time>2014-06-28T08:07:27.000Z</time>
      </trkpt>
      <trkpt lat="45.62353" lon="5.94517">
        <ele>870.6</ele>
        <time>2014-06-28T08:07:39.000Z</time>
      </trkpt>
      <trkpt lat="45.62351" lon="5.94514">
        <ele>871</ele>
        <time>2014-06-28T08:07:40.000Z</time>
      </trkpt>
      <trkpt lat="45.62345" lon="5.94505">
        <ele>872.2</ele>
        <time>2014-06-28T08:07:43.000Z</time>
      </trkpt>
      <trkpt lat="45.6233" lon="5.94489">
        <ele>874.4</ele>
        <time>2014-06-28T08:07:49.000Z</time>
      </trkpt>
      <trkpt lat="45.62328" lon="5.94484">
        <ele>874.4</ele>
        <time>2014-06-28T08:07:51.000Z</time>
      </trkpt>
      <trkpt lat="45.62326" lon="5.94481">
        <ele>874.4</ele>
        <time>2014-06-28T08:07:52.000Z</time>
      </trkpt>
      <trkpt lat="45.62321" lon="5.94476">
        <ele>874.4</ele>
        <time>2014-06-28T08:07:54.000Z</time>
      </trkpt>
      <trkpt lat="45.62309" lon="5.94468">
        <ele>874.4</ele>
        <time>2014-06-28T08:08:01.000Z</time>
      </trkpt>
      <trkpt lat="45.62304" lon="5.94464">
        <ele>874.4</ele>
        <time>2014-06-28T08:08:04.000Z</time>
      </trkpt>
      <trkpt lat="45.62302" lon="5.94456">
        <ele>874.4</ele>
        <time>2014-06-28T08:08:07.000Z</time>
      </trkpt>
      <trkpt lat="45.62295" lon="5.94442">
        <ele>874.4</ele>
        <time>2014-06-28T08:08:11.000Z</time>
      </trkpt>
      <trkpt lat="45.62289" lon="5.94438">
        <ele>874.4</ele>
        <time>2014-06-28T08:08:13.000Z</time>
      </trkpt>
      <trkpt lat="45.62278" lon="5.94437">
        <ele>874</ele>
        <time>2014-06-28T08:08:15.000Z</time>
      </trkpt>
      <trkpt lat="45.62273" lon="5.94437">
        <ele>873.6</ele>
        <time>2014-06-28T08:08:16.000Z</time>
      </trkpt>
      <trkpt lat="45.62259" lon="5.94436">
        <ele>872.2</ele>
        <time>2014-06-28T08:08:18.000Z</time>
      </trkpt>
      <trkpt lat="45.62251" lon="5.94432">
        <ele>871.8</ele>
        <time>2014-06-28T08:08:19.000Z</time>
      </trkpt>
      <trkpt lat="45.62238" lon="5.94424">
        <ele>870.6</ele>
        <time>2014-06-28T08:08:21.000Z</time>
      </trkpt>
      <trkpt lat="45.6221" lon="5.9441">
        <ele>869.6</ele>
        <time>2014-06-28T08:08:25.000Z</time>
      </trkpt>
      <trkpt lat="45.62197" lon="5.94405">
        <ele>868.8</ele>
        <time>2014-06-28T08:08:27.000Z</time>
      </trkpt>
      <trkpt lat="45.62175" lon="5.944">
        <ele>866.4</ele>
        <time>2014-06-28T08:08:30.000Z</time>
      </trkpt>
      <trkpt lat="45.62148" lon="5.94396">
        <ele>861.4</ele>
        <time>2014-06-28T08:08:34.000Z</time>
      </trkpt>
      <trkpt lat="45.62111" lon="5.94379">
        <ele>853.4</ele>
        <time>2014-06-28T08:08:40.000Z</time>
      </trkpt>
      <trkpt lat="45.62093" lon="5.94376">
        <ele>849.8</ele>
        <time>2014-06-28T08:08:43.000Z</time>
      </trkpt>
      <trkpt lat="45.62082" lon="5.94376">
        <ele>847</ele>
        <time>2014-06-28T08:08:45.000Z</time>
      </trkpt>
      <trkpt lat="45.62078" lon="5.94377">
        <ele>846</ele>
        <time>2014-06-28T08:08:46.000Z</time>
      </trkpt>
      <trkpt lat="45.62075" lon="5.94375">
        <ele>845</ele>
        <time>2014-06-28T08:08:47.000Z</time>
      </trkpt>
      <trkpt lat="45.62069" lon="5.94366">
        <ele>843</ele>
        <time>2014-06-28T08:08:49.000Z</time>
      </trkpt>
      <trkpt lat="45.62062" lon="5.94354">
        <ele>841</ele>
        <time>2014-06-28T08:08:51.000Z</time>
      </trkpt>
      <trkpt lat="45.62059" lon="5.9435">
        <ele>840</ele>
        <time>2014-06-28T08:08:52.000Z</time>
      </trkpt>
      <trkpt lat="45.62052" lon="5.94345">
        <ele>838.6</ele>
        <time>2014-06-28T08:08:54.000Z</time>
      </trkpt>
      <trkpt lat="45.62048" lon="5.94342">
        <ele>838.2</ele>
        <time>2014-06-28T08:08:55.000Z</time>
      </trkpt>
      <trkpt lat="45.62044" lon="5.94341">
        <ele>837.8</ele>
        <time>2014-06-28T08:08:56.000Z</time>
      </trkpt>
      <trkpt lat="45.6204" lon="5.94342">
        <ele>837</ele>
        <time>2014-06-28T08:08:57.000Z</time>
      </trkpt>
      <trkpt lat="45.62031" lon="5.94347">
        <ele>835.6</ele>
        <time>2014-06-28T08:08:59.000Z</time>
      </trkpt>
      <trkpt lat="45.62023" lon="5.9435">
        <ele>834</ele>
        <time>2014-06-28T08:09:01.000Z</time>
      </trkpt>
      <trkpt lat="45.62018" lon="5.94351">
        <ele>833</ele>
        <time>2014-06-28T08:09:02.000Z</time>
      </trkpt>
      <trkpt lat="45.62014" lon="5.94351">
        <ele>832</ele>
        <time>2014-06-28T08:09:03.000Z</time>
      </trkpt>
      <trkpt lat="45.62004" lon="5.94346">
        <ele>830</ele>
        <time>2014-06-28T08:09:05.000Z</time>
      </trkpt>
      <trkpt lat="45.61993" lon="5.94339">
        <ele>828.2</ele>
        <time>2014-06-28T08:09:07.000Z</time>
      </trkpt>
      <trkpt lat="45.61977" lon="5.94332">
        <ele>828.2</ele>
        <time>2014-06-28T08:09:10.000Z</time>
      </trkpt>
      <trkpt lat="45.61968" lon="5.94331">
        <ele>827.6</ele>
        <time>2014-06-28T08:09:12.000Z</time>
      </trkpt>
      <trkpt lat="45.61964" lon="5.94333">
        <ele>827</ele>
        <time>2014-06-28T08:09:13.000Z</time>
      </trkpt>
      <trkpt lat="45.61956" lon="5.94337">
        <ele>825.2</ele>
        <time>2014-06-28T08:09:15.000Z</time>
      </trkpt>
      <trkpt lat="45.61951" lon="5.94337">
        <ele>824.2</ele>
        <time>2014-06-28T08:09:16.000Z</time>
      </trkpt>
      <trkpt lat="45.61944" lon="5.94338">
        <ele>822</ele>
        <time>2014-06-28T08:09:18.000Z</time>
      </trkpt>
      <trkpt lat="45.61941" lon="5.94341">
        <ele>821.2</ele>
        <time>2014-06-28T08:09:19.000Z</time>
      </trkpt>
      <trkpt lat="45.61939" lon="5.94345">
        <ele>820.4</ele>
        <time>2014-06-28T08:09:20.000Z</time>
      </trkpt>
      <trkpt lat="45.61936" lon="5.94347">
        <ele>819.4</ele>
        <time>2014-06-28T08:09:21.000Z</time>
      </trkpt>
      <trkpt lat="45.61931" lon="5.9435">
        <ele>818.4</ele>
        <time>2014-06-28T08:09:22.000Z</time>
      </trkpt>
      <trkpt lat="45.61925" lon="5.9435">
        <ele>817.6</ele>
        <time>2014-06-28T08:09:23.000Z</time>
      </trkpt>
      <trkpt lat="45.61921" lon="5.94349">
        <ele>816.6</ele>
        <time>2014-06-28T08:09:24.000Z</time>
      </trkpt>
      <trkpt lat="45.61916" lon="5.94346">
        <ele>815.8</ele>
        <time>2014-06-28T08:09:25.000Z</time>
      </trkpt>
      <trkpt lat="45.61906" lon="5.94333">
        <ele>813.4</ele>
        <time>2014-06-28T08:09:28.000Z</time>
      </trkpt>
      <trkpt lat="45.61898" lon="5.94326">
        <ele>812.6</ele>
        <time>2014-06-28T08:09:31.000Z</time>
      </trkpt>
      <trkpt lat="45.6189" lon="5.94322">
        <ele>814.8</ele>
        <time>2014-06-28T08:10:02.000Z</time>
      </trkpt>
      <trkpt lat="45.61883" lon="5.94316">
        <ele>814.8</ele>
        <time>2014-06-28T08:10:04.000Z</time>
      </trkpt>
      <trkpt lat="45.61879" lon="5.94314">
        <ele>814.8</ele>
        <time>2014-06-28T08:10:05.000Z</time>
      </trkpt>
      <trkpt lat="45.61851" lon="5.94314">
        <ele>812.2</ele>
        <time>2014-06-28T08:10:12.000Z</time>
      </trkpt>
      <trkpt lat="45.61836" lon="5.94312">
        <ele>808.8</ele>
        <time>2014-06-28T08:10:16.000Z</time>
      </trkpt>
      <trkpt lat="45.61815" lon="5.94304">
        <ele>805.4</ele>
        <time>2014-06-28T08:10:21.000Z</time>
      </trkpt>
      <trkpt lat="45.6181" lon="5.94304">
        <ele>804.4</ele>
        <time>2014-06-28T08:10:22.000Z</time>
      </trkpt>
      <trkpt lat="45.61805" lon="5.94305">
        <ele>804</ele>
        <time>2014-06-28T08:10:23.000Z</time>
      </trkpt>
      <trkpt lat="45.61796" lon="5.94301">
        <ele>803.6</ele>
        <time>2014-06-28T08:10:25.000Z</time>
      </trkpt>
      <trkpt lat="45.61793" lon="5.94297">
        <ele>803</ele>
        <time>2014-06-28T08:10:26.000Z</time>
      </trkpt>
      <trkpt lat="45.61785" lon="5.94289">
        <ele>801.8</ele>
        <time>2014-06-28T08:10:28.000Z</time>
      </trkpt>
      <trkpt lat="45.61763" lon="5.94259">
        <ele>799</ele>
        <time>2014-06-28T08:10:33.000Z</time>
      </trkpt>
      <trkpt lat="45.61759" lon="5.94252">
        <ele>798.6</ele>
        <time>2014-06-28T08:10:34.000Z</time>
      </trkpt>
      <trkpt lat="45.61755" lon="5.94248">
        <ele>798.2</ele>
        <time>2014-06-28T08:10:35.000Z</time>
      </trkpt>
      <trkpt lat="45.61751" lon="5.94244">
        <ele>797.8</ele>
        <time>2014-06-28T08:10:36.000Z</time>
      </trkpt>
      <trkpt lat="45.61746" lon="5.94242">
        <ele>797</ele>
        <time>2014-06-28T08:10:37.000Z</time>
      </trkpt>
      <trkpt lat="45.61736" lon="5.94238">
        <ele>795.4</ele>
        <time>2014-06-28T08:10:39.000Z</time>
      </trkpt>
      <trkpt lat="45.61731" lon="5.94236">
        <ele>794.4</ele>
        <time>2014-06-28T08:10:40.000Z</time>
      </trkpt>
      <trkpt lat="45.61728" lon="5.94234">
        <ele>793.4</ele>
        <time>2014-06-28T08:10:41.000Z</time>
      </trkpt>
      <trkpt lat="45.61718" lon="5.94225">
        <ele>790.2</ele>
        <time>2014-06-28T08:10:44.000Z</time>
      </trkpt>
      <trkpt lat="45.61714" lon="5.94223">
        <ele>789.2</ele>
        <time>2014-06-28T08:10:45.000Z</time>
      </trkpt>
      <trkpt lat="45.61705" lon="5.9422">
        <ele>785.8</ele>
        <time>2014-06-28T08:10:47.000Z</time>
      </trkpt>
      <trkpt lat="45.6168" lon="5.9422">
        <ele>782.2</ele>
        <time>2014-06-28T08:10:51.000Z</time>
      </trkpt>
      <trkpt lat="45.61674" lon="5.94218">
        <ele>781.6</ele>
        <time>2014-06-28T08:10:52.000Z</time>
      </trkpt>
      <trkpt lat="45.61666" lon="5.94216">
        <ele>780.8</ele>
        <time>2014-06-28T08:10:53.000Z</time>
      </trkpt>
      <trkpt lat="45.61659" lon="5.94212">
        <ele>780</ele>
        <time>2014-06-28T08:10:54.000Z</time>
      </trkpt>
      <trkpt lat="45.61652" lon="5.94208">
        <ele>779.2</ele>
        <time>2014-06-28T08:10:55.000Z</time>
      </trkpt>
      <trkpt lat="45.61633" lon="5.94192">
        <ele>777.4</ele>
        <time>2014-06-28T08:10:58.000Z</time>
      </trkpt>
      <trkpt lat="45.61602" lon="5.94181">
        <ele>774.6</ele>
        <time>2014-06-28T08:11:02.000Z</time>
      </trkpt>
      <trkpt lat="45.61594" lon="5.94177">
        <ele>773.8</ele>
        <time>2014-06-28T08:11:03.000Z</time>
      </trkpt>
      <trkpt lat="45.61583" lon="5.94169">
        <ele>773</ele>
        <time>2014-06-28T08:11:05.000Z</time>
      </trkpt>
      <trkpt lat="45.61562" lon="5.94161">
        <ele>770</ele>
        <time>2014-06-28T08:11:09.000Z</time>
      </trkpt>
      <trkpt lat="45.6156" lon="5.9416">
        <ele>769.2</ele>
        <time>2014-06-28T08:11:10.000Z</time>
      </trkpt>
      <trkpt lat="45.61555" lon="5.94158">
        <ele>766.4</ele>
        <time>2014-06-28T08:11:13.000Z</time>
      </trkpt>
      <trkpt lat="45.61549" lon="5.94158">
        <ele>766.4</ele>
        <time>2014-06-28T08:11:30.000Z</time>
      </trkpt>
      <trkpt lat="45.61534" lon="5.94173">
        <ele>766</ele>
        <time>2014-06-28T08:11:35.000Z</time>
      </trkpt>
      <trkpt lat="45.61529" lon="5.94174">
        <ele>764.6</ele>
        <time>2014-06-28T08:11:36.000Z</time>
      </trkpt>
      <trkpt lat="45.61525" lon="5.94174">
        <ele>763.8</ele>
        <time>2014-06-28T08:11:37.000Z</time>
      </trkpt>
      <trkpt lat="45.6152" lon="5.9417">
        <ele>762.8</ele>
        <time>2014-06-28T08:11:38.000Z</time>
      </trkpt>
      <trkpt lat="45.61516" lon="5.94166">
        <ele>761.8</ele>
        <time>2014-06-28T08:11:39.000Z</time>
      </trkpt>
      <trkpt lat="45.6151" lon="5.94153">
        <ele>759.6</ele>
        <time>2014-06-28T08:11:41.000Z</time>
      </trkpt>
      <trkpt lat="45.61507" lon="5.94141">
        <ele>757.4</ele>
        <time>2014-06-28T08:11:43.000Z</time>
      </trkpt>
      <trkpt lat="45.61507" lon="5.94136">
        <ele>756.2</ele>
        <time>2014-06-28T08:11:44.000Z</time>
      </trkpt>
      <trkpt lat="45.61509" lon="5.94116">
        <ele>752</ele>
        <time>2014-06-28T08:11:48.000Z</time>
      </trkpt>
      <trkpt lat="45.61508" lon="5.94112">
        <ele>751.2</ele>
        <time>2014-06-28T08:11:49.000Z</time>
      </trkpt>
      <trkpt lat="45.61507" lon="5.94109">
        <ele>750.2</ele>
        <time>2014-06-28T08:11:50.000Z</time>
      </trkpt>
      <trkpt lat="45.61506" lon="5.94107">
        <ele>749.2</ele>
        <time>2014-06-28T08:11:51.000Z</time>
      </trkpt>
      <trkpt lat="45.61502" lon="5.94103">
        <ele>747.2</ele>
        <time>2014-06-28T08:11:53.000Z</time>
      </trkpt>
      <trkpt lat="45.615" lon="5.94102">
        <ele>746.4</ele>
        <time>2014-06-28T08:11:54.000Z</time>
      </trkpt>
      <trkpt lat="45.61457" lon="5.94088">
        <ele>743.2</ele>
        <time>2014-06-28T08:12:36.000Z</time>
      </trkpt>
      <trkpt lat="45.61402" lon="5.94058">
        <ele>738.2</ele>
        <time>2014-06-28T08:12:46.000Z</time>
      </trkpt>
      <trkpt lat="45.61363" lon="5.94023">
        <ele>733.8</ele>
        <time>2014-06-28T08:12:52.000Z</time>
      </trkpt>
      <trkpt lat="45.61352" lon="5.94009">
        <ele>733.8</ele>
        <time>2014-06-28T08:12:54.000Z</time>
      </trkpt>
      <trkpt lat="45.61346" lon="5.93994">
        <ele>733.4</ele>
        <time>2014-06-28T08:12:56.000Z</time>
      </trkpt>
      <trkpt lat="45.61341" lon="5.93986">
        <ele>733</ele>
        <time>2014-06-28T08:12:57.000Z</time>
      </trkpt>
      <trkpt lat="45.61335" lon="5.93982">
        <ele>732.6</ele>
        <time>2014-06-28T08:12:58.000Z</time>
      </trkpt>
      <trkpt lat="45.61329" lon="5.93979">
        <ele>732.2</ele>
        <time>2014-06-28T08:12:59.000Z</time>
      </trkpt>
      <trkpt lat="45.613" lon="5.93969">
        <ele>730</ele>
        <time>2014-06-28T08:13:03.000Z</time>
      </trkpt>
      <trkpt lat="45.61285" lon="5.93966">
        <ele>729</ele>
        <time>2014-06-28T08:13:05.000Z</time>
      </trkpt>
      <trkpt lat="45.61263" lon="5.93965">
        <ele>726.8</ele>
        <time>2014-06-28T08:13:08.000Z</time>
      </trkpt>
      <trkpt lat="45.61246" lon="5.93965">
        <ele>725.2</ele>
        <time>2014-06-28T08:13:10.000Z</time>
      </trkpt>
      <trkpt lat="45.61232" lon="5.93969">
        <ele>723.2</ele>
        <time>2014-06-28T08:13:12.000Z</time>
      </trkpt>
      <trkpt lat="45.61217" lon="5.93976">
        <ele>718.8</ele>
        <time>2014-06-28T08:13:15.000Z</time>
      </trkpt>
      <trkpt lat="45.61205" lon="5.93985">
        <ele>716.6</ele>
        <time>2014-06-28T08:13:17.000Z</time>
      </trkpt>
      <trkpt lat="45.61177" lon="5.94001">
        <ele>710</ele>
        <time>2014-06-28T08:13:22.000Z</time>
      </trkpt>
      <trkpt lat="45.61174" lon="5.94007">
        <ele>708.8</ele>
        <time>2014-06-28T08:13:23.000Z</time>
      </trkpt>
      <trkpt lat="45.61171" lon="5.94013">
        <ele>707.4</ele>
        <time>2014-06-28T08:13:24.000Z</time>
      </trkpt>
      <trkpt lat="45.61168" lon="5.94018">
        <ele>706.2</ele>
        <time>2014-06-28T08:13:25.000Z</time>
      </trkpt>
      <trkpt lat="45.61166" lon="5.9402">
        <ele>705.2</ele>
        <time>2014-06-28T08:13:26.000Z</time>
      </trkpt>
      <trkpt lat="45.61163" lon="5.94022">
        <ele>704.2</ele>
        <time>2014-06-28T08:13:27.000Z</time>
      </trkpt>
      <trkpt lat="45.61162" lon="5.94024">
        <ele>703.2</ele>
        <time>2014-06-28T08:13:28.000Z</time>
      </trkpt>
      <trkpt lat="45.61162" lon="5.94026">
        <ele>702.4</ele>
        <time>2014-06-28T08:13:29.000Z</time>
      </trkpt>
      <trkpt lat="45.61155" lon="5.9403">
        <ele>699</ele>
        <time>2014-06-28T08:13:47.000Z</time>
      </trkpt>
      <trkpt lat="45.6115" lon="5.9403">
        <ele>699</ele>
        <time>2014-06-28T08:13:49.000Z</time>
      </trkpt>
      <trkpt lat="45.61134" lon="5.94026">
        <ele>699</ele>
        <time>2014-06-28T08:13:53.000Z</time>
      </trkpt>
      <trkpt lat="45.61121" lon="5.94015">
        <ele>699</ele>
        <time>2014-06-28T08:13:56.000Z</time>
      </trkpt>
      <trkpt lat="45.61115" lon="5.94002">
        <ele>698.4</ele>
        <time>2014-06-28T08:13:58.000Z</time>
      </trkpt>
      <trkpt lat="45.61111" lon="5.93997">
        <ele>698</ele>
        <time>2014-06-28T08:13:59.000Z</time>
      </trkpt>
      <trkpt lat="45.61088" lon="5.93977">
        <ele>693.4</ele>
        <time>2014-06-28T08:14:04.000Z</time>
      </trkpt>
      <trkpt lat="45.61084" lon="5.93973">
        <ele>692.6</ele>
        <time>2014-06-28T08:14:05.000Z</time>
      </trkpt>
      <trkpt lat="45.61078" lon="5.93963">
        <ele>691.4</ele>
        <time>2014-06-28T08:14:07.000Z</time>
      </trkpt>
      <trkpt lat="45.61072" lon="5.93956">
        <ele>690</ele>
        <time>2014-06-28T08:14:09.000Z</time>
      </trkpt>
      <trkpt lat="45.61069" lon="5.93955">
        <ele>689.4</ele>
        <time>2014-06-28T08:14:10.000Z</time>
      </trkpt>
      <trkpt lat="45.61068" lon="5.93953">
        <ele>688.8</ele>
        <time>2014-06-28T08:14:11.000Z</time>
      </trkpt>
      <trkpt lat="45.61066" lon="5.93953">
        <ele>688.8</ele>
        <time>2014-06-28T08:14:12.000Z</time>
      </trkpt>
      <trkpt lat="45.61059" lon="5.93943">
        <ele>685.2</ele>
        <time>2014-06-28T08:14:25.000Z</time>
      </trkpt>
      <trkpt lat="45.6106" lon="5.93937">
        <ele>684.8</ele>
        <time>2014-06-28T08:14:27.000Z</time>
      </trkpt>
      <trkpt lat="45.61061" lon="5.93933">
        <ele>684.2</ele>
        <time>2014-06-28T08:14:28.000Z</time>
      </trkpt>
      <trkpt lat="45.6106" lon="5.93928">
        <ele>683.2</ele>
        <time>2014-06-28T08:14:29.000Z</time>
      </trkpt>
      <trkpt lat="45.61057" lon="5.93926">
        <ele>682.4</ele>
        <time>2014-06-28T08:14:30.000Z</time>
      </trkpt>
      <trkpt lat="45.61053" lon="5.93923">
        <ele>681.8</ele>
        <time>2014-06-28T08:14:31.000Z</time>
      </trkpt>
      <trkpt lat="45.61049" lon="5.9392">
        <ele>681.2</ele>
        <time>2014-06-28T08:14:32.000Z</time>
      </trkpt>
      <trkpt lat="45.6104" lon="5.93908">
        <ele>679.8</ele>
        <time>2014-06-28T08:14:34.000Z</time>
      </trkpt>
      <trkpt lat="45.61035" lon="5.93903">
        <ele>678.8</ele>
        <time>2014-06-28T08:14:35.000Z</time>
      </trkpt>
      <trkpt lat="45.6102" lon="5.93882">
        <ele>675.4</ele>
        <time>2014-06-28T08:14:38.000Z</time>
      </trkpt>
      <trkpt lat="45.61014" lon="5.93876">
        <ele>674</ele>
        <time>2014-06-28T08:14:39.000Z</time>
      </trkpt>
      <trkpt lat="45.60992" lon="5.93857">
        <ele>666.4</ele>
        <time>2014-06-28T08:14:45.000Z</time>
      </trkpt>
      <trkpt lat="45.60992" lon="5.93857">
        <ele>665.4</ele>
        <time>2014-06-28T08:14:46.000Z</time>
      </trkpt>
      <trkpt lat="45.60979" lon="5.93856">
        <ele>663.2</ele>
        <time>2014-06-28T08:29:30.000Z</time>
      </trkpt>
      <trkpt lat="45.60966" lon="5.93835">
        <ele>662.6</ele>
        <time>2014-06-28T08:29:35.000Z</time>
      </trkpt>
      <trkpt lat="45.60963" lon="5.93831">
        <ele>662.2</ele>
        <time>2014-06-28T08:29:36.000Z</time>
      </trkpt>
      <trkpt lat="45.60959" lon="5.93819">
        <ele>660.6</ele>
        <time>2014-06-28T08:29:38.000Z</time>
      </trkpt>
      <trkpt lat="45.60956" lon="5.93806">
        <ele>659</ele>
        <time>2014-06-28T08:29:40.000Z</time>
      </trkpt>
      <trkpt lat="45.60956" lon="5.938">
        <ele>658.2</ele>
        <time>2014-06-28T08:29:41.000Z</time>
      </trkpt>
      <trkpt lat="45.60952" lon="5.93786">
        <ele>658.2</ele>
        <time>2014-06-28T08:29:44.000Z</time>
      </trkpt>
      <trkpt lat="45.60949" lon="5.93781">
        <ele>657.8</ele>
        <time>2014-06-28T08:29:46.000Z</time>
      </trkpt>
      <trkpt lat="45.60948" lon="5.93779">
        <ele>657.4</ele>
        <time>2014-06-28T08:29:47.000Z</time>
      </trkpt>
      <trkpt lat="45.60947" lon="5.93775">
        <ele>657</ele>
        <time>2014-06-28T08:29:48.000Z</time>
      </trkpt>
      <trkpt lat="45.60946" lon="5.93773">
        <ele>656.6</ele>
        <time>2014-06-28T08:29:49.000Z</time>
      </trkpt>
      <trkpt lat="45.60945" lon="5.93767">
        <ele>656</ele>
        <time>2014-06-28T08:29:50.000Z</time>
      </trkpt>
      <trkpt lat="45.60942" lon="5.9376">
        <ele>655.4</ele>
        <time>2014-06-28T08:29:51.000Z</time>
      </trkpt>
      <trkpt lat="45.60938" lon="5.93756">
        <ele>654.8</ele>
        <time>2014-06-28T08:29:52.000Z</time>
      </trkpt>
      <trkpt lat="45.60933" lon="5.93755">
        <ele>654.2</ele>
        <time>2014-06-28T08:29:53.000Z</time>
      </trkpt>
      <trkpt lat="45.60928" lon="5.93756">
        <ele>653.6</ele>
        <time>2014-06-28T08:29:54.000Z</time>
      </trkpt>
      <trkpt lat="45.60919" lon="5.93759">
        <ele>653.2</ele>
        <time>2014-06-28T08:29:56.000Z</time>
      </trkpt>
      <trkpt lat="45.60911" lon="5.93761">
        <ele>652</ele>
        <time>2014-06-28T08:29:58.000Z</time>
      </trkpt>
      <trkpt lat="45.60905" lon="5.9376">
        <ele>650.4</ele>
        <time>2014-06-28T08:30:00.000Z</time>
      </trkpt>
      <trkpt lat="45.60902" lon="5.93758">
        <ele>649.2</ele>
        <time>2014-06-28T08:30:01.000Z</time>
      </trkpt>
      <trkpt lat="45.609" lon="5.93758">
        <ele>648</ele>
        <time>2014-06-28T08:30:02.000Z</time>
      </trkpt>
      <trkpt lat="45.60893" lon="5.93759">
        <ele>645.6</ele>
        <time>2014-06-28T08:30:04.000Z</time>
      </trkpt>
      <trkpt lat="45.60878" lon="5.93763">
        <ele>640.6</ele>
        <time>2014-06-28T08:30:08.000Z</time>
      </trkpt>
      <trkpt lat="45.60867" lon="5.93759">
        <ele>638.6</ele>
        <time>2014-06-28T08:30:10.000Z</time>
      </trkpt>
      <trkpt lat="45.60855" lon="5.93756">
        <ele>636.4</ele>
        <time>2014-06-28T08:30:13.000Z</time>
      </trkpt>
      <trkpt lat="45.60848" lon="5.93754">
        <ele>634.6</ele>
        <time>2014-06-28T08:30:15.000Z</time>
      </trkpt>
      <trkpt lat="45.60844" lon="5.93754">
        <ele>633.6</ele>
        <time>2014-06-28T08:30:16.000Z</time>
      </trkpt>
      <trkpt lat="45.60829" lon="5.93751">
        <ele>629</ele>
        <time>2014-06-28T08:30:20.000Z</time>
      </trkpt>
      <trkpt lat="45.60827" lon="5.93748">
        <ele>627.8</ele>
        <time>2014-06-28T08:30:21.000Z</time>
      </trkpt>
      <trkpt lat="45.60823" lon="5.93747">
        <ele>626.8</ele>
        <time>2014-06-28T08:30:22.000Z</time>
      </trkpt>
      <trkpt lat="45.60819" lon="5.93749">
        <ele>625.8</ele>
        <time>2014-06-28T08:30:23.000Z</time>
      </trkpt>
      <trkpt lat="45.60816" lon="5.93752">
        <ele>624.8</ele>
        <time>2014-06-28T08:30:24.000Z</time>
      </trkpt>
      <trkpt lat="45.60812" lon="5.9376">
        <ele>623</ele>
        <time>2014-06-28T08:30:26.000Z</time>
      </trkpt>
      <trkpt lat="45.6081" lon="5.93768">
        <ele>621</ele>
        <time>2014-06-28T08:30:28.000Z</time>
      </trkpt>
      <trkpt lat="45.60808" lon="5.93771">
        <ele>620.2</ele>
        <time>2014-06-28T08:30:29.000Z</time>
      </trkpt>
      <trkpt lat="45.60807" lon="5.93772">
        <ele>619</ele>
        <time>2014-06-28T08:30:32.000Z</time>
      </trkpt>
      <trkpt lat="45.60805" lon="5.93773">
        <ele>618.2</ele>
        <time>2014-06-28T08:31:59.000Z</time>
      </trkpt>
      <trkpt lat="45.60799" lon="5.9377">
        <ele>618.2</ele>
        <time>2014-06-28T08:32:01.000Z</time>
      </trkpt>
      <trkpt lat="45.60796" lon="5.93769">
        <ele>617.6</ele>
        <time>2014-06-28T08:32:02.000Z</time>
      </trkpt>
      <trkpt lat="45.60792" lon="5.93769">
        <ele>617</ele>
        <time>2014-06-28T08:32:03.000Z</time>
      </trkpt>
      <trkpt lat="45.60781" lon="5.93769">
        <ele>616</ele>
        <time>2014-06-28T08:32:05.000Z</time>
      </trkpt>
      <trkpt lat="45.60774" lon="5.93768">
        <ele>615.4</ele>
        <time>2014-06-28T08:32:06.000Z</time>
      </trkpt>
      <trkpt lat="45.60766" lon="5.93769">
        <ele>614.8</ele>
        <time>2014-06-28T08:32:07.000Z</time>
      </trkpt>
      <trkpt lat="45.60738" lon="5.93775">
        <ele>611.2</ele>
        <time>2014-06-28T08:32:11.000Z</time>
      </trkpt>
      <trkpt lat="45.60731" lon="5.93776">
        <ele>610.6</ele>
        <time>2014-06-28T08:32:12.000Z</time>
      </trkpt>
      <trkpt lat="45.60724" lon="5.93776">
        <ele>610</ele>
        <time>2014-06-28T08:32:13.000Z</time>
      </trkpt>
      <trkpt lat="45.60718" lon="5.93776">
        <ele>609.2</ele>
        <time>2014-06-28T08:32:14.000Z</time>
      </trkpt>
      <trkpt lat="45.60712" lon="5.93778">
        <ele>608.4</ele>
        <time>2014-06-28T08:32:15.000Z</time>
      </trkpt>
      <trkpt lat="45.60707" lon="5.93783">
        <ele>607.4</ele>
        <time>2014-06-28T08:32:16.000Z</time>
      </trkpt>
      <trkpt lat="45.60704" lon="5.93786">
        <ele>606.4</ele>
        <time>2014-06-28T08:32:17.000Z</time>
      </trkpt>
      <trkpt lat="45.60701" lon="5.93785">
        <ele>605.4</ele>
        <time>2014-06-28T08:32:18.000Z</time>
      </trkpt>
      <trkpt lat="45.60697" lon="5.93782">
        <ele>604.6</ele>
        <time>2014-06-28T08:32:19.000Z</time>
      </trkpt>
      <trkpt lat="45.60692" lon="5.93779">
        <ele>603.6</ele>
        <time>2014-06-28T08:32:20.000Z</time>
      </trkpt>
      <trkpt lat="45.60688" lon="5.93775">
        <ele>602.8</ele>
        <time>2014-06-28T08:32:21.000Z</time>
      </trkpt>
      <trkpt lat="45.60685" lon="5.93771">
        <ele>601.8</ele>
        <time>2014-06-28T08:32:22.000Z</time>
      </trkpt>
      <trkpt lat="45.60681" lon="5.93767">
        <ele>600.8</ele>
        <time>2014-06-28T08:32:23.000Z</time>
      </trkpt>
      <trkpt lat="45.60679" lon="5.93765">
        <ele>599.8</ele>
        <time>2014-06-28T08:32:24.000Z</time>
      </trkpt>
      <trkpt lat="45.60675" lon="5.93763">
        <ele>599</ele>
        <time>2014-06-28T08:32:25.000Z</time>
      </trkpt>
      <trkpt lat="45.60673" lon="5.9376">
        <ele>598.2</ele>
        <time>2014-06-28T08:32:26.000Z</time>
      </trkpt>
      <trkpt lat="45.60669" lon="5.93757">
        <ele>596.4</ele>
        <time>2014-06-28T08:32:28.000Z</time>
      </trkpt>
      <trkpt lat="45.60668" lon="5.93757">
        <ele>595.4</ele>
        <time>2014-06-28T08:32:29.000Z</time>
      </trkpt>
      <trkpt lat="45.60668" lon="5.93758">
        <ele>594.6</ele>
        <time>2014-06-28T08:32:30.000Z</time>
      </trkpt>
      <trkpt lat="45.60668" lon="5.93745">
        <ele>586.6</ele>
        <time>2014-06-28T08:41:21.000Z</time>
      </trkpt>
      <trkpt lat="45.60669" lon="5.93743">
        <ele>586.2</ele>
        <time>2014-06-28T08:41:22.000Z</time>
      </trkpt>
      <trkpt lat="45.60674" lon="5.9374">
        <ele>584.2</ele>
        <time>2014-06-28T08:41:26.000Z</time>
      </trkpt>
      <trkpt lat="45.60674" lon="5.9374">
        <ele>583.8</ele>
        <time>2014-06-28T08:41:28.000Z</time>
      </trkpt>
      <trkpt lat="45.60677" lon="5.93737">
        <ele>582</ele>
        <time>2014-06-28T08:41:32.000Z</time>
      </trkpt>
      <trkpt lat="45.60688" lon="5.93731">
        <ele>581.6</ele>
        <time>2014-06-28T08:41:36.000Z</time>
      </trkpt>
      <trkpt lat="45.60691" lon="5.9373">
        <ele>581.2</ele>
        <time>2014-06-28T08:41:37.000Z</time>
      </trkpt>
      <trkpt lat="45.60694" lon="5.93728">
        <ele>580.2</ele>
        <time>2014-06-28T08:41:38.000Z</time>
      </trkpt>
      <trkpt lat="45.60701" lon="5.93722">
        <ele>578.8</ele>
        <time>2014-06-28T08:41:41.000Z</time>
      </trkpt>
      <trkpt lat="45.60703" lon="5.9372">
        <ele>578.4</ele>
        <time>2014-06-28T08:41:42.000Z</time>
      </trkpt>
      <trkpt lat="45.60704" lon="5.9372">
        <ele>578</ele>
        <time>2014-06-28T08:41:43.000Z</time>
      </trkpt>
      <trkpt lat="45.60705" lon="5.93719">
        <ele>577.4</ele>
        <time>2014-06-28T08:41:44.000Z</time>
      </trkpt>
      <trkpt lat="45.60707" lon="5.93719">
        <ele>575.8</ele>
        <time>2014-06-28T08:41:47.000Z</time>
      </trkpt>
      <trkpt lat="45.60708" lon="5.93718">
        <ele>575.2</ele>
        <time>2014-06-28T08:41:48.000Z</time>
      </trkpt>
      <trkpt lat="45.60709" lon="5.93718">
        <ele>574.8</ele>
        <time>2014-06-28T08:41:50.000Z</time>
      </trkpt>
      <trkpt lat="45.60711" lon="5.93714">
        <ele>574.2</ele>
        <time>2014-06-28T08:41:51.000Z</time>
      </trkpt>
      <trkpt lat="45.60712" lon="5.93708">
        <ele>572.8</ele>
        <time>2014-06-28T08:41:54.000Z</time>
      </trkpt>
      <trkpt lat="45.60713" lon="5.93707">
        <ele>572.2</ele>
        <time>2014-06-28T08:41:55.000Z</time>
      </trkpt>
      <trkpt lat="45.60716" lon="5.93702">
        <ele>570.4</ele>
        <time>2014-06-28T08:41:58.000Z</time>
      </trkpt>
      <trkpt lat="45.60717" lon="5.93697">
        <ele>569.8</ele>
        <time>2014-06-28T08:41:59.000Z</time>
      </trkpt>
      <trkpt lat="45.60717" lon="5.93695">
        <ele>569</ele>
        <time>2014-06-28T08:42:00.000Z</time>
      </trkpt>
      <trkpt lat="45.6071" lon="5.93685">
        <ele>563</ele>
        <time>2014-06-28T08:42:17.000Z</time>
      </trkpt>
      <trkpt lat="45.60708" lon="5.93684">
        <ele>563</ele>
        <time>2014-06-28T08:42:18.000Z</time>
      </trkpt>
      <trkpt lat="45.60703" lon="5.93679">
        <ele>562</ele>
        <time>2014-06-28T08:42:21.000Z</time>
      </trkpt>
      <trkpt lat="45.60698" lon="5.93671">
        <ele>560.4</ele>
        <time>2014-06-28T08:42:24.000Z</time>
      </trkpt>
      <trkpt lat="45.60696" lon="5.9367">
        <ele>559.8</ele>
        <time>2014-06-28T08:42:25.000Z</time>
      </trkpt>
      <trkpt lat="45.60692" lon="5.93668">
        <ele>558</ele>
        <time>2014-06-28T08:42:27.000Z</time>
      </trkpt>
      <trkpt lat="45.60691" lon="5.93667">
        <ele>555.6</ele>
        <time>2014-06-28T08:42:29.000Z</time>
      </trkpt>
      <trkpt lat="45.60689" lon="5.93667">
        <ele>553.2</ele>
        <time>2014-06-28T08:42:44.000Z</time>
      </trkpt>
      <trkpt lat="45.60692" lon="5.93657">
        <ele>552.2</ele>
        <time>2014-06-28T08:42:47.000Z</time>
      </trkpt>
      <trkpt lat="45.60693" lon="5.93655">
        <ele>551.6</ele>
        <time>2014-06-28T08:42:48.000Z</time>
      </trkpt>
      <trkpt lat="45.60696" lon="5.9365">
        <ele>549.6</ele>
        <time>2014-06-28T08:42:51.000Z</time>
      </trkpt>
      <trkpt lat="45.60697" lon="5.93649">
        <ele>548.8</ele>
        <time>2014-06-28T08:42:52.000Z</time>
      </trkpt>
      <trkpt lat="45.60698" lon="5.93648">
        <ele>547.4</ele>
        <time>2014-06-28T08:42:53.000Z</time>
      </trkpt>
      <trkpt lat="45.607" lon="5.93645">
        <ele>546</ele>
        <time>2014-06-28T08:42:55.000Z</time>
      </trkpt>
      <trkpt lat="45.60701" lon="5.93641">
        <ele>544.6</ele>
        <time>2014-06-28T08:42:57.000Z</time>
      </trkpt>
      <trkpt lat="45.60701" lon="5.9364">
        <ele>543.8</ele>
        <time>2014-06-28T08:42:58.000Z</time>
      </trkpt>
      <trkpt lat="45.60712" lon="5.93628">
        <ele>542</ele>
        <time>2014-06-28T08:43:03.000Z</time>
      </trkpt>
      <trkpt lat="45.60713" lon="5.93627">
        <ele>541.6</ele>
        <time>2014-06-28T08:43:04.000Z</time>
      </trkpt>
      <trkpt lat="45.60716" lon="5.93623">
        <ele>541</ele>
        <time>2014-06-28T08:43:06.000Z</time>
      </trkpt>
      <trkpt lat="45.60716" lon="5.93622">
        <ele>540.6</ele>
        <time>2014-06-28T08:43:07.000Z</time>
      </trkpt>
      <trkpt lat="45.60714" lon="5.93621">
        <ele>539.4</ele>
        <time>2014-06-28T08:43:10.000Z</time>
      </trkpt>
      <trkpt lat="45.60713" lon="5.93622">
        <ele>539</ele>
        <time>2014-06-28T08:43:11.000Z</time>
      </trkpt>
      <trkpt lat="45.60709" lon="5.93626">
        <ele>538</ele>
        <time>2014-06-28T08:43:13.000Z</time>
      </trkpt>
      <trkpt lat="45.60701" lon="5.93627">
        <ele>536.6</ele>
        <time>2014-06-28T08:43:15.000Z</time>
      </trkpt>
      <trkpt lat="45.60688" lon="5.93631">
        <ele>533</ele>
        <time>2014-06-28T08:43:18.000Z</time>
      </trkpt>
      <trkpt lat="45.60684" lon="5.93632">
        <ele>532</ele>
        <time>2014-06-28T08:43:19.000Z</time>
      </trkpt>
      <trkpt lat="45.60679" lon="5.93633">
        <ele>531.2</ele>
        <time>2014-06-28T08:43:20.000Z</time>
      </trkpt>
      <trkpt lat="45.60658" lon="5.9363">
        <ele>527.8</ele>
        <time>2014-06-28T08:43:24.000Z</time>
      </trkpt>
      <trkpt lat="45.60653" lon="5.9363">
        <ele>526.8</ele>
        <time>2014-06-28T08:43:25.000Z</time>
      </trkpt>
      <trkpt lat="45.60643" lon="5.93628">
        <ele>525</ele>
        <time>2014-06-28T08:43:27.000Z</time>
      </trkpt>
      <trkpt lat="45.60638" lon="5.93627">
        <ele>524</ele>
        <time>2014-06-28T08:43:28.000Z</time>
      </trkpt>
      <trkpt lat="45.60631" lon="5.93626">
        <ele>522.2</ele>
        <time>2014-06-28T08:43:30.000Z</time>
      </trkpt>
      <trkpt lat="45.60629" lon="5.93625">
        <ele>521.4</ele>
        <time>2014-06-28T08:43:31.000Z</time>
      </trkpt>
      <trkpt lat="45.60627" lon="5.93624">
        <ele>520.6</ele>
        <time>2014-06-28T08:43:32.000Z</time>
      </trkpt>
      <trkpt lat="45.60624" lon="5.93623">
        <ele>519.8</ele>
        <time>2014-06-28T08:43:33.000Z</time>
      </trkpt>
      <trkpt lat="45.60623" lon="5.93622">
        <ele>519</ele>
        <time>2014-06-28T08:43:34.000Z</time>
      </trkpt>
      <trkpt lat="45.6062" lon="5.9362">
        <ele>518.6</ele>
        <time>2014-06-28T08:43:36.000Z</time>
      </trkpt>
      <trkpt lat="45.60619" lon="5.93619">
        <ele>518</ele>
        <time>2014-06-28T08:43:37.000Z</time>
      </trkpt>
      <trkpt lat="45.60618" lon="5.93617">
        <ele>517.6</ele>
        <time>2014-06-28T08:43:38.000Z</time>
      </trkpt>
      <trkpt lat="45.60618" lon="5.93615">
        <ele>517.2</ele>
        <time>2014-06-28T08:43:39.000Z</time>
      </trkpt>
      <trkpt lat="45.60618" lon="5.93614">
        <ele>516.8</ele>
        <time>2014-06-28T08:43:40.000Z</time>
      </trkpt>
      <trkpt lat="45.60617" lon="5.93613">
        <ele>516.4</ele>
        <time>2014-06-28T08:43:41.000Z</time>
      </trkpt>
      <trkpt lat="45.60621" lon="5.93611">
        <ele>514.6</ele>
        <time>2014-06-28T08:43:46.000Z</time>
      </trkpt>
      <trkpt lat="45.60627" lon="5.93605">
        <ele>514.2</ele>
        <time>2014-06-28T08:43:48.000Z</time>
      </trkpt>
      <trkpt lat="45.6064" lon="5.93597">
        <ele>513</ele>
        <time>2014-06-28T08:43:51.000Z</time>
      </trkpt>
      <trkpt lat="45.60644" lon="5.93593">
        <ele>512.4</ele>
        <time>2014-06-28T08:43:52.000Z</time>
      </trkpt>
      <trkpt lat="45.60647" lon="5.93587">
        <ele>511.8</ele>
        <time>2014-06-28T08:43:53.000Z</time>
      </trkpt>
      <trkpt lat="45.60659" lon="5.9357">
        <ele>510</ele>
        <time>2014-06-28T08:43:56.000Z</time>
      </trkpt>
      <trkpt lat="45.60663" lon="5.93566">
        <ele>509.2</ele>
        <time>2014-06-28T08:43:57.000Z</time>
      </trkpt>
      <trkpt lat="45.60667" lon="5.93563">
        <ele>508.6</ele>
        <time>2014-06-28T08:43:58.000Z</time>
      </trkpt>
      <trkpt lat="45.60671" lon="5.93562">
        <ele>508</ele>
        <time>2014-06-28T08:43:59.000Z</time>
      </trkpt>
      <trkpt lat="45.60674" lon="5.93561">
        <ele>507.4</ele>
        <time>2014-06-28T08:44:00.000Z</time>
      </trkpt>
      <trkpt lat="45.60679" lon="5.93559">
        <ele>506.8</ele>
        <time>2014-06-28T08:44:01.000Z</time>
      </trkpt>
      <trkpt lat="45.60682" lon="5.93557">
        <ele>506.2</ele>
        <time>2014-06-28T08:44:02.000Z</time>
      </trkpt>
      <trkpt lat="45.6069" lon="5.93547">
        <ele>504.6</ele>
        <time>2014-06-28T08:44:05.000Z</time>
      </trkpt>
      <trkpt lat="45.60694" lon="5.93545">
        <ele>504.2</ele>
        <time>2014-06-28T08:44:06.000Z</time>
      </trkpt>
      <trkpt lat="45.607" lon="5.93543">
        <ele>502.4</ele>
        <time>2014-06-28T08:44:08.000Z</time>
      </trkpt>
      <trkpt lat="45.60707" lon="5.93544">
        <ele>501.2</ele>
        <time>2014-06-28T08:44:10.000Z</time>
      </trkpt>
      <trkpt lat="45.60707" lon="5.93545">
        <ele>501.2</ele>
        <time>2014-06-28T08:44:11.000Z</time>
      </trkpt>
      <trkpt lat="45.60706" lon="5.93545">
        <ele>500.4</ele>
        <time>2014-06-28T08:44:13.000Z</time>
      </trkpt>
      <trkpt lat="45.60702" lon="5.93545">
        <ele>499.8</ele>
        <time>2014-06-28T08:44:14.000Z</time>
      </trkpt>
      <trkpt lat="45.60679" lon="5.93547">
        <ele>496.8</ele>
        <time>2014-06-28T08:44:19.000Z</time>
      </trkpt>
      <trkpt lat="45.60673" lon="5.93549">
        <ele>495.2</ele>
        <time>2014-06-28T08:44:21.000Z</time>
      </trkpt>
      <trkpt lat="45.60668" lon="5.9355">
        <ele>494.6</ele>
        <time>2014-06-28T08:44:22.000Z</time>
      </trkpt>
      <trkpt lat="45.60663" lon="5.93549">
        <ele>494</ele>
        <time>2014-06-28T08:44:23.000Z</time>
      </trkpt>
      <trkpt lat="45.60658" lon="5.93549">
        <ele>493.4</ele>
        <time>2014-06-28T08:44:24.000Z</time>
      </trkpt>
      <trkpt lat="45.6064" lon="5.93558">
        <ele>491</ele>
        <time>2014-06-28T08:44:27.000Z</time>
      </trkpt>
      <trkpt lat="45.6061" lon="5.9357">
        <ele>486</ele>
        <time>2014-06-28T08:44:32.000Z</time>
      </trkpt>
      <trkpt lat="45.60604" lon="5.93571">
        <ele>485.2</ele>
        <time>2014-06-28T08:44:33.000Z</time>
      </trkpt>
      <trkpt lat="45.60598" lon="5.9357">
        <ele>484.2</ele>
        <time>2014-06-28T08:44:34.000Z</time>
      </trkpt>
      <trkpt lat="45.60594" lon="5.93569">
        <ele>483.4</ele>
        <time>2014-06-28T08:44:35.000Z</time>
      </trkpt>
      <trkpt lat="45.60588" lon="5.93565">
        <ele>481.8</ele>
        <time>2014-06-28T08:44:37.000Z</time>
      </trkpt>
      <trkpt lat="45.60585" lon="5.93561">
        <ele>480.8</ele>
        <time>2014-06-28T08:44:39.000Z</time>
      </trkpt>
      <trkpt lat="45.60579" lon="5.93556">
        <ele>479.6</ele>
        <time>2014-06-28T08:44:48.000Z</time>
      </trkpt>
      <trkpt lat="45.6058" lon="5.93558">
        <ele>479.6</ele>
        <time>2014-06-28T08:45:04.000Z</time>
      </trkpt>
      <trkpt lat="45.60576" lon="5.93559">
        <ele>479.6</ele>
        <time>2014-06-28T08:45:08.000Z</time>
      </trkpt>
      <trkpt lat="45.60573" lon="5.93563">
        <ele>479.2</ele>
        <time>2014-06-28T08:45:11.000Z</time>
      </trkpt>
      <trkpt lat="45.60572" lon="5.93564">
        <ele>478.8</ele>
        <time>2014-06-28T08:45:12.000Z</time>
      </trkpt>
      <trkpt lat="45.60571" lon="5.93564">
        <ele>478.4</ele>
        <time>2014-06-28T08:45:13.000Z</time>
      </trkpt>
      <trkpt lat="45.6057" lon="5.93565">
        <ele>477.8</ele>
        <time>2014-06-28T08:45:14.000Z</time>
      </trkpt>
      <trkpt lat="45.60568" lon="5.93565">
        <ele>477.4</ele>
        <time>2014-06-28T08:45:15.000Z</time>
      </trkpt>
      <trkpt lat="45.60564" lon="5.93565">
        <ele>477.4</ele>
        <time>2014-06-28T08:45:19.000Z</time>
      </trkpt>
      <trkpt lat="45.60563" lon="5.93565">
        <ele>477.4</ele>
        <time>2014-06-28T08:45:20.000Z</time>
      </trkpt>
      <trkpt lat="45.60564" lon="5.93565">
        <ele>475.2</ele>
        <time>2014-06-28T08:45:46.000Z</time>
      </trkpt>
      <trkpt lat="45.60573" lon="5.93559">
        <ele>474.4</ele>
        <time>2014-06-28T08:45:49.000Z</time>
      </trkpt>
      <trkpt lat="45.60577" lon="5.93557">
        <ele>473.8</ele>
        <time>2014-06-28T08:45:50.000Z</time>
      </trkpt>
      <trkpt lat="45.60581" lon="5.93555">
        <ele>473.4</ele>
        <time>2014-06-28T08:45:51.000Z</time>
      </trkpt>
      <trkpt lat="45.60588" lon="5.93551">
        <ele>472.4</ele>
        <time>2014-06-28T08:45:53.000Z</time>
      </trkpt>
      <trkpt lat="45.60592" lon="5.93549">
        <ele>471.8</ele>
        <time>2014-06-28T08:45:54.000Z</time>
      </trkpt>
      <trkpt lat="45.60599" lon="5.93541">
        <ele>470</ele>
        <time>2014-06-28T08:45:57.000Z</time>
      </trkpt>
      <trkpt lat="45.60601" lon="5.93539">
        <ele>469.4</ele>
        <time>2014-06-28T08:45:58.000Z</time>
      </trkpt>
      <trkpt lat="45.60605" lon="5.93533">
        <ele>467.8</ele>
        <time>2014-06-28T08:46:01.000Z</time>
      </trkpt>
      <trkpt lat="45.60605" lon="5.93532">
        <ele>467.2</ele>
        <time>2014-06-28T08:46:02.000Z</time>
      </trkpt>
      <trkpt lat="45.60606" lon="5.93532">
        <ele>466.6</ele>
        <time>2014-06-28T08:46:03.000Z</time>
      </trkpt>
      <trkpt lat="45.60608" lon="5.93533">
        <ele>466.6</ele>
        <time>2014-06-28T08:46:05.000Z</time>
      </trkpt>
      <trkpt lat="45.60613" lon="5.93536">
        <ele>466.6</ele>
        <time>2014-06-28T08:46:11.000Z</time>
      </trkpt>
      <trkpt lat="45.60616" lon="5.93537">
        <ele>466</ele>
        <time>2014-06-28T08:46:12.000Z</time>
      </trkpt>
      <trkpt lat="45.60617" lon="5.93537">
        <ele>465.6</ele>
        <time>2014-06-28T08:46:13.000Z</time>
      </trkpt>
      <trkpt lat="45.60622" lon="5.93537">
        <ele>464.2</ele>
        <time>2014-06-28T08:46:16.000Z</time>
      </trkpt>
      <trkpt lat="45.60623" lon="5.93537">
        <ele>464.2</ele>
        <time>2014-06-28T08:46:18.000Z</time>
      </trkpt>
      <trkpt lat="45.60627" lon="5.93538">
        <ele>464.2</ele>
        <time>2014-06-28T08:46:23.000Z</time>
      </trkpt>
      <trkpt lat="45.60626" lon="5.93536">
        <ele>461.8</ele>
        <time>2014-06-28T08:46:42.000Z</time>
      </trkpt>
      <trkpt lat="45.60625" lon="5.93537">
        <ele>460.8</ele>
        <time>2014-06-28T08:46:44.000Z</time>
      </trkpt>
      <trkpt lat="45.60622" lon="5.93537">
        <ele>460.4</ele>
        <time>2014-06-28T08:46:45.000Z</time>
      </trkpt>
      <trkpt lat="45.60605" lon="5.93543">
        <ele>458.6</ele>
        <time>2014-06-28T08:46:50.000Z</time>
      </trkpt>
      <trkpt lat="45.60591" lon="5.93552">
        <ele>456.4</ele>
        <time>2014-06-28T08:46:54.000Z</time>
      </trkpt>
      <trkpt lat="45.60588" lon="5.93553">
        <ele>455.8</ele>
        <time>2014-06-28T08:46:55.000Z</time>
      </trkpt>
      <trkpt lat="45.60571" lon="5.93556">
        <ele>454</ele>
        <time>2014-06-28T08:47:01.000Z</time>
      </trkpt>
      <trkpt lat="45.60567" lon="5.93557">
        <ele>453.4</ele>
        <time>2014-06-28T08:47:02.000Z</time>
      </trkpt>
      <trkpt lat="45.60564" lon="5.93559">
        <ele>453</ele>
        <time>2014-06-28T08:47:03.000Z</time>
      </trkpt>
      <trkpt lat="45.60561" lon="5.9356">
        <ele>452.4</ele>
        <time>2014-06-28T08:47:04.000Z</time>
      </trkpt>
      <trkpt lat="45.60552" lon="5.93557">
        <ele>450.8</ele>
        <time>2014-06-28T08:47:07.000Z</time>
      </trkpt>
      <trkpt lat="45.60548" lon="5.93556">
        <ele>448.8</ele>
        <time>2014-06-28T08:47:17.000Z</time>
      </trkpt>
      <trkpt lat="45.60541" lon="5.93551">
        <ele>448.8</ele>
        <time>2014-06-28T08:47:20.000Z</time>
      </trkpt>
      <trkpt lat="45.60541" lon="5.9355">
        <ele>448.4</ele>
        <time>2014-06-28T08:47:21.000Z</time>
      </trkpt>
      <trkpt lat="45.60541" lon="5.93549">
        <ele>447.8</ele>
        <time>2014-06-28T08:47:22.000Z</time>
      </trkpt>
      <trkpt lat="45.60541" lon="5.93549">
        <ele>447.4</ele>
        <time>2014-06-28T08:47:23.000Z</time>
      </trkpt>
      <trkpt lat="45.60543" lon="5.93547">
        <ele>446.6</ele>
        <time>2014-06-28T08:47:30.000Z</time>
      </trkpt>
      <trkpt lat="45.6055" lon="5.93544">
        <ele>445.2</ele>
        <time>2014-06-28T08:47:33.000Z</time>
      </trkpt>
      <trkpt lat="45.6055" lon="5.93543">
        <ele>444.8</ele>
        <time>2014-06-28T08:47:34.000Z</time>
      </trkpt>
      <trkpt lat="45.6055" lon="5.93544">
        <ele>444.4</ele>
        <time>2014-06-28T08:47:35.000Z</time>
      </trkpt>
      <trkpt lat="45.60552" lon="5.93543">
        <ele>444</ele>
        <time>2014-06-28T08:47:38.000Z</time>
      </trkpt>
      <trkpt lat="45.60556" lon="5.9354">
        <ele>443.2</ele>
        <time>2014-06-28T08:47:40.000Z</time>
      </trkpt>
      <trkpt lat="45.60565" lon="5.93532">
        <ele>441.8</ele>
        <time>2014-06-28T08:47:43.000Z</time>
      </trkpt>
      <trkpt lat="45.60566" lon="5.93531">
        <ele>441.2</ele>
        <time>2014-06-28T08:47:44.000Z</time>
      </trkpt>
      <trkpt lat="45.60566" lon="5.93531">
        <ele>440.8</ele>
        <time>2014-06-28T08:47:45.000Z</time>
      </trkpt>
      <trkpt lat="45.60569" lon="5.93528">
        <ele>437.8</ele>
        <time>2014-06-28T08:47:54.000Z</time>
      </trkpt>
      <trkpt lat="45.60571" lon="5.93527">
        <ele>437.8</ele>
        <time>2014-06-28T08:47:55.000Z</time>
      </trkpt>
      <trkpt lat="45.60582" lon="5.93517">
        <ele>437.8</ele>
        <time>2014-06-28T08:48:00.000Z</time>
      </trkpt>
      <trkpt lat="45.60584" lon="5.93513">
        <ele>437.4</ele>
        <time>2014-06-28T08:48:02.000Z</time>
      </trkpt>
      <trkpt lat="45.60582" lon="5.93509">
        <ele>433.6</ele>
        <time>2014-06-28T08:48:18.000Z</time>
      </trkpt>
      <trkpt lat="45.6058" lon="5.93509">
        <ele>433.6</ele>
        <time>2014-06-28T08:48:19.000Z</time>
      </trkpt>
      <trkpt lat="45.60574" lon="5.93507">
        <ele>432.8</ele>
        <time>2014-06-28T08:48:22.000Z</time>
      </trkpt>
      <trkpt lat="45.60566" lon="5.93507">
        <ele>431.4</ele>
        <time>2014-06-28T08:48:25.000Z</time>
      </trkpt>
      <trkpt lat="45.60563" lon="5.93508">
        <ele>431</ele>
        <time>2014-06-28T08:48:26.000Z</time>
      </trkpt>
      <trkpt lat="45.60558" lon="5.93508">
        <ele>430.2</ele>
        <time>2014-06-28T08:48:28.000Z</time>
      </trkpt>
      <trkpt lat="45.60556" lon="5.93508">
        <ele>429.8</ele>
        <time>2014-06-28T08:48:29.000Z</time>
      </trkpt>
      <trkpt lat="45.60555" lon="5.93507">
        <ele>429.4</ele>
        <time>2014-06-28T08:48:30.000Z</time>
      </trkpt>
      <trkpt lat="45.60554" lon="5.93506">
        <ele>429.4</ele>
        <time>2014-06-28T08:48:31.000Z</time>
      </trkpt>
      <trkpt lat="45.6055" lon="5.93504">
        <ele>427.4</ele>
        <time>2014-06-28T08:49:55.000Z</time>
      </trkpt>
      <trkpt lat="45.60547" lon="5.93501">
        <ele>427.4</ele>
        <time>2014-06-28T08:49:59.000Z</time>
      </trkpt>
      <trkpt lat="45.60549" lon="5.93498">
        <ele>426</ele>
        <time>2014-06-28T08:50:02.000Z</time>
      </trkpt>
      <trkpt lat="45.60549" lon="5.93498">
        <ele>425.6</ele>
        <time>2014-06-28T08:50:03.000Z</time>
      </trkpt>
      <trkpt lat="45.60549" lon="5.93498">
        <ele>425</ele>
        <time>2014-06-28T08:50:04.000Z</time>
      </trkpt>
      <trkpt lat="45.60554" lon="5.93495">
        <ele>424.6</ele>
        <time>2014-06-28T08:50:07.000Z</time>
      </trkpt>
      <trkpt lat="45.60557" lon="5.93491">
        <ele>424.2</ele>
        <time>2014-06-28T08:50:08.000Z</time>
      </trkpt>
      <trkpt lat="45.60567" lon="5.93481">
        <ele>422.4</ele>
        <time>2014-06-28T08:50:11.000Z</time>
      </trkpt>
      <trkpt lat="45.60576" lon="5.93475">
        <ele>421</ele>
        <time>2014-06-28T08:50:13.000Z</time>
      </trkpt>
      <trkpt lat="45.60581" lon="5.93473">
        <ele>420.4</ele>
        <time>2014-06-28T08:50:14.000Z</time>
      </trkpt>
      <trkpt lat="45.60589" lon="5.9347">
        <ele>420</ele>
        <time>2014-06-28T08:50:16.000Z</time>
      </trkpt>
      <trkpt lat="45.60602" lon="5.93468">
        <ele>418.2</ele>
        <time>2014-06-28T08:50:20.000Z</time>
      </trkpt>
      <trkpt lat="45.60605" lon="5.93467">
        <ele>418.6</ele>
        <time>2014-06-28T08:50:21.000Z</time>
      </trkpt>
      <trkpt lat="45.60607" lon="5.93466">
        <ele>419.2</ele>
        <time>2014-06-28T08:50:22.000Z</time>
      </trkpt>
      <trkpt lat="45.60612" lon="5.93466">
        <ele>420</ele>
        <time>2014-06-28T08:50:24.000Z</time>
      </trkpt>
      <trkpt lat="45.60617" lon="5.93465">
        <ele>420.4</ele>
        <time>2014-06-28T08:50:26.000Z</time>
      </trkpt>
      <trkpt lat="45.60632" lon="5.93467">
        <ele>420.4</ele>
        <time>2014-06-28T08:50:31.000Z</time>
      </trkpt>
      <trkpt lat="45.6064" lon="5.93466">
        <ele>421.2</ele>
        <time>2014-06-28T08:50:35.000Z</time>
      </trkpt>
      <trkpt lat="45.60642" lon="5.93466">
        <ele>421.6</ele>
        <time>2014-06-28T08:50:36.000Z</time>
      </trkpt>
      <trkpt lat="45.60657" lon="5.93468">
        <ele>424.2</ele>
        <time>2014-06-28T08:50:43.000Z</time>
      </trkpt>
      <trkpt lat="45.60662" lon="5.93469">
        <ele>425</ele>
        <time>2014-06-28T08:50:46.000Z</time>
      </trkpt>
      <trkpt lat="45.60668" lon="5.9347">
        <ele>425.8</ele>
        <time>2014-06-28T08:50:48.000Z</time>
      </trkpt>
      <trkpt lat="45.60671" lon="5.9347">
        <ele>426.2</ele>
        <time>2014-06-28T08:50:49.000Z</time>
      </trkpt>
      <trkpt lat="45.60691" lon="5.93476">
        <ele>426.6</ele>
        <time>2014-06-28T08:50:56.000Z</time>
      </trkpt>
      <trkpt lat="45.60697" lon="5.93477">
        <ele>427</ele>
        <time>2014-06-28T08:50:59.000Z</time>
      </trkpt>
      <trkpt lat="45.60701" lon="5.93477">
        <ele>427.8</ele>
        <time>2014-06-28T08:51:01.000Z</time>
      </trkpt>
      <trkpt lat="45.60704" lon="5.93479">
        <ele>428.6</ele>
        <time>2014-06-28T08:51:03.000Z</time>
      </trkpt>
      <trkpt lat="45.60706" lon="5.93479">
        <ele>429</ele>
        <time>2014-06-28T08:51:04.000Z</time>
      </trkpt>
      <trkpt lat="45.60707" lon="5.9348">
        <ele>429.4</ele>
        <time>2014-06-28T08:51:05.000Z</time>
      </trkpt>
      <trkpt lat="45.60711" lon="5.93479">
        <ele>430.6</ele>
        <time>2014-06-28T08:51:07.000Z</time>
      </trkpt>
      <trkpt lat="45.60715" lon="5.93478">
        <ele>430.6</ele>
        <time>2014-06-28T08:51:09.000Z</time>
      </trkpt>
      <trkpt lat="45.60726" lon="5.93475">
        <ele>430.6</ele>
        <time>2014-06-28T08:51:16.000Z</time>
      </trkpt>
      <trkpt lat="45.60735" lon="5.93477">
        <ele>431.6</ele>
        <time>2014-06-28T08:51:20.000Z</time>
      </trkpt>
      <trkpt lat="45.60737" lon="5.93478">
        <ele>432</ele>
        <time>2014-06-28T08:51:21.000Z</time>
      </trkpt>
      <trkpt lat="45.60739" lon="5.93479">
        <ele>432.4</ele>
        <time>2014-06-28T08:51:22.000Z</time>
      </trkpt>
      <trkpt lat="45.6074" lon="5.9348">
        <ele>432.8</ele>
        <time>2014-06-28T08:51:23.000Z</time>
      </trkpt>
      <trkpt lat="45.60743" lon="5.93482">
        <ele>433.2</ele>
        <time>2014-06-28T08:51:25.000Z</time>
      </trkpt>
      <trkpt lat="45.60744" lon="5.93482">
        <ele>433.6</ele>
        <time>2014-06-28T08:51:26.000Z</time>
      </trkpt>
      <trkpt lat="45.60745" lon="5.93482">
        <ele>434</ele>
        <time>2014-06-28T08:51:27.000Z</time>
      </trkpt>
      <trkpt lat="45.60747" lon="5.93482">
        <ele>434.4</ele>
        <time>2014-06-28T08:51:28.000Z</time>
      </trkpt>
      <trkpt lat="45.60748" lon="5.93482">
        <ele>434.8</ele>
        <time>2014-06-28T08:51:29.000Z</time>
      </trkpt>
      <trkpt lat="45.60755" lon="5.93475">
        <ele>434.8</ele>
        <time>2014-06-28T08:51:34.000Z</time>
      </trkpt>
      <trkpt lat="45.60764" lon="5.93473">
        <ele>434.8</ele>
        <time>2014-06-28T08:51:39.000Z</time>
      </trkpt>
      <trkpt lat="45.6078" lon="5.93474">
        <ele>434.8</ele>
        <time>2014-06-28T08:51:47.000Z</time>
      </trkpt>
      <trkpt lat="45.60785" lon="5.93474">
        <ele>435.2</ele>
        <time>2014-06-28T08:51:49.000Z</time>
      </trkpt>
      <trkpt lat="45.60787" lon="5.93474">
        <ele>435.6</ele>
        <time>2014-06-28T08:51:50.000Z</time>
      </trkpt>
      <trkpt lat="45.60789" lon="5.93473">
        <ele>436</ele>
        <time>2014-06-28T08:51:51.000Z</time>
      </trkpt>
      <trkpt lat="45.6079" lon="5.93472">
        <ele>436.4</ele>
        <time>2014-06-28T08:51:52.000Z</time>
      </trkpt>
      <trkpt lat="45.60792" lon="5.93472">
        <ele>437</ele>
        <time>2014-06-28T08:51:53.000Z</time>
      </trkpt>
      <trkpt lat="45.60806" lon="5.93474">
        <ele>437</ele>
        <time>2014-06-28T08:52:00.000Z</time>
      </trkpt>
      <trkpt lat="45.60809" lon="5.93475">
        <ele>437.4</ele>
        <time>2014-06-28T08:52:02.000Z</time>
      </trkpt>
      <trkpt lat="45.60812" lon="5.93476">
        <ele>437.8</ele>
        <time>2014-06-28T08:52:03.000Z</time>
      </trkpt>
      <trkpt lat="45.60813" lon="5.93477">
        <ele>438.2</ele>
        <time>2014-06-28T08:52:04.000Z</time>
      </trkpt>
      <trkpt lat="45.60815" lon="5.93477">
        <ele>438.6</ele>
        <time>2014-06-28T08:52:05.000Z</time>
      </trkpt>
      <trkpt lat="45.60816" lon="5.93477">
        <ele>439</ele>
        <time>2014-06-28T08:52:06.000Z</time>
      </trkpt>
      <trkpt lat="45.60856" lon="5.93478">
        <ele>439.8</ele>
        <time>2014-06-28T08:52:26.000Z</time>
      </trkpt>
      <trkpt lat="45.6086" lon="5.93478">
        <ele>440.6</ele>
        <time>2014-06-28T08:52:28.000Z</time>
      </trkpt>
      <trkpt lat="45.60866" lon="5.93476">
        <ele>441</ele>
        <time>2014-06-28T08:52:31.000Z</time>
      </trkpt>
      <trkpt lat="45.60869" lon="5.93476">
        <ele>441</ele>
        <time>2014-06-28T08:52:33.000Z</time>
      </trkpt>
      <trkpt lat="45.60876" lon="5.93476">
        <ele>441</ele>
        <time>2014-06-28T08:52:36.000Z</time>
      </trkpt>
      <trkpt lat="45.60879" lon="5.93474">
        <ele>441</ele>
        <time>2014-06-28T08:52:37.000Z</time>
      </trkpt>
      <trkpt lat="45.60904" lon="5.93466">
        <ele>440.6</ele>
        <time>2014-06-28T08:52:44.000Z</time>
      </trkpt>
      <trkpt lat="45.60907" lon="5.93465">
        <ele>439.6</ele>
        <time>2014-06-28T08:52:45.000Z</time>
      </trkpt>
      <trkpt lat="45.60914" lon="5.93465">
        <ele>438.6</ele>
        <time>2014-06-28T08:52:47.000Z</time>
      </trkpt>
      <trkpt lat="45.60928" lon="5.93467">
        <ele>438.6</ele>
        <time>2014-06-28T08:52:52.000Z</time>
      </trkpt>
      <trkpt lat="45.60935" lon="5.93469">
        <ele>438.2</ele>
        <time>2014-06-28T08:52:54.000Z</time>
      </trkpt>
      <trkpt lat="45.6094" lon="5.93469">
        <ele>437.8</ele>
        <time>2014-06-28T08:52:55.000Z</time>
      </trkpt>
      <trkpt lat="45.60945" lon="5.93469">
        <ele>437.4</ele>
        <time>2014-06-28T08:52:56.000Z</time>
      </trkpt>
      <trkpt lat="45.60954" lon="5.93471">
        <ele>436.4</ele>
        <time>2014-06-28T08:52:58.000Z</time>
      </trkpt>
      <trkpt lat="45.60973" lon="5.9347">
        <ele>436</ele>
        <time>2014-06-28T08:53:02.000Z</time>
      </trkpt>
      <trkpt lat="45.60982" lon="5.93468">
        <ele>435.2</ele>
        <time>2014-06-28T08:53:04.000Z</time>
      </trkpt>
      <trkpt lat="45.60985" lon="5.93467">
        <ele>434.6</ele>
        <time>2014-06-28T08:53:05.000Z</time>
      </trkpt>
      <trkpt lat="45.60988" lon="5.93467">
        <ele>434.2</ele>
        <time>2014-06-28T08:53:06.000Z</time>
      </trkpt>
      <trkpt lat="45.60992" lon="5.93468">
        <ele>434.2</ele>
        <time>2014-06-28T08:53:07.000Z</time>
      </trkpt>
      <trkpt lat="45.61002" lon="5.93466">
        <ele>433.2</ele>
        <time>2014-06-28T08:53:10.000Z</time>
      </trkpt>
      <trkpt lat="45.61008" lon="5.93464">
        <ele>432.2</ele>
        <time>2014-06-28T08:53:12.000Z</time>
      </trkpt>
      <trkpt lat="45.61041" lon="5.93457">
        <ele>431</ele>
        <time>2014-06-28T08:53:20.000Z</time>
      </trkpt>
      <trkpt lat="45.61056" lon="5.93455">
        <ele>429.8</ele>
        <time>2014-06-28T08:53:23.000Z</time>
      </trkpt>
      <trkpt lat="45.61065" lon="5.93451">
        <ele>429.2</ele>
        <time>2014-06-28T08:53:25.000Z</time>
      </trkpt>
      <trkpt lat="45.61081" lon="5.93441">
        <ele>427.4</ele>
        <time>2014-06-28T08:53:29.000Z</time>
      </trkpt>
      <trkpt lat="45.61101" lon="5.93436">
        <ele>425.4</ele>
        <time>2014-06-28T08:53:34.000Z</time>
      </trkpt>
      <trkpt lat="45.61119" lon="5.93421">
        <ele>423.6</ele>
        <time>2014-06-28T08:53:40.000Z</time>
      </trkpt>
      <trkpt lat="45.61132" lon="5.93413">
        <ele>422.2</ele>
        <time>2014-06-28T08:53:43.000Z</time>
      </trkpt>
      <trkpt lat="45.61137" lon="5.93411">
        <ele>421.8</ele>
        <time>2014-06-28T08:53:44.000Z</time>
      </trkpt>
      <trkpt lat="45.6114" lon="5.93412">
        <ele>421.4</ele>
        <time>2014-06-28T08:53:45.000Z</time>
      </trkpt>
      <trkpt lat="45.61143" lon="5.93413">
        <ele>421</ele>
        <time>2014-06-28T08:53:46.000Z</time>
      </trkpt>
      <trkpt lat="45.61146" lon="5.93413">
        <ele>421</ele>
        <time>2014-06-28T08:53:49.000Z</time>
      </trkpt>
      <trkpt lat="45.61172" lon="5.93405">
        <ele>418.4</ele>
        <time>2014-06-28T08:53:59.000Z</time>
      </trkpt>
      <trkpt lat="45.61175" lon="5.93403">
        <ele>417.8</ele>
        <time>2014-06-28T08:54:00.000Z</time>
      </trkpt>
      <trkpt lat="45.61178" lon="5.93402">
        <ele>417.2</ele>
        <time>2014-06-28T08:54:01.000Z</time>
      </trkpt>
      <trkpt lat="45.6118" lon="5.93401">
        <ele>416.8</ele>
        <time>2014-06-28T08:54:02.000Z</time>
      </trkpt>
      <trkpt lat="45.61183" lon="5.93401">
        <ele>416.2</ele>
        <time>2014-06-28T08:54:03.000Z</time>
      </trkpt>
      <trkpt lat="45.61186" lon="5.93402">
        <ele>415.8</ele>
        <time>2014-06-28T08:54:05.000Z</time>
      </trkpt>
      <trkpt lat="45.61187" lon="5.93403">
        <ele>415.2</ele>
        <time>2014-06-28T08:54:06.000Z</time>
      </trkpt>
      <trkpt lat="45.61188" lon="5.93404">
        <ele>414.8</ele>
        <time>2014-06-28T08:54:07.000Z</time>
      </trkpt>
      <trkpt lat="45.6119" lon="5.93404">
        <ele>414</ele>
        <time>2014-06-28T08:54:09.000Z</time>
      </trkpt>
      <trkpt lat="45.61219" lon="5.934">
        <ele>413.6</ele>
        <time>2014-06-28T08:54:48.000Z</time>
      </trkpt>
      <trkpt lat="45.61223" lon="5.934">
        <ele>412.8</ele>
        <time>2014-06-28T08:54:49.000Z</time>
      </trkpt>
      <trkpt lat="45.61226" lon="5.93401">
        <ele>412.4</ele>
        <time>2014-06-28T08:54:50.000Z</time>
      </trkpt>
      <trkpt lat="45.61229" lon="5.93401">
        <ele>411.8</ele>
        <time>2014-06-28T08:54:51.000Z</time>
      </trkpt>
      <trkpt lat="45.61232" lon="5.934">
        <ele>411.2</ele>
        <time>2014-06-28T08:54:52.000Z</time>
      </trkpt>
      <trkpt lat="45.61236" lon="5.934">
        <ele>410.8</ele>
        <time>2014-06-28T08:54:53.000Z</time>
      </trkpt>
      <trkpt lat="45.6124" lon="5.93398">
        <ele>410.2</ele>
        <time>2014-06-28T08:54:54.000Z</time>
      </trkpt>
      <trkpt lat="45.61243" lon="5.93398">
        <ele>409.6</ele>
        <time>2014-06-28T08:54:55.000Z</time>
      </trkpt>
      <trkpt lat="45.61248" lon="5.93399">
        <ele>409.2</ele>
        <time>2014-06-28T08:54:57.000Z</time>
      </trkpt>
      <trkpt lat="45.61251" lon="5.93399">
        <ele>408.8</ele>
        <time>2014-06-28T08:54:58.000Z</time>
      </trkpt>
      <trkpt lat="45.61254" lon="5.93399">
        <ele>408.4</ele>
        <time>2014-06-28T08:54:59.000Z</time>
      </trkpt>
      <trkpt lat="45.61266" lon="5.93396">
        <ele>407.6</ele>
        <time>2014-06-28T08:55:03.000Z</time>
      </trkpt>
      <trkpt lat="45.61292" lon="5.93394">
        <ele>407.6</ele>
        <time>2014-06-28T08:55:10.000Z</time>
      </trkpt>
      <trkpt lat="45.61297" lon="5.93395">
        <ele>407.6</ele>
        <time>2014-06-28T08:55:11.000Z</time>
      </trkpt>
      <trkpt lat="45.61307" lon="5.93396">
        <ele>407.6</ele>
        <time>2014-06-28T08:55:13.000Z</time>
      </trkpt>
      <trkpt lat="45.61316" lon="5.93396">
        <ele>407.6</ele>
        <time>2014-06-28T08:55:15.000Z</time>
      </trkpt>
      <trkpt lat="45.61327" lon="5.93401">
        <ele>407.6</ele>
        <time>2014-06-28T08:55:17.000Z</time>
      </trkpt>
      <trkpt lat="45.61333" lon="5.93403">
        <ele>407</ele>
        <time>2014-06-28T08:55:18.000Z</time>
      </trkpt>
      <trkpt lat="45.61339" lon="5.93402">
        <ele>406.6</ele>
        <time>2014-06-28T08:55:19.000Z</time>
      </trkpt>
      <trkpt lat="45.61359" lon="5.93396">
        <ele>404.6</ele>
        <time>2014-06-28T08:55:22.000Z</time>
      </trkpt>
      <trkpt lat="45.61367" lon="5.93393">
        <ele>403.6</ele>
        <time>2014-06-28T08:55:23.000Z</time>
      </trkpt>
      <trkpt lat="45.61411" lon="5.93368">
        <ele>397.2</ele>
        <time>2014-06-28T08:55:29.000Z</time>
      </trkpt>
      <trkpt lat="45.61416" lon="5.93366">
        <ele>396.2</ele>
        <time>2014-06-28T08:55:30.000Z</time>
      </trkpt>
      <trkpt lat="45.61418" lon="5.93365">
        <ele>395</ele>
        <time>2014-06-28T08:55:31.000Z</time>
      </trkpt>
      <trkpt lat="45.6142" lon="5.93364">
        <ele>393.8</ele>
        <time>2014-06-28T08:55:32.000Z</time>
      </trkpt>
      <trkpt lat="45.61423" lon="5.93364">
        <ele>391.6</ele>
        <time>2014-06-28T08:55:34.000Z</time>
      </trkpt>
      <trkpt lat="45.61424" lon="5.93363">
        <ele>390.4</ele>
        <time>2014-06-28T08:55:36.000Z</time>
      </trkpt>
      <trkpt lat="45.61429" lon="5.93364">
        <ele>390.4</ele>
        <time>2014-06-28T08:55:48.000Z</time>
      </trkpt>
      <trkpt lat="45.61433" lon="5.93367">
        <ele>390.4</ele>
        <time>2014-06-28T08:55:50.000Z</time>
      </trkpt>
      <trkpt lat="45.61447" lon="5.93376">
        <ele>390.4</ele>
        <time>2014-06-28T08:55:56.000Z</time>
      </trkpt>
      <trkpt lat="45.61461" lon="5.93383">
        <ele>390.4</ele>
        <time>2014-06-28T08:56:02.000Z</time>
      </trkpt>
      <trkpt lat="45.61469" lon="5.9339">
        <ele>391.6</ele>
        <time>2014-06-28T08:56:06.000Z</time>
      </trkpt>
      <trkpt lat="45.61558" lon="5.93433">
        <ele>390.8</ele>
        <time>2014-06-28T08:56:30.000Z</time>
      </trkpt>
      <trkpt lat="45.6157" lon="5.93444">
        <ele>390.2</ele>
        <time>2014-06-28T08:56:33.000Z</time>
      </trkpt>
      <trkpt lat="45.61585" lon="5.93458">
        <ele>390.2</ele>
        <time>2014-06-28T08:56:37.000Z</time>
      </trkpt>
      <trkpt lat="45.61589" lon="5.9346">
        <ele>390.2</ele>
        <time>2014-06-28T08:56:38.000Z</time>
      </trkpt>
      <trkpt lat="45.61632" lon="5.93486">
        <ele>390.6</ele>
        <time>2014-06-28T08:56:44.000Z</time>
      </trkpt>
      <trkpt lat="45.61638" lon="5.93489">
        <ele>391</ele>
        <time>2014-06-28T08:56:45.000Z</time>
      </trkpt>
      <trkpt lat="45.61644" lon="5.93491">
        <ele>391.4</ele>
        <time>2014-06-28T08:56:46.000Z</time>
      </trkpt>
      <trkpt lat="45.6165" lon="5.93491">
        <ele>392</ele>
        <time>2014-06-28T08:56:47.000Z</time>
      </trkpt>
      <trkpt lat="45.61656" lon="5.9349">
        <ele>392.4</ele>
        <time>2014-06-28T08:56:48.000Z</time>
      </trkpt>
      <trkpt lat="45.61676" lon="5.93474">
        <ele>391.2</ele>
        <time>2014-06-28T08:56:52.000Z</time>
      </trkpt>
      <trkpt lat="45.61685" lon="5.93462">
        <ele>390</ele>
        <time>2014-06-28T08:56:54.000Z</time>
      </trkpt>
      <trkpt lat="45.61687" lon="5.93458">
        <ele>389.2</ele>
        <time>2014-06-28T08:56:55.000Z</time>
      </trkpt>
      <trkpt lat="45.61698" lon="5.93453">
        <ele>386.8</ele>
        <time>2014-06-28T08:56:58.000Z</time>
      </trkpt>
      <trkpt lat="45.61704" lon="5.93453">
        <ele>386.4</ele>
        <time>2014-06-28T08:56:59.000Z</time>
      </trkpt>
      <trkpt lat="45.61719" lon="5.93451">
        <ele>385.2</ele>
        <time>2014-06-28T08:57:02.000Z</time>
      </trkpt>
      <trkpt lat="45.61729" lon="5.93454">
        <ele>384.4</ele>
        <time>2014-06-28T08:57:04.000Z</time>
      </trkpt>
      <trkpt lat="45.61762" lon="5.9347">
        <ele>382.6</ele>
        <time>2014-06-28T08:57:11.000Z</time>
      </trkpt>
      <trkpt lat="45.61778" lon="5.93483">
        <ele>381.4</ele>
        <time>2014-06-28T08:57:15.000Z</time>
      </trkpt>
      <trkpt lat="45.61793" lon="5.93499">
        <ele>379</ele>
        <time>2014-06-28T08:57:20.000Z</time>
      </trkpt>
      <trkpt lat="45.61795" lon="5.93503">
        <ele>378.6</ele>
        <time>2014-06-28T08:57:21.000Z</time>
      </trkpt>
      <trkpt lat="45.61797" lon="5.93505">
        <ele>378.6</ele>
        <time>2014-06-28T08:57:22.000Z</time>
      </trkpt>
      <trkpt lat="45.61809" lon="5.93513">
        <ele>378.6</ele>
        <time>2014-06-28T08:57:28.000Z</time>
      </trkpt>
      <trkpt lat="45.61817" lon="5.93521">
        <ele>377.8</ele>
        <time>2014-06-28T08:57:34.000Z</time>
      </trkpt>
      <trkpt lat="45.61819" lon="5.93522">
        <ele>377.4</ele>
        <time>2014-06-28T08:57:35.000Z</time>
      </trkpt>
      <trkpt lat="45.61823" lon="5.93524">
        <ele>376.6</ele>
        <time>2014-06-28T08:57:37.000Z</time>
      </trkpt>
      <trkpt lat="45.61833" lon="5.93529">
        <ele>376.6</ele>
        <time>2014-06-28T08:57:42.000Z</time>
      </trkpt>
      <trkpt lat="45.61853" lon="5.93542">
        <ele>376.6</ele>
        <time>2014-06-28T08:57:48.000Z</time>
      </trkpt>
      <trkpt lat="45.61862" lon="5.9355">
        <ele>377</ele>
        <time>2014-06-28T08:57:50.000Z</time>
      </trkpt>
      <trkpt lat="45.61866" lon="5.93553">
        <ele>377.4</ele>
        <time>2014-06-28T08:57:51.000Z</time>
      </trkpt>
      <trkpt lat="45.61871" lon="5.93556">
        <ele>377.8</ele>
        <time>2014-06-28T08:57:52.000Z</time>
      </trkpt>
      <trkpt lat="45.61903" lon="5.93565">
        <ele>378.8</ele>
        <time>2014-06-28T08:58:00.000Z</time>
      </trkpt>
      <trkpt lat="45.61939" lon="5.93581">
        <ele>378.8</ele>
        <time>2014-06-28T08:58:05.000Z</time>
      </trkpt>
      <trkpt lat="45.61959" lon="5.93576">
        <ele>378.4</ele>
        <time>2014-06-28T08:58:09.000Z</time>
      </trkpt>
      <trkpt lat="45.61963" lon="5.93574">
        <ele>378</ele>
        <time>2014-06-28T08:58:10.000Z</time>
      </trkpt>
      <trkpt lat="45.61966" lon="5.93573">
        <ele>377.2</ele>
        <time>2014-06-28T08:58:11.000Z</time>
      </trkpt>
      <trkpt lat="45.61973" lon="5.93568">
        <ele>375.6</ele>
        <time>2014-06-28T08:58:13.000Z</time>
      </trkpt>
      <trkpt lat="45.61976" lon="5.93565">
        <ele>374.6</ele>
        <time>2014-06-28T08:58:14.000Z</time>
      </trkpt>
      <trkpt lat="45.61987" lon="5.93547">
        <ele>370</ele>
        <time>2014-06-28T08:58:18.000Z</time>
      </trkpt>
      <trkpt lat="45.6199" lon="5.93541">
        <ele>368.8</ele>
        <time>2014-06-28T08:58:19.000Z</time>
      </trkpt>
      <trkpt lat="45.61997" lon="5.93528">
        <ele>366.2</ele>
        <time>2014-06-28T08:58:21.000Z</time>
      </trkpt>
      <trkpt lat="45.62003" lon="5.93522">
        <ele>364</ele>
        <time>2014-06-28T08:58:23.000Z</time>
      </trkpt>
      <trkpt lat="45.62004" lon="5.9352">
        <ele>362</ele>
        <time>2014-06-28T08:58:25.000Z</time>
      </trkpt>
      <trkpt lat="45.62006" lon="5.9352">
        <ele>361</ele>
        <time>2014-06-28T08:58:35.000Z</time>
      </trkpt>
      <trkpt lat="45.6202" lon="5.93522">
        <ele>360.6</ele>
        <time>2014-06-28T08:58:40.000Z</time>
      </trkpt>
      <trkpt lat="45.62024" lon="5.93523">
        <ele>360.2</ele>
        <time>2014-06-28T08:58:41.000Z</time>
      </trkpt>
      <trkpt lat="45.62027" lon="5.93524">
        <ele>359.6</ele>
        <time>2014-06-28T08:58:42.000Z</time>
      </trkpt>
      <trkpt lat="45.6203" lon="5.93523">
        <ele>359.2</ele>
        <time>2014-06-28T08:58:43.000Z</time>
      </trkpt>
      <trkpt lat="45.62035" lon="5.93522">
        <ele>358.8</ele>
        <time>2014-06-28T08:58:44.000Z</time>
      </trkpt>
      <trkpt lat="45.62039" lon="5.93522">
        <ele>358.8</ele>
        <time>2014-06-28T08:58:45.000Z</time>
      </trkpt>
      <trkpt lat="45.62065" lon="5.93523">
        <ele>358.8</ele>
        <time>2014-06-28T08:58:50.000Z</time>
      </trkpt>
      <trkpt lat="45.62084" lon="5.93523">
        <ele>358.4</ele>
        <time>2014-06-28T08:58:53.000Z</time>
      </trkpt>
      <trkpt lat="45.62098" lon="5.93525">
        <ele>357.6</ele>
        <time>2014-06-28T08:58:55.000Z</time>
      </trkpt>
      <trkpt lat="45.62134" lon="5.93526">
        <ele>356.6</ele>
        <time>2014-06-28T08:59:00.000Z</time>
      </trkpt>
      <trkpt lat="45.62149" lon="5.93523">
        <ele>356.2</ele>
        <time>2014-06-28T08:59:02.000Z</time>
      </trkpt>
      <trkpt lat="45.62177" lon="5.93515">
        <ele>354.6</ele>
        <time>2014-06-28T08:59:06.000Z</time>
      </trkpt>
      <trkpt lat="45.622" lon="5.93512">
        <ele>353.2</ele>
        <time>2014-06-28T08:59:09.000Z</time>
      </trkpt>
      <trkpt lat="45.62238" lon="5.9351">
        <ele>351</ele>
        <time>2014-06-28T08:59:14.000Z</time>
      </trkpt>
      <trkpt lat="45.62261" lon="5.93511">
        <ele>350</ele>
        <time>2014-06-28T08:59:17.000Z</time>
      </trkpt>
      <trkpt lat="45.62268" lon="5.93512">
        <ele>349.6</ele>
        <time>2014-06-28T08:59:18.000Z</time>
      </trkpt>
      <trkpt lat="45.62275" lon="5.93514">
        <ele>349</ele>
        <time>2014-06-28T08:59:19.000Z</time>
      </trkpt>
      <trkpt lat="45.6228" lon="5.93518">
        <ele>348.2</ele>
        <time>2014-06-28T08:59:20.000Z</time>
      </trkpt>
      <trkpt lat="45.62289" lon="5.93528">
        <ele>347</ele>
        <time>2014-06-28T08:59:22.000Z</time>
      </trkpt>
      <trkpt lat="45.62303" lon="5.93554">
        <ele>346</ele>
        <time>2014-06-28T08:59:26.000Z</time>
      </trkpt>
      <trkpt lat="45.62312" lon="5.93573">
        <ele>347</ele>
        <time>2014-06-28T08:59:29.000Z</time>
      </trkpt>
      <trkpt lat="45.62318" lon="5.93583">
        <ele>348.4</ele>
        <time>2014-06-28T08:59:32.000Z</time>
      </trkpt>
      <trkpt lat="45.62328" lon="5.93602">
        <ele>350.6</ele>
        <time>2014-06-28T08:59:50.000Z</time>
      </trkpt>
      <trkpt lat="45.62339" lon="5.93611">
        <ele>352</ele>
        <time>2014-06-28T08:59:56.000Z</time>
      </trkpt>
      <trkpt lat="45.6234" lon="5.93612">
        <ele>352.4</ele>
        <time>2014-06-28T08:59:57.000Z</time>
      </trkpt>
      <trkpt lat="45.6235" lon="5.93619">
        <ele>353.8</ele>
        <time>2014-06-28T09:00:03.000Z</time>
      </trkpt>
      <trkpt lat="45.62354" lon="5.93621">
        <ele>354.6</ele>
        <time>2014-06-28T09:00:05.000Z</time>
      </trkpt>
      <trkpt lat="45.62357" lon="5.93622">
        <ele>355.2</ele>
        <time>2014-06-28T09:00:06.000Z</time>
      </trkpt>
      <trkpt lat="45.6236" lon="5.93622">
        <ele>355.2</ele>
        <time>2014-06-28T09:00:07.000Z</time>
      </trkpt>
      <trkpt lat="45.62404" lon="5.93635">
        <ele>355.2</ele>
        <time>2014-06-28T09:00:18.000Z</time>
      </trkpt>
      <trkpt lat="45.62419" lon="5.93634">
        <ele>356</ele>
        <time>2014-06-28T09:00:22.000Z</time>
      </trkpt>
      <trkpt lat="45.62426" lon="5.93633">
        <ele>356.8</ele>
        <time>2014-06-28T09:00:24.000Z</time>
      </trkpt>
      <trkpt lat="45.6243" lon="5.93633">
        <ele>357.2</ele>
        <time>2014-06-28T09:00:25.000Z</time>
      </trkpt>
      <trkpt lat="45.62474" lon="5.93612">
        <ele>357.2</ele>
        <time>2014-06-28T09:00:34.000Z</time>
      </trkpt>
      <trkpt lat="45.62489" lon="5.9361">
        <ele>357.2</ele>
        <time>2014-06-28T09:00:36.000Z</time>
      </trkpt>
      <trkpt lat="45.62507" lon="5.93603">
        <ele>357.2</ele>
        <time>2014-06-28T09:00:39.000Z</time>
      </trkpt>
      <trkpt lat="45.62517" lon="5.93596">
        <ele>357.2</ele>
        <time>2014-06-28T09:00:41.000Z</time>
      </trkpt>
      <trkpt lat="45.6254" lon="5.9357">
        <ele>355.8</ele>
        <time>2014-06-28T09:00:45.000Z</time>
      </trkpt>
      <trkpt lat="45.62547" lon="5.93564">
        <ele>355</ele>
        <time>2014-06-28T09:00:46.000Z</time>
      </trkpt>
      <trkpt lat="45.62554" lon="5.9356">
        <ele>354.4</ele>
        <time>2014-06-28T09:00:47.000Z</time>
      </trkpt>
      <trkpt lat="45.62562" lon="5.93556">
        <ele>353.8</ele>
        <time>2014-06-28T09:00:48.000Z</time>
      </trkpt>
      <trkpt lat="45.6257" lon="5.93555">
        <ele>353</ele>
        <time>2014-06-28T09:00:49.000Z</time>
      </trkpt>
      <trkpt lat="45.62621" lon="5.93557">
        <ele>349.6</ele>
        <time>2014-06-28T09:00:56.000Z</time>
      </trkpt>
      <trkpt lat="45.62668" lon="5.93576">
        <ele>347.8</ele>
        <time>2014-06-28T09:01:04.000Z</time>
      </trkpt>
      <trkpt lat="45.62674" lon="5.93578">
        <ele>347.4</ele>
        <time>2014-06-28T09:01:05.000Z</time>
      </trkpt>
      <trkpt lat="45.62688" lon="5.93578">
        <ele>347.4</ele>
        <time>2014-06-28T09:01:07.000Z</time>
      </trkpt>
      <trkpt lat="45.62719" lon="5.93575">
        <ele>345.2</ele>
        <time>2014-06-28T09:01:12.000Z</time>
      </trkpt>
      <trkpt lat="45.62732" lon="5.93572">
        <ele>345.2</ele>
        <time>2014-06-28T09:01:14.000Z</time>
      </trkpt>
      <trkpt lat="45.62741" lon="5.93555">
        <ele>344.8</ele>
        <time>2014-06-28T09:01:16.000Z</time>
      </trkpt>
      <trkpt lat="45.6275" lon="5.93524">
        <ele>343.2</ele>
        <time>2014-06-28T09:01:19.000Z</time>
      </trkpt>
      <trkpt lat="45.62758" lon="5.93504">
        <ele>340</ele>
        <time>2014-06-28T09:01:23.000Z</time>
      </trkpt>
      <trkpt lat="45.62762" lon="5.93501">
        <ele>340</ele>
        <time>2014-06-28T09:01:27.000Z</time>
      </trkpt>
      <trkpt lat="45.62762" lon="5.93501">
        <ele>340</ele>
        <time>2014-06-28T09:01:28.000Z</time>
      </trkpt>
      <trkpt lat="45.62764" lon="5.93501">
        <ele>338</ele>
        <time>2014-06-28T09:02:40.000Z</time>
      </trkpt>
      <trkpt lat="45.62765" lon="5.935">
        <ele>338</ele>
        <time>2014-06-28T09:02:41.000Z</time>
      </trkpt>
      <trkpt lat="45.62765" lon="5.93499">
        <ele>338</ele>
        <time>2014-06-28T09:02:42.000Z</time>
      </trkpt>
      <trkpt lat="45.6276" lon="5.93463">
        <ele>338</ele>
        <time>2014-06-28T09:02:49.000Z</time>
      </trkpt>
      <trkpt lat="45.6276" lon="5.93456">
        <ele>338</ele>
        <time>2014-06-28T09:02:50.000Z</time>
      </trkpt>
      <trkpt lat="45.62768" lon="5.9341">
        <ele>336</ele>
        <time>2014-06-28T09:02:58.000Z</time>
      </trkpt>
      <trkpt lat="45.62766" lon="5.93343">
        <ele>338</ele>
        <time>2014-06-28T09:03:15.000Z</time>
      </trkpt>
      <trkpt lat="45.62767" lon="5.93327">
        <ele>338</ele>
        <time>2014-06-28T09:03:18.000Z</time>
      </trkpt>
      <trkpt lat="45.62759" lon="5.93306">
        <ele>338</ele>
        <time>2014-06-28T09:03:22.000Z</time>
      </trkpt>
      <trkpt lat="45.62745" lon="5.93286">
        <ele>338.4</ele>
        <time>2014-06-28T09:03:27.000Z</time>
      </trkpt>
      <trkpt lat="45.6274" lon="5.93276">
        <ele>339.2</ele>
        <time>2014-06-28T09:03:29.000Z</time>
      </trkpt>
      <trkpt lat="45.62738" lon="5.93273">
        <ele>339.6</ele>
        <time>2014-06-28T09:03:30.000Z</time>
      </trkpt>
      <trkpt lat="45.62736" lon="5.93269">
        <ele>340</ele>
        <time>2014-06-28T09:03:31.000Z</time>
      </trkpt>
      <trkpt lat="45.62733" lon="5.93261">
        <ele>340</ele>
        <time>2014-06-28T09:03:33.000Z</time>
      </trkpt>
      <trkpt lat="45.62731" lon="5.93228">
        <ele>340</ele>
        <time>2014-06-28T09:03:41.000Z</time>
      </trkpt>
      <trkpt lat="45.62726" lon="5.93215">
        <ele>340</ele>
        <time>2014-06-28T09:03:44.000Z</time>
      </trkpt>
      <trkpt lat="45.62716" lon="5.93206">
        <ele>340</ele>
        <time>2014-06-28T09:03:47.000Z</time>
      </trkpt>
      <trkpt lat="45.62712" lon="5.93206">
        <ele>340</ele>
        <time>2014-06-28T09:03:48.000Z</time>
      </trkpt>
      <trkpt lat="45.62702" lon="5.9321">
        <ele>340</ele>
        <time>2014-06-28T09:03:51.000Z</time>
      </trkpt>
      <trkpt lat="45.62696" lon="5.93202">
        <ele>340</ele>
        <time>2014-06-28T09:03:54.000Z</time>
      </trkpt>
      <trkpt lat="45.62695" lon="5.93198">
        <ele>340</ele>
        <time>2014-06-28T09:03:55.000Z</time>
      </trkpt>
      <trkpt lat="45.62693" lon="5.93156">
        <ele>340</ele>
        <time>2014-06-28T09:04:02.000Z</time>
      </trkpt>
      <trkpt lat="45.62691" lon="5.93149">
        <ele>340</ele>
        <time>2014-06-28T09:04:03.000Z</time>
      </trkpt>
      <trkpt lat="45.6268" lon="5.93137">
        <ele>340</ele>
        <time>2014-06-28T09:04:06.000Z</time>
      </trkpt>
      <trkpt lat="45.62664" lon="5.93124">
        <ele>339.6</ele>
        <time>2014-06-28T09:04:09.000Z</time>
      </trkpt>
      <trkpt lat="45.62654" lon="5.931">
        <ele>338.4</ele>
        <time>2014-06-28T09:04:12.000Z</time>
      </trkpt>
      <trkpt lat="45.62648" lon="5.93095">
        <ele>337.8</ele>
        <time>2014-06-28T09:04:13.000Z</time>
      </trkpt>
      <trkpt lat="45.62641" lon="5.93091">
        <ele>337.2</ele>
        <time>2014-06-28T09:04:14.000Z</time>
      </trkpt>
      <trkpt lat="45.62633" lon="5.93089">
        <ele>336.8</ele>
        <time>2014-06-28T09:04:15.000Z</time>
      </trkpt>
      <trkpt lat="45.62618" lon="5.93083">
        <ele>335.2</ele>
        <time>2014-06-28T09:04:17.000Z</time>
      </trkpt>
      <trkpt lat="45.62603" lon="5.93074">
        <ele>334.2</ele>
        <time>2014-06-28T09:04:19.000Z</time>
      </trkpt>
      <trkpt lat="45.62579" lon="5.93055">
        <ele>332.2</ele>
        <time>2014-06-28T09:04:22.000Z</time>
      </trkpt>
      <trkpt lat="45.6256" lon="5.93044">
        <ele>330</ele>
        <time>2014-06-28T09:04:24.000Z</time>
      </trkpt>
      <trkpt lat="45.62549" lon="5.9304">
        <ele>328.8</ele>
        <time>2014-06-28T09:04:25.000Z</time>
      </trkpt>
      <trkpt lat="45.62519" lon="5.93032">
        <ele>324.4</ele>
        <time>2014-06-28T09:04:28.000Z</time>
      </trkpt>
      <trkpt lat="45.62512" lon="5.93028">
        <ele>323</ele>
        <time>2014-06-28T09:04:29.000Z</time>
      </trkpt>
      <trkpt lat="45.62507" lon="5.93022">
        <ele>321.6</ele>
        <time>2014-06-28T09:04:30.000Z</time>
      </trkpt>
      <trkpt lat="45.62504" lon="5.93013">
        <ele>320.4</ele>
        <time>2014-06-28T09:04:31.000Z</time>
      </trkpt>
      <trkpt lat="45.62504" lon="5.93003">
        <ele>319</ele>
        <time>2014-06-28T09:04:32.000Z</time>
      </trkpt>
      <trkpt lat="45.62523" lon="5.92861">
        <ele>309</ele>
        <time>2014-06-28T09:04:45.000Z</time>
      </trkpt>
      <trkpt lat="45.62512" lon="5.92677">
        <ele>304</ele>
        <time>2014-06-28T09:05:03.000Z</time>
      </trkpt>
      <trkpt lat="45.6254" lon="5.92445">
        <ele>304</ele>
        <time>2014-06-28T09:05:29.000Z</time>
      </trkpt>
      <trkpt lat="45.62549" lon="5.92436">
        <ele>304</ele>
        <time>2014-06-28T09:05:32.000Z</time>
      </trkpt>
      <trkpt lat="45.62589" lon="5.92425">
        <ele>304</ele>
        <time>2014-06-28T09:05:42.000Z</time>
      </trkpt>
      <trkpt lat="45.6259" lon="5.92424">
        <ele>304</ele>
        <time>2014-06-28T09:05:44.000Z</time>
      </trkpt>
      <trkpt lat="45.62611" lon="5.92418">
        <ele>304</ele>
        <time>2014-06-28T09:06:15.000Z</time>
      </trkpt>
      <trkpt lat="45.62638" lon="5.92413">
        <ele>304</ele>
        <time>2014-06-28T09:06:21.000Z</time>
      </trkpt>
      <trkpt lat="45.62712" lon="5.92381">
        <ele>304</ele>
        <time>2014-06-28T09:06:35.000Z</time>
      </trkpt>
      <trkpt lat="45.62743" lon="5.92373">
        <ele>304</ele>
        <time>2014-06-28T09:06:41.000Z</time>
      </trkpt>
      <trkpt lat="45.62757" lon="5.92366">
        <ele>304</ele>
        <time>2014-06-28T09:06:44.000Z</time>
      </trkpt>
      <trkpt lat="45.6292" lon="5.92318">
        <ele>304</ele>
        <time>2014-06-28T09:07:15.000Z</time>
      </trkpt>
      <trkpt lat="45.62939" lon="5.92331">
        <ele>304</ele>
        <time>2014-06-28T09:07:19.000Z</time>
      </trkpt>
      <trkpt lat="45.62951" lon="5.92334">
        <ele>304</ele>
        <time>2014-06-28T09:07:21.000Z</time>
      </trkpt>
      <trkpt lat="45.63042" lon="5.92368">
        <ele>304</ele>
        <time>2014-06-28T09:07:36.000Z</time>
      </trkpt>
      <trkpt lat="45.63072" lon="5.92374">
        <ele>304</ele>
        <time>2014-06-28T09:07:42.000Z</time>
      </trkpt>
      <trkpt lat="45.63076" lon="5.92376">
        <ele>304</ele>
        <time>2014-06-28T09:07:43.000Z</time>
      </trkpt>
      <trkpt lat="45.63092" lon="5.92378">
        <ele>304</ele>
        <time>2014-06-28T09:07:47.000Z</time>
      </trkpt>
      <trkpt lat="45.63113" lon="5.92377">
        <ele>304</ele>
        <time>2014-06-28T09:07:52.000Z</time>
      </trkpt>
      <trkpt lat="45.63173" lon="5.92371">
        <ele>304</ele>
        <time>2014-06-28T09:08:07.000Z</time>
      </trkpt>
      <trkpt lat="45.63178" lon="5.92376">
        <ele>304</ele>
        <time>2014-06-28T09:08:10.000Z</time>
      </trkpt>
      <trkpt lat="45.63186" lon="5.9246">
        <ele>304</ele>
        <time>2014-06-28T09:08:28.000Z</time>
      </trkpt>
      <trkpt lat="45.63194" lon="5.92479">
        <ele>304</ele>
        <time>2014-06-28T09:08:34.000Z</time>
      </trkpt>
      <trkpt lat="45.63209" lon="5.92476">
        <ele>304</ele>
        <time>2014-06-28T09:08:38.000Z</time>
      </trkpt>
      <trkpt lat="45.63237" lon="5.92469">
        <ele>304</ele>
        <time>2014-06-28T09:08:45.000Z</time>
      </trkpt>
      <trkpt lat="45.63253" lon="5.92461">
        <ele>304</ele>
        <time>2014-06-28T09:08:49.000Z</time>
      </trkpt>
      <trkpt lat="45.63315" lon="5.92443">
        <ele>304</ele>
        <time>2014-06-28T09:09:04.000Z</time>
      </trkpt>
      <trkpt lat="45.63355" lon="5.92417">
        <ele>304</ele>
        <time>2014-06-28T09:09:16.000Z</time>
      </trkpt>
      <trkpt lat="45.63414" lon="5.92362">
        <ele>304.4</ele>
        <time>2014-06-28T09:09:33.000Z</time>
      </trkpt>
      <trkpt lat="45.63434" lon="5.92338">
        <ele>306</ele>
        <time>2014-06-28T09:09:40.000Z</time>
      </trkpt>
      <trkpt lat="45.63443" lon="5.92323">
        <ele>307.4</ele>
        <time>2014-06-28T09:09:45.000Z</time>
      </trkpt>
      <trkpt lat="45.63448" lon="5.92317">
        <ele>308.4</ele>
        <time>2014-06-28T09:09:47.000Z</time>
      </trkpt>
      <trkpt lat="45.63461" lon="5.92289">
        <ele>308.8</ele>
        <time>2014-06-28T09:09:55.000Z</time>
      </trkpt>
      <trkpt lat="45.63462" lon="5.92286">
        <ele>309.2</ele>
        <time>2014-06-28T09:09:56.000Z</time>
      </trkpt>
      <trkpt lat="45.63463" lon="5.92282">
        <ele>309.6</ele>
        <time>2014-06-28T09:09:57.000Z</time>
      </trkpt>
      <trkpt lat="45.63464" lon="5.92278">
        <ele>310</ele>
        <time>2014-06-28T09:09:58.000Z</time>
      </trkpt>
      <trkpt lat="45.63466" lon="5.92275">
        <ele>310.4</ele>
        <time>2014-06-28T09:09:59.000Z</time>
      </trkpt>
      <trkpt lat="45.63469" lon="5.92273">
        <ele>310.4</ele>
        <time>2014-06-28T09:10:00.000Z</time>
      </trkpt>
      <trkpt lat="45.63504" lon="5.9226">
        <ele>311.6</ele>
        <time>2014-06-28T09:10:12.000Z</time>
      </trkpt>
      <trkpt lat="45.63531" lon="5.92255">
        <ele>313</ele>
        <time>2014-06-28T09:10:22.000Z</time>
      </trkpt>
      <trkpt lat="45.63534" lon="5.92255">
        <ele>313.4</ele>
        <time>2014-06-28T09:10:23.000Z</time>
      </trkpt>
      <trkpt lat="45.63542" lon="5.92253">
        <ele>314.6</ele>
        <time>2014-06-28T09:10:26.000Z</time>
      </trkpt>
      <trkpt lat="45.63558" lon="5.92248">
        <ele>314.6</ele>
        <time>2014-06-28T09:10:31.000Z</time>
      </trkpt>
      <trkpt lat="45.63564" lon="5.92245">
        <ele>315.4</ele>
        <time>2014-06-28T09:10:33.000Z</time>
      </trkpt>
      <trkpt lat="45.63591" lon="5.92239">
        <ele>316.8</ele>
        <time>2014-06-28T09:10:42.000Z</time>
      </trkpt>
      <trkpt lat="45.63604" lon="5.92234">
        <ele>317.2</ele>
        <time>2014-06-28T09:10:46.000Z</time>
      </trkpt>
      <trkpt lat="45.63608" lon="5.92234">
        <ele>317.6</ele>
        <time>2014-06-28T09:10:47.000Z</time>
      </trkpt>
      <trkpt lat="45.63611" lon="5.92232">
        <ele>318.2</ele>
        <time>2014-06-28T09:10:48.000Z</time>
      </trkpt>
      <trkpt lat="45.63615" lon="5.92231">
        <ele>318.6</ele>
        <time>2014-06-28T09:10:49.000Z</time>
      </trkpt>
      <trkpt lat="45.63619" lon="5.92231">
        <ele>319</ele>
        <time>2014-06-28T09:10:50.000Z</time>
      </trkpt>
      <trkpt lat="45.63627" lon="5.92229">
        <ele>319</ele>
        <time>2014-06-28T09:10:52.000Z</time>
      </trkpt>
      <trkpt lat="45.6363" lon="5.92228">
        <ele>319.4</ele>
        <time>2014-06-28T09:10:53.000Z</time>
      </trkpt>
      <trkpt lat="45.63637" lon="5.92226">
        <ele>320.4</ele>
        <time>2014-06-28T09:10:55.000Z</time>
      </trkpt>
      <trkpt lat="45.63641" lon="5.92225">
        <ele>320.8</ele>
        <time>2014-06-28T09:10:56.000Z</time>
      </trkpt>
      <trkpt lat="45.63644" lon="5.92223">
        <ele>321.4</ele>
        <time>2014-06-28T09:10:57.000Z</time>
      </trkpt>
      <trkpt lat="45.63673" lon="5.92212">
        <ele>322.6</ele>
        <time>2014-06-28T09:11:07.000Z</time>
      </trkpt>
      <trkpt lat="45.63675" lon="5.92212">
        <ele>323</ele>
        <time>2014-06-28T09:11:08.000Z</time>
      </trkpt>
      <trkpt lat="45.63723" lon="5.92195">
        <ele>323.4</ele>
        <time>2014-06-28T09:11:31.000Z</time>
      </trkpt>
      <trkpt lat="45.63719" lon="5.9219">
        <ele>323.4</ele>
        <time>2014-06-28T09:11:35.000Z</time>
      </trkpt>
      <trkpt lat="45.63719" lon="5.92189">
        <ele>323.4</ele>
        <time>2014-06-28T09:11:37.000Z</time>
      </trkpt>
      <trkpt lat="45.63717" lon="5.92189">
        <ele>321.6</ele>
        <time>2014-06-28T09:11:49.000Z</time>
      </trkpt>
      <trkpt lat="45.63715" lon="5.92187">
        <ele>321.2</ele>
        <time>2014-06-28T09:11:50.000Z</time>
      </trkpt>
      <trkpt lat="45.63709" lon="5.92185">
        <ele>321.2</ele>
        <time>2014-06-28T09:11:52.000Z</time>
      </trkpt>
      <trkpt lat="45.63706" lon="5.92182">
        <ele>321.2</ele>
        <time>2014-06-28T09:11:53.000Z</time>
      </trkpt>
      <trkpt lat="45.63701" lon="5.92174">
        <ele>320.8</ele>
        <time>2014-06-28T09:11:56.000Z</time>
      </trkpt>
      <trkpt lat="45.63697" lon="5.92174">
        <ele>320.4</ele>
        <time>2014-06-28T09:11:57.000Z</time>
      </trkpt>
      <trkpt lat="45.63694" lon="5.92171">
        <ele>320</ele>
        <time>2014-06-28T09:11:58.000Z</time>
      </trkpt>
      <trkpt lat="45.63691" lon="5.92161">
        <ele>319</ele>
        <time>2014-06-28T09:12:00.000Z</time>
      </trkpt>
      <trkpt lat="45.63685" lon="5.92149">
        <ele>317.8</ele>
        <time>2014-06-28T09:12:03.000Z</time>
      </trkpt>
      <trkpt lat="45.63682" lon="5.9214">
        <ele>316.8</ele>
        <time>2014-06-28T09:12:05.000Z</time>
      </trkpt>
      <trkpt lat="45.63679" lon="5.92136">
        <ele>316.8</ele>
        <time>2014-06-28T09:12:06.000Z</time>
      </trkpt>
      <trkpt lat="45.6367" lon="5.92135">
        <ele>316.8</ele>
        <time>2014-06-28T09:12:08.000Z</time>
      </trkpt>
      <trkpt lat="45.63657" lon="5.9213">
        <ele>316.8</ele>
        <time>2014-06-28T09:12:12.000Z</time>
      </trkpt>
      <trkpt lat="45.63636" lon="5.92116">
        <ele>316.8</ele>
        <time>2014-06-28T09:12:18.000Z</time>
      </trkpt>
      <trkpt lat="45.63629" lon="5.92109">
        <ele>316</ele>
        <time>2014-06-28T09:12:20.000Z</time>
      </trkpt>
      <trkpt lat="45.63625" lon="5.92106">
        <ele>315.6</ele>
        <time>2014-06-28T09:12:21.000Z</time>
      </trkpt>
      <trkpt lat="45.63617" lon="5.92099">
        <ele>314.8</ele>
        <time>2014-06-28T09:12:23.000Z</time>
      </trkpt>
      <trkpt lat="45.63612" lon="5.92096">
        <ele>314.8</ele>
        <time>2014-06-28T09:12:24.000Z</time>
      </trkpt>
      <trkpt lat="45.63553" lon="5.92039">
        <ele>312.2</ele>
        <time>2014-06-28T09:12:38.000Z</time>
      </trkpt>
      <trkpt lat="45.63497" lon="5.91963">
        <ele>308</ele>
        <time>2014-06-28T09:12:59.000Z</time>
      </trkpt>
      <trkpt lat="45.63465" lon="5.91906">
        <ele>306.2</ele>
        <time>2014-06-28T09:13:12.000Z</time>
      </trkpt>
      <trkpt lat="45.63451" lon="5.91877">
        <ele>304.4</ele>
        <time>2014-06-28T09:13:18.000Z</time>
      </trkpt>
      <trkpt lat="45.63448" lon="5.91873">
        <ele>304</ele>
        <time>2014-06-28T09:13:19.000Z</time>
      </trkpt>
      <trkpt lat="45.63436" lon="5.91845">
        <ele>304</ele>
        <time>2014-06-28T09:13:26.000Z</time>
      </trkpt>
      <trkpt lat="45.63406" lon="5.91772">
        <ele>304</ele>
        <time>2014-06-28T09:13:44.000Z</time>
      </trkpt>
      <trkpt lat="45.63401" lon="5.91768">
        <ele>304</ele>
        <time>2014-06-28T09:13:48.000Z</time>
      </trkpt>
      <trkpt lat="45.63402" lon="5.91768">
        <ele>304</ele>
        <time>2014-06-28T09:13:49.000Z</time>
      </trkpt>
      <trkpt lat="45.63397" lon="5.91761">
        <ele>304</ele>
        <time>2014-06-28T09:14:08.000Z</time>
      </trkpt>
      <trkpt lat="45.63396" lon="5.91762">
        <ele>304</ele>
        <time>2014-06-28T09:14:09.000Z</time>
      </trkpt>
      <trkpt lat="45.63396" lon="5.91762">
        <ele>304</ele>
        <time>2014-06-28T09:14:10.000Z</time>
      </trkpt>
      <trkpt lat="45.63393" lon="5.9176">
        <ele>302</ele>
        <time>2014-06-28T09:16:08.000Z</time>
      </trkpt>
      <trkpt lat="45.63386" lon="5.91755">
        <ele>302</ele>
        <time>2014-06-28T09:16:10.000Z</time>
      </trkpt>
      <trkpt lat="45.63383" lon="5.91751">
        <ele>302</ele>
        <time>2014-06-28T09:16:11.000Z</time>
      </trkpt>
      <trkpt lat="45.63375" lon="5.91737">
        <ele>300.8</ele>
        <time>2014-06-28T09:16:14.000Z</time>
      </trkpt>
      <trkpt lat="45.63371" lon="5.91733">
        <ele>300.4</ele>
        <time>2014-06-28T09:16:15.000Z</time>
      </trkpt>
      <trkpt lat="45.63359" lon="5.91725">
        <ele>299.4</ele>
        <time>2014-06-28T09:16:18.000Z</time>
      </trkpt>
      <trkpt lat="45.63354" lon="5.91721">
        <ele>299</ele>
        <time>2014-06-28T09:16:19.000Z</time>
      </trkpt>
      <trkpt lat="45.6335" lon="5.9171">
        <ele>298</ele>
        <time>2014-06-28T09:16:21.000Z</time>
      </trkpt>
      <trkpt lat="45.63346" lon="5.91704">
        <ele>297.6</ele>
        <time>2014-06-28T09:16:22.000Z</time>
      </trkpt>
      <trkpt lat="45.63344" lon="5.91697">
        <ele>297.6</ele>
        <time>2014-06-28T09:16:23.000Z</time>
      </trkpt>
      <trkpt lat="45.63338" lon="5.91671">
        <ele>297.6</ele>
        <time>2014-06-28T09:16:27.000Z</time>
      </trkpt>
      <trkpt lat="45.63317" lon="5.91615">
        <ele>297.6</ele>
        <time>2014-06-28T09:16:42.000Z</time>
      </trkpt>
      <trkpt lat="45.63316" lon="5.91612">
        <ele>297.6</ele>
        <time>2014-06-28T09:16:52.000Z</time>
      </trkpt>
      <trkpt lat="45.63316" lon="5.9161">
        <ele>297.6</ele>
        <time>2014-06-28T09:16:53.000Z</time>
      </trkpt>
      <trkpt lat="45.63313" lon="5.91606">
        <ele>297.6</ele>
        <time>2014-06-28T09:16:55.000Z</time>
      </trkpt>
      <trkpt lat="45.6331" lon="5.91596">
        <ele>297.6</ele>
        <time>2014-06-28T09:16:58.000Z</time>
      </trkpt>
      <trkpt lat="45.6326" lon="5.91482">
        <ele>299.6</ele>
        <time>2014-06-28T09:17:30.000Z</time>
      </trkpt>
      <trkpt lat="45.63256" lon="5.91466">
        <ele>301</ele>
        <time>2014-06-28T09:17:35.000Z</time>
      </trkpt>
      <trkpt lat="45.63255" lon="5.91463">
        <ele>301.4</ele>
        <time>2014-06-28T09:17:36.000Z</time>
      </trkpt>
      <trkpt lat="45.63244" lon="5.91436">
        <ele>303.8</ele>
        <time>2014-06-28T09:17:45.000Z</time>
      </trkpt>
      <trkpt lat="45.63241" lon="5.91429">
        <ele>304.4</ele>
        <time>2014-06-28T09:17:47.000Z</time>
      </trkpt>
      <trkpt lat="45.63229" lon="5.91385">
        <ele>308.6</ele>
        <time>2014-06-28T09:18:00.000Z</time>
      </trkpt>
      <trkpt lat="45.63228" lon="5.91383">
        <ele>309</ele>
        <time>2014-06-28T09:18:01.000Z</time>
      </trkpt>
      <trkpt lat="45.63229" lon="5.91381">
        <ele>309.4</ele>
        <time>2014-06-28T09:18:02.000Z</time>
      </trkpt>
      <trkpt lat="45.63228" lon="5.91378">
        <ele>309.8</ele>
        <time>2014-06-28T09:18:03.000Z</time>
      </trkpt>
      <trkpt lat="45.63228" lon="5.91376">
        <ele>310.2</ele>
        <time>2014-06-28T09:18:04.000Z</time>
      </trkpt>
      <trkpt lat="45.63228" lon="5.91374">
        <ele>310.2</ele>
        <time>2014-06-28T09:18:05.000Z</time>
      </trkpt>
      <trkpt lat="45.63226" lon="5.91368">
        <ele>310.2</ele>
        <time>2014-06-28T09:18:09.000Z</time>
      </trkpt>
      <trkpt lat="45.63223" lon="5.91369">
        <ele>310.2</ele>
        <time>2014-06-28T09:18:12.000Z</time>
      </trkpt>
      <trkpt lat="45.63223" lon="5.91372">
        <ele>310.2</ele>
        <time>2014-06-28T09:18:14.000Z</time>
      </trkpt>
      <trkpt lat="45.63226" lon="5.91381">
        <ele>310.2</ele>
        <time>2014-06-28T09:18:20.000Z</time>
      </trkpt>
      <trkpt lat="45.63229" lon="5.91375">
        <ele>310.2</ele>
        <time>2014-06-28T09:18:24.000Z</time>
      </trkpt>
      <trkpt lat="45.63229" lon="5.91374">
        <ele>310.2</ele>
        <time>2014-06-28T09:18:25.000Z</time>
      </trkpt>
      <trkpt lat="45.6323" lon="5.91373">
        <ele>310.2</ele>
        <time>2014-06-28T09:18:26.000Z</time>
      </trkpt>
      <trkpt lat="45.63233" lon="5.91367">
        <ele>310.2</ele>
        <time>2014-06-28T09:18:31.000Z</time>
      </trkpt>
      <trkpt lat="45.63234" lon="5.91366">
        <ele>310.2</ele>
        <time>2014-06-28T09:18:32.000Z</time>
      </trkpt>
      <trkpt lat="45.63239" lon="5.91363">
        <ele>310.2</ele>
        <time>2014-06-28T09:18:39.000Z</time>
      </trkpt>
      <trkpt lat="45.63241" lon="5.91362">
        <ele>310.2</ele>
        <time>2014-06-28T09:18:40.000Z</time>
      </trkpt>
      <trkpt lat="45.63248" lon="5.91358">
        <ele>310.2</ele>
        <time>2014-06-28T09:18:43.000Z</time>
      </trkpt>
      <trkpt lat="45.63263" lon="5.91353">
        <ele>310.2</ele>
        <time>2014-06-28T09:18:48.000Z</time>
      </trkpt>
      <trkpt lat="45.6327" lon="5.91354">
        <ele>310.2</ele>
        <time>2014-06-28T09:18:49.000Z</time>
      </trkpt>
      <trkpt lat="45.63284" lon="5.91347">
        <ele>310.2</ele>
        <time>2014-06-28T09:18:52.000Z</time>
      </trkpt>
      <trkpt lat="45.63285" lon="5.91341">
        <ele>310.2</ele>
        <time>2014-06-28T09:18:53.000Z</time>
      </trkpt>
      <trkpt lat="45.63283" lon="5.91321">
        <ele>310.2</ele>
        <time>2014-06-28T09:18:56.000Z</time>
      </trkpt>
      <trkpt lat="45.6326" lon="5.91283">
        <ele>310.2</ele>
        <time>2014-06-28T09:19:06.000Z</time>
      </trkpt>
      <trkpt lat="45.63253" lon="5.91268">
        <ele>311.2</ele>
        <time>2014-06-28T09:19:11.000Z</time>
      </trkpt>
      <trkpt lat="45.6323" lon="5.91184">
        <ele>315.4</ele>
        <time>2014-06-28T09:19:29.000Z</time>
      </trkpt>
      <trkpt lat="45.63226" lon="5.91161">
        <ele>316.6</ele>
        <time>2014-06-28T09:19:33.000Z</time>
      </trkpt>
      <trkpt lat="45.63214" lon="5.91124">
        <ele>319.4</ele>
        <time>2014-06-28T09:19:41.000Z</time>
      </trkpt>
      <trkpt lat="45.63213" lon="5.91116">
        <ele>320.2</ele>
        <time>2014-06-28T09:19:43.000Z</time>
      </trkpt>
      <trkpt lat="45.63204" lon="5.91088">
        <ele>323.8</ele>
        <time>2014-06-28T09:19:52.000Z</time>
      </trkpt>
      <trkpt lat="45.63202" lon="5.91081">
        <ele>325</ele>
        <time>2014-06-28T09:19:54.000Z</time>
      </trkpt>
      <trkpt lat="45.63202" lon="5.91077">
        <ele>325.4</ele>
        <time>2014-06-28T09:19:55.000Z</time>
      </trkpt>
      <trkpt lat="45.63199" lon="5.91066">
        <ele>326</ele>
        <time>2014-06-28T09:19:58.000Z</time>
      </trkpt>
      <trkpt lat="45.63195" lon="5.91056">
        <ele>327.4</ele>
        <time>2014-06-28T09:20:01.000Z</time>
      </trkpt>
      <trkpt lat="45.63194" lon="5.91049">
        <ele>328.4</ele>
        <time>2014-06-28T09:20:03.000Z</time>
      </trkpt>
      <trkpt lat="45.63193" lon="5.91045">
        <ele>329</ele>
        <time>2014-06-28T09:20:04.000Z</time>
      </trkpt>
      <trkpt lat="45.63193" lon="5.9104">
        <ele>329.8</ele>
        <time>2014-06-28T09:20:06.000Z</time>
      </trkpt>
      <trkpt lat="45.63194" lon="5.91034">
        <ele>330.8</ele>
        <time>2014-06-28T09:20:08.000Z</time>
      </trkpt>
      <trkpt lat="45.63195" lon="5.91031">
        <ele>331.2</ele>
        <time>2014-06-28T09:20:09.000Z</time>
      </trkpt>
      <trkpt lat="45.63195" lon="5.91022">
        <ele>332.6</ele>
        <time>2014-06-28T09:20:12.000Z</time>
      </trkpt>
      <trkpt lat="45.63193" lon="5.91015">
        <ele>333</ele>
        <time>2014-06-28T09:20:14.000Z</time>
      </trkpt>
      <trkpt lat="45.63192" lon="5.91012">
        <ele>333.4</ele>
        <time>2014-06-28T09:20:15.000Z</time>
      </trkpt>
      <trkpt lat="45.63192" lon="5.91008">
        <ele>333.8</ele>
        <time>2014-06-28T09:20:16.000Z</time>
      </trkpt>
      <trkpt lat="45.63191" lon="5.91005">
        <ele>334.6</ele>
        <time>2014-06-28T09:20:17.000Z</time>
      </trkpt>
      <trkpt lat="45.63188" lon="5.90996">
        <ele>335.6</ele>
        <time>2014-06-28T09:20:20.000Z</time>
      </trkpt>
      <trkpt lat="45.63188" lon="5.90993">
        <ele>336</ele>
        <time>2014-06-28T09:20:21.000Z</time>
      </trkpt>
      <trkpt lat="45.63188" lon="5.9099">
        <ele>336.4</ele>
        <time>2014-06-28T09:20:22.000Z</time>
      </trkpt>
      <trkpt lat="45.63189" lon="5.90987">
        <ele>337</ele>
        <time>2014-06-28T09:20:23.000Z</time>
      </trkpt>
      <trkpt lat="45.63192" lon="5.90979">
        <ele>337.4</ele>
        <time>2014-06-28T09:20:26.000Z</time>
      </trkpt>
      <trkpt lat="45.63193" lon="5.90969">
        <ele>338.6</ele>
        <time>2014-06-28T09:20:29.000Z</time>
      </trkpt>
      <trkpt lat="45.63194" lon="5.90966">
        <ele>339</ele>
        <time>2014-06-28T09:20:30.000Z</time>
      </trkpt>
      <trkpt lat="45.63195" lon="5.90962">
        <ele>339.8</ele>
        <time>2014-06-28T09:20:32.000Z</time>
      </trkpt>
      <trkpt lat="45.63198" lon="5.90957">
        <ele>340.8</ele>
        <time>2014-06-28T09:20:34.000Z</time>
      </trkpt>
      <trkpt lat="45.63201" lon="5.90955">
        <ele>341.2</ele>
        <time>2014-06-28T09:20:36.000Z</time>
      </trkpt>
      <trkpt lat="45.63202" lon="5.90953">
        <ele>341.6</ele>
        <time>2014-06-28T09:20:37.000Z</time>
      </trkpt>
      <trkpt lat="45.63203" lon="5.90953">
        <ele>342</ele>
        <time>2014-06-28T09:20:38.000Z</time>
      </trkpt>
      <trkpt lat="45.63202" lon="5.9095">
        <ele>343</ele>
        <time>2014-06-28T09:20:40.000Z</time>
      </trkpt>
      <trkpt lat="45.63201" lon="5.90949">
        <ele>343.4</ele>
        <time>2014-06-28T09:20:41.000Z</time>
      </trkpt>
      <trkpt lat="45.63198" lon="5.9095">
        <ele>343.4</ele>
        <time>2014-06-28T09:20:43.000Z</time>
      </trkpt>
      <trkpt lat="45.63194" lon="5.90955">
        <ele>343.4</ele>
        <time>2014-06-28T09:20:46.000Z</time>
      </trkpt>
      <trkpt lat="45.63192" lon="5.90956">
        <ele>343.4</ele>
        <time>2014-06-28T09:20:47.000Z</time>
      </trkpt>
      <trkpt lat="45.63188" lon="5.90966">
        <ele>343.4</ele>
        <time>2014-06-28T09:20:51.000Z</time>
      </trkpt>
      <trkpt lat="45.63186" lon="5.90994">
        <ele>341.2</ele>
        <time>2014-06-28T09:20:59.000Z</time>
      </trkpt>
      <trkpt lat="45.63185" lon="5.90998">
        <ele>340.8</ele>
        <time>2014-06-28T09:21:00.000Z</time>
      </trkpt>
      <trkpt lat="45.63186" lon="5.91006">
        <ele>339.8</ele>
        <time>2014-06-28T09:21:02.000Z</time>
      </trkpt>
      <trkpt lat="45.63185" lon="5.91009">
        <ele>339.2</ele>
        <time>2014-06-28T09:21:03.000Z</time>
      </trkpt>
      <trkpt lat="45.63185" lon="5.91013">
        <ele>338.8</ele>
        <time>2014-06-28T09:21:04.000Z</time>
      </trkpt>
      <trkpt lat="45.63186" lon="5.91021">
        <ele>338</ele>
        <time>2014-06-28T09:21:06.000Z</time>
      </trkpt>
      <trkpt lat="45.63187" lon="5.91024">
        <ele>337.2</ele>
        <time>2014-06-28T09:21:07.000Z</time>
      </trkpt>
      <trkpt lat="45.63189" lon="5.91026">
        <ele>336.8</ele>
        <time>2014-06-28T09:21:08.000Z</time>
      </trkpt>
      <trkpt lat="45.63192" lon="5.91026">
        <ele>336.2</ele>
        <time>2014-06-28T09:21:09.000Z</time>
      </trkpt>
      <trkpt lat="45.63194" lon="5.91023">
        <ele>335.8</ele>
        <time>2014-06-28T09:21:10.000Z</time>
      </trkpt>
      <trkpt lat="45.63194" lon="5.9102">
        <ele>335.4</ele>
        <time>2014-06-28T09:21:11.000Z</time>
      </trkpt>
      <trkpt lat="45.6319" lon="5.91007">
        <ele>334.8</ele>
        <time>2014-06-28T09:21:15.000Z</time>
      </trkpt>
      <trkpt lat="45.63188" lon="5.90995">
        <ele>335.6</ele>
        <time>2014-06-28T09:21:19.000Z</time>
      </trkpt>
      <trkpt lat="45.6319" lon="5.90981">
        <ele>337.4</ele>
        <time>2014-06-28T09:21:25.000Z</time>
      </trkpt>
      <trkpt lat="45.6319" lon="5.9098">
        <ele>337.8</ele>
        <time>2014-06-28T09:21:26.000Z</time>
      </trkpt>
      <trkpt lat="45.63191" lon="5.9098">
        <ele>338.2</ele>
        <time>2014-06-28T09:21:27.000Z</time>
      </trkpt>
      <trkpt lat="45.63192" lon="5.90977">
        <ele>339.2</ele>
        <time>2014-06-28T09:21:29.000Z</time>
      </trkpt>
      <trkpt lat="45.63192" lon="5.90975">
        <ele>339.2</ele>
        <time>2014-06-28T09:21:31.000Z</time>
      </trkpt>
      <trkpt lat="45.63191" lon="5.90961">
        <ele>340.8</ele>
        <time>2014-06-28T09:21:40.000Z</time>
      </trkpt>
      <trkpt lat="45.6319" lon="5.90959">
        <ele>341.2</ele>
        <time>2014-06-28T09:21:41.000Z</time>
      </trkpt>
      <trkpt lat="45.63186" lon="5.90958">
        <ele>341.2</ele>
        <time>2014-06-28T09:21:43.000Z</time>
      </trkpt>
      <trkpt lat="45.63182" lon="5.90956">
        <ele>341.2</ele>
        <time>2014-06-28T09:21:45.000Z</time>
      </trkpt>
      <trkpt lat="45.63179" lon="5.90956">
        <ele>341.6</ele>
        <time>2014-06-28T09:21:46.000Z</time>
      </trkpt>
      <trkpt lat="45.63177" lon="5.90955">
        <ele>342</ele>
        <time>2014-06-28T09:21:47.000Z</time>
      </trkpt>
      <trkpt lat="45.63175" lon="5.90956">
        <ele>342.4</ele>
        <time>2014-06-28T09:21:48.000Z</time>
      </trkpt>
      <trkpt lat="45.63172" lon="5.90956">
        <ele>342.8</ele>
        <time>2014-06-28T09:21:49.000Z</time>
      </trkpt>
      <trkpt lat="45.63154" lon="5.9096">
        <ele>343.2</ele>
        <time>2014-06-28T09:21:55.000Z</time>
      </trkpt>
      <trkpt lat="45.63127" lon="5.9097">
        <ele>343.2</ele>
        <time>2014-06-28T09:22:01.000Z</time>
      </trkpt>
      <trkpt lat="45.63121" lon="5.9097">
        <ele>343.2</ele>
        <time>2014-06-28T09:22:02.000Z</time>
      </trkpt>
      <trkpt lat="45.63116" lon="5.90968">
        <ele>343.2</ele>
        <time>2014-06-28T09:22:04.000Z</time>
      </trkpt>
      <trkpt lat="45.63116" lon="5.90959">
        <ele>343.2</ele>
        <time>2014-06-28T09:22:07.000Z</time>
      </trkpt>
      <trkpt lat="45.63111" lon="5.90934">
        <ele>343.2</ele>
        <time>2014-06-28T09:22:19.000Z</time>
      </trkpt>
      <trkpt lat="45.6311" lon="5.90931">
        <ele>343.6</ele>
        <time>2014-06-28T09:22:21.000Z</time>
      </trkpt>
      <trkpt lat="45.63109" lon="5.90929">
        <ele>344</ele>
        <time>2014-06-28T09:22:22.000Z</time>
      </trkpt>
      <trkpt lat="45.63109" lon="5.90928">
        <ele>344.6</ele>
        <time>2014-06-28T09:22:23.000Z</time>
      </trkpt>
      <trkpt lat="45.63108" lon="5.90926">
        <ele>345</ele>
        <time>2014-06-28T09:22:24.000Z</time>
      </trkpt>
      <trkpt lat="45.63107" lon="5.90924">
        <ele>345.4</ele>
        <time>2014-06-28T09:22:25.000Z</time>
      </trkpt>
      <trkpt lat="45.63106" lon="5.90921">
        <ele>345.8</ele>
        <time>2014-06-28T09:22:27.000Z</time>
      </trkpt>
      <trkpt lat="45.63104" lon="5.90917">
        <ele>347</ele>
        <time>2014-06-28T09:22:30.000Z</time>
      </trkpt>
      <trkpt lat="45.631" lon="5.90904">
        <ele>347.8</ele>
        <time>2014-06-28T09:22:38.000Z</time>
      </trkpt>
      <trkpt lat="45.631" lon="5.90902">
        <ele>348.2</ele>
        <time>2014-06-28T09:22:39.000Z</time>
      </trkpt>
      <trkpt lat="45.63099" lon="5.90895">
        <ele>349.4</ele>
        <time>2014-06-28T09:22:43.000Z</time>
      </trkpt>
      <trkpt lat="45.63099" lon="5.90894">
        <ele>349.8</ele>
        <time>2014-06-28T09:22:44.000Z</time>
      </trkpt>
      <trkpt lat="45.63098" lon="5.90892">
        <ele>350.4</ele>
        <time>2014-06-28T09:22:45.000Z</time>
      </trkpt>
      <trkpt lat="45.63095" lon="5.90889">
        <ele>351.2</ele>
        <time>2014-06-28T09:22:47.000Z</time>
      </trkpt>
      <trkpt lat="45.63094" lon="5.90887">
        <ele>351.6</ele>
        <time>2014-06-28T09:22:48.000Z</time>
      </trkpt>
      <trkpt lat="45.63094" lon="5.90884">
        <ele>351.6</ele>
        <time>2014-06-28T09:22:49.000Z</time>
      </trkpt>
      <trkpt lat="45.63092" lon="5.90877">
        <ele>351.6</ele>
        <time>2014-06-28T09:22:52.000Z</time>
      </trkpt>
      <trkpt lat="45.63092" lon="5.90865">
        <ele>351.6</ele>
        <time>2014-06-28T09:22:57.000Z</time>
      </trkpt>
      <trkpt lat="45.63091" lon="5.90858">
        <ele>352.4</ele>
        <time>2014-06-28T09:23:01.000Z</time>
      </trkpt>
      <trkpt lat="45.63091" lon="5.90856">
        <ele>352.8</ele>
        <time>2014-06-28T09:23:02.000Z</time>
      </trkpt>
      <trkpt lat="45.63089" lon="5.90851">
        <ele>353.6</ele>
        <time>2014-06-28T09:23:04.000Z</time>
      </trkpt>
      <trkpt lat="45.63089" lon="5.90842">
        <ele>353.6</ele>
        <time>2014-06-28T09:23:07.000Z</time>
      </trkpt>
      <trkpt lat="45.63082" lon="5.90809">
        <ele>354</ele>
        <time>2014-06-28T09:23:18.000Z</time>
      </trkpt>
      <trkpt lat="45.63081" lon="5.90805">
        <ele>354.8</ele>
        <time>2014-06-28T09:23:20.000Z</time>
      </trkpt>
      <trkpt lat="45.63079" lon="5.90804">
        <ele>355.2</ele>
        <time>2014-06-28T09:23:21.000Z</time>
      </trkpt>
      <trkpt lat="45.63078" lon="5.90803">
        <ele>355.6</ele>
        <time>2014-06-28T09:23:22.000Z</time>
      </trkpt>
      <trkpt lat="45.63073" lon="5.90803">
        <ele>355.6</ele>
        <time>2014-06-28T09:23:25.000Z</time>
      </trkpt>
      <trkpt lat="45.63066" lon="5.90802">
        <ele>356.6</ele>
        <time>2014-06-28T09:23:29.000Z</time>
      </trkpt>
      <trkpt lat="45.63065" lon="5.90801">
        <ele>357</ele>
        <time>2014-06-28T09:23:30.000Z</time>
      </trkpt>
      <trkpt lat="45.63064" lon="5.90798">
        <ele>357.4</ele>
        <time>2014-06-28T09:23:31.000Z</time>
      </trkpt>
      <trkpt lat="45.63064" lon="5.90796">
        <ele>357.8</ele>
        <time>2014-06-28T09:23:32.000Z</time>
      </trkpt>
      <trkpt lat="45.63068" lon="5.90785">
        <ele>357.8</ele>
        <time>2014-06-28T09:23:36.000Z</time>
      </trkpt>
      <trkpt lat="45.63069" lon="5.90764">
        <ele>358.2</ele>
        <time>2014-06-28T09:23:41.000Z</time>
      </trkpt>
      <trkpt lat="45.63067" lon="5.9075">
        <ele>359.8</ele>
        <time>2014-06-28T09:23:45.000Z</time>
      </trkpt>
      <trkpt lat="45.63051" lon="5.90696">
        <ele>361.6</ele>
        <time>2014-06-28T09:23:56.000Z</time>
      </trkpt>
      <trkpt lat="45.63049" lon="5.90691">
        <ele>362</ele>
        <time>2014-06-28T09:23:57.000Z</time>
      </trkpt>
      <trkpt lat="45.63041" lon="5.90663">
        <ele>363.6</ele>
        <time>2014-06-28T09:24:02.000Z</time>
      </trkpt>
      <trkpt lat="45.63024" lon="5.90625">
        <ele>365.4</ele>
        <time>2014-06-28T09:24:09.000Z</time>
      </trkpt>
      <trkpt lat="45.62985" lon="5.9054">
        <ele>368.8</ele>
        <time>2014-06-28T09:24:26.000Z</time>
      </trkpt>
      <trkpt lat="45.62978" lon="5.90529">
        <ele>369.6</ele>
        <time>2014-06-28T09:24:28.000Z</time>
      </trkpt>
      <trkpt lat="45.62972" lon="5.90518">
        <ele>370.6</ele>
        <time>2014-06-28T09:24:30.000Z</time>
      </trkpt>
      <trkpt lat="45.62966" lon="5.90503">
        <ele>371</ele>
        <time>2014-06-28T09:24:33.000Z</time>
      </trkpt>
      <trkpt lat="45.62959" lon="5.90495">
        <ele>371.8</ele>
        <time>2014-06-28T09:24:35.000Z</time>
      </trkpt>
      <trkpt lat="45.62957" lon="5.90491">
        <ele>372.4</ele>
        <time>2014-06-28T09:24:36.000Z</time>
      </trkpt>
      <trkpt lat="45.62948" lon="5.90472">
        <ele>372.8</ele>
        <time>2014-06-28T09:24:41.000Z</time>
      </trkpt>
      <trkpt lat="45.62942" lon="5.90461">
        <ele>373.2</ele>
        <time>2014-06-28T09:24:44.000Z</time>
      </trkpt>
      <trkpt lat="45.62921" lon="5.90416">
        <ele>375.2</ele>
        <time>2014-06-28T09:24:57.000Z</time>
      </trkpt>
      <trkpt lat="45.62874" lon="5.90333">
        <ele>377</ele>
        <time>2014-06-28T09:25:15.000Z</time>
      </trkpt>
      <trkpt lat="45.62866" lon="5.90324">
        <ele>377</ele>
        <time>2014-06-28T09:25:18.000Z</time>
      </trkpt>
      <trkpt lat="45.6286" lon="5.90329">
        <ele>377</ele>
        <time>2014-06-28T09:25:20.000Z</time>
      </trkpt>
      <trkpt lat="45.62859" lon="5.90333">
        <ele>377.4</ele>
        <time>2014-06-28T09:25:21.000Z</time>
      </trkpt>
      <trkpt lat="45.62859" lon="5.90337">
        <ele>377.8</ele>
        <time>2014-06-28T09:25:22.000Z</time>
      </trkpt>
      <trkpt lat="45.62859" lon="5.90341">
        <ele>378.2</ele>
        <time>2014-06-28T09:25:23.000Z</time>
      </trkpt>
      <trkpt lat="45.62859" lon="5.90344">
        <ele>378.6</ele>
        <time>2014-06-28T09:25:24.000Z</time>
      </trkpt>
      <trkpt lat="45.62862" lon="5.90352">
        <ele>379.6</ele>
        <time>2014-06-28T09:25:27.000Z</time>
      </trkpt>
      <trkpt lat="45.62862" lon="5.90354">
        <ele>380</ele>
        <time>2014-06-28T09:25:28.000Z</time>
      </trkpt>
      <trkpt lat="45.62863" lon="5.90358">
        <ele>380.8</ele>
        <time>2014-06-28T09:25:30.000Z</time>
      </trkpt>
      <trkpt lat="45.62864" lon="5.90363">
        <ele>381.2</ele>
        <time>2014-06-28T09:25:33.000Z</time>
      </trkpt>
      <trkpt lat="45.62863" lon="5.90366">
        <ele>381.2</ele>
        <time>2014-06-28T09:25:58.000Z</time>
      </trkpt>
      <trkpt lat="45.62718" lon="5.9045">
        <ele>381.2</ele>
        <time>2014-06-28T09:26:46.000Z</time>
      </trkpt>
      <trkpt lat="45.62565" lon="5.90509">
        <ele>381.2</ele>
        <time>2014-06-28T09:27:21.000Z</time>
      </trkpt>
      <trkpt lat="45.62552" lon="5.90516">
        <ele>381.2</ele>
        <time>2014-06-28T09:27:24.000Z</time>
      </trkpt>
      <trkpt lat="45.6254" lon="5.90523">
        <ele>381.2</ele>
        <time>2014-06-28T09:27:27.000Z</time>
      </trkpt>
      <trkpt lat="45.62475" lon="5.90613">
        <ele>379</ele>
        <time>2014-06-28T09:27:46.000Z</time>
      </trkpt>
      <trkpt lat="45.62464" lon="5.90639">
        <ele>379</ele>
        <time>2014-06-28T09:27:50.000Z</time>
      </trkpt>
      <trkpt lat="45.62461" lon="5.90642">
        <ele>379</ele>
        <time>2014-06-28T09:27:51.000Z</time>
      </trkpt>
      <trkpt lat="45.62457" lon="5.90643">
        <ele>378.6</ele>
        <time>2014-06-28T09:27:52.000Z</time>
      </trkpt>
      <trkpt lat="45.62446" lon="5.90643">
        <ele>377.4</ele>
        <time>2014-06-28T09:27:55.000Z</time>
      </trkpt>
      <trkpt lat="45.62314" lon="5.90631">
        <ele>377</ele>
        <time>2014-06-28T09:28:13.000Z</time>
      </trkpt>
      <trkpt lat="45.62233" lon="5.90609">
        <ele>377</ele>
        <time>2014-06-28T09:28:22.000Z</time>
      </trkpt>
      <trkpt lat="45.62225" lon="5.90615">
        <ele>377</ele>
        <time>2014-06-28T09:28:24.000Z</time>
      </trkpt>
      <trkpt lat="45.62222" lon="5.9063">
        <ele>377</ele>
        <time>2014-06-28T09:28:27.000Z</time>
      </trkpt>
      <trkpt lat="45.62222" lon="5.90647">
        <ele>377</ele>
        <time>2014-06-28T09:28:31.000Z</time>
      </trkpt>
      <trkpt lat="45.62227" lon="5.90653">
        <ele>377</ele>
        <time>2014-06-28T09:28:36.000Z</time>
      </trkpt>
      <trkpt lat="45.62226" lon="5.90653">
        <ele>377</ele>
        <time>2014-06-28T09:28:38.000Z</time>
      </trkpt>
      <trkpt lat="45.62224" lon="5.90649">
        <ele>377</ele>
        <time>2014-06-28T09:28:40.000Z</time>
      </trkpt>
      <trkpt lat="45.62223" lon="5.90644">
        <ele>377</ele>
        <time>2014-06-28T09:28:43.000Z</time>
      </trkpt>
      <trkpt lat="45.62223" lon="5.90641">
        <ele>377</ele>
        <time>2014-06-28T09:28:45.000Z</time>
      </trkpt>
      <trkpt lat="45.62227" lon="5.90641">
        <ele>377</ele>
        <time>2014-06-28T09:28:48.000Z</time>
      </trkpt>
      <trkpt lat="45.6223" lon="5.90644">
        <ele>377</ele>
        <time>2014-06-28T09:28:49.000Z</time>
      </trkpt>
      <trkpt lat="45.62245" lon="5.90651">
        <ele>377</ele>
        <time>2014-06-28T09:28:54.000Z</time>
      </trkpt>
      <trkpt lat="45.62248" lon="5.90651">
        <ele>377</ele>
        <time>2014-06-28T09:28:57.000Z</time>
      </trkpt>
      <trkpt lat="45.62253" lon="5.90654">
        <ele>375.4</ele>
        <time>2014-06-28T09:29:18.000Z</time>
      </trkpt>
      <trkpt lat="45.62255" lon="5.90655">
        <ele>375</ele>
        <time>2014-06-28T09:29:19.000Z</time>
      </trkpt>
      <trkpt lat="45.62265" lon="5.90661">
        <ele>375</ele>
        <time>2014-06-28T09:29:22.000Z</time>
      </trkpt>
      <trkpt lat="45.62287" lon="5.90681">
        <ele>373.4</ele>
        <time>2014-06-28T09:29:26.000Z</time>
      </trkpt>
      <trkpt lat="45.62293" lon="5.90689">
        <ele>373</ele>
        <time>2014-06-28T09:29:27.000Z</time>
      </trkpt>
      <trkpt lat="45.62321" lon="5.90738">
        <ele>369.2</ele>
        <time>2014-06-28T09:29:32.000Z</time>
      </trkpt>
      <trkpt lat="45.62326" lon="5.90748">
        <ele>368.2</ele>
        <time>2014-06-28T09:29:33.000Z</time>
      </trkpt>
      <trkpt lat="45.62329" lon="5.90759">
        <ele>367.4</ele>
        <time>2014-06-28T09:29:34.000Z</time>
      </trkpt>
      <trkpt lat="45.62332" lon="5.90769">
        <ele>366.4</ele>
        <time>2014-06-28T09:29:35.000Z</time>
      </trkpt>
      <trkpt lat="45.62333" lon="5.90779">
        <ele>365.6</ele>
        <time>2014-06-28T09:29:36.000Z</time>
      </trkpt>
      <trkpt lat="45.62333" lon="5.90788">
        <ele>364.8</ele>
        <time>2014-06-28T09:29:37.000Z</time>
      </trkpt>
      <trkpt lat="45.62333" lon="5.90797">
        <ele>364</ele>
        <time>2014-06-28T09:29:38.000Z</time>
      </trkpt>
      <trkpt lat="45.62329" lon="5.90805">
        <ele>363.2</ele>
        <time>2014-06-28T09:29:39.000Z</time>
      </trkpt>
      <trkpt lat="45.62321" lon="5.90817">
        <ele>362.4</ele>
        <time>2014-06-28T09:29:41.000Z</time>
      </trkpt>
      <trkpt lat="45.62316" lon="5.9082">
        <ele>362.4</ele>
        <time>2014-06-28T09:29:42.000Z</time>
      </trkpt>
      <trkpt lat="45.6228" lon="5.90819">
        <ele>362.4</ele>
        <time>2014-06-28T09:29:50.000Z</time>
      </trkpt>
      <trkpt lat="45.62252" lon="5.90815">
        <ele>363.2</ele>
        <time>2014-06-28T09:30:00.000Z</time>
      </trkpt>
      <trkpt lat="45.62245" lon="5.90812">
        <ele>364.6</ele>
        <time>2014-06-28T09:30:03.000Z</time>
      </trkpt>
      <trkpt lat="45.62228" lon="5.90808">
        <ele>365.6</ele>
        <time>2014-06-28T09:30:09.000Z</time>
      </trkpt>
      <trkpt lat="45.62212" lon="5.90807">
        <ele>367</ele>
        <time>2014-06-28T09:30:15.000Z</time>
      </trkpt>
      <trkpt lat="45.62202" lon="5.90802">
        <ele>367.4</ele>
        <time>2014-06-28T09:30:19.000Z</time>
      </trkpt>
      <trkpt lat="45.622" lon="5.90801">
        <ele>367.8</ele>
        <time>2014-06-28T09:30:20.000Z</time>
      </trkpt>
      <trkpt lat="45.62193" lon="5.90799">
        <ele>368.8</ele>
        <time>2014-06-28T09:30:22.000Z</time>
      </trkpt>
      <trkpt lat="45.62191" lon="5.90798">
        <ele>369.2</ele>
        <time>2014-06-28T09:30:23.000Z</time>
      </trkpt>
      <trkpt lat="45.62167" lon="5.90799">
        <ele>370</ele>
        <time>2014-06-28T09:30:31.000Z</time>
      </trkpt>
      <trkpt lat="45.62162" lon="5.908">
        <ele>371</ele>
        <time>2014-06-28T09:30:33.000Z</time>
      </trkpt>
      <trkpt lat="45.62159" lon="5.90801">
        <ele>371.4</ele>
        <time>2014-06-28T09:30:34.000Z</time>
      </trkpt>
      <trkpt lat="45.6215" lon="5.90805">
        <ele>372.2</ele>
        <time>2014-06-28T09:30:38.000Z</time>
      </trkpt>
      <trkpt lat="45.62146" lon="5.90807">
        <ele>373</ele>
        <time>2014-06-28T09:30:40.000Z</time>
      </trkpt>
      <trkpt lat="45.62141" lon="5.90809">
        <ele>373.4</ele>
        <time>2014-06-28T09:30:41.000Z</time>
      </trkpt>
      <trkpt lat="45.6213" lon="5.90812">
        <ele>373.4</ele>
        <time>2014-06-28T09:30:44.000Z</time>
      </trkpt>
      <trkpt lat="45.62117" lon="5.90813">
        <ele>373.4</ele>
        <time>2014-06-28T09:30:51.000Z</time>
      </trkpt>
      <trkpt lat="45.62109" lon="5.90814">
        <ele>373.4</ele>
        <time>2014-06-28T09:30:54.000Z</time>
      </trkpt>
      <trkpt lat="45.62086" lon="5.90815">
        <ele>373.4</ele>
        <time>2014-06-28T09:30:59.000Z</time>
      </trkpt>
      <trkpt lat="45.62065" lon="5.90819">
        <ele>373.4</ele>
        <time>2014-06-28T09:31:04.000Z</time>
      </trkpt>
      <trkpt lat="45.62044" lon="5.90828">
        <ele>374.6</ele>
        <time>2014-06-28T09:31:13.000Z</time>
      </trkpt>
      <trkpt lat="45.62042" lon="5.90828">
        <ele>375.2</ele>
        <time>2014-06-28T09:31:14.000Z</time>
      </trkpt>
      <trkpt lat="45.61997" lon="5.90833">
        <ele>377.8</ele>
        <time>2014-06-28T09:31:28.000Z</time>
      </trkpt>
      <trkpt lat="45.6199" lon="5.90836">
        <ele>377.8</ele>
        <time>2014-06-28T09:31:30.000Z</time>
      </trkpt>
      <trkpt lat="45.61963" lon="5.90836">
        <ele>379.4</ele>
        <time>2014-06-28T09:31:39.000Z</time>
      </trkpt>
      <trkpt lat="45.61959" lon="5.90837">
        <ele>379.8</ele>
        <time>2014-06-28T09:31:40.000Z</time>
      </trkpt>
      <trkpt lat="45.61938" lon="5.90848">
        <ele>379.8</ele>
        <time>2014-06-28T09:31:47.000Z</time>
      </trkpt>
      <trkpt lat="45.61935" lon="5.90849">
        <ele>380.2</ele>
        <time>2014-06-28T09:31:48.000Z</time>
      </trkpt>
      <trkpt lat="45.61932" lon="5.9085">
        <ele>381.2</ele>
        <time>2014-06-28T09:31:49.000Z</time>
      </trkpt>
      <trkpt lat="45.61888" lon="5.90887">
        <ele>382</ele>
        <time>2014-06-28T09:32:02.000Z</time>
      </trkpt>
      <trkpt lat="45.61884" lon="5.90889">
        <ele>382</ele>
        <time>2014-06-28T09:32:05.000Z</time>
      </trkpt>
      <trkpt lat="45.61861" lon="5.90921">
        <ele>382</ele>
        <time>2014-06-28T09:32:52.000Z</time>
      </trkpt>
      <trkpt lat="45.61853" lon="5.90927">
        <ele>382</ele>
        <time>2014-06-28T09:32:54.000Z</time>
      </trkpt>
      <trkpt lat="45.61843" lon="5.90932">
        <ele>382</ele>
        <time>2014-06-28T09:32:57.000Z</time>
      </trkpt>
      <trkpt lat="45.61825" lon="5.90936">
        <ele>382</ele>
        <time>2014-06-28T09:33:02.000Z</time>
      </trkpt>
      <trkpt lat="45.61811" lon="5.90933">
        <ele>382</ele>
        <time>2014-06-28T09:33:07.000Z</time>
      </trkpt>
      <trkpt lat="45.61797" lon="5.90938">
        <ele>382</ele>
        <time>2014-06-28T09:33:11.000Z</time>
      </trkpt>
      <trkpt lat="45.61773" lon="5.90935">
        <ele>382</ele>
        <time>2014-06-28T09:33:17.000Z</time>
      </trkpt>
      <trkpt lat="45.61756" lon="5.90931">
        <ele>382.8</ele>
        <time>2014-06-28T09:33:21.000Z</time>
      </trkpt>
      <trkpt lat="45.61745" lon="5.90925">
        <ele>384</ele>
        <time>2014-06-28T09:33:24.000Z</time>
      </trkpt>
      <trkpt lat="45.61702" lon="5.9092">
        <ele>384.4</ele>
        <time>2014-06-28T09:33:35.000Z</time>
      </trkpt>
      <trkpt lat="45.61698" lon="5.9092">
        <ele>385</ele>
        <time>2014-06-28T09:33:36.000Z</time>
      </trkpt>
      <trkpt lat="45.61661" lon="5.90912">
        <ele>386.6</ele>
        <time>2014-06-28T09:33:47.000Z</time>
      </trkpt>
      <trkpt lat="45.61658" lon="5.90911">
        <ele>387</ele>
        <time>2014-06-28T09:33:48.000Z</time>
      </trkpt>
      <trkpt lat="45.61655" lon="5.90911">
        <ele>387.4</ele>
        <time>2014-06-28T09:33:49.000Z</time>
      </trkpt>
      <trkpt lat="45.61641" lon="5.9091">
        <ele>388.4</ele>
        <time>2014-06-28T09:33:54.000Z</time>
      </trkpt>
      <trkpt lat="45.61619" lon="5.90913">
        <ele>388.4</ele>
        <time>2014-06-28T09:34:01.000Z</time>
      </trkpt>
      <trkpt lat="45.61612" lon="5.90913">
        <ele>388.8</ele>
        <time>2014-06-28T09:34:04.000Z</time>
      </trkpt>
      <trkpt lat="45.6161" lon="5.90911">
        <ele>389.2</ele>
        <time>2014-06-28T09:34:05.000Z</time>
      </trkpt>
      <trkpt lat="45.61609" lon="5.90908">
        <ele>389.6</ele>
        <time>2014-06-28T09:34:06.000Z</time>
      </trkpt>
      <trkpt lat="45.61609" lon="5.90852">
        <ele>390.8</ele>
        <time>2014-06-28T09:34:17.000Z</time>
      </trkpt>
      <trkpt lat="45.61605" lon="5.90813">
        <ele>393</ele>
        <time>2014-06-28T09:34:24.000Z</time>
      </trkpt>
      <trkpt lat="45.61601" lon="5.90757">
        <ele>395</ele>
        <time>2014-06-28T09:34:34.000Z</time>
      </trkpt>
      <trkpt lat="45.616" lon="5.90752">
        <ele>395.4</ele>
        <time>2014-06-28T09:34:35.000Z</time>
      </trkpt>
      <trkpt lat="45.61586" lon="5.90706">
        <ele>396.8</ele>
        <time>2014-06-28T09:34:44.000Z</time>
      </trkpt>
      <trkpt lat="45.61577" lon="5.90703">
        <ele>396.8</ele>
        <time>2014-06-28T09:34:46.000Z</time>
      </trkpt>
      <trkpt lat="45.61571" lon="5.90706">
        <ele>396.8</ele>
        <time>2014-06-28T09:34:48.000Z</time>
      </trkpt>
      <trkpt lat="45.61566" lon="5.90708">
        <ele>396.8</ele>
        <time>2014-06-28T09:34:50.000Z</time>
      </trkpt>
      <trkpt lat="45.61552" lon="5.90713">
        <ele>396.8</ele>
        <time>2014-06-28T09:34:57.000Z</time>
      </trkpt>
      <trkpt lat="45.61541" lon="5.90716">
        <ele>396.8</ele>
        <time>2014-06-28T09:35:02.000Z</time>
      </trkpt>
      <trkpt lat="45.6152" lon="5.90723">
        <ele>396.8</ele>
        <time>2014-06-28T09:35:09.000Z</time>
      </trkpt>
      <trkpt lat="45.61505" lon="5.90732">
        <ele>396.8</ele>
        <time>2014-06-28T09:35:14.000Z</time>
      </trkpt>
      <trkpt lat="45.61444" lon="5.90757">
        <ele>398.8</ele>
        <time>2014-06-28T09:35:34.000Z</time>
      </trkpt>
      <trkpt lat="45.6143" lon="5.9076">
        <ele>399.2</ele>
        <time>2014-06-28T09:35:39.000Z</time>
      </trkpt>
      <trkpt lat="45.61424" lon="5.9076">
        <ele>400</ele>
        <time>2014-06-28T09:35:41.000Z</time>
      </trkpt>
      <trkpt lat="45.61375" lon="5.90753">
        <ele>401</ele>
        <time>2014-06-28T09:35:55.000Z</time>
      </trkpt>
      <trkpt lat="45.61352" lon="5.90752">
        <ele>401</ele>
        <time>2014-06-28T09:36:00.000Z</time>
      </trkpt>
      <trkpt lat="45.61347" lon="5.90754">
        <ele>401</ele>
        <time>2014-06-28T09:36:01.000Z</time>
      </trkpt>
      <trkpt lat="45.61319" lon="5.90767">
        <ele>400.4</ele>
        <time>2014-06-28T09:36:06.000Z</time>
      </trkpt>
      <trkpt lat="45.61313" lon="5.90769">
        <ele>400</ele>
        <time>2014-06-28T09:36:07.000Z</time>
      </trkpt>
      <trkpt lat="45.61298" lon="5.90771">
        <ele>399.2</ele>
        <time>2014-06-28T09:36:09.000Z</time>
      </trkpt>
      <trkpt lat="45.61208" lon="5.9079">
        <ele>396.6</ele>
        <time>2014-06-28T09:36:23.000Z</time>
      </trkpt>
      <trkpt lat="45.61196" lon="5.90791">
        <ele>396.2</ele>
        <time>2014-06-28T09:36:25.000Z</time>
      </trkpt>
      <trkpt lat="45.61191" lon="5.9079">
        <ele>395.8</ele>
        <time>2014-06-28T09:36:26.000Z</time>
      </trkpt>
      <trkpt lat="45.61185" lon="5.90788">
        <ele>395.4</ele>
        <time>2014-06-28T09:36:27.000Z</time>
      </trkpt>
      <trkpt lat="45.61181" lon="5.90782">
        <ele>395</ele>
        <time>2014-06-28T09:36:28.000Z</time>
      </trkpt>
      <trkpt lat="45.61177" lon="5.90775">
        <ele>394.6</ele>
        <time>2014-06-28T09:36:29.000Z</time>
      </trkpt>
      <trkpt lat="45.61166" lon="5.90745">
        <ele>394.6</ele>
        <time>2014-06-28T09:36:33.000Z</time>
      </trkpt>
      <trkpt lat="45.6116" lon="5.90723">
        <ele>394.6</ele>
        <time>2014-06-28T09:36:36.000Z</time>
      </trkpt>
      <trkpt lat="45.61158" lon="5.90706">
        <ele>394.6</ele>
        <time>2014-06-28T09:36:38.000Z</time>
      </trkpt>
      <trkpt lat="45.61159" lon="5.90697">
        <ele>394.6</ele>
        <time>2014-06-28T09:36:39.000Z</time>
      </trkpt>
      <trkpt lat="45.61166" lon="5.90664">
        <ele>393.6</ele>
        <time>2014-06-28T09:36:42.000Z</time>
      </trkpt>
      <trkpt lat="45.61167" lon="5.90652">
        <ele>393.2</ele>
        <time>2014-06-28T09:36:43.000Z</time>
      </trkpt>
      <trkpt lat="45.61165" lon="5.90609">
        <ele>390</ele>
        <time>2014-06-28T09:36:46.000Z</time>
      </trkpt>
      <trkpt lat="45.61159" lon="5.90565">
        <ele>387.2</ele>
        <time>2014-06-28T09:36:49.000Z</time>
      </trkpt>
      <trkpt lat="45.61146" lon="5.90526">
        <ele>385</ele>
        <time>2014-06-28T09:36:52.000Z</time>
      </trkpt>
      <trkpt lat="45.61114" lon="5.90448">
        <ele>381.2</ele>
        <time>2014-06-28T09:36:58.000Z</time>
      </trkpt>
      <trkpt lat="45.61111" lon="5.90432">
        <ele>380.2</ele>
        <time>2014-06-28T09:36:59.000Z</time>
      </trkpt>
      <trkpt lat="45.61092" lon="5.90273">
        <ele>373</ele>
        <time>2014-06-28T09:37:19.000Z</time>
      </trkpt>
      <trkpt lat="45.61092" lon="5.902">
        <ele>370.8</ele>
        <time>2014-06-28T09:37:26.000Z</time>
      </trkpt>
      <trkpt lat="45.61084" lon="5.90138">
        <ele>368.6</ele>
        <time>2014-06-28T09:37:32.000Z</time>
      </trkpt>
      <trkpt lat="45.61084" lon="5.90129">
        <ele>368.2</ele>
        <time>2014-06-28T09:37:33.000Z</time>
      </trkpt>
      <trkpt lat="45.61086" lon="5.9012">
        <ele>367.6</ele>
        <time>2014-06-28T09:37:34.000Z</time>
      </trkpt>
      <trkpt lat="45.61088" lon="5.90111">
        <ele>367.2</ele>
        <time>2014-06-28T09:37:35.000Z</time>
      </trkpt>
      <trkpt lat="45.61107" lon="5.90068">
        <ele>363.4</ele>
        <time>2014-06-28T09:37:41.000Z</time>
      </trkpt>
      <trkpt lat="45.6111" lon="5.90055">
        <ele>362.6</ele>
        <time>2014-06-28T09:37:43.000Z</time>
      </trkpt>
      <trkpt lat="45.61111" lon="5.90049">
        <ele>362.2</ele>
        <time>2014-06-28T09:37:44.000Z</time>
      </trkpt>
      <trkpt lat="45.61108" lon="5.90043">
        <ele>361.8</ele>
        <time>2014-06-28T09:37:45.000Z</time>
      </trkpt>
      <trkpt lat="45.61104" lon="5.90042">
        <ele>361.4</ele>
        <time>2014-06-28T09:37:46.000Z</time>
      </trkpt>
      <trkpt lat="45.61065" lon="5.9005">
        <ele>359.2</ele>
        <time>2014-06-28T09:37:54.000Z</time>
      </trkpt>
      <trkpt lat="45.61024" lon="5.90063">
        <ele>359.2</ele>
        <time>2014-06-28T09:38:02.000Z</time>
      </trkpt>
      <trkpt lat="45.61015" lon="5.90062">
        <ele>359.2</ele>
        <time>2014-06-28T09:38:04.000Z</time>
      </trkpt>
      <trkpt lat="45.61" lon="5.90057">
        <ele>358.8</ele>
        <time>2014-06-28T09:38:07.000Z</time>
      </trkpt>
      <trkpt lat="45.60989" lon="5.90055">
        <ele>358</ele>
        <time>2014-06-28T09:38:09.000Z</time>
      </trkpt>
      <trkpt lat="45.60925" lon="5.90051">
        <ele>355.2</ele>
        <time>2014-06-28T09:38:20.000Z</time>
      </trkpt>
      <trkpt lat="45.60902" lon="5.90052">
        <ele>355.2</ele>
        <time>2014-06-28T09:38:24.000Z</time>
      </trkpt>
      <trkpt lat="45.60897" lon="5.90056">
        <ele>354.8</ele>
        <time>2014-06-28T09:38:25.000Z</time>
      </trkpt>
      <trkpt lat="45.60893" lon="5.9006">
        <ele>354.4</ele>
        <time>2014-06-28T09:38:26.000Z</time>
      </trkpt>
      <trkpt lat="45.6089" lon="5.90064">
        <ele>354</ele>
        <time>2014-06-28T09:38:27.000Z</time>
      </trkpt>
      <trkpt lat="45.60888" lon="5.90069">
        <ele>353.6</ele>
        <time>2014-06-28T09:38:28.000Z</time>
      </trkpt>
      <trkpt lat="45.6087" lon="5.90157">
        <ele>359.4</ele>
        <time>2014-06-28T09:38:49.000Z</time>
      </trkpt>
      <trkpt lat="45.60869" lon="5.9016">
        <ele>359.4</ele>
        <time>2014-06-28T09:38:50.000Z</time>
      </trkpt>
      <trkpt lat="45.60865" lon="5.90171">
        <ele>359.4</ele>
        <time>2014-06-28T09:38:54.000Z</time>
      </trkpt>
      <trkpt lat="45.60866" lon="5.90178">
        <ele>359.4</ele>
        <time>2014-06-28T09:38:59.000Z</time>
      </trkpt>
      <trkpt lat="45.60864" lon="5.90181">
        <ele>359.4</ele>
        <time>2014-06-28T09:39:11.000Z</time>
      </trkpt>
      <trkpt lat="45.60863" lon="5.90191">
        <ele>359.8</ele>
        <time>2014-06-28T09:39:15.000Z</time>
      </trkpt>
      <trkpt lat="45.60864" lon="5.90192">
        <ele>360.2</ele>
        <time>2014-06-28T09:39:16.000Z</time>
      </trkpt>
      <trkpt lat="45.60864" lon="5.90193">
        <ele>360.6</ele>
        <time>2014-06-28T09:39:17.000Z</time>
      </trkpt>
      <trkpt lat="45.60865" lon="5.90194">
        <ele>361</ele>
        <time>2014-06-28T09:39:18.000Z</time>
      </trkpt>
      <trkpt lat="45.60867" lon="5.9019">
        <ele>361.4</ele>
        <time>2014-06-28T09:42:06.000Z</time>
      </trkpt>
      <trkpt lat="45.60867" lon="5.90187">
        <ele>361.4</ele>
        <time>2014-06-28T09:42:08.000Z</time>
      </trkpt>
      <trkpt lat="45.60866" lon="5.90183">
        <ele>361</ele>
        <time>2014-06-28T09:42:11.000Z</time>
      </trkpt>
      <trkpt lat="45.60866" lon="5.90175">
        <ele>359.4</ele>
        <time>2014-06-28T09:42:14.000Z</time>
      </trkpt>
      <trkpt lat="45.60866" lon="5.90174">
        <ele>358.8</ele>
        <time>2014-06-28T09:42:15.000Z</time>
      </trkpt>
      <trkpt lat="45.60864" lon="5.90174">
        <ele>358</ele>
        <time>2014-06-28T09:42:16.000Z</time>
      </trkpt>
      <trkpt lat="45.60864" lon="5.90175">
        <ele>357.4</ele>
        <time>2014-06-28T09:42:17.000Z</time>
      </trkpt>
      <trkpt lat="45.60862" lon="5.90175">
        <ele>356.8</ele>
        <time>2014-06-28T09:42:18.000Z</time>
      </trkpt>
      <trkpt lat="45.60858" lon="5.90175">
        <ele>356.2</ele>
        <time>2014-06-28T09:42:20.000Z</time>
      </trkpt>
      <trkpt lat="45.60857" lon="5.90174">
        <ele>355.8</ele>
        <time>2014-06-28T09:42:21.000Z</time>
      </trkpt>
      <trkpt lat="45.60857" lon="5.90172">
        <ele>355.4</ele>
        <time>2014-06-28T09:42:22.000Z</time>
      </trkpt>
      <trkpt lat="45.60857" lon="5.90164">
        <ele>354.2</ele>
        <time>2014-06-28T09:42:24.000Z</time>
      </trkpt>
      <trkpt lat="45.60858" lon="5.90151">
        <ele>352.6</ele>
        <time>2014-06-28T09:42:27.000Z</time>
      </trkpt>
      <trkpt lat="45.60858" lon="5.90147">
        <ele>352</ele>
        <time>2014-06-28T09:42:28.000Z</time>
      </trkpt>
      <trkpt lat="45.60856" lon="5.90137">
        <ele>351.4</ele>
        <time>2014-06-28T09:42:31.000Z</time>
      </trkpt>
      <trkpt lat="45.60853" lon="5.90133">
        <ele>349.8</ele>
        <time>2014-06-28T09:42:33.000Z</time>
      </trkpt>
      <trkpt lat="45.60852" lon="5.9013">
        <ele>349.2</ele>
        <time>2014-06-28T09:42:34.000Z</time>
      </trkpt>
      <trkpt lat="45.6085" lon="5.90128">
        <ele>348.6</ele>
        <time>2014-06-28T09:42:35.000Z</time>
      </trkpt>
      <trkpt lat="45.60849" lon="5.90124">
        <ele>347.8</ele>
        <time>2014-06-28T09:42:36.000Z</time>
      </trkpt>
      <trkpt lat="45.60846" lon="5.90114">
        <ele>346.2</ele>
        <time>2014-06-28T09:42:38.000Z</time>
      </trkpt>
      <trkpt lat="45.60846" lon="5.90109">
        <ele>345.4</ele>
        <time>2014-06-28T09:42:39.000Z</time>
      </trkpt>
      <trkpt lat="45.60845" lon="5.90104">
        <ele>344.8</ele>
        <time>2014-06-28T09:42:40.000Z</time>
      </trkpt>
      <trkpt lat="45.60845" lon="5.90097">
        <ele>344.2</ele>
        <time>2014-06-28T09:42:41.000Z</time>
      </trkpt>
      <trkpt lat="45.60845" lon="5.90088">
        <ele>343</ele>
        <time>2014-06-28T09:42:43.000Z</time>
      </trkpt>
      <trkpt lat="45.60845" lon="5.90086">
        <ele>342.4</ele>
        <time>2014-06-28T09:42:44.000Z</time>
      </trkpt>
      <trkpt lat="45.60843" lon="5.90088">
        <ele>342</ele>
        <time>2014-06-28T09:42:45.000Z</time>
      </trkpt>
      <trkpt lat="45.60841" lon="5.9009">
        <ele>341.4</ele>
        <time>2014-06-28T09:42:46.000Z</time>
      </trkpt>
      <trkpt lat="45.60838" lon="5.90094">
        <ele>341</ele>
        <time>2014-06-28T09:42:47.000Z</time>
      </trkpt>
      <trkpt lat="45.60834" lon="5.90104">
        <ele>339.6</ele>
        <time>2014-06-28T09:42:49.000Z</time>
      </trkpt>
      <trkpt lat="45.60832" lon="5.90105">
        <ele>338.8</ele>
        <time>2014-06-28T09:42:50.000Z</time>
      </trkpt>
      <trkpt lat="45.6083" lon="5.90104">
        <ele>338</ele>
        <time>2014-06-28T09:42:51.000Z</time>
      </trkpt>
      <trkpt lat="45.6083" lon="5.90102">
        <ele>337.4</ele>
        <time>2014-06-28T09:42:52.000Z</time>
      </trkpt>
      <trkpt lat="45.6083" lon="5.90094">
        <ele>337.4</ele>
        <time>2014-06-28T09:42:54.000Z</time>
      </trkpt>
      <trkpt lat="45.60831" lon="5.90091">
        <ele>336.8</ele>
        <time>2014-06-28T09:42:55.000Z</time>
      </trkpt>
      <trkpt lat="45.60831" lon="5.90086">
        <ele>336.4</ele>
        <time>2014-06-28T09:42:56.000Z</time>
      </trkpt>
      <trkpt lat="45.60832" lon="5.90081">
        <ele>335.4</ele>
        <time>2014-06-28T09:42:57.000Z</time>
      </trkpt>
      <trkpt lat="45.60832" lon="5.90067">
        <ele>334</ele>
        <time>2014-06-28T09:42:59.000Z</time>
      </trkpt>
      <trkpt lat="45.60834" lon="5.9006">
        <ele>333.4</ele>
        <time>2014-06-28T09:43:00.000Z</time>
      </trkpt>
      <trkpt lat="45.60834" lon="5.90055">
        <ele>332.6</ele>
        <time>2014-06-28T09:43:01.000Z</time>
      </trkpt>
      <trkpt lat="45.60833" lon="5.90053">
        <ele>332.2</ele>
        <time>2014-06-28T09:43:02.000Z</time>
      </trkpt>
      <trkpt lat="45.60831" lon="5.90054">
        <ele>331.6</ele>
        <time>2014-06-28T09:43:03.000Z</time>
      </trkpt>
      <trkpt lat="45.60827" lon="5.90061">
        <ele>330.4</ele>
        <time>2014-06-28T09:43:05.000Z</time>
      </trkpt>
      <trkpt lat="45.60824" lon="5.9007">
        <ele>329</ele>
        <time>2014-06-28T09:43:07.000Z</time>
      </trkpt>
      <trkpt lat="45.60823" lon="5.90071">
        <ele>328.4</ele>
        <time>2014-06-28T09:43:08.000Z</time>
      </trkpt>
      <trkpt lat="45.60822" lon="5.90069">
        <ele>327.6</ele>
        <time>2014-06-28T09:43:09.000Z</time>
      </trkpt>
      <trkpt lat="45.60821" lon="5.90042">
        <ele>323.8</ele>
        <time>2014-06-28T09:43:15.000Z</time>
      </trkpt>
      <trkpt lat="45.6082" lon="5.90038">
        <ele>323.2</ele>
        <time>2014-06-28T09:43:16.000Z</time>
      </trkpt>
      <trkpt lat="45.60818" lon="5.90037">
        <ele>322.6</ele>
        <time>2014-06-28T09:43:17.000Z</time>
      </trkpt>
      <trkpt lat="45.60817" lon="5.90037">
        <ele>322</ele>
        <time>2014-06-28T09:43:18.000Z</time>
      </trkpt>
      <trkpt lat="45.60816" lon="5.90037">
        <ele>321.4</ele>
        <time>2014-06-28T09:43:19.000Z</time>
      </trkpt>
      <trkpt lat="45.60814" lon="5.9004">
        <ele>320.8</ele>
        <time>2014-06-28T09:43:20.000Z</time>
      </trkpt>
      <trkpt lat="45.60811" lon="5.90044">
        <ele>319.6</ele>
        <time>2014-06-28T09:43:21.000Z</time>
      </trkpt>
      <trkpt lat="45.60807" lon="5.90049">
        <ele>319</ele>
        <time>2014-06-28T09:43:22.000Z</time>
      </trkpt>
      <trkpt lat="45.60804" lon="5.90053">
        <ele>318.6</ele>
        <time>2014-06-28T09:43:23.000Z</time>
      </trkpt>
      <trkpt lat="45.60793" lon="5.90076">
        <ele>317</ele>
        <time>2014-06-28T09:43:27.000Z</time>
      </trkpt>
      <trkpt lat="45.60789" lon="5.9008">
        <ele>316.2</ele>
        <time>2014-06-28T09:43:28.000Z</time>
      </trkpt>
      <trkpt lat="45.60786" lon="5.90084">
        <ele>315.4</ele>
        <time>2014-06-28T09:43:29.000Z</time>
      </trkpt>
      <trkpt lat="45.60783" lon="5.90089">
        <ele>314.8</ele>
        <time>2014-06-28T09:43:30.000Z</time>
      </trkpt>
      <trkpt lat="45.60779" lon="5.90098">
        <ele>313.4</ele>
        <time>2014-06-28T09:43:32.000Z</time>
      </trkpt>
      <trkpt lat="45.60778" lon="5.90105">
        <ele>311.2</ele>
        <time>2014-06-28T09:44:03.000Z</time>
      </trkpt>
      <trkpt lat="45.60777" lon="5.90107">
        <ele>311.2</ele>
        <time>2014-06-28T09:44:04.000Z</time>
      </trkpt>
      <trkpt lat="45.60776" lon="5.90108">
        <ele>311.2</ele>
        <time>2014-06-28T09:44:05.000Z</time>
      </trkpt>
      <trkpt lat="45.60776" lon="5.90111">
        <ele>311.2</ele>
        <time>2014-06-28T09:44:08.000Z</time>
      </trkpt>
      <trkpt lat="45.60776" lon="5.90107">
        <ele>311.2</ele>
        <time>2014-06-28T09:44:11.000Z</time>
      </trkpt>
      <trkpt lat="45.60775" lon="5.90102">
        <ele>311.2</ele>
        <time>2014-06-28T09:44:13.000Z</time>
      </trkpt>
      <trkpt lat="45.60762" lon="5.9008">
        <ele>310</ele>
        <time>2014-06-28T09:44:17.000Z</time>
      </trkpt>
      <trkpt lat="45.60759" lon="5.90072">
        <ele>309.4</ele>
        <time>2014-06-28T09:44:18.000Z</time>
      </trkpt>
      <trkpt lat="45.60758" lon="5.90064">
        <ele>308.8</ele>
        <time>2014-06-28T09:44:20.000Z</time>
      </trkpt>
      <trkpt lat="45.60759" lon="5.90057">
        <ele>308.2</ele>
        <time>2014-06-28T09:44:21.000Z</time>
      </trkpt>
      <trkpt lat="45.6076" lon="5.90057">
        <ele>308.2</ele>
        <time>2014-06-28T09:44:22.000Z</time>
      </trkpt>
      <trkpt lat="45.6076" lon="5.90055">
        <ele>308.2</ele>
        <time>2014-06-28T09:44:24.000Z</time>
      </trkpt>
      <trkpt lat="45.60761" lon="5.90054">
        <ele>308.2</ele>
        <time>2014-06-28T09:44:49.000Z</time>
      </trkpt>
      <trkpt lat="45.60759" lon="5.90049">
        <ele>308.2</ele>
        <time>2014-06-28T09:44:50.000Z</time>
      </trkpt>
      <trkpt lat="45.60755" lon="5.90043">
        <ele>307.8</ele>
        <time>2014-06-28T09:44:51.000Z</time>
      </trkpt>
      <trkpt lat="45.60747" lon="5.90034">
        <ele>306.8</ele>
        <time>2014-06-28T09:44:53.000Z</time>
      </trkpt>
      <trkpt lat="45.60742" lon="5.90033">
        <ele>306.2</ele>
        <time>2014-06-28T09:44:54.000Z</time>
      </trkpt>
      <trkpt lat="45.60727" lon="5.90038">
        <ele>305.2</ele>
        <time>2014-06-28T09:44:57.000Z</time>
      </trkpt>
      <trkpt lat="45.60725" lon="5.90042">
        <ele>304.8</ele>
        <time>2014-06-28T09:44:58.000Z</time>
      </trkpt>
      <trkpt lat="45.60725" lon="5.90047">
        <ele>304.4</ele>
        <time>2014-06-28T09:44:59.000Z</time>
      </trkpt>
      <trkpt lat="45.60726" lon="5.90051">
        <ele>304</ele>
        <time>2014-06-28T09:45:00.000Z</time>
      </trkpt>
      <trkpt lat="45.60728" lon="5.90053">
        <ele>303.4</ele>
        <time>2014-06-28T09:45:01.000Z</time>
      </trkpt>
      <trkpt lat="45.60729" lon="5.90054">
        <ele>303.4</ele>
        <time>2014-06-28T09:45:02.000Z</time>
      </trkpt>
      <trkpt lat="45.60729" lon="5.90056">
        <ele>303.4</ele>
        <time>2014-06-28T09:45:04.000Z</time>
      </trkpt>
      <trkpt lat="45.60728" lon="5.90054">
        <ele>303.4</ele>
        <time>2014-06-28T09:46:19.000Z</time>
      </trkpt>
      <trkpt lat="45.60726" lon="5.90054">
        <ele>303.4</ele>
        <time>2014-06-28T09:46:20.000Z</time>
      </trkpt>
      <trkpt lat="45.60723" lon="5.90056">
        <ele>303.4</ele>
        <time>2014-06-28T09:46:23.000Z</time>
      </trkpt>
      <trkpt lat="45.60723" lon="5.90059">
        <ele>303.4</ele>
        <time>2014-06-28T09:46:25.000Z</time>
      </trkpt>
      <trkpt lat="45.60728" lon="5.90063">
        <ele>303.4</ele>
        <time>2014-06-28T09:46:30.000Z</time>
      </trkpt>
      <trkpt lat="45.6073" lon="5.90066">
        <ele>303.4</ele>
        <time>2014-06-28T09:46:32.000Z</time>
      </trkpt>
      <trkpt lat="45.60733" lon="5.90073">
        <ele>304</ele>
        <time>2014-06-28T09:46:36.000Z</time>
      </trkpt>
      <trkpt lat="45.60733" lon="5.90074">
        <ele>304.4</ele>
        <time>2014-06-28T09:46:37.000Z</time>
      </trkpt>
      <trkpt lat="45.60733" lon="5.90076">
        <ele>304.8</ele>
        <time>2014-06-28T09:46:38.000Z</time>
      </trkpt>
      <trkpt lat="45.60733" lon="5.90078">
        <ele>305.2</ele>
        <time>2014-06-28T09:46:39.000Z</time>
      </trkpt>
      <trkpt lat="45.60736" lon="5.90096">
        <ele>308.2</ele>
        <time>2014-06-28T09:46:49.000Z</time>
      </trkpt>
      <trkpt lat="45.60736" lon="5.90125">
        <ele>312</ele>
        <time>2014-06-28T09:47:03.000Z</time>
      </trkpt>
      <trkpt lat="45.60735" lon="5.90128">
        <ele>312.8</ele>
        <time>2014-06-28T09:47:05.000Z</time>
      </trkpt>
      <trkpt lat="45.60735" lon="5.9013">
        <ele>313.6</ele>
        <time>2014-06-28T09:47:07.000Z</time>
      </trkpt>
      <trkpt lat="45.6073" lon="5.90145">
        <ele>315.4</ele>
        <time>2014-06-28T09:47:15.000Z</time>
      </trkpt>
      <trkpt lat="45.6073" lon="5.90147">
        <ele>315.8</ele>
        <time>2014-06-28T09:47:16.000Z</time>
      </trkpt>
      <trkpt lat="45.6073" lon="5.90148">
        <ele>316.2</ele>
        <time>2014-06-28T09:47:17.000Z</time>
      </trkpt>
      <trkpt lat="45.60727" lon="5.90159">
        <ele>317.2</ele>
        <time>2014-06-28T09:47:22.000Z</time>
      </trkpt>
      <trkpt lat="45.60727" lon="5.9016">
        <ele>317.6</ele>
        <time>2014-06-28T09:47:23.000Z</time>
      </trkpt>
      <trkpt lat="45.60727" lon="5.90162">
        <ele>318</ele>
        <time>2014-06-28T09:47:24.000Z</time>
      </trkpt>
      <trkpt lat="45.60727" lon="5.90165">
        <ele>318.4</ele>
        <time>2014-06-28T09:47:25.000Z</time>
      </trkpt>
      <trkpt lat="45.60725" lon="5.90171">
        <ele>319</ele>
        <time>2014-06-28T09:47:28.000Z</time>
      </trkpt>
      <trkpt lat="45.60723" lon="5.90176">
        <ele>320.6</ele>
        <time>2014-06-28T09:47:31.000Z</time>
      </trkpt>
      <trkpt lat="45.60721" lon="5.90182">
        <ele>321</ele>
        <time>2014-06-28T09:47:36.000Z</time>
      </trkpt>
      <trkpt lat="45.6072" lon="5.90183">
        <ele>321.4</ele>
        <time>2014-06-28T09:47:37.000Z</time>
      </trkpt>
      <trkpt lat="45.60716" lon="5.90196">
        <ele>322.8</ele>
        <time>2014-06-28T09:47:44.000Z</time>
      </trkpt>
      <trkpt lat="45.60715" lon="5.90199">
        <ele>323.6</ele>
        <time>2014-06-28T09:47:46.000Z</time>
      </trkpt>
      <trkpt lat="45.60714" lon="5.90201">
        <ele>324</ele>
        <time>2014-06-28T09:47:47.000Z</time>
      </trkpt>
      <trkpt lat="45.60714" lon="5.90203">
        <ele>324.4</ele>
        <time>2014-06-28T09:47:48.000Z</time>
      </trkpt>
      <trkpt lat="45.60714" lon="5.90205">
        <ele>324.8</ele>
        <time>2014-06-28T09:47:49.000Z</time>
      </trkpt>
      <trkpt lat="45.60714" lon="5.90208">
        <ele>324.8</ele>
        <time>2014-06-28T09:47:51.000Z</time>
      </trkpt>
      <trkpt lat="45.60712" lon="5.90213">
        <ele>325.6</ele>
        <time>2014-06-28T09:47:54.000Z</time>
      </trkpt>
      <trkpt lat="45.60711" lon="5.90214">
        <ele>326</ele>
        <time>2014-06-28T09:47:55.000Z</time>
      </trkpt>
      <trkpt lat="45.6071" lon="5.90215">
        <ele>326.4</ele>
        <time>2014-06-28T09:47:56.000Z</time>
      </trkpt>
      <trkpt lat="45.60707" lon="5.90224">
        <ele>327.2</ele>
        <time>2014-06-28T09:48:01.000Z</time>
      </trkpt>
      <trkpt lat="45.60708" lon="5.90228">
        <ele>328</ele>
        <time>2014-06-28T09:48:03.000Z</time>
      </trkpt>
      <trkpt lat="45.60707" lon="5.90229">
        <ele>328.4</ele>
        <time>2014-06-28T09:48:04.000Z</time>
      </trkpt>
      <trkpt lat="45.60707" lon="5.9023">
        <ele>328.8</ele>
        <time>2014-06-28T09:48:05.000Z</time>
      </trkpt>
      <trkpt lat="45.60704" lon="5.90246">
        <ele>331</ele>
        <time>2014-06-28T09:48:15.000Z</time>
      </trkpt>
      <trkpt lat="45.607" lon="5.90259">
        <ele>332.4</ele>
        <time>2014-06-28T09:48:23.000Z</time>
      </trkpt>
      <trkpt lat="45.607" lon="5.90262">
        <ele>333.2</ele>
        <time>2014-06-28T09:48:25.000Z</time>
      </trkpt>
      <trkpt lat="45.60699" lon="5.90268">
        <ele>333.2</ele>
        <time>2014-06-28T09:48:29.000Z</time>
      </trkpt>
      <trkpt lat="45.60699" lon="5.90269">
        <ele>333.6</ele>
        <time>2014-06-28T09:48:30.000Z</time>
      </trkpt>
      <trkpt lat="45.60698" lon="5.90275">
        <ele>334.8</ele>
        <time>2014-06-28T09:48:33.000Z</time>
      </trkpt>
      <trkpt lat="45.60695" lon="5.90282">
        <ele>335.2</ele>
        <time>2014-06-28T09:48:38.000Z</time>
      </trkpt>
      <trkpt lat="45.60694" lon="5.90285">
        <ele>335.6</ele>
        <time>2014-06-28T09:48:40.000Z</time>
      </trkpt>
      <trkpt lat="45.60693" lon="5.90286">
        <ele>336</ele>
        <time>2014-06-28T09:48:41.000Z</time>
      </trkpt>
      <trkpt lat="45.60664" lon="5.90417">
        <ele>358.6</ele>
        <time>2014-06-28T09:50:10.000Z</time>
      </trkpt>
      <trkpt lat="45.60664" lon="5.90419">
        <ele>358.6</ele>
        <time>2014-06-28T09:50:11.000Z</time>
      </trkpt>
      <trkpt lat="45.60664" lon="5.90419">
        <ele>359</ele>
        <time>2014-06-28T09:50:12.000Z</time>
      </trkpt>
      <trkpt lat="45.60664" lon="5.90421">
        <ele>359.6</ele>
        <time>2014-06-28T09:50:13.000Z</time>
      </trkpt>
      <trkpt lat="45.60664" lon="5.90422">
        <ele>360</ele>
        <time>2014-06-28T09:50:14.000Z</time>
      </trkpt>
      <trkpt lat="45.60663" lon="5.90424">
        <ele>360.4</ele>
        <time>2014-06-28T09:50:15.000Z</time>
      </trkpt>
      <trkpt lat="45.60662" lon="5.90425">
        <ele>361</ele>
        <time>2014-06-28T09:50:16.000Z</time>
      </trkpt>
      <trkpt lat="45.60662" lon="5.90432">
        <ele>361.4</ele>
        <time>2014-06-28T09:50:19.000Z</time>
      </trkpt>
      <trkpt lat="45.60663" lon="5.90434">
        <ele>361.8</ele>
        <time>2014-06-28T09:50:20.000Z</time>
      </trkpt>
      <trkpt lat="45.60663" lon="5.90436">
        <ele>362.6</ele>
        <time>2014-06-28T09:50:21.000Z</time>
      </trkpt>
      <trkpt lat="45.60662" lon="5.90437">
        <ele>363</ele>
        <time>2014-06-28T09:50:22.000Z</time>
      </trkpt>
      <trkpt lat="45.60663" lon="5.90441">
        <ele>363.4</ele>
        <time>2014-06-28T09:50:24.000Z</time>
      </trkpt>
      <trkpt lat="45.60664" lon="5.90443">
        <ele>363.8</ele>
        <time>2014-06-28T09:50:25.000Z</time>
      </trkpt>
      <trkpt lat="45.60665" lon="5.90445">
        <ele>364.4</ele>
        <time>2014-06-28T09:50:26.000Z</time>
      </trkpt>
      <trkpt lat="45.60665" lon="5.90446">
        <ele>364.8</ele>
        <time>2014-06-28T09:50:27.000Z</time>
      </trkpt>
      <trkpt lat="45.60668" lon="5.90456">
        <ele>366.8</ele>
        <time>2014-06-28T09:50:33.000Z</time>
      </trkpt>
      <trkpt lat="45.60668" lon="5.90457">
        <ele>367.2</ele>
        <time>2014-06-28T09:50:34.000Z</time>
      </trkpt>
      <trkpt lat="45.6067" lon="5.90465">
        <ele>368</ele>
        <time>2014-06-28T09:50:39.000Z</time>
      </trkpt>
      <trkpt lat="45.60664" lon="5.90493">
        <ele>369.2</ele>
        <time>2014-06-28T09:51:33.000Z</time>
      </trkpt>
      <trkpt lat="45.60663" lon="5.90496">
        <ele>369.2</ele>
        <time>2014-06-28T09:51:35.000Z</time>
      </trkpt>
      <trkpt lat="45.6066" lon="5.90518">
        <ele>369.2</ele>
        <time>2014-06-28T09:51:48.000Z</time>
      </trkpt>
      <trkpt lat="45.60659" lon="5.9052">
        <ele>369.2</ele>
        <time>2014-06-28T09:51:49.000Z</time>
      </trkpt>
      <trkpt lat="45.6066" lon="5.90527">
        <ele>369.2</ele>
        <time>2014-06-28T09:51:54.000Z</time>
      </trkpt>
      <trkpt lat="45.60662" lon="5.90522">
        <ele>369.2</ele>
        <time>2014-06-28T09:51:59.000Z</time>
      </trkpt>
      <trkpt lat="45.60663" lon="5.90504">
        <ele>369.2</ele>
        <time>2014-06-28T09:52:05.000Z</time>
      </trkpt>
      <trkpt lat="45.60662" lon="5.90499">
        <ele>369.2</ele>
        <time>2014-06-28T09:52:09.000Z</time>
      </trkpt>
      <trkpt lat="45.60665" lon="5.90502">
        <ele>367.2</ele>
        <time>2014-06-28T09:56:53.000Z</time>
      </trkpt>
      <trkpt lat="45.60672" lon="5.90511">
        <ele>366.2</ele>
        <time>2014-06-28T09:56:56.000Z</time>
      </trkpt>
      <trkpt lat="45.60674" lon="5.90512">
        <ele>365.6</ele>
        <time>2014-06-28T09:56:57.000Z</time>
      </trkpt>
      <trkpt lat="45.60676" lon="5.90512">
        <ele>365</ele>
        <time>2014-06-28T09:56:58.000Z</time>
      </trkpt>
      <trkpt lat="45.60676" lon="5.90512">
        <ele>364.4</ele>
        <time>2014-06-28T09:56:59.000Z</time>
      </trkpt>
      <trkpt lat="45.60678" lon="5.90509">
        <ele>363.4</ele>
        <time>2014-06-28T09:57:01.000Z</time>
      </trkpt>
      <trkpt lat="45.6068" lon="5.90506">
        <ele>362.8</ele>
        <time>2014-06-28T09:57:02.000Z</time>
      </trkpt>
      <trkpt lat="45.60682" lon="5.90503">
        <ele>362.4</ele>
        <time>2014-06-28T09:57:04.000Z</time>
      </trkpt>
      <trkpt lat="45.60684" lon="5.90502">
        <ele>361.8</ele>
        <time>2014-06-28T09:57:05.000Z</time>
      </trkpt>
      <trkpt lat="45.60686" lon="5.90501">
        <ele>361.4</ele>
        <time>2014-06-28T09:57:06.000Z</time>
      </trkpt>
      <trkpt lat="45.6069" lon="5.90501">
        <ele>360.6</ele>
        <time>2014-06-28T09:57:07.000Z</time>
      </trkpt>
      <trkpt lat="45.60693" lon="5.90502">
        <ele>359.8</ele>
        <time>2014-06-28T09:57:08.000Z</time>
      </trkpt>
      <trkpt lat="45.60696" lon="5.90504">
        <ele>359.2</ele>
        <time>2014-06-28T09:57:09.000Z</time>
      </trkpt>
      <trkpt lat="45.60698" lon="5.90507">
        <ele>358.2</ele>
        <time>2014-06-28T09:57:10.000Z</time>
      </trkpt>
      <trkpt lat="45.607" lon="5.90508">
        <ele>357.4</ele>
        <time>2014-06-28T09:57:11.000Z</time>
      </trkpt>
      <trkpt lat="45.60703" lon="5.90506">
        <ele>355.6</ele>
        <time>2014-06-28T09:57:13.000Z</time>
      </trkpt>
      <trkpt lat="45.60701" lon="5.90502">
        <ele>354.8</ele>
        <time>2014-06-28T09:57:14.000Z</time>
      </trkpt>
      <trkpt lat="45.60696" lon="5.90486">
        <ele>352.4</ele>
        <time>2014-06-28T09:57:17.000Z</time>
      </trkpt>
      <trkpt lat="45.60696" lon="5.90469">
        <ele>349.6</ele>
        <time>2014-06-28T09:57:21.000Z</time>
      </trkpt>
      <trkpt lat="45.60697" lon="5.90468">
        <ele>349</ele>
        <time>2014-06-28T09:57:22.000Z</time>
      </trkpt>
      <trkpt lat="45.60696" lon="5.90466">
        <ele>348.2</ele>
        <time>2014-06-28T09:57:23.000Z</time>
      </trkpt>
      <trkpt lat="45.60698" lon="5.90467">
        <ele>347.4</ele>
        <time>2014-06-28T09:57:24.000Z</time>
      </trkpt>
      <trkpt lat="45.60705" lon="5.90471">
        <ele>345.6</ele>
        <time>2014-06-28T09:57:26.000Z</time>
      </trkpt>
      <trkpt lat="45.60709" lon="5.90473">
        <ele>344.6</ele>
        <time>2014-06-28T09:57:27.000Z</time>
      </trkpt>
      <trkpt lat="45.60711" lon="5.90472">
        <ele>343.6</ele>
        <time>2014-06-28T09:57:28.000Z</time>
      </trkpt>
      <trkpt lat="45.60712" lon="5.90471">
        <ele>342.6</ele>
        <time>2014-06-28T09:57:29.000Z</time>
      </trkpt>
      <trkpt lat="45.60714" lon="5.9047">
        <ele>341.8</ele>
        <time>2014-06-28T09:57:30.000Z</time>
      </trkpt>
      <trkpt lat="45.60715" lon="5.90468">
        <ele>340.8</ele>
        <time>2014-06-28T09:57:31.000Z</time>
      </trkpt>
      <trkpt lat="45.60716" lon="5.90465">
        <ele>340</ele>
        <time>2014-06-28T09:57:32.000Z</time>
      </trkpt>
      <trkpt lat="45.60717" lon="5.90463">
        <ele>339.2</ele>
        <time>2014-06-28T09:57:33.000Z</time>
      </trkpt>
      <trkpt lat="45.60719" lon="5.90462">
        <ele>338.6</ele>
        <time>2014-06-28T09:57:34.000Z</time>
      </trkpt>
      <trkpt lat="45.60724" lon="5.90461">
        <ele>336.8</ele>
        <time>2014-06-28T09:57:37.000Z</time>
      </trkpt>
      <trkpt lat="45.60726" lon="5.90461">
        <ele>336.2</ele>
        <time>2014-06-28T09:57:38.000Z</time>
      </trkpt>
      <trkpt lat="45.60728" lon="5.90461">
        <ele>335.2</ele>
        <time>2014-06-28T09:57:39.000Z</time>
      </trkpt>
      <trkpt lat="45.60731" lon="5.90462">
        <ele>334.4</ele>
        <time>2014-06-28T09:57:41.000Z</time>
      </trkpt>
      <trkpt lat="45.60733" lon="5.90462">
        <ele>334</ele>
        <time>2014-06-28T09:57:42.000Z</time>
      </trkpt>
      <trkpt lat="45.60735" lon="5.90461">
        <ele>334</ele>
        <time>2014-06-28T09:57:43.000Z</time>
      </trkpt>
      <trkpt lat="45.60736" lon="5.9046">
        <ele>333.4</ele>
        <time>2014-06-28T09:57:44.000Z</time>
      </trkpt>
      <trkpt lat="45.60736" lon="5.90458">
        <ele>332.8</ele>
        <time>2014-06-28T09:57:45.000Z</time>
      </trkpt>
      <trkpt lat="45.60736" lon="5.90456">
        <ele>332.2</ele>
        <time>2014-06-28T09:57:46.000Z</time>
      </trkpt>
      <trkpt lat="45.60737" lon="5.90455">
        <ele>331.6</ele>
        <time>2014-06-28T09:57:47.000Z</time>
      </trkpt>
      <trkpt lat="45.60747" lon="5.90442">
        <ele>329</ele>
        <time>2014-06-28T09:59:51.000Z</time>
      </trkpt>
      <trkpt lat="45.60745" lon="5.90439">
        <ele>329</ele>
        <time>2014-06-28T09:59:52.000Z</time>
      </trkpt>
      <trkpt lat="45.60738" lon="5.90426">
        <ele>329</ele>
        <time>2014-06-28T09:59:57.000Z</time>
      </trkpt>
      <trkpt lat="45.60735" lon="5.90425">
        <ele>329</ele>
        <time>2014-06-28T10:00:01.000Z</time>
      </trkpt>
      <trkpt lat="45.60733" lon="5.90413">
        <ele>329</ele>
        <time>2014-06-28T10:00:33.000Z</time>
      </trkpt>
      <trkpt lat="45.60731" lon="5.90412">
        <ele>329</ele>
        <time>2014-06-28T10:00:34.000Z</time>
      </trkpt>
      <trkpt lat="45.6073" lon="5.9041">
        <ele>329</ele>
        <time>2014-06-28T10:00:35.000Z</time>
      </trkpt>
      <trkpt lat="45.60729" lon="5.90408">
        <ele>328.4</ele>
        <time>2014-06-28T10:00:36.000Z</time>
      </trkpt>
      <trkpt lat="45.6072" lon="5.9038">
        <ele>323.6</ele>
        <time>2014-06-28T10:00:43.000Z</time>
      </trkpt>
      <trkpt lat="45.60711" lon="5.90343">
        <ele>320</ele>
        <time>2014-06-28T10:00:50.000Z</time>
      </trkpt>
      <trkpt lat="45.6071" lon="5.90338">
        <ele>319.4</ele>
        <time>2014-06-28T10:00:51.000Z</time>
      </trkpt>
      <trkpt lat="45.6071" lon="5.90331">
        <ele>319</ele>
        <time>2014-06-28T10:00:53.000Z</time>
      </trkpt>
      <trkpt lat="45.60711" lon="5.90329">
        <ele>318.6</ele>
        <time>2014-06-28T10:00:54.000Z</time>
      </trkpt>
      <trkpt lat="45.60711" lon="5.90324">
        <ele>317.8</ele>
        <time>2014-06-28T10:00:56.000Z</time>
      </trkpt>
      <trkpt lat="45.60711" lon="5.90322">
        <ele>317.2</ele>
        <time>2014-06-28T10:00:57.000Z</time>
      </trkpt>
      <trkpt lat="45.60714" lon="5.90317">
        <ele>317.2</ele>
        <time>2014-06-28T10:00:59.000Z</time>
      </trkpt>
      <trkpt lat="45.60728" lon="5.90278">
        <ele>316.4</ele>
        <time>2014-06-28T10:01:12.000Z</time>
      </trkpt>
      <trkpt lat="45.6073" lon="5.90267">
        <ele>315.6</ele>
        <time>2014-06-28T10:01:14.000Z</time>
      </trkpt>
      <trkpt lat="45.60734" lon="5.90236">
        <ele>314.8</ele>
        <time>2014-06-28T10:01:19.000Z</time>
      </trkpt>
      <trkpt lat="45.60734" lon="5.90232">
        <ele>314.4</ele>
        <time>2014-06-28T10:01:20.000Z</time>
      </trkpt>
      <trkpt lat="45.60734" lon="5.9023">
        <ele>313.8</ele>
        <time>2014-06-28T10:01:21.000Z</time>
      </trkpt>
      <trkpt lat="45.60733" lon="5.90228">
        <ele>313</ele>
        <time>2014-06-28T10:01:22.000Z</time>
      </trkpt>
      <trkpt lat="45.60732" lon="5.90226">
        <ele>313</ele>
        <time>2014-06-28T10:01:23.000Z</time>
      </trkpt>
      <trkpt lat="45.60731" lon="5.90222">
        <ele>313</ele>
        <time>2014-06-28T10:01:48.000Z</time>
      </trkpt>
      <trkpt lat="45.60738" lon="5.90183">
        <ele>311.8</ele>
        <time>2014-06-28T10:01:55.000Z</time>
      </trkpt>
      <trkpt lat="45.60742" lon="5.90171">
        <ele>311.4</ele>
        <time>2014-06-28T10:01:56.000Z</time>
      </trkpt>
      <trkpt lat="45.60747" lon="5.90162">
        <ele>311</ele>
        <time>2014-06-28T10:01:57.000Z</time>
      </trkpt>
      <trkpt lat="45.60758" lon="5.90146">
        <ele>311</ele>
        <time>2014-06-28T10:02:00.000Z</time>
      </trkpt>
      <trkpt lat="45.60772" lon="5.90103">
        <ele>311</ele>
        <time>2014-06-28T10:02:19.000Z</time>
      </trkpt>
      <trkpt lat="45.60783" lon="5.90079">
        <ele>312.2</ele>
        <time>2014-06-28T10:02:32.000Z</time>
      </trkpt>
      <trkpt lat="45.6079" lon="5.90046">
        <ele>313</ele>
        <time>2014-06-28T10:02:47.000Z</time>
      </trkpt>
      <trkpt lat="45.60795" lon="5.90034">
        <ele>313.8</ele>
        <time>2014-06-28T10:02:56.000Z</time>
      </trkpt>
      <trkpt lat="45.60798" lon="5.90029">
        <ele>315</ele>
        <time>2014-06-28T10:02:59.000Z</time>
      </trkpt>
      <trkpt lat="45.60799" lon="5.90026">
        <ele>315</ele>
        <time>2014-06-28T10:03:00.000Z</time>
      </trkpt>
      <trkpt lat="45.60799" lon="5.90021">
        <ele>315</ele>
        <time>2014-06-28T10:03:01.000Z</time>
      </trkpt>
      <trkpt lat="45.60819" lon="5.89962">
        <ele>315.4</ele>
        <time>2014-06-28T10:03:19.000Z</time>
      </trkpt>
      <trkpt lat="45.6082" lon="5.89912">
        <ele>320</ele>
        <time>2014-06-28T10:03:34.000Z</time>
      </trkpt>
      <trkpt lat="45.60821" lon="5.89909">
        <ele>320.4</ele>
        <time>2014-06-28T10:03:35.000Z</time>
      </trkpt>
      <trkpt lat="45.60824" lon="5.89906">
        <ele>321</ele>
        <time>2014-06-28T10:03:36.000Z</time>
      </trkpt>
      <trkpt lat="45.60826" lon="5.89904">
        <ele>321.4</ele>
        <time>2014-06-28T10:03:37.000Z</time>
      </trkpt>
      <trkpt lat="45.60835" lon="5.89902">
        <ele>321.4</ele>
        <time>2014-06-28T10:03:42.000Z</time>
      </trkpt>
      <trkpt lat="45.60837" lon="5.89903">
        <ele>321.8</ele>
        <time>2014-06-28T10:03:43.000Z</time>
      </trkpt>
      <trkpt lat="45.60838" lon="5.89906">
        <ele>322.2</ele>
        <time>2014-06-28T10:03:44.000Z</time>
      </trkpt>
      <trkpt lat="45.60839" lon="5.8991">
        <ele>323.4</ele>
        <time>2014-06-28T10:03:47.000Z</time>
      </trkpt>
      <trkpt lat="45.60839" lon="5.89911">
        <ele>323.4</ele>
        <time>2014-06-28T10:03:48.000Z</time>
      </trkpt>
      <trkpt lat="45.60844" lon="5.89923">
        <ele>324.8</ele>
        <time>2014-06-28T10:04:46.000Z</time>
      </trkpt>
      <trkpt lat="45.60846" lon="5.89945">
        <ele>326.4</ele>
        <time>2014-06-28T10:04:55.000Z</time>
      </trkpt>
      <trkpt lat="45.60847" lon="5.8995">
        <ele>327.4</ele>
        <time>2014-06-28T10:04:57.000Z</time>
      </trkpt>
      <trkpt lat="45.60848" lon="5.89961">
        <ele>327.8</ele>
        <time>2014-06-28T10:05:02.000Z</time>
      </trkpt>
      <trkpt lat="45.60847" lon="5.89965">
        <ele>328.6</ele>
        <time>2014-06-28T10:05:04.000Z</time>
      </trkpt>
      <trkpt lat="45.60845" lon="5.89971">
        <ele>329.8</ele>
        <time>2014-06-28T10:05:07.000Z</time>
      </trkpt>
      <trkpt lat="45.60843" lon="5.89997">
        <ele>329.8</ele>
        <time>2014-06-28T10:05:18.000Z</time>
      </trkpt>
      <trkpt lat="45.60844" lon="5.89999">
        <ele>329.8</ele>
        <time>2014-06-28T10:05:19.000Z</time>
      </trkpt>
      <trkpt lat="45.60848" lon="5.90003">
        <ele>329.8</ele>
        <time>2014-06-28T10:05:23.000Z</time>
      </trkpt>
      <trkpt lat="45.6085" lon="5.90003">
        <ele>330.2</ele>
        <time>2014-06-28T10:05:25.000Z</time>
      </trkpt>
      <trkpt lat="45.60853" lon="5.90005">
        <ele>331.8</ele>
        <time>2014-06-28T10:05:43.000Z</time>
      </trkpt>
      <trkpt lat="45.60853" lon="5.89999">
        <ele>331.8</ele>
        <time>2014-06-28T10:05:45.000Z</time>
      </trkpt>
      <trkpt lat="45.60866" lon="5.89964">
        <ele>334.4</ele>
        <time>2014-06-28T10:05:57.000Z</time>
      </trkpt>
      <trkpt lat="45.60868" lon="5.89962">
        <ele>334.8</ele>
        <time>2014-06-28T10:05:58.000Z</time>
      </trkpt>
      <trkpt lat="45.60868" lon="5.8996">
        <ele>335.2</ele>
        <time>2014-06-28T10:05:59.000Z</time>
      </trkpt>
      <trkpt lat="45.60869" lon="5.89957">
        <ele>335.6</ele>
        <time>2014-06-28T10:06:00.000Z</time>
      </trkpt>
      <trkpt lat="45.60877" lon="5.89946">
        <ele>336.4</ele>
        <time>2014-06-28T10:06:06.000Z</time>
      </trkpt>
      <trkpt lat="45.60881" lon="5.89936">
        <ele>338.2</ele>
        <time>2014-06-28T10:06:10.000Z</time>
      </trkpt>
      <trkpt lat="45.60888" lon="5.899">
        <ele>340.6</ele>
        <time>2014-06-28T10:06:29.000Z</time>
      </trkpt>
      <trkpt lat="45.60889" lon="5.89898">
        <ele>341.2</ele>
        <time>2014-06-28T10:06:30.000Z</time>
      </trkpt>
      <trkpt lat="45.6089" lon="5.89897">
        <ele>341.6</ele>
        <time>2014-06-28T10:06:31.000Z</time>
      </trkpt>
      <trkpt lat="45.60892" lon="5.89896">
        <ele>342</ele>
        <time>2014-06-28T10:06:32.000Z</time>
      </trkpt>
      <trkpt lat="45.60895" lon="5.89895">
        <ele>342.4</ele>
        <time>2014-06-28T10:06:35.000Z</time>
      </trkpt>
      <trkpt lat="45.60896" lon="5.89895">
        <ele>342.4</ele>
        <time>2014-06-28T10:06:36.000Z</time>
      </trkpt>
      <trkpt lat="45.60898" lon="5.89895">
        <ele>342.4</ele>
        <time>2014-06-28T10:06:38.000Z</time>
      </trkpt>
      <trkpt lat="45.609" lon="5.89896">
        <ele>342.8</ele>
        <time>2014-06-28T10:06:40.000Z</time>
      </trkpt>
      <trkpt lat="45.609" lon="5.89898">
        <ele>343.2</ele>
        <time>2014-06-28T10:06:41.000Z</time>
      </trkpt>
      <trkpt lat="45.609" lon="5.899">
        <ele>344.4</ele>
        <time>2014-06-28T10:06:43.000Z</time>
      </trkpt>
      <trkpt lat="45.60895" lon="5.89926">
        <ele>344.4</ele>
        <time>2014-06-28T10:06:55.000Z</time>
      </trkpt>
      <trkpt lat="45.6089" lon="5.89942">
        <ele>344.4</ele>
        <time>2014-06-28T10:07:00.000Z</time>
      </trkpt>
      <trkpt lat="45.60898" lon="5.89986">
        <ele>344.8</ele>
        <time>2014-06-28T10:07:10.000Z</time>
      </trkpt>
      <trkpt lat="45.60901" lon="5.89992">
        <ele>345.6</ele>
        <time>2014-06-28T10:07:12.000Z</time>
      </trkpt>
      <trkpt lat="45.60904" lon="5.89997">
        <ele>346.6</ele>
        <time>2014-06-28T10:07:14.000Z</time>
      </trkpt>
      <trkpt lat="45.60908" lon="5.90006">
        <ele>346.6</ele>
        <time>2014-06-28T10:07:18.000Z</time>
      </trkpt>
      <trkpt lat="45.60906" lon="5.90019">
        <ele>347.4</ele>
        <time>2014-06-28T10:07:26.000Z</time>
      </trkpt>
      <trkpt lat="45.60906" lon="5.9002">
        <ele>347.8</ele>
        <time>2014-06-28T10:07:27.000Z</time>
      </trkpt>
      <trkpt lat="45.60905" lon="5.90021">
        <ele>348.2</ele>
        <time>2014-06-28T10:07:28.000Z</time>
      </trkpt>
      <trkpt lat="45.60905" lon="5.90023">
        <ele>348.6</ele>
        <time>2014-06-28T10:07:29.000Z</time>
      </trkpt>
      <trkpt lat="45.60904" lon="5.90033">
        <ele>349.4</ele>
        <time>2014-06-28T10:07:33.000Z</time>
      </trkpt>
      <trkpt lat="45.60903" lon="5.90037">
        <ele>350.2</ele>
        <time>2014-06-28T10:07:35.000Z</time>
      </trkpt>
      <trkpt lat="45.60902" lon="5.90039">
        <ele>350.6</ele>
        <time>2014-06-28T10:07:36.000Z</time>
      </trkpt>
      <trkpt lat="45.609" lon="5.90042">
        <ele>351</ele>
        <time>2014-06-28T10:07:38.000Z</time>
      </trkpt>
      <trkpt lat="45.609" lon="5.90045">
        <ele>352</ele>
        <time>2014-06-28T10:07:40.000Z</time>
      </trkpt>
      <trkpt lat="45.609" lon="5.90047">
        <ele>352.4</ele>
        <time>2014-06-28T10:07:41.000Z</time>
      </trkpt>
      <trkpt lat="45.609" lon="5.90049">
        <ele>352.8</ele>
        <time>2014-06-28T10:07:42.000Z</time>
      </trkpt>
      <trkpt lat="45.60897" lon="5.90057">
        <ele>352.8</ele>
        <time>2014-06-28T10:07:46.000Z</time>
      </trkpt>
      <trkpt lat="45.60894" lon="5.90073">
        <ele>353.2</ele>
        <time>2014-06-28T10:07:52.000Z</time>
      </trkpt>
      <trkpt lat="45.60893" lon="5.90076">
        <ele>353.6</ele>
        <time>2014-06-28T10:07:53.000Z</time>
      </trkpt>
      <trkpt lat="45.60892" lon="5.90079">
        <ele>354</ele>
        <time>2014-06-28T10:07:54.000Z</time>
      </trkpt>
      <trkpt lat="45.60885" lon="5.90105">
        <ele>355.6</ele>
        <time>2014-06-28T10:08:04.000Z</time>
      </trkpt>
      <trkpt lat="45.60884" lon="5.90111">
        <ele>356.4</ele>
        <time>2014-06-28T10:08:06.000Z</time>
      </trkpt>
      <trkpt lat="45.60871" lon="5.90159">
        <ele>359</ele>
        <time>2014-06-28T10:08:23.000Z</time>
      </trkpt>
      <trkpt lat="45.60866" lon="5.90182">
        <ele>360.6</ele>
        <time>2014-06-28T10:08:33.000Z</time>
      </trkpt>
      <trkpt lat="45.60865" lon="5.90185">
        <ele>361</ele>
        <time>2014-06-28T10:08:34.000Z</time>
      </trkpt>
      <trkpt lat="45.60861" lon="5.90221">
        <ele>363.2</ele>
        <time>2014-06-28T10:08:45.000Z</time>
      </trkpt>
      <trkpt lat="45.60858" lon="5.90278">
        <ele>365.2</ele>
        <time>2014-06-28T10:08:57.000Z</time>
      </trkpt>
      <trkpt lat="45.60854" lon="5.90293">
        <ele>365.6</ele>
        <time>2014-06-28T10:09:00.000Z</time>
      </trkpt>
      <trkpt lat="45.60854" lon="5.90297">
        <ele>366.2</ele>
        <time>2014-06-28T10:09:01.000Z</time>
      </trkpt>
      <trkpt lat="45.60857" lon="5.90324">
        <ele>369</ele>
        <time>2014-06-28T10:09:08.000Z</time>
      </trkpt>
      <trkpt lat="45.60856" lon="5.90341">
        <ele>369.8</ele>
        <time>2014-06-28T10:09:14.000Z</time>
      </trkpt>
      <trkpt lat="45.60856" lon="5.90344">
        <ele>370.4</ele>
        <time>2014-06-28T10:09:15.000Z</time>
      </trkpt>
      <trkpt lat="45.60855" lon="5.90366">
        <ele>371.6</ele>
        <time>2014-06-28T10:09:25.000Z</time>
      </trkpt>
      <trkpt lat="45.60854" lon="5.90368">
        <ele>371.6</ele>
        <time>2014-06-28T10:09:27.000Z</time>
      </trkpt>
      <trkpt lat="45.60853" lon="5.90367">
        <ele>371.6</ele>
        <time>2014-06-28T10:09:28.000Z</time>
      </trkpt>
      <trkpt lat="45.60851" lon="5.90367">
        <ele>371.6</ele>
        <time>2014-06-28T10:09:31.000Z</time>
      </trkpt>
      <trkpt lat="45.60856" lon="5.90368">
        <ele>371.6</ele>
        <time>2014-06-28T10:09:51.000Z</time>
      </trkpt>
      <trkpt lat="45.60857" lon="5.90376">
        <ele>371.6</ele>
        <time>2014-06-28T10:09:55.000Z</time>
      </trkpt>
      <trkpt lat="45.60859" lon="5.90381">
        <ele>371.6</ele>
        <time>2014-06-28T10:09:57.000Z</time>
      </trkpt>
      <trkpt lat="45.60863" lon="5.90386">
        <ele>371.6</ele>
        <time>2014-06-28T10:10:00.000Z</time>
      </trkpt>
      <trkpt lat="45.60869" lon="5.90385">
        <ele>371.6</ele>
        <time>2014-06-28T10:10:02.000Z</time>
      </trkpt>
      <trkpt lat="45.60881" lon="5.90387">
        <ele>371.6</ele>
        <time>2014-06-28T10:10:07.000Z</time>
      </trkpt>
      <trkpt lat="45.60894" lon="5.90387">
        <ele>371.6</ele>
        <time>2014-06-28T10:10:12.000Z</time>
      </trkpt>
      <trkpt lat="45.60937" lon="5.90396">
        <ele>371.6</ele>
        <time>2014-06-28T10:10:30.000Z</time>
      </trkpt>
      <trkpt lat="45.60981" lon="5.9039">
        <ele>371.6</ele>
        <time>2014-06-28T10:10:44.000Z</time>
      </trkpt>
      <trkpt lat="45.61009" lon="5.90397">
        <ele>371.6</ele>
        <time>2014-06-28T10:10:54.000Z</time>
      </trkpt>
      <trkpt lat="45.61019" lon="5.90405">
        <ele>371.6</ele>
        <time>2014-06-28T10:10:57.000Z</time>
      </trkpt>
      <trkpt lat="45.61022" lon="5.9041">
        <ele>371.6</ele>
        <time>2014-06-28T10:10:58.000Z</time>
      </trkpt>
      <trkpt lat="45.61025" lon="5.90424">
        <ele>371.6</ele>
        <time>2014-06-28T10:11:00.000Z</time>
      </trkpt>
      <trkpt lat="45.61021" lon="5.90459">
        <ele>371.6</ele>
        <time>2014-06-28T10:11:05.000Z</time>
      </trkpt>
      <trkpt lat="45.6098" lon="5.90531">
        <ele>372.8</ele>
        <time>2014-06-28T10:11:23.000Z</time>
      </trkpt>
      <trkpt lat="45.60968" lon="5.9056">
        <ele>375</ele>
        <time>2014-06-28T10:11:32.000Z</time>
      </trkpt>
      <trkpt lat="45.60967" lon="5.90564">
        <ele>375.4</ele>
        <time>2014-06-28T10:11:33.000Z</time>
      </trkpt>
      <trkpt lat="45.60965" lon="5.90569">
        <ele>375.8</ele>
        <time>2014-06-28T10:11:34.000Z</time>
      </trkpt>
      <trkpt lat="45.60943" lon="5.90608">
        <ele>375.8</ele>
        <time>2014-06-28T10:11:43.000Z</time>
      </trkpt>
      <trkpt lat="45.60933" lon="5.90623">
        <ele>375.8</ele>
        <time>2014-06-28T10:11:46.000Z</time>
      </trkpt>
      <trkpt lat="45.60907" lon="5.90649">
        <ele>375.8</ele>
        <time>2014-06-28T10:11:52.000Z</time>
      </trkpt>
      <trkpt lat="45.60855" lon="5.90679">
        <ele>375.8</ele>
        <time>2014-06-28T10:12:03.000Z</time>
      </trkpt>
      <trkpt lat="45.60822" lon="5.90696">
        <ele>375.8</ele>
        <time>2014-06-28T10:12:10.000Z</time>
      </trkpt>
      <trkpt lat="45.60728" lon="5.90728">
        <ele>375.8</ele>
        <time>2014-06-28T10:12:33.000Z</time>
      </trkpt>
      <trkpt lat="45.60714" lon="5.9073">
        <ele>375.8</ele>
        <time>2014-06-28T10:12:36.000Z</time>
      </trkpt>
      <trkpt lat="45.60705" lon="5.90733">
        <ele>375.8</ele>
        <time>2014-06-28T10:12:38.000Z</time>
      </trkpt>
      <trkpt lat="45.60686" lon="5.9074">
        <ele>375.8</ele>
        <time>2014-06-28T10:12:42.000Z</time>
      </trkpt>
      <trkpt lat="45.60668" lon="5.90745">
        <ele>375.8</ele>
        <time>2014-06-28T10:12:47.000Z</time>
      </trkpt>
      <trkpt lat="45.60662" lon="5.90745">
        <ele>375.8</ele>
        <time>2014-06-28T10:12:53.000Z</time>
      </trkpt>
      <trkpt lat="45.60658" lon="5.90729">
        <ele>375.8</ele>
        <time>2014-06-28T10:12:57.000Z</time>
      </trkpt>
      <trkpt lat="45.60646" lon="5.90641">
        <ele>373.8</ele>
        <time>2014-06-28T10:13:09.000Z</time>
      </trkpt>
      <trkpt lat="45.60641" lon="5.90623">
        <ele>373.8</ele>
        <time>2014-06-28T10:13:13.000Z</time>
      </trkpt>
      <trkpt lat="45.60637" lon="5.90621">
        <ele>373.8</ele>
        <time>2014-06-28T10:13:14.000Z</time>
      </trkpt>
      <trkpt lat="45.60621" lon="5.90621">
        <ele>373.8</ele>
        <time>2014-06-28T10:13:18.000Z</time>
      </trkpt>
      <trkpt lat="45.60544" lon="5.90638">
        <ele>373.8</ele>
        <time>2014-06-28T10:13:38.000Z</time>
      </trkpt>
      <trkpt lat="45.60512" lon="5.90639">
        <ele>373.8</ele>
        <time>2014-06-28T10:13:46.000Z</time>
      </trkpt>
      <trkpt lat="45.60499" lon="5.90637">
        <ele>373.8</ele>
        <time>2014-06-28T10:13:49.000Z</time>
      </trkpt>
      <trkpt lat="45.60463" lon="5.90621">
        <ele>373.8</ele>
        <time>2014-06-28T10:13:59.000Z</time>
      </trkpt>
      <trkpt lat="45.6046" lon="5.90614">
        <ele>373.8</ele>
        <time>2014-06-28T10:14:01.000Z</time>
      </trkpt>
      <trkpt lat="45.60459" lon="5.90605">
        <ele>373.8</ele>
        <time>2014-06-28T10:14:03.000Z</time>
      </trkpt>
      <trkpt lat="45.6046" lon="5.9058">
        <ele>373.8</ele>
        <time>2014-06-28T10:14:08.000Z</time>
      </trkpt>
      <trkpt lat="45.60457" lon="5.90546">
        <ele>373.8</ele>
        <time>2014-06-28T10:14:14.000Z</time>
      </trkpt>
      <trkpt lat="45.60456" lon="5.90544">
        <ele>373.8</ele>
        <time>2014-06-28T10:14:15.000Z</time>
      </trkpt>
      <trkpt lat="45.60451" lon="5.90541">
        <ele>373.8</ele>
        <time>2014-06-28T10:14:17.000Z</time>
      </trkpt>
      <trkpt lat="45.60411" lon="5.90526">
        <ele>373.8</ele>
        <time>2014-06-28T10:14:26.000Z</time>
      </trkpt>
      <trkpt lat="45.60383" lon="5.90508">
        <ele>373.8</ele>
        <time>2014-06-28T10:14:32.000Z</time>
      </trkpt>
      <trkpt lat="45.60369" lon="5.90501">
        <ele>373.8</ele>
        <time>2014-06-28T10:14:35.000Z</time>
      </trkpt>
      <trkpt lat="45.60355" lon="5.90501">
        <ele>373.8</ele>
        <time>2014-06-28T10:14:38.000Z</time>
      </trkpt>
      <trkpt lat="45.6035" lon="5.90501">
        <ele>373.8</ele>
        <time>2014-06-28T10:14:39.000Z</time>
      </trkpt>
      <trkpt lat="45.6033" lon="5.905">
        <ele>373</ele>
        <time>2014-06-28T10:14:43.000Z</time>
      </trkpt>
      <trkpt lat="45.60259" lon="5.90514">
        <ele>371.6</ele>
        <time>2014-06-28T10:14:53.000Z</time>
      </trkpt>
      <trkpt lat="45.60247" lon="5.90514">
        <ele>371.6</ele>
        <time>2014-06-28T10:14:55.000Z</time>
      </trkpt>
      <trkpt lat="45.60229" lon="5.90515">
        <ele>371.6</ele>
        <time>2014-06-28T10:14:58.000Z</time>
      </trkpt>
      <trkpt lat="45.60178" lon="5.90525">
        <ele>370.4</ele>
        <time>2014-06-28T10:15:07.000Z</time>
      </trkpt>
      <trkpt lat="45.60159" lon="5.90531">
        <ele>369.6</ele>
        <time>2014-06-28T10:15:10.000Z</time>
      </trkpt>
      <trkpt lat="45.60137" lon="5.90534">
        <ele>368.6</ele>
        <time>2014-06-28T10:15:13.000Z</time>
      </trkpt>
      <trkpt lat="45.60115" lon="5.90535">
        <ele>366.8</ele>
        <time>2014-06-28T10:15:16.000Z</time>
      </trkpt>
      <trkpt lat="45.60109" lon="5.90536">
        <ele>366.2</ele>
        <time>2014-06-28T10:15:17.000Z</time>
      </trkpt>
      <trkpt lat="45.60104" lon="5.90536">
        <ele>365.6</ele>
        <time>2014-06-28T10:15:18.000Z</time>
      </trkpt>
      <trkpt lat="45.601" lon="5.90538">
        <ele>365</ele>
        <time>2014-06-28T10:15:19.000Z</time>
      </trkpt>
      <trkpt lat="45.60096" lon="5.9054">
        <ele>364.4</ele>
        <time>2014-06-28T10:15:20.000Z</time>
      </trkpt>
      <trkpt lat="45.60091" lon="5.9054">
        <ele>362.6</ele>
        <time>2014-06-28T10:15:22.000Z</time>
      </trkpt>
      <trkpt lat="45.60087" lon="5.90539">
        <ele>362.2</ele>
        <time>2014-06-28T10:15:26.000Z</time>
      </trkpt>
      <trkpt lat="45.60087" lon="5.90539">
        <ele>361.8</ele>
        <time>2014-06-28T10:15:27.000Z</time>
      </trkpt>
      <trkpt lat="45.60087" lon="5.90499">
        <ele>360</ele>
        <time>2014-06-28T10:16:01.000Z</time>
      </trkpt>
      <trkpt lat="45.60083" lon="5.90464">
        <ele>356.2</ele>
        <time>2014-06-28T10:16:07.000Z</time>
      </trkpt>
      <trkpt lat="45.60073" lon="5.90418">
        <ele>346.8</ele>
        <time>2014-06-28T10:16:14.000Z</time>
      </trkpt>
      <trkpt lat="45.60076" lon="5.90363">
        <ele>337.6</ele>
        <time>2014-06-28T10:16:21.000Z</time>
      </trkpt>
      <trkpt lat="45.60076" lon="5.90357">
        <ele>336.2</ele>
        <time>2014-06-28T10:16:22.000Z</time>
      </trkpt>
      <trkpt lat="45.60078" lon="5.90352">
        <ele>334.6</ele>
        <time>2014-06-28T10:16:23.000Z</time>
      </trkpt>
      <trkpt lat="45.6008" lon="5.90347">
        <ele>333</ele>
        <time>2014-06-28T10:16:24.000Z</time>
      </trkpt>
      <trkpt lat="45.60084" lon="5.90343">
        <ele>331.4</ele>
        <time>2014-06-28T10:16:25.000Z</time>
      </trkpt>
      <trkpt lat="45.60089" lon="5.90332">
        <ele>328.4</ele>
        <time>2014-06-28T10:16:27.000Z</time>
      </trkpt>
      <trkpt lat="45.60091" lon="5.90327">
        <ele>326.8</ele>
        <time>2014-06-28T10:16:28.000Z</time>
      </trkpt>
      <trkpt lat="45.6009" lon="5.90305">
        <ele>320.6</ele>
        <time>2014-06-28T10:16:32.000Z</time>
      </trkpt>
      <trkpt lat="45.60091" lon="5.90303">
        <ele>319.2</ele>
        <time>2014-06-28T10:16:33.000Z</time>
      </trkpt>
      <trkpt lat="45.60091" lon="5.90303">
        <ele>317.8</ele>
        <time>2014-06-28T10:16:34.000Z</time>
      </trkpt>
      <trkpt lat="45.60091" lon="5.90303">
        <ele>316.4</ele>
        <time>2014-06-28T10:16:35.000Z</time>
      </trkpt>
      <trkpt lat="45.60091" lon="5.90303">
        <ele>313.8</ele>
        <time>2014-06-28T10:16:36.000Z</time>
      </trkpt>
      <trkpt lat="45.6009" lon="5.90306">
        <ele>313.8</ele>
        <time>2014-06-28T10:16:47.000Z</time>
      </trkpt>
      <trkpt lat="45.6009" lon="5.90306">
        <ele>311.6</ele>
        <time>2014-06-28T10:17:26.000Z</time>
      </trkpt>
      <trkpt lat="45.6009" lon="5.90303">
        <ele>311.6</ele>
        <time>2014-06-28T10:17:27.000Z</time>
      </trkpt>
      <trkpt lat="45.60084" lon="5.90258">
        <ele>308.6</ele>
        <time>2014-06-28T10:17:33.000Z</time>
      </trkpt>
      <trkpt lat="45.6008" lon="5.90244">
        <ele>306.4</ele>
        <time>2014-06-28T10:17:36.000Z</time>
      </trkpt>
      <trkpt lat="45.60079" lon="5.90241">
        <ele>305.8</ele>
        <time>2014-06-28T10:17:37.000Z</time>
      </trkpt>
      <trkpt lat="45.60077" lon="5.90239">
        <ele>305.2</ele>
        <time>2014-06-28T10:17:38.000Z</time>
      </trkpt>
      <trkpt lat="45.60073" lon="5.90237">
        <ele>304.6</ele>
        <time>2014-06-28T10:17:39.000Z</time>
      </trkpt>
      <trkpt lat="45.60068" lon="5.90236">
        <ele>303.8</ele>
        <time>2014-06-28T10:17:40.000Z</time>
      </trkpt>
      <trkpt lat="45.60038" lon="5.90239">
        <ele>303.8</ele>
        <time>2014-06-28T10:17:47.000Z</time>
      </trkpt>
      <trkpt lat="45.60013" lon="5.90244">
        <ele>303.8</ele>
        <time>2014-06-28T10:17:53.000Z</time>
      </trkpt>
      <trkpt lat="45.59841" lon="5.90353">
        <ele>303.8</ele>
        <time>2014-06-28T10:18:37.000Z</time>
      </trkpt>
      <trkpt lat="45.59795" lon="5.90372">
        <ele>304.2</ele>
        <time>2014-06-28T10:18:49.000Z</time>
      </trkpt>
      <trkpt lat="45.5979" lon="5.90371">
        <ele>304.8</ele>
        <time>2014-06-28T10:18:50.000Z</time>
      </trkpt>
      <trkpt lat="45.59787" lon="5.90369">
        <ele>305.2</ele>
        <time>2014-06-28T10:18:51.000Z</time>
      </trkpt>
      <trkpt lat="45.59781" lon="5.90359">
        <ele>306</ele>
        <time>2014-06-28T10:18:53.000Z</time>
      </trkpt>
      <trkpt lat="45.59778" lon="5.90355">
        <ele>306</ele>
        <time>2014-06-28T10:18:54.000Z</time>
      </trkpt>
      <trkpt lat="45.59745" lon="5.90273">
        <ele>306</ele>
        <time>2014-06-28T10:19:10.000Z</time>
      </trkpt>
      <trkpt lat="45.5974" lon="5.90268">
        <ele>306</ele>
        <time>2014-06-28T10:19:12.000Z</time>
      </trkpt>
      <trkpt lat="45.59736" lon="5.90269">
        <ele>306</ele>
        <time>2014-06-28T10:19:13.000Z</time>
      </trkpt>
      <trkpt lat="45.59688" lon="5.90314">
        <ele>308</ele>
        <time>2014-06-28T10:19:31.000Z</time>
      </trkpt>
      <trkpt lat="45.59681" lon="5.90321">
        <ele>308</ele>
        <time>2014-06-28T10:19:33.000Z</time>
      </trkpt>
      <trkpt lat="45.59644" lon="5.90357">
        <ele>308</ele>
        <time>2014-06-28T10:19:45.000Z</time>
      </trkpt>
      <trkpt lat="45.59625" lon="5.90365">
        <ele>308</ele>
        <time>2014-06-28T10:19:51.000Z</time>
      </trkpt>
      <trkpt lat="45.59613" lon="5.90367">
        <ele>308.8</ele>
        <time>2014-06-28T10:19:54.000Z</time>
      </trkpt>
      <trkpt lat="45.59609" lon="5.90367">
        <ele>309.2</ele>
        <time>2014-06-28T10:19:55.000Z</time>
      </trkpt>
      <trkpt lat="45.59606" lon="5.90365">
        <ele>309.6</ele>
        <time>2014-06-28T10:19:56.000Z</time>
      </trkpt>
      <trkpt lat="45.59602" lon="5.90365">
        <ele>310</ele>
        <time>2014-06-28T10:19:57.000Z</time>
      </trkpt>
      <trkpt lat="45.59577" lon="5.90375">
        <ele>310</ele>
        <time>2014-06-28T10:20:04.000Z</time>
      </trkpt>
      <trkpt lat="45.59557" lon="5.9038">
        <ele>310</ele>
        <time>2014-06-28T10:20:11.000Z</time>
      </trkpt>
      <trkpt lat="45.59552" lon="5.90387">
        <ele>310</ele>
        <time>2014-06-28T10:20:14.000Z</time>
      </trkpt>
      <trkpt lat="45.59549" lon="5.90388">
        <ele>310</ele>
        <time>2014-06-28T10:20:15.000Z</time>
      </trkpt>
      <trkpt lat="45.59543" lon="5.9039">
        <ele>310</ele>
        <time>2014-06-28T10:20:18.000Z</time>
      </trkpt>
      <trkpt lat="45.59542" lon="5.90391">
        <ele>310</ele>
        <time>2014-06-28T10:20:20.000Z</time>
      </trkpt>
      <trkpt lat="45.59542" lon="5.90391">
        <ele>310</ele>
        <time>2014-06-28T10:20:21.000Z</time>
      </trkpt>
      <trkpt lat="45.59534" lon="5.90392">
        <ele>310</ele>
        <time>2014-06-28T10:24:28.000Z</time>
      </trkpt>
      <trkpt lat="45.59532" lon="5.90391">
        <ele>310</ele>
        <time>2014-06-28T10:24:29.000Z</time>
      </trkpt>
      <trkpt lat="45.59524" lon="5.90378">
        <ele>310</ele>
        <time>2014-06-28T10:24:36.000Z</time>
      </trkpt>
      <trkpt lat="45.59502" lon="5.90326">
        <ele>307.8</ele>
        <time>2014-06-28T10:24:46.000Z</time>
      </trkpt>
      <trkpt lat="45.59497" lon="5.90319">
        <ele>307.4</ele>
        <time>2014-06-28T10:24:47.000Z</time>
      </trkpt>
      <trkpt lat="45.59491" lon="5.90314">
        <ele>306.8</ele>
        <time>2014-06-28T10:24:48.000Z</time>
      </trkpt>
      <trkpt lat="45.59485" lon="5.9031">
        <ele>306.4</ele>
        <time>2014-06-28T10:24:49.000Z</time>
      </trkpt>
      <trkpt lat="45.59476" lon="5.90297">
        <ele>304.4</ele>
        <time>2014-06-28T10:24:51.000Z</time>
      </trkpt>
      <trkpt lat="45.59474" lon="5.90291">
        <ele>303.8</ele>
        <time>2014-06-28T10:24:52.000Z</time>
      </trkpt>
      <trkpt lat="45.59473" lon="5.90285">
        <ele>303</ele>
        <time>2014-06-28T10:24:53.000Z</time>
      </trkpt>
      <trkpt lat="45.59476" lon="5.90283">
        <ele>302.4</ele>
        <time>2014-06-28T10:24:54.000Z</time>
      </trkpt>
      <trkpt lat="45.5949" lon="5.90277">
        <ele>300.8</ele>
        <time>2014-06-28T10:24:56.000Z</time>
      </trkpt>
      <trkpt lat="45.59512" lon="5.90269">
        <ele>298.6</ele>
        <time>2014-06-28T10:24:59.000Z</time>
      </trkpt>
      <trkpt lat="45.59518" lon="5.90267">
        <ele>298</ele>
        <time>2014-06-28T10:25:00.000Z</time>
      </trkpt>
      <trkpt lat="45.59522" lon="5.90261">
        <ele>297.6</ele>
        <time>2014-06-28T10:25:01.000Z</time>
      </trkpt>
      <trkpt lat="45.59524" lon="5.9025">
        <ele>297.2</ele>
        <time>2014-06-28T10:25:02.000Z</time>
      </trkpt>
      <trkpt lat="45.59524" lon="5.90241">
        <ele>296.8</ele>
        <time>2014-06-28T10:25:03.000Z</time>
      </trkpt>
      <trkpt lat="45.59522" lon="5.90228">
        <ele>296</ele>
        <time>2014-06-28T10:25:05.000Z</time>
      </trkpt>
      <trkpt lat="45.59521" lon="5.90225">
        <ele>295.4</ele>
        <time>2014-06-28T10:25:06.000Z</time>
      </trkpt>
      <trkpt lat="45.59518" lon="5.90222">
        <ele>295</ele>
        <time>2014-06-28T10:25:07.000Z</time>
      </trkpt>
      <trkpt lat="45.59514" lon="5.90218">
        <ele>294.6</ele>
        <time>2014-06-28T10:25:08.000Z</time>
      </trkpt>
      <trkpt lat="45.59505" lon="5.90217">
        <ele>294</ele>
        <time>2014-06-28T10:25:09.000Z</time>
      </trkpt>
      <trkpt lat="45.59489" lon="5.9021">
        <ele>293</ele>
        <time>2014-06-28T10:25:11.000Z</time>
      </trkpt>
      <trkpt lat="45.59464" lon="5.90194">
        <ele>291.4</ele>
        <time>2014-06-28T10:25:14.000Z</time>
      </trkpt>
      <trkpt lat="45.5945" lon="5.90183">
        <ele>289.8</ele>
        <time>2014-06-28T10:25:16.000Z</time>
      </trkpt>
      <trkpt lat="45.59445" lon="5.9018">
        <ele>289.2</ele>
        <time>2014-06-28T10:25:17.000Z</time>
      </trkpt>
      <trkpt lat="45.5944" lon="5.90181">
        <ele>288.4</ele>
        <time>2014-06-28T10:25:18.000Z</time>
      </trkpt>
      <trkpt lat="45.59431" lon="5.90184">
        <ele>287.8</ele>
        <time>2014-06-28T10:25:19.000Z</time>
      </trkpt>
      <trkpt lat="45.59419" lon="5.90191">
        <ele>287</ele>
        <time>2014-06-28T10:25:20.000Z</time>
      </trkpt>
      <trkpt lat="45.59411" lon="5.9019">
        <ele>286.2</ele>
        <time>2014-06-28T10:25:21.000Z</time>
      </trkpt>
      <trkpt lat="45.59403" lon="5.90186">
        <ele>285.4</ele>
        <time>2014-06-28T10:25:22.000Z</time>
      </trkpt>
      <trkpt lat="45.59379" lon="5.90166">
        <ele>283</ele>
        <time>2014-06-28T10:25:25.000Z</time>
      </trkpt>
      <trkpt lat="45.59372" lon="5.90166">
        <ele>282.2</ele>
        <time>2014-06-28T10:25:26.000Z</time>
      </trkpt>
      <trkpt lat="45.59366" lon="5.9017">
        <ele>281.6</ele>
        <time>2014-06-28T10:25:27.000Z</time>
      </trkpt>
      <trkpt lat="45.59348" lon="5.90186">
        <ele>280.6</ele>
        <time>2014-06-28T10:25:29.000Z</time>
      </trkpt>
      <trkpt lat="45.5933" lon="5.90201">
        <ele>279.6</ele>
        <time>2014-06-28T10:25:31.000Z</time>
      </trkpt>
      <trkpt lat="45.59299" lon="5.90217">
        <ele>277.8</ele>
        <time>2014-06-28T10:25:34.000Z</time>
      </trkpt>
      <trkpt lat="45.59294" lon="5.90219">
        <ele>277.2</ele>
        <time>2014-06-28T10:25:35.000Z</time>
      </trkpt>
      <trkpt lat="45.5929" lon="5.90221">
        <ele>276.6</ele>
        <time>2014-06-28T10:25:36.000Z</time>
      </trkpt>
      <trkpt lat="45.59284" lon="5.90225">
        <ele>275.4</ele>
        <time>2014-06-28T10:25:38.000Z</time>
      </trkpt>
      <trkpt lat="45.59281" lon="5.90227">
        <ele>274.8</ele>
        <time>2014-06-28T10:25:39.000Z</time>
      </trkpt>
      <trkpt lat="45.59276" lon="5.90231">
        <ele>274.8</ele>
        <time>2014-06-28T10:25:41.000Z</time>
      </trkpt>
      <trkpt lat="45.59267" lon="5.9023">
        <ele>274.8</ele>
        <time>2014-06-28T10:25:46.000Z</time>
      </trkpt>
      <trkpt lat="45.59261" lon="5.90217">
        <ele>274.8</ele>
        <time>2014-06-28T10:25:50.000Z</time>
      </trkpt>
      <trkpt lat="45.59258" lon="5.90216">
        <ele>274.8</ele>
        <time>2014-06-28T10:25:52.000Z</time>
      </trkpt>
      <trkpt lat="45.5925" lon="5.90217">
        <ele>274.8</ele>
        <time>2014-06-28T10:25:55.000Z</time>
      </trkpt>
      <trkpt lat="45.59237" lon="5.90225">
        <ele>274.8</ele>
        <time>2014-06-28T10:25:58.000Z</time>
      </trkpt>
      <trkpt lat="45.59216" lon="5.90241">
        <ele>274.8</ele>
        <time>2014-06-28T10:26:03.000Z</time>
      </trkpt>
      <trkpt lat="45.59192" lon="5.90269">
        <ele>274.8</ele>
        <time>2014-06-28T10:26:10.000Z</time>
      </trkpt>
      <trkpt lat="45.59031" lon="5.90405">
        <ele>274.8</ele>
        <time>2014-06-28T10:26:49.000Z</time>
      </trkpt>
      <trkpt lat="45.5902" lon="5.90412">
        <ele>274.8</ele>
        <time>2014-06-28T10:26:51.000Z</time>
      </trkpt>
      <trkpt lat="45.5898" lon="5.90445">
        <ele>274.8</ele>
        <time>2014-06-28T10:27:00.000Z</time>
      </trkpt>
      <trkpt lat="45.58917" lon="5.90504">
        <ele>274.8</ele>
        <time>2014-06-28T10:27:15.000Z</time>
      </trkpt>
      <trkpt lat="45.58892" lon="5.90519">
        <ele>274.8</ele>
        <time>2014-06-28T10:27:21.000Z</time>
      </trkpt>
      <trkpt lat="45.58822" lon="5.90585">
        <ele>274.8</ele>
        <time>2014-06-28T10:27:37.000Z</time>
      </trkpt>
      <trkpt lat="45.58792" lon="5.90633">
        <ele>277</ele>
        <time>2014-06-28T10:27:47.000Z</time>
      </trkpt>
      <trkpt lat="45.58785" lon="5.90639">
        <ele>277</ele>
        <time>2014-06-28T10:27:49.000Z</time>
      </trkpt>
      <trkpt lat="45.58755" lon="5.90647">
        <ele>277</ele>
        <time>2014-06-28T10:27:56.000Z</time>
      </trkpt>
      <trkpt lat="45.5872" lon="5.90675">
        <ele>277</ele>
        <time>2014-06-28T10:28:10.000Z</time>
      </trkpt>
      <trkpt lat="45.5868" lon="5.90712">
        <ele>277</ele>
        <time>2014-06-28T10:28:59.000Z</time>
      </trkpt>
      <trkpt lat="45.5867" lon="5.90718">
        <ele>277</ele>
        <time>2014-06-28T10:29:05.000Z</time>
      </trkpt>
      <trkpt lat="45.58668" lon="5.9072">
        <ele>277</ele>
        <time>2014-06-28T10:29:08.000Z</time>
      </trkpt>
      <trkpt lat="45.58667" lon="5.90723">
        <ele>277</ele>
        <time>2014-06-28T10:29:10.000Z</time>
      </trkpt>
      <trkpt lat="45.58668" lon="5.90724">
        <ele>277</ele>
        <time>2014-06-28T10:29:11.000Z</time>
      </trkpt>
      <trkpt lat="45.5867" lon="5.90741">
        <ele>277</ele>
        <time>2014-06-28T10:29:16.000Z</time>
      </trkpt>
      <trkpt lat="45.58658" lon="5.90748">
        <ele>277</ele>
        <time>2014-06-28T10:29:19.000Z</time>
      </trkpt>
      <trkpt lat="45.58635" lon="5.90767">
        <ele>277</ele>
        <time>2014-06-28T10:29:25.000Z</time>
      </trkpt>
      <trkpt lat="45.58632" lon="5.90772">
        <ele>277</ele>
        <time>2014-06-28T10:29:26.000Z</time>
      </trkpt>
      <trkpt lat="45.58624" lon="5.90779">
        <ele>277</ele>
        <time>2014-06-28T10:29:28.000Z</time>
      </trkpt>
      <trkpt lat="45.5862" lon="5.90782">
        <ele>277</ele>
        <time>2014-06-28T10:29:29.000Z</time>
      </trkpt>
      <trkpt lat="45.58167" lon="5.9114">
        <ele>281.2</ele>
        <time>2014-06-28T10:31:13.000Z</time>
      </trkpt>
      <trkpt lat="45.58052" lon="5.91224">
        <ele>281.2</ele>
        <time>2014-06-28T10:31:41.000Z</time>
      </trkpt>
      <trkpt lat="45.58047" lon="5.91229">
        <ele>281.2</ele>
        <time>2014-06-28T10:31:42.000Z</time>
      </trkpt>
      <trkpt lat="45.57996" lon="5.91268">
        <ele>281.2</ele>
        <time>2014-06-28T10:31:54.000Z</time>
      </trkpt>
      <trkpt lat="45.57972" lon="5.91283">
        <ele>281.2</ele>
        <time>2014-06-28T10:32:00.000Z</time>
      </trkpt>
      <trkpt lat="45.57859" lon="5.91371">
        <ele>282.4</ele>
        <time>2014-06-28T10:32:25.000Z</time>
      </trkpt>
      <trkpt lat="45.57839" lon="5.91384">
        <ele>283.2</ele>
        <time>2014-06-28T10:32:29.000Z</time>
      </trkpt>
      <trkpt lat="45.57557" lon="5.91602">
        <ele>283.2</ele>
        <time>2014-06-28T10:33:32.000Z</time>
      </trkpt>
      <trkpt lat="45.57542" lon="5.91619">
        <ele>283.2</ele>
        <time>2014-06-28T10:33:36.000Z</time>
      </trkpt>
      <trkpt lat="45.57518" lon="5.91633">
        <ele>283.2</ele>
        <time>2014-06-28T10:33:41.000Z</time>
      </trkpt>
      <trkpt lat="45.57512" lon="5.91635">
        <ele>283.2</ele>
        <time>2014-06-28T10:33:42.000Z</time>
      </trkpt>
      <trkpt lat="45.57482" lon="5.91652">
        <ele>283.2</ele>
        <time>2014-06-28T10:33:48.000Z</time>
      </trkpt>
      <trkpt lat="45.57417" lon="5.917">
        <ele>283.2</ele>
        <time>2014-06-28T10:34:01.000Z</time>
      </trkpt>
      <trkpt lat="45.57407" lon="5.91706">
        <ele>284</ele>
        <time>2014-06-28T10:34:03.000Z</time>
      </trkpt>
      <trkpt lat="45.57398" lon="5.91712">
        <ele>284.8</ele>
        <time>2014-06-28T10:34:05.000Z</time>
      </trkpt>
      <trkpt lat="45.57382" lon="5.91725">
        <ele>285.2</ele>
        <time>2014-06-28T10:34:09.000Z</time>
      </trkpt>
      <trkpt lat="45.5736" lon="5.91749">
        <ele>285.2</ele>
        <time>2014-06-28T10:34:19.000Z</time>
      </trkpt>
      <trkpt lat="45.57197" lon="5.91863">
        <ele>285.2</ele>
        <time>2014-06-28T10:34:51.000Z</time>
      </trkpt>
      <trkpt lat="45.57119" lon="5.91925">
        <ele>285.2</ele>
        <time>2014-06-28T10:35:13.000Z</time>
      </trkpt>
      <trkpt lat="45.57113" lon="5.91927">
        <ele>285.2</ele>
        <time>2014-06-28T10:35:15.000Z</time>
      </trkpt>
      <trkpt lat="45.5711" lon="5.91925">
        <ele>285.2</ele>
        <time>2014-06-28T10:35:16.000Z</time>
      </trkpt>
      <trkpt lat="45.57104" lon="5.91929">
        <ele>285.2</ele>
        <time>2014-06-28T10:35:19.000Z</time>
      </trkpt>
      <trkpt lat="45.57088" lon="5.91944">
        <ele>285.2</ele>
        <time>2014-06-28T10:35:24.000Z</time>
      </trkpt>
      <trkpt lat="45.57075" lon="5.91952">
        <ele>285.2</ele>
        <time>2014-06-28T10:35:27.000Z</time>
      </trkpt>
      <trkpt lat="45.57065" lon="5.91952">
        <ele>285.6</ele>
        <time>2014-06-28T10:35:29.000Z</time>
      </trkpt>
      <trkpt lat="45.5706" lon="5.9195">
        <ele>286</ele>
        <time>2014-06-28T10:35:30.000Z</time>
      </trkpt>
      <trkpt lat="45.57052" lon="5.91946">
        <ele>286.8</ele>
        <time>2014-06-28T10:35:32.000Z</time>
      </trkpt>
      <trkpt lat="45.57048" lon="5.91945">
        <ele>287.4</ele>
        <time>2014-06-28T10:35:33.000Z</time>
      </trkpt>
      <trkpt lat="45.57045" lon="5.91946">
        <ele>287.4</ele>
        <time>2014-06-28T10:35:34.000Z</time>
      </trkpt>
      <trkpt lat="45.56979" lon="5.91989">
        <ele>287.4</ele>
        <time>2014-06-28T10:35:49.000Z</time>
      </trkpt>
      <trkpt lat="45.56965" lon="5.91993">
        <ele>287.4</ele>
        <time>2014-06-28T10:35:52.000Z</time>
      </trkpt>
      <trkpt lat="45.56945" lon="5.91985">
        <ele>287.4</ele>
        <time>2014-06-28T10:35:58.000Z</time>
      </trkpt>
      <trkpt lat="45.56937" lon="5.91978">
        <ele>287.4</ele>
        <time>2014-06-28T10:36:01.000Z</time>
      </trkpt>
      <trkpt lat="45.56938" lon="5.91974">
        <ele>287.4</ele>
        <time>2014-06-28T10:36:02.000Z</time>
      </trkpt>
      <trkpt lat="45.56937" lon="5.9197">
        <ele>287.4</ele>
        <time>2014-06-28T10:36:08.000Z</time>
      </trkpt>
    </trkseg>
  </trk>
</gpx>